<?xml version="1.0" encoding="UTF-8" standalone="no" ?>
<gpx xmlns="http://www.topografix.com/GPX/1/1" xmlns:xsi="http://www.w3.org/2001/XMLSchema-instance" xsi:schemaLocation="http://www.topografix.com/GPX/1/1 http://www.topografix.com/GPX/1/1/gpx.xsd" version="1.1" creator="VisuGPX - https://www.visugpx.com">
  <metadata>
    <name>WE baie de la somme - jour1</name>
    <desc><![CDATA[WE baie de la somme - jour1
St Valery/Somme - Cayeux - St Valery/Somme]]></desc>
  </metadata>
  <trk>
    <name><![CDATA[WE baie de la somme - jour1_1]]></name>
    <trkseg>
      <trkpt lat="50.17439" lon="1.6384">
        <ele>25</ele>
        <time>2016-09-10T09:21:05Z</time>
      </trkpt>
      <trkpt lat="50.17442" lon="1.63829">
        <ele>26</ele>
        <time>2016-09-10T09:21:09Z</time>
      </trkpt>
      <trkpt lat="50.17447" lon="1.63823">
        <ele>26</ele>
        <time>2016-09-10T09:21:11Z</time>
      </trkpt>
      <trkpt lat="50.17452" lon="1.63828">
        <ele>26</ele>
        <time>2016-09-10T09:21:13Z</time>
      </trkpt>
      <trkpt lat="50.17458" lon="1.63835">
        <ele>25</ele>
        <time>2016-09-10T09:21:15Z</time>
      </trkpt>
      <trkpt lat="50.17463" lon="1.63838">
        <ele>25</ele>
        <time>2016-09-10T09:21:17Z</time>
      </trkpt>
      <trkpt lat="50.17465" lon="1.63825">
        <ele>26</ele>
        <time>2016-09-10T09:21:23Z</time>
      </trkpt>
      <trkpt lat="50.1747" lon="1.63819">
        <ele>26</ele>
        <time>2016-09-10T09:21:25Z</time>
      </trkpt>
      <trkpt lat="50.17476" lon="1.63817">
        <ele>26</ele>
        <time>2016-09-10T09:21:27Z</time>
      </trkpt>
      <trkpt lat="50.17481" lon="1.63811">
        <ele>26</ele>
        <time>2016-09-10T09:21:29Z</time>
      </trkpt>
      <trkpt lat="50.17484" lon="1.63806">
        <ele>27</ele>
        <time>2016-09-10T09:21:31Z</time>
      </trkpt>
      <trkpt lat="50.17489" lon="1.63808">
        <ele>26</ele>
        <time>2016-09-10T09:21:35Z</time>
      </trkpt>
      <trkpt lat="50.17489" lon="1.63815">
        <ele>26</ele>
        <time>2016-09-10T09:22:05Z</time>
      </trkpt>
      <trkpt lat="50.17486" lon="1.63823">
        <ele>26</ele>
        <time>2016-09-10T09:22:53Z</time>
      </trkpt>
      <trkpt lat="50.17481" lon="1.63822">
        <ele>26</ele>
        <time>2016-09-10T09:22:55Z</time>
      </trkpt>
      <trkpt lat="50.17476" lon="1.6382">
        <ele>26</ele>
        <time>2016-09-10T09:22:59Z</time>
      </trkpt>
      <trkpt lat="50.17472" lon="1.63812">
        <ele>26</ele>
        <time>2016-09-10T09:23:05Z</time>
      </trkpt>
      <trkpt lat="50.17469" lon="1.63819">
        <ele>26</ele>
        <time>2016-09-10T09:23:19Z</time>
      </trkpt>
      <trkpt lat="50.17466" lon="1.63827">
        <ele>26</ele>
        <time>2016-09-10T09:23:25Z</time>
      </trkpt>
      <trkpt lat="50.1747" lon="1.63835">
        <ele>25</ele>
        <time>2016-09-10T09:23:31Z</time>
      </trkpt>
      <trkpt lat="50.17476" lon="1.63847">
        <ele>25</ele>
        <time>2016-09-10T09:23:35Z</time>
      </trkpt>
      <trkpt lat="50.17481" lon="1.63855">
        <ele>25</ele>
        <time>2016-09-10T09:23:37Z</time>
      </trkpt>
      <trkpt lat="50.17487" lon="1.63864">
        <ele>25</ele>
        <time>2016-09-10T09:23:39Z</time>
      </trkpt>
      <trkpt lat="50.17494" lon="1.63871">
        <ele>25</ele>
        <time>2016-09-10T09:23:41Z</time>
      </trkpt>
      <trkpt lat="50.17498" lon="1.63876">
        <ele>25</ele>
        <time>2016-09-10T09:23:43Z</time>
      </trkpt>
      <trkpt lat="50.17504" lon="1.63887">
        <ele>26</ele>
        <time>2016-09-10T09:23:47Z</time>
      </trkpt>
      <trkpt lat="50.17506" lon="1.63894">
        <ele>26</ele>
        <time>2016-09-10T09:23:49Z</time>
      </trkpt>
      <trkpt lat="50.17509" lon="1.63904">
        <ele>26</ele>
        <time>2016-09-10T09:23:51Z</time>
      </trkpt>
      <trkpt lat="50.17514" lon="1.63914">
        <ele>26</ele>
        <time>2016-09-10T09:23:53Z</time>
      </trkpt>
      <trkpt lat="50.17522" lon="1.63924">
        <ele>25</ele>
        <time>2016-09-10T09:23:55Z</time>
      </trkpt>
      <trkpt lat="50.1753" lon="1.63933">
        <ele>24</ele>
        <time>2016-09-10T09:23:57Z</time>
      </trkpt>
      <trkpt lat="50.17537" lon="1.63943">
        <ele>24</ele>
        <time>2016-09-10T09:23:59Z</time>
      </trkpt>
      <trkpt lat="50.17545" lon="1.63955">
        <ele>24</ele>
        <time>2016-09-10T09:24:01Z</time>
      </trkpt>
      <trkpt lat="50.17554" lon="1.63967">
        <ele>24</ele>
        <time>2016-09-10T09:24:03Z</time>
      </trkpt>
      <trkpt lat="50.1756" lon="1.63979">
        <ele>23</ele>
        <time>2016-09-10T09:24:05Z</time>
      </trkpt>
      <trkpt lat="50.17568" lon="1.63994">
        <ele>23</ele>
        <time>2016-09-10T09:24:07Z</time>
      </trkpt>
      <trkpt lat="50.17577" lon="1.64006">
        <ele>21</ele>
        <time>2016-09-10T09:24:09Z</time>
      </trkpt>
      <trkpt lat="50.17586" lon="1.6402">
        <ele>21</ele>
        <time>2016-09-10T09:24:11Z</time>
      </trkpt>
      <trkpt lat="50.17594" lon="1.64036">
        <ele>21</ele>
        <time>2016-09-10T09:24:13Z</time>
      </trkpt>
      <trkpt lat="50.17601" lon="1.64053">
        <ele>20</ele>
        <time>2016-09-10T09:24:15Z</time>
      </trkpt>
      <trkpt lat="50.1761" lon="1.64066">
        <ele>20</ele>
        <time>2016-09-10T09:24:17Z</time>
      </trkpt>
      <trkpt lat="50.1762" lon="1.64084">
        <ele>19</ele>
        <time>2016-09-10T09:24:19Z</time>
      </trkpt>
      <trkpt lat="50.17631" lon="1.64102">
        <ele>18</ele>
        <time>2016-09-10T09:24:21Z</time>
      </trkpt>
      <trkpt lat="50.17636" lon="1.64116">
        <ele>18</ele>
        <time>2016-09-10T09:24:23Z</time>
      </trkpt>
      <trkpt lat="50.17649" lon="1.64136">
        <ele>17</ele>
        <time>2016-09-10T09:24:25Z</time>
      </trkpt>
      <trkpt lat="50.17659" lon="1.64154">
        <ele>16</ele>
        <time>2016-09-10T09:24:27Z</time>
      </trkpt>
      <trkpt lat="50.1767" lon="1.64172">
        <ele>14</ele>
        <time>2016-09-10T09:24:29Z</time>
      </trkpt>
      <trkpt lat="50.17679" lon="1.64192">
        <ele>14</ele>
        <time>2016-09-10T09:24:31Z</time>
      </trkpt>
      <trkpt lat="50.1769" lon="1.64213">
        <ele>14</ele>
        <time>2016-09-10T09:24:33Z</time>
      </trkpt>
      <trkpt lat="50.17703" lon="1.64231">
        <ele>14</ele>
        <time>2016-09-10T09:24:35Z</time>
      </trkpt>
      <trkpt lat="50.17714" lon="1.64252">
        <ele>14</ele>
        <time>2016-09-10T09:24:37Z</time>
      </trkpt>
      <trkpt lat="50.17726" lon="1.64272">
        <ele>14</ele>
        <time>2016-09-10T09:24:39Z</time>
      </trkpt>
      <trkpt lat="50.17737" lon="1.64289">
        <ele>13</ele>
        <time>2016-09-10T09:24:41Z</time>
      </trkpt>
      <trkpt lat="50.17751" lon="1.64303">
        <ele>11</ele>
        <time>2016-09-10T09:24:43Z</time>
      </trkpt>
      <trkpt lat="50.17765" lon="1.64314">
        <ele>11</ele>
        <time>2016-09-10T09:24:45Z</time>
      </trkpt>
      <trkpt lat="50.17778" lon="1.64324">
        <ele>10</ele>
        <time>2016-09-10T09:24:47Z</time>
      </trkpt>
      <trkpt lat="50.17791" lon="1.64335">
        <ele>9</ele>
        <time>2016-09-10T09:24:49Z</time>
      </trkpt>
      <trkpt lat="50.17806" lon="1.64342">
        <ele>8</ele>
        <time>2016-09-10T09:24:51Z</time>
      </trkpt>
      <trkpt lat="50.17822" lon="1.64349">
        <ele>8</ele>
        <time>2016-09-10T09:24:53Z</time>
      </trkpt>
      <trkpt lat="50.17836" lon="1.6435">
        <ele>7</ele>
        <time>2016-09-10T09:24:55Z</time>
      </trkpt>
      <trkpt lat="50.1785" lon="1.64356">
        <ele>6</ele>
        <time>2016-09-10T09:24:57Z</time>
      </trkpt>
      <trkpt lat="50.17864" lon="1.64358">
        <ele>6</ele>
        <time>2016-09-10T09:24:59Z</time>
      </trkpt>
      <trkpt lat="50.17877" lon="1.64362">
        <ele>6</ele>
        <time>2016-09-10T09:25:01Z</time>
      </trkpt>
      <trkpt lat="50.17891" lon="1.64365">
        <ele>6</ele>
        <time>2016-09-10T09:25:03Z</time>
      </trkpt>
      <trkpt lat="50.17904" lon="1.64369">
        <ele>6</ele>
        <time>2016-09-10T09:25:05Z</time>
      </trkpt>
      <trkpt lat="50.17914" lon="1.64372">
        <ele>6</ele>
        <time>2016-09-10T09:25:07Z</time>
      </trkpt>
      <trkpt lat="50.17921" lon="1.64373">
        <ele>6</ele>
        <time>2016-09-10T09:25:09Z</time>
      </trkpt>
      <trkpt lat="50.17934" lon="1.64374">
        <ele>6</ele>
        <time>2016-09-10T09:25:13Z</time>
      </trkpt>
      <trkpt lat="50.1795" lon="1.64378">
        <ele>5</ele>
        <time>2016-09-10T09:25:15Z</time>
      </trkpt>
      <trkpt lat="50.17964" lon="1.64385">
        <ele>5</ele>
        <time>2016-09-10T09:25:17Z</time>
      </trkpt>
      <trkpt lat="50.17977" lon="1.64386">
        <ele>5</ele>
        <time>2016-09-10T09:25:19Z</time>
      </trkpt>
      <trkpt lat="50.17992" lon="1.64389">
        <ele>5</ele>
        <time>2016-09-10T09:25:21Z</time>
      </trkpt>
      <trkpt lat="50.18004" lon="1.64392">
        <ele>6</ele>
        <time>2016-09-10T09:25:23Z</time>
      </trkpt>
      <trkpt lat="50.18013" lon="1.64395">
        <ele>6</ele>
        <time>2016-09-10T09:25:25Z</time>
      </trkpt>
      <trkpt lat="50.18022" lon="1.64397">
        <ele>6</ele>
        <time>2016-09-10T09:25:27Z</time>
      </trkpt>
      <trkpt lat="50.1803" lon="1.644">
        <ele>6</ele>
        <time>2016-09-10T09:25:29Z</time>
      </trkpt>
      <trkpt lat="50.18038" lon="1.64402">
        <ele>6</ele>
        <time>2016-09-10T09:25:31Z</time>
      </trkpt>
      <trkpt lat="50.18045" lon="1.64403">
        <ele>6</ele>
        <time>2016-09-10T09:25:33Z</time>
      </trkpt>
      <trkpt lat="50.18052" lon="1.64407">
        <ele>6</ele>
        <time>2016-09-10T09:25:37Z</time>
      </trkpt>
      <trkpt lat="50.18055" lon="1.64416">
        <ele>6</ele>
        <time>2016-09-10T09:25:41Z</time>
      </trkpt>
      <trkpt lat="50.18058" lon="1.64423">
        <ele>4</ele>
        <time>2016-09-10T09:25:43Z</time>
      </trkpt>
      <trkpt lat="50.18065" lon="1.64423">
        <ele>4</ele>
        <time>2016-09-10T09:25:45Z</time>
      </trkpt>
      <trkpt lat="50.18069" lon="1.64428">
        <ele>4</ele>
        <time>2016-09-10T09:25:47Z</time>
      </trkpt>
      <trkpt lat="50.18077" lon="1.64427">
        <ele>5</ele>
        <time>2016-09-10T09:25:49Z</time>
      </trkpt>
      <trkpt lat="50.18084" lon="1.64426">
        <ele>5</ele>
        <time>2016-09-10T09:25:51Z</time>
      </trkpt>
      <trkpt lat="50.18095" lon="1.64423">
        <ele>5</ele>
        <time>2016-09-10T09:25:55Z</time>
      </trkpt>
      <trkpt lat="50.18102" lon="1.64423">
        <ele>5</ele>
        <time>2016-09-10T09:25:57Z</time>
      </trkpt>
      <trkpt lat="50.18109" lon="1.64424">
        <ele>5</ele>
        <time>2016-09-10T09:25:59Z</time>
      </trkpt>
      <trkpt lat="50.18116" lon="1.64423">
        <ele>5</ele>
        <time>2016-09-10T09:26:01Z</time>
      </trkpt>
      <trkpt lat="50.1812" lon="1.64423">
        <ele>5</ele>
        <time>2016-09-10T09:26:03Z</time>
      </trkpt>
      <trkpt lat="50.18126" lon="1.64423">
        <ele>5</ele>
        <time>2016-09-10T09:26:05Z</time>
      </trkpt>
      <trkpt lat="50.18131" lon="1.64423">
        <ele>5</ele>
        <time>2016-09-10T09:26:07Z</time>
      </trkpt>
      <trkpt lat="50.18137" lon="1.64422">
        <ele>5</ele>
        <time>2016-09-10T09:26:11Z</time>
      </trkpt>
      <trkpt lat="50.18143" lon="1.64419">
        <ele>5</ele>
        <time>2016-09-10T09:26:15Z</time>
      </trkpt>
      <trkpt lat="50.18152" lon="1.64417">
        <ele>6</ele>
        <time>2016-09-10T09:26:19Z</time>
      </trkpt>
      <trkpt lat="50.18159" lon="1.64415">
        <ele>8</ele>
        <time>2016-09-10T09:26:21Z</time>
      </trkpt>
      <trkpt lat="50.18165" lon="1.64414">
        <ele>7</ele>
        <time>2016-09-10T09:26:23Z</time>
      </trkpt>
      <trkpt lat="50.18171" lon="1.64413">
        <ele>7</ele>
        <time>2016-09-10T09:26:25Z</time>
      </trkpt>
      <trkpt lat="50.18177" lon="1.64411">
        <ele>8</ele>
        <time>2016-09-10T09:26:27Z</time>
      </trkpt>
      <trkpt lat="50.18182" lon="1.6441">
        <ele>8</ele>
        <time>2016-09-10T09:26:29Z</time>
      </trkpt>
      <trkpt lat="50.1819" lon="1.64408">
        <ele>8</ele>
        <time>2016-09-10T09:26:31Z</time>
      </trkpt>
      <trkpt lat="50.18195" lon="1.64406">
        <ele>8</ele>
        <time>2016-09-10T09:26:33Z</time>
      </trkpt>
      <trkpt lat="50.182" lon="1.64404">
        <ele>8</ele>
        <time>2016-09-10T09:26:35Z</time>
      </trkpt>
      <trkpt lat="50.18206" lon="1.644">
        <ele>8</ele>
        <time>2016-09-10T09:26:37Z</time>
      </trkpt>
      <trkpt lat="50.18212" lon="1.64398">
        <ele>8</ele>
        <time>2016-09-10T09:26:39Z</time>
      </trkpt>
      <trkpt lat="50.18219" lon="1.64396">
        <ele>8</ele>
        <time>2016-09-10T09:26:41Z</time>
      </trkpt>
      <trkpt lat="50.18226" lon="1.64394">
        <ele>8</ele>
        <time>2016-09-10T09:26:43Z</time>
      </trkpt>
      <trkpt lat="50.18234" lon="1.64392">
        <ele>8</ele>
        <time>2016-09-10T09:26:45Z</time>
      </trkpt>
      <trkpt lat="50.18241" lon="1.64392">
        <ele>8</ele>
        <time>2016-09-10T09:26:47Z</time>
      </trkpt>
      <trkpt lat="50.18247" lon="1.64389">
        <ele>8</ele>
        <time>2016-09-10T09:26:49Z</time>
      </trkpt>
      <trkpt lat="50.18254" lon="1.64387">
        <ele>7</ele>
        <time>2016-09-10T09:26:51Z</time>
      </trkpt>
      <trkpt lat="50.1826" lon="1.64384">
        <ele>7</ele>
        <time>2016-09-10T09:26:53Z</time>
      </trkpt>
      <trkpt lat="50.18266" lon="1.64384">
        <ele>7</ele>
        <time>2016-09-10T09:26:55Z</time>
      </trkpt>
      <trkpt lat="50.18273" lon="1.64383">
        <ele>7</ele>
        <time>2016-09-10T09:26:57Z</time>
      </trkpt>
      <trkpt lat="50.18278" lon="1.64384">
        <ele>7</ele>
        <time>2016-09-10T09:26:59Z</time>
      </trkpt>
      <trkpt lat="50.18285" lon="1.64385">
        <ele>7</ele>
        <time>2016-09-10T09:27:01Z</time>
      </trkpt>
      <trkpt lat="50.18295" lon="1.64387">
        <ele>7</ele>
        <time>2016-09-10T09:27:05Z</time>
      </trkpt>
      <trkpt lat="50.183" lon="1.64391">
        <ele>7</ele>
        <time>2016-09-10T09:27:07Z</time>
      </trkpt>
      <trkpt lat="50.18306" lon="1.64391">
        <ele>7</ele>
        <time>2016-09-10T09:27:09Z</time>
      </trkpt>
      <trkpt lat="50.18314" lon="1.64387">
        <ele>7</ele>
        <time>2016-09-10T09:27:13Z</time>
      </trkpt>
      <trkpt lat="50.18319" lon="1.64386">
        <ele>7</ele>
        <time>2016-09-10T09:27:15Z</time>
      </trkpt>
      <trkpt lat="50.18326" lon="1.64381">
        <ele>7</ele>
        <time>2016-09-10T09:27:17Z</time>
      </trkpt>
      <trkpt lat="50.18337" lon="1.64379">
        <ele>8</ele>
        <time>2016-09-10T09:27:21Z</time>
      </trkpt>
      <trkpt lat="50.18342" lon="1.64377">
        <ele>8</ele>
        <time>2016-09-10T09:27:23Z</time>
      </trkpt>
      <trkpt lat="50.18348" lon="1.64377">
        <ele>8</ele>
        <time>2016-09-10T09:27:25Z</time>
      </trkpt>
      <trkpt lat="50.18352" lon="1.64372">
        <ele>8</ele>
        <time>2016-09-10T09:27:29Z</time>
      </trkpt>
      <trkpt lat="50.18362" lon="1.64374">
        <ele>8</ele>
        <time>2016-09-10T09:27:33Z</time>
      </trkpt>
      <trkpt lat="50.18368" lon="1.64374">
        <ele>8</ele>
        <time>2016-09-10T09:27:35Z</time>
      </trkpt>
      <trkpt lat="50.18373" lon="1.64375">
        <ele>8</ele>
        <time>2016-09-10T09:27:37Z</time>
      </trkpt>
      <trkpt lat="50.18378" lon="1.64378">
        <ele>8</ele>
        <time>2016-09-10T09:27:39Z</time>
      </trkpt>
      <trkpt lat="50.18384" lon="1.64379">
        <ele>8</ele>
        <time>2016-09-10T09:27:41Z</time>
      </trkpt>
      <trkpt lat="50.18389" lon="1.64383">
        <ele>8</ele>
        <time>2016-09-10T09:27:43Z</time>
      </trkpt>
      <trkpt lat="50.18396" lon="1.64386">
        <ele>8</ele>
        <time>2016-09-10T09:27:45Z</time>
      </trkpt>
      <trkpt lat="50.18402" lon="1.64389">
        <ele>8</ele>
        <time>2016-09-10T09:27:47Z</time>
      </trkpt>
      <trkpt lat="50.18409" lon="1.6439">
        <ele>8</ele>
        <time>2016-09-10T09:27:49Z</time>
      </trkpt>
      <trkpt lat="50.18416" lon="1.64393">
        <ele>8</ele>
        <time>2016-09-10T09:27:51Z</time>
      </trkpt>
      <trkpt lat="50.18421" lon="1.64394">
        <ele>9</ele>
        <time>2016-09-10T09:27:53Z</time>
      </trkpt>
      <trkpt lat="50.18429" lon="1.64397">
        <ele>9</ele>
        <time>2016-09-10T09:27:55Z</time>
      </trkpt>
      <trkpt lat="50.18434" lon="1.64402">
        <ele>9</ele>
        <time>2016-09-10T09:27:57Z</time>
      </trkpt>
      <trkpt lat="50.18441" lon="1.64402">
        <ele>9</ele>
        <time>2016-09-10T09:27:59Z</time>
      </trkpt>
      <trkpt lat="50.18448" lon="1.64401">
        <ele>9</ele>
        <time>2016-09-10T09:28:01Z</time>
      </trkpt>
      <trkpt lat="50.18453" lon="1.64404">
        <ele>9</ele>
        <time>2016-09-10T09:28:03Z</time>
      </trkpt>
      <trkpt lat="50.1846" lon="1.64405">
        <ele>9</ele>
        <time>2016-09-10T09:28:05Z</time>
      </trkpt>
      <trkpt lat="50.18467" lon="1.64405">
        <ele>9</ele>
        <time>2016-09-10T09:28:07Z</time>
      </trkpt>
      <trkpt lat="50.18473" lon="1.64402">
        <ele>9</ele>
        <time>2016-09-10T09:28:11Z</time>
      </trkpt>
      <trkpt lat="50.18478" lon="1.64396">
        <ele>9</ele>
        <time>2016-09-10T09:28:17Z</time>
      </trkpt>
      <trkpt lat="50.18482" lon="1.64393">
        <ele>9</ele>
        <time>2016-09-10T09:28:19Z</time>
      </trkpt>
      <trkpt lat="50.18487" lon="1.64388">
        <ele>9</ele>
        <time>2016-09-10T09:28:21Z</time>
      </trkpt>
      <trkpt lat="50.18492" lon="1.64387">
        <ele>9</ele>
        <time>2016-09-10T09:28:23Z</time>
      </trkpt>
      <trkpt lat="50.18499" lon="1.64384">
        <ele>10</ele>
        <time>2016-09-10T09:28:25Z</time>
      </trkpt>
      <trkpt lat="50.18506" lon="1.64382">
        <ele>8</ele>
        <time>2016-09-10T09:28:27Z</time>
      </trkpt>
      <trkpt lat="50.18511" lon="1.64378">
        <ele>8</ele>
        <time>2016-09-10T09:28:29Z</time>
      </trkpt>
      <trkpt lat="50.18516" lon="1.64374">
        <ele>8</ele>
        <time>2016-09-10T09:28:31Z</time>
      </trkpt>
      <trkpt lat="50.18522" lon="1.64369">
        <ele>8</ele>
        <time>2016-09-10T09:28:33Z</time>
      </trkpt>
      <trkpt lat="50.18527" lon="1.64363">
        <ele>8</ele>
        <time>2016-09-10T09:28:35Z</time>
      </trkpt>
      <trkpt lat="50.18532" lon="1.64356">
        <ele>8</ele>
        <time>2016-09-10T09:28:37Z</time>
      </trkpt>
      <trkpt lat="50.18536" lon="1.6435">
        <ele>8</ele>
        <time>2016-09-10T09:28:39Z</time>
      </trkpt>
      <trkpt lat="50.1854" lon="1.64345">
        <ele>7</ele>
        <time>2016-09-10T09:28:41Z</time>
      </trkpt>
      <trkpt lat="50.18544" lon="1.64338">
        <ele>7</ele>
        <time>2016-09-10T09:28:43Z</time>
      </trkpt>
      <trkpt lat="50.18547" lon="1.64332">
        <ele>8</ele>
        <time>2016-09-10T09:28:45Z</time>
      </trkpt>
      <trkpt lat="50.1855" lon="1.64322">
        <ele>8</ele>
        <time>2016-09-10T09:28:49Z</time>
      </trkpt>
      <trkpt lat="50.18554" lon="1.64315">
        <ele>8</ele>
        <time>2016-09-10T09:28:57Z</time>
      </trkpt>
      <trkpt lat="50.18557" lon="1.64309">
        <ele>8</ele>
        <time>2016-09-10T09:28:59Z</time>
      </trkpt>
      <trkpt lat="50.18561" lon="1.64302">
        <ele>8</ele>
        <time>2016-09-10T09:29:01Z</time>
      </trkpt>
      <trkpt lat="50.18565" lon="1.64293">
        <ele>8</ele>
        <time>2016-09-10T09:29:03Z</time>
      </trkpt>
      <trkpt lat="50.18569" lon="1.64285">
        <ele>8</ele>
        <time>2016-09-10T09:29:05Z</time>
      </trkpt>
      <trkpt lat="50.18572" lon="1.64275">
        <ele>8</ele>
        <time>2016-09-10T09:29:07Z</time>
      </trkpt>
      <trkpt lat="50.18574" lon="1.64265">
        <ele>8</ele>
        <time>2016-09-10T09:29:09Z</time>
      </trkpt>
      <trkpt lat="50.18576" lon="1.64255">
        <ele>8</ele>
        <time>2016-09-10T09:29:11Z</time>
      </trkpt>
      <trkpt lat="50.18579" lon="1.64245">
        <ele>8</ele>
        <time>2016-09-10T09:29:13Z</time>
      </trkpt>
      <trkpt lat="50.18581" lon="1.64234">
        <ele>9</ele>
        <time>2016-09-10T09:29:15Z</time>
      </trkpt>
      <trkpt lat="50.18585" lon="1.64225">
        <ele>8</ele>
        <time>2016-09-10T09:29:17Z</time>
      </trkpt>
      <trkpt lat="50.18589" lon="1.64215">
        <ele>8</ele>
        <time>2016-09-10T09:29:19Z</time>
      </trkpt>
      <trkpt lat="50.18592" lon="1.64205">
        <ele>8</ele>
        <time>2016-09-10T09:29:21Z</time>
      </trkpt>
      <trkpt lat="50.18594" lon="1.64195">
        <ele>8</ele>
        <time>2016-09-10T09:29:23Z</time>
      </trkpt>
      <trkpt lat="50.18596" lon="1.64184">
        <ele>9</ele>
        <time>2016-09-10T09:29:25Z</time>
      </trkpt>
      <trkpt lat="50.18598" lon="1.64174">
        <ele>9</ele>
        <time>2016-09-10T09:29:27Z</time>
      </trkpt>
      <trkpt lat="50.18599" lon="1.64164">
        <ele>9</ele>
        <time>2016-09-10T09:29:29Z</time>
      </trkpt>
      <trkpt lat="50.18601" lon="1.64154">
        <ele>9</ele>
        <time>2016-09-10T09:29:31Z</time>
      </trkpt>
      <trkpt lat="50.18603" lon="1.64145">
        <ele>8</ele>
        <time>2016-09-10T09:29:33Z</time>
      </trkpt>
      <trkpt lat="50.18605" lon="1.64136">
        <ele>8</ele>
        <time>2016-09-10T09:29:35Z</time>
      </trkpt>
      <trkpt lat="50.18607" lon="1.64126">
        <ele>8</ele>
        <time>2016-09-10T09:29:37Z</time>
      </trkpt>
      <trkpt lat="50.18609" lon="1.64116">
        <ele>8</ele>
        <time>2016-09-10T09:29:39Z</time>
      </trkpt>
      <trkpt lat="50.18612" lon="1.64106">
        <ele>8</ele>
        <time>2016-09-10T09:29:41Z</time>
      </trkpt>
      <trkpt lat="50.18615" lon="1.64097">
        <ele>8</ele>
        <time>2016-09-10T09:29:43Z</time>
      </trkpt>
      <trkpt lat="50.18617" lon="1.64087">
        <ele>8</ele>
        <time>2016-09-10T09:29:45Z</time>
      </trkpt>
      <trkpt lat="50.1862" lon="1.64077">
        <ele>8</ele>
        <time>2016-09-10T09:29:47Z</time>
      </trkpt>
      <trkpt lat="50.18624" lon="1.64068">
        <ele>8</ele>
        <time>2016-09-10T09:29:49Z</time>
      </trkpt>
      <trkpt lat="50.18626" lon="1.64058">
        <ele>8</ele>
        <time>2016-09-10T09:29:51Z</time>
      </trkpt>
      <trkpt lat="50.18629" lon="1.64048">
        <ele>8</ele>
        <time>2016-09-10T09:29:53Z</time>
      </trkpt>
      <trkpt lat="50.18632" lon="1.64038">
        <ele>8</ele>
        <time>2016-09-10T09:29:55Z</time>
      </trkpt>
      <trkpt lat="50.18633" lon="1.64029">
        <ele>8</ele>
        <time>2016-09-10T09:29:57Z</time>
      </trkpt>
      <trkpt lat="50.18635" lon="1.64019">
        <ele>8</ele>
        <time>2016-09-10T09:29:59Z</time>
      </trkpt>
      <trkpt lat="50.18637" lon="1.6401">
        <ele>8</ele>
        <time>2016-09-10T09:30:01Z</time>
      </trkpt>
      <trkpt lat="50.18638" lon="1.64002">
        <ele>7</ele>
        <time>2016-09-10T09:30:03Z</time>
      </trkpt>
      <trkpt lat="50.1864" lon="1.63995">
        <ele>9</ele>
        <time>2016-09-10T09:30:05Z</time>
      </trkpt>
      <trkpt lat="50.18641" lon="1.63987">
        <ele>9</ele>
        <time>2016-09-10T09:30:07Z</time>
      </trkpt>
      <trkpt lat="50.18643" lon="1.63979">
        <ele>9</ele>
        <time>2016-09-10T09:30:09Z</time>
      </trkpt>
      <trkpt lat="50.18644" lon="1.63972">
        <ele>9</ele>
        <time>2016-09-10T09:30:11Z</time>
      </trkpt>
      <trkpt lat="50.18645" lon="1.63965">
        <ele>9</ele>
        <time>2016-09-10T09:30:13Z</time>
      </trkpt>
      <trkpt lat="50.18647" lon="1.63958">
        <ele>9</ele>
        <time>2016-09-10T09:30:15Z</time>
      </trkpt>
      <trkpt lat="50.18648" lon="1.63951">
        <ele>9</ele>
        <time>2016-09-10T09:30:17Z</time>
      </trkpt>
      <trkpt lat="50.1865" lon="1.63943">
        <ele>9</ele>
        <time>2016-09-10T09:30:19Z</time>
      </trkpt>
      <trkpt lat="50.18652" lon="1.63936">
        <ele>9</ele>
        <time>2016-09-10T09:30:21Z</time>
      </trkpt>
      <trkpt lat="50.18654" lon="1.63928">
        <ele>8</ele>
        <time>2016-09-10T09:30:23Z</time>
      </trkpt>
      <trkpt lat="50.18656" lon="1.63921">
        <ele>7</ele>
        <time>2016-09-10T09:30:25Z</time>
      </trkpt>
      <trkpt lat="50.18658" lon="1.63913">
        <ele>8</ele>
        <time>2016-09-10T09:30:27Z</time>
      </trkpt>
      <trkpt lat="50.1866" lon="1.63905">
        <ele>8</ele>
        <time>2016-09-10T09:30:29Z</time>
      </trkpt>
      <trkpt lat="50.18663" lon="1.63897">
        <ele>9</ele>
        <time>2016-09-10T09:30:31Z</time>
      </trkpt>
      <trkpt lat="50.18665" lon="1.63889">
        <ele>10</ele>
        <time>2016-09-10T09:30:33Z</time>
      </trkpt>
      <trkpt lat="50.18668" lon="1.63881">
        <ele>5</ele>
        <time>2016-09-10T09:30:35Z</time>
      </trkpt>
      <trkpt lat="50.1867" lon="1.63873">
        <ele>6</ele>
        <time>2016-09-10T09:30:37Z</time>
      </trkpt>
      <trkpt lat="50.18673" lon="1.63865">
        <ele>6</ele>
        <time>2016-09-10T09:30:39Z</time>
      </trkpt>
      <trkpt lat="50.18675" lon="1.63857">
        <ele>6</ele>
        <time>2016-09-10T09:30:41Z</time>
      </trkpt>
      <trkpt lat="50.18678" lon="1.6385">
        <ele>6</ele>
        <time>2016-09-10T09:30:43Z</time>
      </trkpt>
      <trkpt lat="50.18682" lon="1.63842">
        <ele>6</ele>
        <time>2016-09-10T09:30:45Z</time>
      </trkpt>
      <trkpt lat="50.18684" lon="1.63833">
        <ele>6</ele>
        <time>2016-09-10T09:30:47Z</time>
      </trkpt>
      <trkpt lat="50.18685" lon="1.63825">
        <ele>5</ele>
        <time>2016-09-10T09:30:49Z</time>
      </trkpt>
      <trkpt lat="50.18686" lon="1.63818">
        <ele>5</ele>
        <time>2016-09-10T09:30:51Z</time>
      </trkpt>
      <trkpt lat="50.18691" lon="1.63807">
        <ele>5</ele>
        <time>2016-09-10T09:30:55Z</time>
      </trkpt>
      <trkpt lat="50.18695" lon="1.63796">
        <ele>5</ele>
        <time>2016-09-10T09:30:59Z</time>
      </trkpt>
      <trkpt lat="50.18697" lon="1.63784">
        <ele>5</ele>
        <time>2016-09-10T09:31:03Z</time>
      </trkpt>
      <trkpt lat="50.18701" lon="1.63772">
        <ele>5</ele>
        <time>2016-09-10T09:31:07Z</time>
      </trkpt>
      <trkpt lat="50.18704" lon="1.63765">
        <ele>5</ele>
        <time>2016-09-10T09:31:09Z</time>
      </trkpt>
      <trkpt lat="50.18706" lon="1.63758">
        <ele>5</ele>
        <time>2016-09-10T09:31:11Z</time>
      </trkpt>
      <trkpt lat="50.18709" lon="1.63751">
        <ele>4</ele>
        <time>2016-09-10T09:31:13Z</time>
      </trkpt>
      <trkpt lat="50.18712" lon="1.63743">
        <ele>4</ele>
        <time>2016-09-10T09:31:15Z</time>
      </trkpt>
      <trkpt lat="50.18715" lon="1.63735">
        <ele>4</ele>
        <time>2016-09-10T09:31:17Z</time>
      </trkpt>
      <trkpt lat="50.18718" lon="1.63726">
        <ele>4</ele>
        <time>2016-09-10T09:31:19Z</time>
      </trkpt>
      <trkpt lat="50.1872" lon="1.63717">
        <ele>4</ele>
        <time>2016-09-10T09:31:21Z</time>
      </trkpt>
      <trkpt lat="50.18723" lon="1.63708">
        <ele>4</ele>
        <time>2016-09-10T09:31:23Z</time>
      </trkpt>
      <trkpt lat="50.18725" lon="1.63699">
        <ele>4</ele>
        <time>2016-09-10T09:31:25Z</time>
      </trkpt>
      <trkpt lat="50.18728" lon="1.63691">
        <ele>3</ele>
        <time>2016-09-10T09:31:27Z</time>
      </trkpt>
      <trkpt lat="50.18731" lon="1.63683">
        <ele>3</ele>
        <time>2016-09-10T09:31:29Z</time>
      </trkpt>
      <trkpt lat="50.18734" lon="1.63675">
        <ele>3</ele>
        <time>2016-09-10T09:31:31Z</time>
      </trkpt>
      <trkpt lat="50.18737" lon="1.63667">
        <ele>2</ele>
        <time>2016-09-10T09:31:33Z</time>
      </trkpt>
      <trkpt lat="50.1874" lon="1.6366">
        <ele>3</ele>
        <time>2016-09-10T09:31:35Z</time>
      </trkpt>
      <trkpt lat="50.18743" lon="1.63652">
        <ele>3</ele>
        <time>2016-09-10T09:31:37Z</time>
      </trkpt>
      <trkpt lat="50.18745" lon="1.63643">
        <ele>4</ele>
        <time>2016-09-10T09:31:39Z</time>
      </trkpt>
      <trkpt lat="50.18748" lon="1.63634">
        <ele>4</ele>
        <time>2016-09-10T09:31:41Z</time>
      </trkpt>
      <trkpt lat="50.18749" lon="1.63626">
        <ele>5</ele>
        <time>2016-09-10T09:31:43Z</time>
      </trkpt>
      <trkpt lat="50.1875" lon="1.63619">
        <ele>2</ele>
        <time>2016-09-10T09:31:45Z</time>
      </trkpt>
      <trkpt lat="50.18752" lon="1.63605">
        <ele>2</ele>
        <time>2016-09-10T09:31:49Z</time>
      </trkpt>
      <trkpt lat="50.18753" lon="1.63598">
        <ele>3</ele>
        <time>2016-09-10T09:31:51Z</time>
      </trkpt>
      <trkpt lat="50.18755" lon="1.63588">
        <ele>3</ele>
        <time>2016-09-10T09:31:55Z</time>
      </trkpt>
      <trkpt lat="50.18759" lon="1.63581">
        <ele>3</ele>
        <time>2016-09-10T09:31:59Z</time>
      </trkpt>
      <trkpt lat="50.18762" lon="1.63569">
        <ele>3</ele>
        <time>2016-09-10T09:32:03Z</time>
      </trkpt>
      <trkpt lat="50.18763" lon="1.63561">
        <ele>3</ele>
        <time>2016-09-10T09:32:05Z</time>
      </trkpt>
      <trkpt lat="50.18765" lon="1.63553">
        <ele>3</ele>
        <time>2016-09-10T09:32:07Z</time>
      </trkpt>
      <trkpt lat="50.18768" lon="1.63541">
        <ele>4</ele>
        <time>2016-09-10T09:32:11Z</time>
      </trkpt>
      <trkpt lat="50.1877" lon="1.63535">
        <ele>4</ele>
        <time>2016-09-10T09:32:15Z</time>
      </trkpt>
      <trkpt lat="50.18773" lon="1.63529">
        <ele>4</ele>
        <time>2016-09-10T09:32:19Z</time>
      </trkpt>
      <trkpt lat="50.18776" lon="1.63518">
        <ele>4</ele>
        <time>2016-09-10T09:32:23Z</time>
      </trkpt>
      <trkpt lat="50.18778" lon="1.6351">
        <ele>4</ele>
        <time>2016-09-10T09:32:25Z</time>
      </trkpt>
      <trkpt lat="50.18781" lon="1.63502">
        <ele>4</ele>
        <time>2016-09-10T09:32:27Z</time>
      </trkpt>
      <trkpt lat="50.18785" lon="1.63495">
        <ele>4</ele>
        <time>2016-09-10T09:32:29Z</time>
      </trkpt>
      <trkpt lat="50.18787" lon="1.63487">
        <ele>4</ele>
        <time>2016-09-10T09:32:31Z</time>
      </trkpt>
      <trkpt lat="50.1879" lon="1.63479">
        <ele>4</ele>
        <time>2016-09-10T09:32:33Z</time>
      </trkpt>
      <trkpt lat="50.18793" lon="1.63473">
        <ele>4</ele>
        <time>2016-09-10T09:32:35Z</time>
      </trkpt>
      <trkpt lat="50.18796" lon="1.63466">
        <ele>4</ele>
        <time>2016-09-10T09:32:37Z</time>
      </trkpt>
      <trkpt lat="50.18798" lon="1.63459">
        <ele>4</ele>
        <time>2016-09-10T09:32:39Z</time>
      </trkpt>
      <trkpt lat="50.18801" lon="1.63453">
        <ele>4</ele>
        <time>2016-09-10T09:32:41Z</time>
      </trkpt>
      <trkpt lat="50.18804" lon="1.63446">
        <ele>4</ele>
        <time>2016-09-10T09:32:43Z</time>
      </trkpt>
      <trkpt lat="50.18806" lon="1.6344">
        <ele>4</ele>
        <time>2016-09-10T09:32:45Z</time>
      </trkpt>
      <trkpt lat="50.18809" lon="1.63432">
        <ele>3</ele>
        <time>2016-09-10T09:32:47Z</time>
      </trkpt>
      <trkpt lat="50.18812" lon="1.63425">
        <ele>3</ele>
        <time>2016-09-10T09:32:49Z</time>
      </trkpt>
      <trkpt lat="50.18814" lon="1.63418">
        <ele>3</ele>
        <time>2016-09-10T09:32:51Z</time>
      </trkpt>
      <trkpt lat="50.18817" lon="1.63409">
        <ele>3</ele>
        <time>2016-09-10T09:32:53Z</time>
      </trkpt>
      <trkpt lat="50.18819" lon="1.63401">
        <ele>4</ele>
        <time>2016-09-10T09:32:55Z</time>
      </trkpt>
      <trkpt lat="50.18821" lon="1.63391">
        <ele>4</ele>
        <time>2016-09-10T09:32:57Z</time>
      </trkpt>
      <trkpt lat="50.18823" lon="1.63382">
        <ele>4</ele>
        <time>2016-09-10T09:32:59Z</time>
      </trkpt>
      <trkpt lat="50.18825" lon="1.63373">
        <ele>4</ele>
        <time>2016-09-10T09:33:01Z</time>
      </trkpt>
      <trkpt lat="50.18828" lon="1.63364">
        <ele>4</ele>
        <time>2016-09-10T09:33:03Z</time>
      </trkpt>
      <trkpt lat="50.18831" lon="1.63355">
        <ele>4</ele>
        <time>2016-09-10T09:33:05Z</time>
      </trkpt>
      <trkpt lat="50.18833" lon="1.63346">
        <ele>4</ele>
        <time>2016-09-10T09:33:07Z</time>
      </trkpt>
      <trkpt lat="50.18835" lon="1.63336">
        <ele>4</ele>
        <time>2016-09-10T09:33:09Z</time>
      </trkpt>
      <trkpt lat="50.18837" lon="1.63327">
        <ele>4</ele>
        <time>2016-09-10T09:33:11Z</time>
      </trkpt>
      <trkpt lat="50.18839" lon="1.63318">
        <ele>4</ele>
        <time>2016-09-10T09:33:13Z</time>
      </trkpt>
      <trkpt lat="50.18841" lon="1.63309">
        <ele>4</ele>
        <time>2016-09-10T09:33:15Z</time>
      </trkpt>
      <trkpt lat="50.18844" lon="1.63301">
        <ele>5</ele>
        <time>2016-09-10T09:33:17Z</time>
      </trkpt>
      <trkpt lat="50.18847" lon="1.63294">
        <ele>5</ele>
        <time>2016-09-10T09:33:19Z</time>
      </trkpt>
      <trkpt lat="50.1885" lon="1.63286">
        <ele>5</ele>
        <time>2016-09-10T09:33:21Z</time>
      </trkpt>
      <trkpt lat="50.18852" lon="1.63279">
        <ele>5</ele>
        <time>2016-09-10T09:33:23Z</time>
      </trkpt>
      <trkpt lat="50.18853" lon="1.63271">
        <ele>5</ele>
        <time>2016-09-10T09:33:25Z</time>
      </trkpt>
      <trkpt lat="50.18856" lon="1.63263">
        <ele>5</ele>
        <time>2016-09-10T09:33:27Z</time>
      </trkpt>
      <trkpt lat="50.18858" lon="1.63256">
        <ele>5</ele>
        <time>2016-09-10T09:33:29Z</time>
      </trkpt>
      <trkpt lat="50.18861" lon="1.63249">
        <ele>6</ele>
        <time>2016-09-10T09:33:31Z</time>
      </trkpt>
      <trkpt lat="50.18863" lon="1.63241">
        <ele>6</ele>
        <time>2016-09-10T09:33:33Z</time>
      </trkpt>
      <trkpt lat="50.18864" lon="1.63233">
        <ele>5</ele>
        <time>2016-09-10T09:33:35Z</time>
      </trkpt>
      <trkpt lat="50.18866" lon="1.63225">
        <ele>5</ele>
        <time>2016-09-10T09:33:37Z</time>
      </trkpt>
      <trkpt lat="50.18868" lon="1.63217">
        <ele>5</ele>
        <time>2016-09-10T09:33:39Z</time>
      </trkpt>
      <trkpt lat="50.18871" lon="1.63209">
        <ele>5</ele>
        <time>2016-09-10T09:33:41Z</time>
      </trkpt>
      <trkpt lat="50.18874" lon="1.63202">
        <ele>5</ele>
        <time>2016-09-10T09:33:43Z</time>
      </trkpt>
      <trkpt lat="50.18877" lon="1.63194">
        <ele>5</ele>
        <time>2016-09-10T09:33:45Z</time>
      </trkpt>
      <trkpt lat="50.18879" lon="1.63187">
        <ele>5</ele>
        <time>2016-09-10T09:33:47Z</time>
      </trkpt>
      <trkpt lat="50.18881" lon="1.63179">
        <ele>5</ele>
        <time>2016-09-10T09:33:49Z</time>
      </trkpt>
      <trkpt lat="50.18884" lon="1.63172">
        <ele>5</ele>
        <time>2016-09-10T09:33:51Z</time>
      </trkpt>
      <trkpt lat="50.18887" lon="1.63165">
        <ele>7</ele>
        <time>2016-09-10T09:33:53Z</time>
      </trkpt>
      <trkpt lat="50.1889" lon="1.63157">
        <ele>6</ele>
        <time>2016-09-10T09:33:55Z</time>
      </trkpt>
      <trkpt lat="50.18893" lon="1.6315">
        <ele>6</ele>
        <time>2016-09-10T09:33:57Z</time>
      </trkpt>
      <trkpt lat="50.18896" lon="1.63142">
        <ele>7</ele>
        <time>2016-09-10T09:33:59Z</time>
      </trkpt>
      <trkpt lat="50.18898" lon="1.63134">
        <ele>7</ele>
        <time>2016-09-10T09:34:01Z</time>
      </trkpt>
      <trkpt lat="50.189" lon="1.63125">
        <ele>7</ele>
        <time>2016-09-10T09:34:03Z</time>
      </trkpt>
      <trkpt lat="50.18903" lon="1.63118">
        <ele>7</ele>
        <time>2016-09-10T09:34:05Z</time>
      </trkpt>
      <trkpt lat="50.18907" lon="1.63112">
        <ele>7</ele>
        <time>2016-09-10T09:34:07Z</time>
      </trkpt>
      <trkpt lat="50.1891" lon="1.63104">
        <ele>7</ele>
        <time>2016-09-10T09:34:09Z</time>
      </trkpt>
      <trkpt lat="50.18912" lon="1.63096">
        <ele>7</ele>
        <time>2016-09-10T09:34:11Z</time>
      </trkpt>
      <trkpt lat="50.18915" lon="1.63088">
        <ele>6</ele>
        <time>2016-09-10T09:34:13Z</time>
      </trkpt>
      <trkpt lat="50.18916" lon="1.63079">
        <ele>7</ele>
        <time>2016-09-10T09:34:15Z</time>
      </trkpt>
      <trkpt lat="50.18917" lon="1.6307">
        <ele>6</ele>
        <time>2016-09-10T09:34:17Z</time>
      </trkpt>
      <trkpt lat="50.18918" lon="1.63061">
        <ele>7</ele>
        <time>2016-09-10T09:34:19Z</time>
      </trkpt>
      <trkpt lat="50.18919" lon="1.63052">
        <ele>7</ele>
        <time>2016-09-10T09:34:21Z</time>
      </trkpt>
      <trkpt lat="50.18922" lon="1.63044">
        <ele>7</ele>
        <time>2016-09-10T09:34:23Z</time>
      </trkpt>
      <trkpt lat="50.18925" lon="1.63036">
        <ele>8</ele>
        <time>2016-09-10T09:34:25Z</time>
      </trkpt>
      <trkpt lat="50.18928" lon="1.6303">
        <ele>8</ele>
        <time>2016-09-10T09:34:27Z</time>
      </trkpt>
      <trkpt lat="50.18931" lon="1.63022">
        <ele>8</ele>
        <time>2016-09-10T09:34:29Z</time>
      </trkpt>
      <trkpt lat="50.18934" lon="1.63014">
        <ele>8</ele>
        <time>2016-09-10T09:34:31Z</time>
      </trkpt>
      <trkpt lat="50.18936" lon="1.63006">
        <ele>8</ele>
        <time>2016-09-10T09:34:33Z</time>
      </trkpt>
      <trkpt lat="50.18938" lon="1.62998">
        <ele>8</ele>
        <time>2016-09-10T09:34:35Z</time>
      </trkpt>
      <trkpt lat="50.1894" lon="1.6299">
        <ele>8</ele>
        <time>2016-09-10T09:34:37Z</time>
      </trkpt>
      <trkpt lat="50.18942" lon="1.62981">
        <ele>8</ele>
        <time>2016-09-10T09:34:39Z</time>
      </trkpt>
      <trkpt lat="50.18944" lon="1.62973">
        <ele>8</ele>
        <time>2016-09-10T09:34:41Z</time>
      </trkpt>
      <trkpt lat="50.18947" lon="1.62964">
        <ele>8</ele>
        <time>2016-09-10T09:34:43Z</time>
      </trkpt>
      <trkpt lat="50.18949" lon="1.62955">
        <ele>8</ele>
        <time>2016-09-10T09:34:45Z</time>
      </trkpt>
      <trkpt lat="50.18952" lon="1.62946">
        <ele>8</ele>
        <time>2016-09-10T09:34:47Z</time>
      </trkpt>
      <trkpt lat="50.18954" lon="1.62937">
        <ele>7</ele>
        <time>2016-09-10T09:34:49Z</time>
      </trkpt>
      <trkpt lat="50.18957" lon="1.62928">
        <ele>7</ele>
        <time>2016-09-10T09:34:51Z</time>
      </trkpt>
      <trkpt lat="50.18959" lon="1.62919">
        <ele>7</ele>
        <time>2016-09-10T09:34:53Z</time>
      </trkpt>
      <trkpt lat="50.18962" lon="1.6291">
        <ele>7</ele>
        <time>2016-09-10T09:34:55Z</time>
      </trkpt>
      <trkpt lat="50.18965" lon="1.62901">
        <ele>6</ele>
        <time>2016-09-10T09:34:57Z</time>
      </trkpt>
      <trkpt lat="50.18968" lon="1.62893">
        <ele>6</ele>
        <time>2016-09-10T09:34:59Z</time>
      </trkpt>
      <trkpt lat="50.18971" lon="1.62884">
        <ele>6</ele>
        <time>2016-09-10T09:35:01Z</time>
      </trkpt>
      <trkpt lat="50.18974" lon="1.62875">
        <ele>6</ele>
        <time>2016-09-10T09:35:03Z</time>
      </trkpt>
      <trkpt lat="50.18977" lon="1.62867">
        <ele>6</ele>
        <time>2016-09-10T09:35:05Z</time>
      </trkpt>
      <trkpt lat="50.18979" lon="1.62858">
        <ele>6</ele>
        <time>2016-09-10T09:35:07Z</time>
      </trkpt>
      <trkpt lat="50.18982" lon="1.62849">
        <ele>5</ele>
        <time>2016-09-10T09:35:09Z</time>
      </trkpt>
      <trkpt lat="50.18985" lon="1.6284">
        <ele>4</ele>
        <time>2016-09-10T09:35:11Z</time>
      </trkpt>
      <trkpt lat="50.18988" lon="1.62832">
        <ele>4</ele>
        <time>2016-09-10T09:35:13Z</time>
      </trkpt>
      <trkpt lat="50.18991" lon="1.62823">
        <ele>4</ele>
        <time>2016-09-10T09:35:15Z</time>
      </trkpt>
      <trkpt lat="50.18993" lon="1.62814">
        <ele>5</ele>
        <time>2016-09-10T09:35:17Z</time>
      </trkpt>
      <trkpt lat="50.18996" lon="1.62806">
        <ele>6</ele>
        <time>2016-09-10T09:35:19Z</time>
      </trkpt>
      <trkpt lat="50.18998" lon="1.62798">
        <ele>6</ele>
        <time>2016-09-10T09:35:21Z</time>
      </trkpt>
      <trkpt lat="50.19001" lon="1.6279">
        <ele>3</ele>
        <time>2016-09-10T09:35:23Z</time>
      </trkpt>
      <trkpt lat="50.19003" lon="1.62781">
        <ele>3</ele>
        <time>2016-09-10T09:35:25Z</time>
      </trkpt>
      <trkpt lat="50.19005" lon="1.62773">
        <ele>3</ele>
        <time>2016-09-10T09:35:27Z</time>
      </trkpt>
      <trkpt lat="50.19007" lon="1.62765">
        <ele>3</ele>
        <time>2016-09-10T09:35:29Z</time>
      </trkpt>
      <trkpt lat="50.1901" lon="1.62757">
        <ele>4</ele>
        <time>2016-09-10T09:35:31Z</time>
      </trkpt>
      <trkpt lat="50.19013" lon="1.62749">
        <ele>4</ele>
        <time>2016-09-10T09:35:33Z</time>
      </trkpt>
      <trkpt lat="50.19015" lon="1.62741">
        <ele>4</ele>
        <time>2016-09-10T09:35:35Z</time>
      </trkpt>
      <trkpt lat="50.19015" lon="1.62732">
        <ele>5</ele>
        <time>2016-09-10T09:35:37Z</time>
      </trkpt>
      <trkpt lat="50.19014" lon="1.62724">
        <ele>5</ele>
        <time>2016-09-10T09:35:39Z</time>
      </trkpt>
      <trkpt lat="50.19013" lon="1.62717">
        <ele>5</ele>
        <time>2016-09-10T09:35:41Z</time>
      </trkpt>
      <trkpt lat="50.19012" lon="1.62709">
        <ele>5</ele>
        <time>2016-09-10T09:35:45Z</time>
      </trkpt>
      <trkpt lat="50.19009" lon="1.62703">
        <ele>5</ele>
        <time>2016-09-10T09:35:49Z</time>
      </trkpt>
      <trkpt lat="50.19005" lon="1.62707">
        <ele>5</ele>
        <time>2016-09-10T09:36:29Z</time>
      </trkpt>
      <trkpt lat="50.1901" lon="1.62709">
        <ele>5</ele>
        <time>2016-09-10T09:45:27Z</time>
      </trkpt>
      <trkpt lat="50.19014" lon="1.62706">
        <ele>5</ele>
        <time>2016-09-10T09:45:39Z</time>
      </trkpt>
      <trkpt lat="50.1901" lon="1.62699">
        <ele>5</ele>
        <time>2016-09-10T09:45:43Z</time>
      </trkpt>
      <trkpt lat="50.19003" lon="1.62694">
        <ele>5</ele>
        <time>2016-09-10T09:45:47Z</time>
      </trkpt>
      <trkpt lat="50.18998" lon="1.6269">
        <ele>9</ele>
        <time>2016-09-10T09:45:49Z</time>
      </trkpt>
      <trkpt lat="50.18993" lon="1.62686">
        <ele>9</ele>
        <time>2016-09-10T09:45:51Z</time>
      </trkpt>
      <trkpt lat="50.18989" lon="1.62682">
        <ele>9</ele>
        <time>2016-09-10T09:45:53Z</time>
      </trkpt>
      <trkpt lat="50.18985" lon="1.62678">
        <ele>9</ele>
        <time>2016-09-10T09:45:55Z</time>
      </trkpt>
      <trkpt lat="50.1898" lon="1.62675">
        <ele>9</ele>
        <time>2016-09-10T09:45:57Z</time>
      </trkpt>
      <trkpt lat="50.18973" lon="1.62668">
        <ele>10</ele>
        <time>2016-09-10T09:46:01Z</time>
      </trkpt>
      <trkpt lat="50.18969" lon="1.62664">
        <ele>11</ele>
        <time>2016-09-10T09:46:03Z</time>
      </trkpt>
      <trkpt lat="50.18965" lon="1.6266">
        <ele>11</ele>
        <time>2016-09-10T09:46:05Z</time>
      </trkpt>
      <trkpt lat="50.18929" lon="1.62488">
        <ele>17</ele>
        <time>2016-09-10T09:46:36Z</time>
      </trkpt>
      <trkpt lat="50.18935" lon="1.62462">
        <ele>14</ele>
        <time>2016-09-10T09:46:39Z</time>
      </trkpt>
      <trkpt lat="50.18938" lon="1.62447">
        <ele>14</ele>
        <time>2016-09-10T09:46:41Z</time>
      </trkpt>
      <trkpt lat="50.18934" lon="1.62432">
        <ele>15</ele>
        <time>2016-09-10T09:46:43Z</time>
      </trkpt>
      <trkpt lat="50.18931" lon="1.6242">
        <ele>16</ele>
        <time>2016-09-10T09:46:45Z</time>
      </trkpt>
      <trkpt lat="50.18929" lon="1.62407">
        <ele>15</ele>
        <time>2016-09-10T09:46:47Z</time>
      </trkpt>
      <trkpt lat="50.18926" lon="1.62395">
        <ele>14</ele>
        <time>2016-09-10T09:46:49Z</time>
      </trkpt>
      <trkpt lat="50.18925" lon="1.62382">
        <ele>14</ele>
        <time>2016-09-10T09:46:51Z</time>
      </trkpt>
      <trkpt lat="50.18924" lon="1.6237">
        <ele>14</ele>
        <time>2016-09-10T09:46:53Z</time>
      </trkpt>
      <trkpt lat="50.18924" lon="1.6236">
        <ele>14</ele>
        <time>2016-09-10T09:46:55Z</time>
      </trkpt>
      <trkpt lat="50.18921" lon="1.6235">
        <ele>15</ele>
        <time>2016-09-10T09:46:57Z</time>
      </trkpt>
      <trkpt lat="50.1892" lon="1.62338">
        <ele>17</ele>
        <time>2016-09-10T09:46:59Z</time>
      </trkpt>
      <trkpt lat="50.1892" lon="1.62328">
        <ele>16</ele>
        <time>2016-09-10T09:47:01Z</time>
      </trkpt>
      <trkpt lat="50.18922" lon="1.62317">
        <ele>15</ele>
        <time>2016-09-10T09:47:03Z</time>
      </trkpt>
      <trkpt lat="50.18922" lon="1.62304">
        <ele>14</ele>
        <time>2016-09-10T09:47:05Z</time>
      </trkpt>
      <trkpt lat="50.18923" lon="1.62289">
        <ele>14</ele>
        <time>2016-09-10T09:47:07Z</time>
      </trkpt>
      <trkpt lat="50.18925" lon="1.62274">
        <ele>14</ele>
        <time>2016-09-10T09:47:09Z</time>
      </trkpt>
      <trkpt lat="50.18927" lon="1.62257">
        <ele>16</ele>
        <time>2016-09-10T09:47:11Z</time>
      </trkpt>
      <trkpt lat="50.1893" lon="1.62245">
        <ele>15</ele>
        <time>2016-09-10T09:47:13Z</time>
      </trkpt>
      <trkpt lat="50.18932" lon="1.62234">
        <ele>15</ele>
        <time>2016-09-10T09:47:15Z</time>
      </trkpt>
      <trkpt lat="50.18933" lon="1.62225">
        <ele>14</ele>
        <time>2016-09-10T09:47:17Z</time>
      </trkpt>
      <trkpt lat="50.18935" lon="1.62215">
        <ele>13</ele>
        <time>2016-09-10T09:47:19Z</time>
      </trkpt>
      <trkpt lat="50.18936" lon="1.62205">
        <ele>13</ele>
        <time>2016-09-10T09:47:21Z</time>
      </trkpt>
      <trkpt lat="50.18936" lon="1.62194">
        <ele>14</ele>
        <time>2016-09-10T09:47:23Z</time>
      </trkpt>
      <trkpt lat="50.18936" lon="1.62185">
        <ele>14</ele>
        <time>2016-09-10T09:47:25Z</time>
      </trkpt>
      <trkpt lat="50.18938" lon="1.62176">
        <ele>14</ele>
        <time>2016-09-10T09:47:27Z</time>
      </trkpt>
      <trkpt lat="50.18939" lon="1.62166">
        <ele>15</ele>
        <time>2016-09-10T09:47:29Z</time>
      </trkpt>
      <trkpt lat="50.1894" lon="1.62155">
        <ele>14</ele>
        <time>2016-09-10T09:47:31Z</time>
      </trkpt>
      <trkpt lat="50.18941" lon="1.62145">
        <ele>14</ele>
        <time>2016-09-10T09:47:33Z</time>
      </trkpt>
      <trkpt lat="50.18941" lon="1.62134">
        <ele>14</ele>
        <time>2016-09-10T09:47:35Z</time>
      </trkpt>
      <trkpt lat="50.18942" lon="1.62124">
        <ele>14</ele>
        <time>2016-09-10T09:47:37Z</time>
      </trkpt>
      <trkpt lat="50.18945" lon="1.62112">
        <ele>14</ele>
        <time>2016-09-10T09:47:39Z</time>
      </trkpt>
      <trkpt lat="50.18947" lon="1.62103">
        <ele>14</ele>
        <time>2016-09-10T09:47:41Z</time>
      </trkpt>
      <trkpt lat="50.18951" lon="1.62093">
        <ele>13</ele>
        <time>2016-09-10T09:47:43Z</time>
      </trkpt>
      <trkpt lat="50.18954" lon="1.62083">
        <ele>13</ele>
        <time>2016-09-10T09:47:45Z</time>
      </trkpt>
      <trkpt lat="50.18957" lon="1.62071">
        <ele>13</ele>
        <time>2016-09-10T09:47:47Z</time>
      </trkpt>
      <trkpt lat="50.1896" lon="1.6206">
        <ele>12</ele>
        <time>2016-09-10T09:47:49Z</time>
      </trkpt>
      <trkpt lat="50.18964" lon="1.6205">
        <ele>12</ele>
        <time>2016-09-10T09:47:51Z</time>
      </trkpt>
      <trkpt lat="50.18968" lon="1.6204">
        <ele>12</ele>
        <time>2016-09-10T09:47:53Z</time>
      </trkpt>
      <trkpt lat="50.18972" lon="1.6203">
        <ele>11</ele>
        <time>2016-09-10T09:47:55Z</time>
      </trkpt>
      <trkpt lat="50.18968" lon="1.62022">
        <ele>12</ele>
        <time>2016-09-10T09:47:57Z</time>
      </trkpt>
      <trkpt lat="50.18972" lon="1.62012">
        <ele>11</ele>
        <time>2016-09-10T09:47:59Z</time>
      </trkpt>
      <trkpt lat="50.18975" lon="1.62003">
        <ele>10</ele>
        <time>2016-09-10T09:48:01Z</time>
      </trkpt>
      <trkpt lat="50.18979" lon="1.61991">
        <ele>11</ele>
        <time>2016-09-10T09:48:03Z</time>
      </trkpt>
      <trkpt lat="50.1898" lon="1.61979">
        <ele>12</ele>
        <time>2016-09-10T09:48:05Z</time>
      </trkpt>
      <trkpt lat="50.1898" lon="1.61969">
        <ele>12</ele>
        <time>2016-09-10T09:48:07Z</time>
      </trkpt>
      <trkpt lat="50.18982" lon="1.61958">
        <ele>13</ele>
        <time>2016-09-10T09:48:09Z</time>
      </trkpt>
      <trkpt lat="50.18986" lon="1.61946">
        <ele>13</ele>
        <time>2016-09-10T09:48:11Z</time>
      </trkpt>
      <trkpt lat="50.18989" lon="1.61936">
        <ele>12</ele>
        <time>2016-09-10T09:48:13Z</time>
      </trkpt>
      <trkpt lat="50.18991" lon="1.61926">
        <ele>11</ele>
        <time>2016-09-10T09:48:15Z</time>
      </trkpt>
      <trkpt lat="50.18993" lon="1.61916">
        <ele>11</ele>
        <time>2016-09-10T09:48:17Z</time>
      </trkpt>
      <trkpt lat="50.18994" lon="1.61906">
        <ele>13</ele>
        <time>2016-09-10T09:48:19Z</time>
      </trkpt>
      <trkpt lat="50.18997" lon="1.61895">
        <ele>14</ele>
        <time>2016-09-10T09:48:21Z</time>
      </trkpt>
      <trkpt lat="50.18999" lon="1.61885">
        <ele>15</ele>
        <time>2016-09-10T09:48:23Z</time>
      </trkpt>
      <trkpt lat="50.19002" lon="1.61875">
        <ele>8</ele>
        <time>2016-09-10T09:48:25Z</time>
      </trkpt>
      <trkpt lat="50.19006" lon="1.61866">
        <ele>9</ele>
        <time>2016-09-10T09:48:27Z</time>
      </trkpt>
      <trkpt lat="50.19008" lon="1.61857">
        <ele>9</ele>
        <time>2016-09-10T09:48:29Z</time>
      </trkpt>
      <trkpt lat="50.19012" lon="1.61847">
        <ele>10</ele>
        <time>2016-09-10T09:48:31Z</time>
      </trkpt>
      <trkpt lat="50.19015" lon="1.61836">
        <ele>10</ele>
        <time>2016-09-10T09:48:33Z</time>
      </trkpt>
      <trkpt lat="50.19017" lon="1.61825">
        <ele>10</ele>
        <time>2016-09-10T09:48:35Z</time>
      </trkpt>
      <trkpt lat="50.1902" lon="1.61814">
        <ele>10</ele>
        <time>2016-09-10T09:48:37Z</time>
      </trkpt>
      <trkpt lat="50.19025" lon="1.61805">
        <ele>9</ele>
        <time>2016-09-10T09:48:39Z</time>
      </trkpt>
      <trkpt lat="50.19029" lon="1.61793">
        <ele>9</ele>
        <time>2016-09-10T09:48:41Z</time>
      </trkpt>
      <trkpt lat="50.19033" lon="1.61784">
        <ele>9</ele>
        <time>2016-09-10T09:48:43Z</time>
      </trkpt>
      <trkpt lat="50.19035" lon="1.61775">
        <ele>9</ele>
        <time>2016-09-10T09:48:45Z</time>
      </trkpt>
      <trkpt lat="50.19036" lon="1.61767">
        <ele>9</ele>
        <time>2016-09-10T09:48:47Z</time>
      </trkpt>
      <trkpt lat="50.19036" lon="1.61759">
        <ele>9</ele>
        <time>2016-09-10T09:48:49Z</time>
      </trkpt>
      <trkpt lat="50.19039" lon="1.61751">
        <ele>9</ele>
        <time>2016-09-10T09:48:51Z</time>
      </trkpt>
      <trkpt lat="50.19043" lon="1.61741">
        <ele>9</ele>
        <time>2016-09-10T09:48:53Z</time>
      </trkpt>
      <trkpt lat="50.19046" lon="1.61732">
        <ele>9</ele>
        <time>2016-09-10T09:48:55Z</time>
      </trkpt>
      <trkpt lat="50.19047" lon="1.61723">
        <ele>9</ele>
        <time>2016-09-10T09:48:57Z</time>
      </trkpt>
      <trkpt lat="50.19049" lon="1.61712">
        <ele>9</ele>
        <time>2016-09-10T09:48:59Z</time>
      </trkpt>
      <trkpt lat="50.19048" lon="1.617">
        <ele>9</ele>
        <time>2016-09-10T09:49:01Z</time>
      </trkpt>
      <trkpt lat="50.1905" lon="1.6169">
        <ele>9</ele>
        <time>2016-09-10T09:49:03Z</time>
      </trkpt>
      <trkpt lat="50.19053" lon="1.61679">
        <ele>8</ele>
        <time>2016-09-10T09:49:05Z</time>
      </trkpt>
      <trkpt lat="50.19055" lon="1.6167">
        <ele>8</ele>
        <time>2016-09-10T09:49:07Z</time>
      </trkpt>
      <trkpt lat="50.19057" lon="1.61661">
        <ele>8</ele>
        <time>2016-09-10T09:49:09Z</time>
      </trkpt>
      <trkpt lat="50.1906" lon="1.61652">
        <ele>7</ele>
        <time>2016-09-10T09:49:11Z</time>
      </trkpt>
      <trkpt lat="50.19061" lon="1.61642">
        <ele>7</ele>
        <time>2016-09-10T09:49:13Z</time>
      </trkpt>
      <trkpt lat="50.19065" lon="1.61635">
        <ele>7</ele>
        <time>2016-09-10T09:49:15Z</time>
      </trkpt>
      <trkpt lat="50.19067" lon="1.61625">
        <ele>7</ele>
        <time>2016-09-10T09:49:17Z</time>
      </trkpt>
      <trkpt lat="50.19068" lon="1.61616">
        <ele>7</ele>
        <time>2016-09-10T09:49:19Z</time>
      </trkpt>
      <trkpt lat="50.19071" lon="1.61607">
        <ele>7</ele>
        <time>2016-09-10T09:49:21Z</time>
      </trkpt>
      <trkpt lat="50.19071" lon="1.61599">
        <ele>6</ele>
        <time>2016-09-10T09:49:23Z</time>
      </trkpt>
      <trkpt lat="50.19073" lon="1.61592">
        <ele>5</ele>
        <time>2016-09-10T09:49:25Z</time>
      </trkpt>
      <trkpt lat="50.19077" lon="1.61582">
        <ele>4</ele>
        <time>2016-09-10T09:49:27Z</time>
      </trkpt>
      <trkpt lat="50.19081" lon="1.61575">
        <ele>4</ele>
        <time>2016-09-10T09:49:29Z</time>
      </trkpt>
      <trkpt lat="50.19087" lon="1.61566">
        <ele>3</ele>
        <time>2016-09-10T09:49:31Z</time>
      </trkpt>
      <trkpt lat="50.19091" lon="1.61558">
        <ele>3</ele>
        <time>2016-09-10T09:49:33Z</time>
      </trkpt>
      <trkpt lat="50.19095" lon="1.61549">
        <ele>3</ele>
        <time>2016-09-10T09:49:35Z</time>
      </trkpt>
      <trkpt lat="50.19099" lon="1.61541">
        <ele>3</ele>
        <time>2016-09-10T09:49:37Z</time>
      </trkpt>
      <trkpt lat="50.19104" lon="1.61534">
        <ele>3</ele>
        <time>2016-09-10T09:49:39Z</time>
      </trkpt>
      <trkpt lat="50.19109" lon="1.61522">
        <ele>3</ele>
        <time>2016-09-10T09:49:41Z</time>
      </trkpt>
      <trkpt lat="50.19112" lon="1.61513">
        <ele>3</ele>
        <time>2016-09-10T09:49:43Z</time>
      </trkpt>
      <trkpt lat="50.19117" lon="1.61503">
        <ele>3</ele>
        <time>2016-09-10T09:49:45Z</time>
      </trkpt>
      <trkpt lat="50.19118" lon="1.61493">
        <ele>3</ele>
        <time>2016-09-10T09:49:47Z</time>
      </trkpt>
      <trkpt lat="50.19121" lon="1.61484">
        <ele>3</ele>
        <time>2016-09-10T09:49:49Z</time>
      </trkpt>
      <trkpt lat="50.19123" lon="1.61473">
        <ele>3</ele>
        <time>2016-09-10T09:49:51Z</time>
      </trkpt>
      <trkpt lat="50.19125" lon="1.61464">
        <ele>3</ele>
        <time>2016-09-10T09:49:53Z</time>
      </trkpt>
      <trkpt lat="50.19126" lon="1.61454">
        <ele>4</ele>
        <time>2016-09-10T09:49:55Z</time>
      </trkpt>
      <trkpt lat="50.19126" lon="1.61442">
        <ele>4</ele>
        <time>2016-09-10T09:49:57Z</time>
      </trkpt>
      <trkpt lat="50.19128" lon="1.61433">
        <ele>4</ele>
        <time>2016-09-10T09:49:59Z</time>
      </trkpt>
      <trkpt lat="50.19129" lon="1.61422">
        <ele>4</ele>
        <time>2016-09-10T09:50:01Z</time>
      </trkpt>
      <trkpt lat="50.19131" lon="1.61411">
        <ele>4</ele>
        <time>2016-09-10T09:50:03Z</time>
      </trkpt>
      <trkpt lat="50.19132" lon="1.61402">
        <ele>4</ele>
        <time>2016-09-10T09:50:05Z</time>
      </trkpt>
      <trkpt lat="50.19134" lon="1.61393">
        <ele>4</ele>
        <time>2016-09-10T09:50:07Z</time>
      </trkpt>
      <trkpt lat="50.19135" lon="1.61383">
        <ele>4</ele>
        <time>2016-09-10T09:50:09Z</time>
      </trkpt>
      <trkpt lat="50.19136" lon="1.61373">
        <ele>4</ele>
        <time>2016-09-10T09:50:11Z</time>
      </trkpt>
      <trkpt lat="50.19136" lon="1.61361">
        <ele>4</ele>
        <time>2016-09-10T09:50:13Z</time>
      </trkpt>
      <trkpt lat="50.19135" lon="1.61347">
        <ele>4</ele>
        <time>2016-09-10T09:50:15Z</time>
      </trkpt>
      <trkpt lat="50.19135" lon="1.61337">
        <ele>4</ele>
        <time>2016-09-10T09:50:17Z</time>
      </trkpt>
      <trkpt lat="50.19134" lon="1.61329">
        <ele>4</ele>
        <time>2016-09-10T09:50:19Z</time>
      </trkpt>
      <trkpt lat="50.19133" lon="1.61316">
        <ele>4</ele>
        <time>2016-09-10T09:50:23Z</time>
      </trkpt>
      <trkpt lat="50.19133" lon="1.61307">
        <ele>4</ele>
        <time>2016-09-10T09:50:27Z</time>
      </trkpt>
      <trkpt lat="50.19133" lon="1.61296">
        <ele>4</ele>
        <time>2016-09-10T09:50:31Z</time>
      </trkpt>
      <trkpt lat="50.19132" lon="1.61286">
        <ele>4</ele>
        <time>2016-09-10T09:50:35Z</time>
      </trkpt>
      <trkpt lat="50.19131" lon="1.61276">
        <ele>4</ele>
        <time>2016-09-10T09:50:39Z</time>
      </trkpt>
      <trkpt lat="50.19131" lon="1.61264">
        <ele>4</ele>
        <time>2016-09-10T09:50:43Z</time>
      </trkpt>
      <trkpt lat="50.19129" lon="1.61255">
        <ele>4</ele>
        <time>2016-09-10T09:50:45Z</time>
      </trkpt>
      <trkpt lat="50.19127" lon="1.61247">
        <ele>4</ele>
        <time>2016-09-10T09:50:47Z</time>
      </trkpt>
      <trkpt lat="50.19127" lon="1.61239">
        <ele>4</ele>
        <time>2016-09-10T09:50:49Z</time>
      </trkpt>
      <trkpt lat="50.19126" lon="1.61229">
        <ele>4</ele>
        <time>2016-09-10T09:50:53Z</time>
      </trkpt>
      <trkpt lat="50.19121" lon="1.61222">
        <ele>4</ele>
        <time>2016-09-10T09:50:59Z</time>
      </trkpt>
      <trkpt lat="50.19123" lon="1.6123">
        <ele>4</ele>
        <time>2016-09-10T09:51:03Z</time>
      </trkpt>
      <trkpt lat="50.19117" lon="1.61156">
        <ele>4</ele>
        <time>2016-09-10T09:51:36Z</time>
      </trkpt>
      <trkpt lat="50.19114" lon="1.61141">
        <ele>4</ele>
        <time>2016-09-10T09:51:39Z</time>
      </trkpt>
      <trkpt lat="50.19111" lon="1.61132">
        <ele>3</ele>
        <time>2016-09-10T09:51:41Z</time>
      </trkpt>
      <trkpt lat="50.19108" lon="1.61124">
        <ele>3</ele>
        <time>2016-09-10T09:51:43Z</time>
      </trkpt>
      <trkpt lat="50.19105" lon="1.61115">
        <ele>3</ele>
        <time>2016-09-10T09:51:45Z</time>
      </trkpt>
      <trkpt lat="50.19103" lon="1.61106">
        <ele>3</ele>
        <time>2016-09-10T09:51:47Z</time>
      </trkpt>
      <trkpt lat="50.19101" lon="1.61098">
        <ele>3</ele>
        <time>2016-09-10T09:51:49Z</time>
      </trkpt>
      <trkpt lat="50.19098" lon="1.61089">
        <ele>3</ele>
        <time>2016-09-10T09:51:51Z</time>
      </trkpt>
      <trkpt lat="50.19096" lon="1.61081">
        <ele>3</ele>
        <time>2016-09-10T09:51:53Z</time>
      </trkpt>
      <trkpt lat="50.19094" lon="1.61072">
        <ele>3</ele>
        <time>2016-09-10T09:51:55Z</time>
      </trkpt>
      <trkpt lat="50.19092" lon="1.61063">
        <ele>3</ele>
        <time>2016-09-10T09:51:57Z</time>
      </trkpt>
      <trkpt lat="50.19087" lon="1.61057">
        <ele>2</ele>
        <time>2016-09-10T09:51:59Z</time>
      </trkpt>
      <trkpt lat="50.19083" lon="1.61051">
        <ele>5</ele>
        <time>2016-09-10T09:52:01Z</time>
      </trkpt>
      <trkpt lat="50.19079" lon="1.61044">
        <ele>5</ele>
        <time>2016-09-10T09:52:03Z</time>
      </trkpt>
      <trkpt lat="50.19074" lon="1.61037">
        <ele>5</ele>
        <time>2016-09-10T09:52:05Z</time>
      </trkpt>
      <trkpt lat="50.19068" lon="1.61032">
        <ele>5</ele>
        <time>2016-09-10T09:52:07Z</time>
      </trkpt>
      <trkpt lat="50.19063" lon="1.61024">
        <ele>5</ele>
        <time>2016-09-10T09:52:09Z</time>
      </trkpt>
      <trkpt lat="50.19059" lon="1.61016">
        <ele>5</ele>
        <time>2016-09-10T09:52:11Z</time>
      </trkpt>
      <trkpt lat="50.19055" lon="1.61007">
        <ele>5</ele>
        <time>2016-09-10T09:52:13Z</time>
      </trkpt>
      <trkpt lat="50.19051" lon="1.60995">
        <ele>4</ele>
        <time>2016-09-10T09:52:15Z</time>
      </trkpt>
      <trkpt lat="50.19049" lon="1.60985">
        <ele>5</ele>
        <time>2016-09-10T09:52:17Z</time>
      </trkpt>
      <trkpt lat="50.19046" lon="1.60974">
        <ele>5</ele>
        <time>2016-09-10T09:52:19Z</time>
      </trkpt>
      <trkpt lat="50.19044" lon="1.60966">
        <ele>5</ele>
        <time>2016-09-10T09:52:21Z</time>
      </trkpt>
      <trkpt lat="50.1904" lon="1.60956">
        <ele>5</ele>
        <time>2016-09-10T09:52:23Z</time>
      </trkpt>
      <trkpt lat="50.19036" lon="1.60947">
        <ele>5</ele>
        <time>2016-09-10T09:52:25Z</time>
      </trkpt>
      <trkpt lat="50.19033" lon="1.60936">
        <ele>5</ele>
        <time>2016-09-10T09:52:27Z</time>
      </trkpt>
      <trkpt lat="50.19031" lon="1.60925">
        <ele>5</ele>
        <time>2016-09-10T09:52:29Z</time>
      </trkpt>
      <trkpt lat="50.19029" lon="1.60913">
        <ele>4</ele>
        <time>2016-09-10T09:52:31Z</time>
      </trkpt>
      <trkpt lat="50.19026" lon="1.60903">
        <ele>4</ele>
        <time>2016-09-10T09:52:33Z</time>
      </trkpt>
      <trkpt lat="50.19021" lon="1.60891">
        <ele>4</ele>
        <time>2016-09-10T09:52:35Z</time>
      </trkpt>
      <trkpt lat="50.19014" lon="1.60883">
        <ele>4</ele>
        <time>2016-09-10T09:52:37Z</time>
      </trkpt>
      <trkpt lat="50.1901" lon="1.60874">
        <ele>4</ele>
        <time>2016-09-10T09:52:39Z</time>
      </trkpt>
      <trkpt lat="50.19005" lon="1.60863">
        <ele>4</ele>
        <time>2016-09-10T09:52:41Z</time>
      </trkpt>
      <trkpt lat="50.19" lon="1.60853">
        <ele>6</ele>
        <time>2016-09-10T09:52:43Z</time>
      </trkpt>
      <trkpt lat="50.18996" lon="1.60842">
        <ele>5</ele>
        <time>2016-09-10T09:52:45Z</time>
      </trkpt>
      <trkpt lat="50.18993" lon="1.60831">
        <ele>5</ele>
        <time>2016-09-10T09:52:47Z</time>
      </trkpt>
      <trkpt lat="50.1899" lon="1.60821">
        <ele>5</ele>
        <time>2016-09-10T09:52:49Z</time>
      </trkpt>
      <trkpt lat="50.18987" lon="1.6081">
        <ele>5</ele>
        <time>2016-09-10T09:52:51Z</time>
      </trkpt>
      <trkpt lat="50.18983" lon="1.608">
        <ele>6</ele>
        <time>2016-09-10T09:52:53Z</time>
      </trkpt>
      <trkpt lat="50.18978" lon="1.6079">
        <ele>6</ele>
        <time>2016-09-10T09:52:55Z</time>
      </trkpt>
      <trkpt lat="50.18974" lon="1.6078">
        <ele>6</ele>
        <time>2016-09-10T09:52:57Z</time>
      </trkpt>
      <trkpt lat="50.1897" lon="1.60771">
        <ele>6</ele>
        <time>2016-09-10T09:52:59Z</time>
      </trkpt>
      <trkpt lat="50.18966" lon="1.60761">
        <ele>6</ele>
        <time>2016-09-10T09:53:01Z</time>
      </trkpt>
      <trkpt lat="50.18964" lon="1.60751">
        <ele>6</ele>
        <time>2016-09-10T09:53:03Z</time>
      </trkpt>
      <trkpt lat="50.18962" lon="1.60742">
        <ele>5</ele>
        <time>2016-09-10T09:53:05Z</time>
      </trkpt>
      <trkpt lat="50.18958" lon="1.60732">
        <ele>5</ele>
        <time>2016-09-10T09:53:07Z</time>
      </trkpt>
      <trkpt lat="50.18955" lon="1.60721">
        <ele>5</ele>
        <time>2016-09-10T09:53:09Z</time>
      </trkpt>
      <trkpt lat="50.18952" lon="1.60711">
        <ele>5</ele>
        <time>2016-09-10T09:53:11Z</time>
      </trkpt>
      <trkpt lat="50.1895" lon="1.60703">
        <ele>5</ele>
        <time>2016-09-10T09:53:13Z</time>
      </trkpt>
      <trkpt lat="50.18948" lon="1.60694">
        <ele>5</ele>
        <time>2016-09-10T09:53:15Z</time>
      </trkpt>
      <trkpt lat="50.18946" lon="1.60687">
        <ele>5</ele>
        <time>2016-09-10T09:53:17Z</time>
      </trkpt>
      <trkpt lat="50.18943" lon="1.6068">
        <ele>5</ele>
        <time>2016-09-10T09:53:19Z</time>
      </trkpt>
      <trkpt lat="50.18941" lon="1.60673">
        <ele>5</ele>
        <time>2016-09-10T09:53:21Z</time>
      </trkpt>
      <trkpt lat="50.18936" lon="1.60664">
        <ele>5</ele>
        <time>2016-09-10T09:53:23Z</time>
      </trkpt>
      <trkpt lat="50.18928" lon="1.60656">
        <ele>5</ele>
        <time>2016-09-10T09:53:25Z</time>
      </trkpt>
      <trkpt lat="50.18924" lon="1.60647">
        <ele>5</ele>
        <time>2016-09-10T09:53:27Z</time>
      </trkpt>
      <trkpt lat="50.1892" lon="1.60637">
        <ele>4</ele>
        <time>2016-09-10T09:53:29Z</time>
      </trkpt>
      <trkpt lat="50.18915" lon="1.60626">
        <ele>6</ele>
        <time>2016-09-10T09:53:31Z</time>
      </trkpt>
      <trkpt lat="50.1891" lon="1.60616">
        <ele>6</ele>
        <time>2016-09-10T09:53:33Z</time>
      </trkpt>
      <trkpt lat="50.18905" lon="1.60606">
        <ele>5</ele>
        <time>2016-09-10T09:53:35Z</time>
      </trkpt>
      <trkpt lat="50.18901" lon="1.60596">
        <ele>5</ele>
        <time>2016-09-10T09:53:37Z</time>
      </trkpt>
      <trkpt lat="50.18898" lon="1.60588">
        <ele>5</ele>
        <time>2016-09-10T09:53:39Z</time>
      </trkpt>
      <trkpt lat="50.18894" lon="1.60578">
        <ele>5</ele>
        <time>2016-09-10T09:53:41Z</time>
      </trkpt>
      <trkpt lat="50.18891" lon="1.6057">
        <ele>5</ele>
        <time>2016-09-10T09:53:43Z</time>
      </trkpt>
      <trkpt lat="50.18887" lon="1.6056">
        <ele>5</ele>
        <time>2016-09-10T09:53:45Z</time>
      </trkpt>
      <trkpt lat="50.18884" lon="1.6055">
        <ele>5</ele>
        <time>2016-09-10T09:53:47Z</time>
      </trkpt>
      <trkpt lat="50.1888" lon="1.60541">
        <ele>5</ele>
        <time>2016-09-10T09:53:49Z</time>
      </trkpt>
      <trkpt lat="50.18876" lon="1.60536">
        <ele>5</ele>
        <time>2016-09-10T09:53:51Z</time>
      </trkpt>
      <trkpt lat="50.18872" lon="1.60531">
        <ele>5</ele>
        <time>2016-09-10T09:53:53Z</time>
      </trkpt>
      <trkpt lat="50.18868" lon="1.60524">
        <ele>5</ele>
        <time>2016-09-10T09:53:55Z</time>
      </trkpt>
      <trkpt lat="50.18864" lon="1.60517">
        <ele>5</ele>
        <time>2016-09-10T09:53:57Z</time>
      </trkpt>
      <trkpt lat="50.18861" lon="1.60509">
        <ele>5</ele>
        <time>2016-09-10T09:53:59Z</time>
      </trkpt>
      <trkpt lat="50.18857" lon="1.60502">
        <ele>5</ele>
        <time>2016-09-10T09:54:01Z</time>
      </trkpt>
      <trkpt lat="50.18854" lon="1.60495">
        <ele>5</ele>
        <time>2016-09-10T09:54:03Z</time>
      </trkpt>
      <trkpt lat="50.1885" lon="1.60488">
        <ele>5</ele>
        <time>2016-09-10T09:54:05Z</time>
      </trkpt>
      <trkpt lat="50.18847" lon="1.6048">
        <ele>5</ele>
        <time>2016-09-10T09:54:07Z</time>
      </trkpt>
      <trkpt lat="50.18844" lon="1.60473">
        <ele>5</ele>
        <time>2016-09-10T09:54:09Z</time>
      </trkpt>
      <trkpt lat="50.18841" lon="1.60465">
        <ele>5</ele>
        <time>2016-09-10T09:54:11Z</time>
      </trkpt>
      <trkpt lat="50.18838" lon="1.60456">
        <ele>5</ele>
        <time>2016-09-10T09:54:13Z</time>
      </trkpt>
      <trkpt lat="50.18836" lon="1.60447">
        <ele>4</ele>
        <time>2016-09-10T09:54:15Z</time>
      </trkpt>
      <trkpt lat="50.18834" lon="1.60437">
        <ele>5</ele>
        <time>2016-09-10T09:54:17Z</time>
      </trkpt>
      <trkpt lat="50.18831" lon="1.60427">
        <ele>6</ele>
        <time>2016-09-10T09:54:19Z</time>
      </trkpt>
      <trkpt lat="50.18829" lon="1.60418">
        <ele>5</ele>
        <time>2016-09-10T09:54:21Z</time>
      </trkpt>
      <trkpt lat="50.18826" lon="1.60407">
        <ele>6</ele>
        <time>2016-09-10T09:54:23Z</time>
      </trkpt>
      <trkpt lat="50.18823" lon="1.60398">
        <ele>6</ele>
        <time>2016-09-10T09:54:25Z</time>
      </trkpt>
      <trkpt lat="50.18819" lon="1.60388">
        <ele>6</ele>
        <time>2016-09-10T09:54:27Z</time>
      </trkpt>
      <trkpt lat="50.18815" lon="1.60378">
        <ele>7</ele>
        <time>2016-09-10T09:54:29Z</time>
      </trkpt>
      <trkpt lat="50.18811" lon="1.60369">
        <ele>7</ele>
        <time>2016-09-10T09:54:31Z</time>
      </trkpt>
      <trkpt lat="50.18806" lon="1.60359">
        <ele>7</ele>
        <time>2016-09-10T09:54:33Z</time>
      </trkpt>
      <trkpt lat="50.18803" lon="1.60349">
        <ele>7</ele>
        <time>2016-09-10T09:54:35Z</time>
      </trkpt>
      <trkpt lat="50.18799" lon="1.6034">
        <ele>7</ele>
        <time>2016-09-10T09:54:37Z</time>
      </trkpt>
      <trkpt lat="50.18795" lon="1.60329">
        <ele>6</ele>
        <time>2016-09-10T09:54:39Z</time>
      </trkpt>
      <trkpt lat="50.18791" lon="1.60319">
        <ele>6</ele>
        <time>2016-09-10T09:54:41Z</time>
      </trkpt>
      <trkpt lat="50.18788" lon="1.60308">
        <ele>7</ele>
        <time>2016-09-10T09:54:43Z</time>
      </trkpt>
      <trkpt lat="50.18784" lon="1.60298">
        <ele>7</ele>
        <time>2016-09-10T09:54:45Z</time>
      </trkpt>
      <trkpt lat="50.1878" lon="1.60288">
        <ele>7</ele>
        <time>2016-09-10T09:54:47Z</time>
      </trkpt>
      <trkpt lat="50.18776" lon="1.60278">
        <ele>7</ele>
        <time>2016-09-10T09:54:49Z</time>
      </trkpt>
      <trkpt lat="50.18773" lon="1.60268">
        <ele>7</ele>
        <time>2016-09-10T09:54:51Z</time>
      </trkpt>
      <trkpt lat="50.1877" lon="1.60257">
        <ele>7</ele>
        <time>2016-09-10T09:54:53Z</time>
      </trkpt>
      <trkpt lat="50.18767" lon="1.60246">
        <ele>6</ele>
        <time>2016-09-10T09:54:55Z</time>
      </trkpt>
      <trkpt lat="50.18763" lon="1.60236">
        <ele>6</ele>
        <time>2016-09-10T09:54:57Z</time>
      </trkpt>
      <trkpt lat="50.1876" lon="1.60226">
        <ele>6</ele>
        <time>2016-09-10T09:54:59Z</time>
      </trkpt>
      <trkpt lat="50.18755" lon="1.60215">
        <ele>6</ele>
        <time>2016-09-10T09:55:01Z</time>
      </trkpt>
      <trkpt lat="50.18751" lon="1.60205">
        <ele>6</ele>
        <time>2016-09-10T09:55:03Z</time>
      </trkpt>
      <trkpt lat="50.18747" lon="1.60195">
        <ele>9</ele>
        <time>2016-09-10T09:55:05Z</time>
      </trkpt>
      <trkpt lat="50.18744" lon="1.60184">
        <ele>8</ele>
        <time>2016-09-10T09:55:07Z</time>
      </trkpt>
      <trkpt lat="50.18741" lon="1.60173">
        <ele>8</ele>
        <time>2016-09-10T09:55:09Z</time>
      </trkpt>
      <trkpt lat="50.18738" lon="1.60162">
        <ele>7</ele>
        <time>2016-09-10T09:55:11Z</time>
      </trkpt>
      <trkpt lat="50.18734" lon="1.60152">
        <ele>8</ele>
        <time>2016-09-10T09:55:13Z</time>
      </trkpt>
      <trkpt lat="50.18731" lon="1.60141">
        <ele>8</ele>
        <time>2016-09-10T09:55:15Z</time>
      </trkpt>
      <trkpt lat="50.18728" lon="1.6013">
        <ele>8</ele>
        <time>2016-09-10T09:55:17Z</time>
      </trkpt>
      <trkpt lat="50.18724" lon="1.6012">
        <ele>8</ele>
        <time>2016-09-10T09:55:19Z</time>
      </trkpt>
      <trkpt lat="50.1872" lon="1.60111">
        <ele>8</ele>
        <time>2016-09-10T09:55:21Z</time>
      </trkpt>
      <trkpt lat="50.18716" lon="1.60101">
        <ele>8</ele>
        <time>2016-09-10T09:55:23Z</time>
      </trkpt>
      <trkpt lat="50.18712" lon="1.60091">
        <ele>9</ele>
        <time>2016-09-10T09:55:25Z</time>
      </trkpt>
      <trkpt lat="50.18708" lon="1.60081">
        <ele>7</ele>
        <time>2016-09-10T09:55:27Z</time>
      </trkpt>
      <trkpt lat="50.18704" lon="1.60071">
        <ele>8</ele>
        <time>2016-09-10T09:55:29Z</time>
      </trkpt>
      <trkpt lat="50.187" lon="1.60062">
        <ele>8</ele>
        <time>2016-09-10T09:55:31Z</time>
      </trkpt>
      <trkpt lat="50.18695" lon="1.60052">
        <ele>8</ele>
        <time>2016-09-10T09:55:33Z</time>
      </trkpt>
      <trkpt lat="50.1869" lon="1.60042">
        <ele>8</ele>
        <time>2016-09-10T09:55:35Z</time>
      </trkpt>
      <trkpt lat="50.18685" lon="1.60033">
        <ele>8</ele>
        <time>2016-09-10T09:55:37Z</time>
      </trkpt>
      <trkpt lat="50.1868" lon="1.60024">
        <ele>8</ele>
        <time>2016-09-10T09:55:39Z</time>
      </trkpt>
      <trkpt lat="50.18676" lon="1.60014">
        <ele>9</ele>
        <time>2016-09-10T09:55:41Z</time>
      </trkpt>
      <trkpt lat="50.18673" lon="1.60004">
        <ele>9</ele>
        <time>2016-09-10T09:55:43Z</time>
      </trkpt>
      <trkpt lat="50.1867" lon="1.59994">
        <ele>9</ele>
        <time>2016-09-10T09:55:45Z</time>
      </trkpt>
      <trkpt lat="50.18666" lon="1.59984">
        <ele>13</ele>
        <time>2016-09-10T09:55:47Z</time>
      </trkpt>
      <trkpt lat="50.18663" lon="1.59974">
        <ele>13</ele>
        <time>2016-09-10T09:55:49Z</time>
      </trkpt>
      <trkpt lat="50.18659" lon="1.59963">
        <ele>14</ele>
        <time>2016-09-10T09:55:51Z</time>
      </trkpt>
      <trkpt lat="50.18656" lon="1.59953">
        <ele>13</ele>
        <time>2016-09-10T09:55:53Z</time>
      </trkpt>
      <trkpt lat="50.18652" lon="1.59943">
        <ele>13</ele>
        <time>2016-09-10T09:55:55Z</time>
      </trkpt>
      <trkpt lat="50.18648" lon="1.59933">
        <ele>13</ele>
        <time>2016-09-10T09:55:57Z</time>
      </trkpt>
      <trkpt lat="50.18644" lon="1.59923">
        <ele>13</ele>
        <time>2016-09-10T09:55:59Z</time>
      </trkpt>
      <trkpt lat="50.1864" lon="1.59914">
        <ele>11</ele>
        <time>2016-09-10T09:56:01Z</time>
      </trkpt>
      <trkpt lat="50.18636" lon="1.59904">
        <ele>11</ele>
        <time>2016-09-10T09:56:03Z</time>
      </trkpt>
      <trkpt lat="50.18631" lon="1.59895">
        <ele>12</ele>
        <time>2016-09-10T09:56:05Z</time>
      </trkpt>
      <trkpt lat="50.1858" lon="1.59728">
        <ele>13</ele>
        <time>2016-09-10T09:56:34Z</time>
      </trkpt>
      <trkpt lat="50.18568" lon="1.59705">
        <ele>13</ele>
        <time>2016-09-10T09:56:39Z</time>
      </trkpt>
      <trkpt lat="50.18564" lon="1.59694">
        <ele>13</ele>
        <time>2016-09-10T09:56:41Z</time>
      </trkpt>
      <trkpt lat="50.1856" lon="1.59682">
        <ele>12</ele>
        <time>2016-09-10T09:56:43Z</time>
      </trkpt>
      <trkpt lat="50.18557" lon="1.5967">
        <ele>12</ele>
        <time>2016-09-10T09:56:45Z</time>
      </trkpt>
      <trkpt lat="50.18554" lon="1.59659">
        <ele>10</ele>
        <time>2016-09-10T09:56:47Z</time>
      </trkpt>
      <trkpt lat="50.1855" lon="1.59647">
        <ele>10</ele>
        <time>2016-09-10T09:56:49Z</time>
      </trkpt>
      <trkpt lat="50.18546" lon="1.59636">
        <ele>10</ele>
        <time>2016-09-10T09:56:51Z</time>
      </trkpt>
      <trkpt lat="50.18542" lon="1.59624">
        <ele>10</ele>
        <time>2016-09-10T09:56:53Z</time>
      </trkpt>
      <trkpt lat="50.18539" lon="1.59612">
        <ele>10</ele>
        <time>2016-09-10T09:56:55Z</time>
      </trkpt>
      <trkpt lat="50.18536" lon="1.59601">
        <ele>10</ele>
        <time>2016-09-10T09:56:57Z</time>
      </trkpt>
      <trkpt lat="50.18532" lon="1.5959">
        <ele>11</ele>
        <time>2016-09-10T09:56:59Z</time>
      </trkpt>
      <trkpt lat="50.18529" lon="1.5958">
        <ele>8</ele>
        <time>2016-09-10T09:57:01Z</time>
      </trkpt>
      <trkpt lat="50.18525" lon="1.59569">
        <ele>8</ele>
        <time>2016-09-10T09:57:03Z</time>
      </trkpt>
      <trkpt lat="50.18522" lon="1.59559">
        <ele>8</ele>
        <time>2016-09-10T09:57:05Z</time>
      </trkpt>
      <trkpt lat="50.18518" lon="1.59548">
        <ele>8</ele>
        <time>2016-09-10T09:57:07Z</time>
      </trkpt>
      <trkpt lat="50.18515" lon="1.59537">
        <ele>7</ele>
        <time>2016-09-10T09:57:09Z</time>
      </trkpt>
      <trkpt lat="50.18512" lon="1.59526">
        <ele>7</ele>
        <time>2016-09-10T09:57:11Z</time>
      </trkpt>
      <trkpt lat="50.18508" lon="1.59517">
        <ele>6</ele>
        <time>2016-09-10T09:57:13Z</time>
      </trkpt>
      <trkpt lat="50.18505" lon="1.59507">
        <ele>6</ele>
        <time>2016-09-10T09:57:15Z</time>
      </trkpt>
      <trkpt lat="50.18501" lon="1.59497">
        <ele>6</ele>
        <time>2016-09-10T09:57:17Z</time>
      </trkpt>
      <trkpt lat="50.18497" lon="1.59488">
        <ele>7</ele>
        <time>2016-09-10T09:57:19Z</time>
      </trkpt>
      <trkpt lat="50.18492" lon="1.59479">
        <ele>7</ele>
        <time>2016-09-10T09:57:21Z</time>
      </trkpt>
      <trkpt lat="50.18488" lon="1.59469">
        <ele>7</ele>
        <time>2016-09-10T09:57:23Z</time>
      </trkpt>
      <trkpt lat="50.18484" lon="1.59459">
        <ele>7</ele>
        <time>2016-09-10T09:57:25Z</time>
      </trkpt>
      <trkpt lat="50.1848" lon="1.59449">
        <ele>7</ele>
        <time>2016-09-10T09:57:27Z</time>
      </trkpt>
      <trkpt lat="50.18477" lon="1.59439">
        <ele>7</ele>
        <time>2016-09-10T09:57:29Z</time>
      </trkpt>
      <trkpt lat="50.18473" lon="1.59429">
        <ele>7</ele>
        <time>2016-09-10T09:57:31Z</time>
      </trkpt>
      <trkpt lat="50.1847" lon="1.5942">
        <ele>7</ele>
        <time>2016-09-10T09:57:33Z</time>
      </trkpt>
      <trkpt lat="50.18466" lon="1.59412">
        <ele>6</ele>
        <time>2016-09-10T09:57:35Z</time>
      </trkpt>
      <trkpt lat="50.18461" lon="1.59405">
        <ele>6</ele>
        <time>2016-09-10T09:57:37Z</time>
      </trkpt>
      <trkpt lat="50.18456" lon="1.59399">
        <ele>6</ele>
        <time>2016-09-10T09:57:39Z</time>
      </trkpt>
      <trkpt lat="50.1845" lon="1.59394">
        <ele>6</ele>
        <time>2016-09-10T09:57:41Z</time>
      </trkpt>
      <trkpt lat="50.18445" lon="1.59388">
        <ele>6</ele>
        <time>2016-09-10T09:57:43Z</time>
      </trkpt>
      <trkpt lat="50.1844" lon="1.59382">
        <ele>6</ele>
        <time>2016-09-10T09:57:45Z</time>
      </trkpt>
      <trkpt lat="50.18434" lon="1.59376">
        <ele>6</ele>
        <time>2016-09-10T09:57:47Z</time>
      </trkpt>
      <trkpt lat="50.1843" lon="1.59369">
        <ele>6</ele>
        <time>2016-09-10T09:57:49Z</time>
      </trkpt>
      <trkpt lat="50.18425" lon="1.59362">
        <ele>6</ele>
        <time>2016-09-10T09:57:51Z</time>
      </trkpt>
      <trkpt lat="50.18421" lon="1.59355">
        <ele>6</ele>
        <time>2016-09-10T09:57:53Z</time>
      </trkpt>
      <trkpt lat="50.18418" lon="1.59349">
        <ele>6</ele>
        <time>2016-09-10T09:57:55Z</time>
      </trkpt>
      <trkpt lat="50.18416" lon="1.59339">
        <ele>7</ele>
        <time>2016-09-10T09:58:01Z</time>
      </trkpt>
      <trkpt lat="50.18418" lon="1.59329">
        <ele>6</ele>
        <time>2016-09-10T09:58:05Z</time>
      </trkpt>
      <trkpt lat="50.18421" lon="1.59318">
        <ele>5</ele>
        <time>2016-09-10T09:58:09Z</time>
      </trkpt>
      <trkpt lat="50.18426" lon="1.59306">
        <ele>5</ele>
        <time>2016-09-10T09:58:13Z</time>
      </trkpt>
      <trkpt lat="50.18429" lon="1.59299">
        <ele>4</ele>
        <time>2016-09-10T09:58:15Z</time>
      </trkpt>
      <trkpt lat="50.18433" lon="1.59294">
        <ele>4</ele>
        <time>2016-09-10T09:58:17Z</time>
      </trkpt>
      <trkpt lat="50.18438" lon="1.59289">
        <ele>4</ele>
        <time>2016-09-10T09:58:19Z</time>
      </trkpt>
      <trkpt lat="50.18443" lon="1.59284">
        <ele>4</ele>
        <time>2016-09-10T09:58:21Z</time>
      </trkpt>
      <trkpt lat="50.18448" lon="1.59279">
        <ele>4</ele>
        <time>2016-09-10T09:58:23Z</time>
      </trkpt>
      <trkpt lat="50.18454" lon="1.59273">
        <ele>4</ele>
        <time>2016-09-10T09:58:25Z</time>
      </trkpt>
      <trkpt lat="50.18459" lon="1.59268">
        <ele>4</ele>
        <time>2016-09-10T09:58:27Z</time>
      </trkpt>
      <trkpt lat="50.18464" lon="1.59262">
        <ele>4</ele>
        <time>2016-09-10T09:58:29Z</time>
      </trkpt>
      <trkpt lat="50.18469" lon="1.59256">
        <ele>4</ele>
        <time>2016-09-10T09:58:31Z</time>
      </trkpt>
      <trkpt lat="50.18475" lon="1.59251">
        <ele>4</ele>
        <time>2016-09-10T09:58:33Z</time>
      </trkpt>
      <trkpt lat="50.1848" lon="1.59246">
        <ele>3</ele>
        <time>2016-09-10T09:58:35Z</time>
      </trkpt>
      <trkpt lat="50.18485" lon="1.5924">
        <ele>3</ele>
        <time>2016-09-10T09:58:37Z</time>
      </trkpt>
      <trkpt lat="50.18491" lon="1.59234">
        <ele>3</ele>
        <time>2016-09-10T09:58:39Z</time>
      </trkpt>
      <trkpt lat="50.18496" lon="1.59229">
        <ele>3</ele>
        <time>2016-09-10T09:58:41Z</time>
      </trkpt>
      <trkpt lat="50.18502" lon="1.59223">
        <ele>3</ele>
        <time>2016-09-10T09:58:43Z</time>
      </trkpt>
      <trkpt lat="50.18508" lon="1.59217">
        <ele>3</ele>
        <time>2016-09-10T09:58:45Z</time>
      </trkpt>
      <trkpt lat="50.18513" lon="1.59211">
        <ele>3</ele>
        <time>2016-09-10T09:58:47Z</time>
      </trkpt>
      <trkpt lat="50.18518" lon="1.59206">
        <ele>3</ele>
        <time>2016-09-10T09:58:49Z</time>
      </trkpt>
      <trkpt lat="50.18523" lon="1.59199">
        <ele>3</ele>
        <time>2016-09-10T09:58:51Z</time>
      </trkpt>
      <trkpt lat="50.18528" lon="1.59193">
        <ele>3</ele>
        <time>2016-09-10T09:58:53Z</time>
      </trkpt>
      <trkpt lat="50.18533" lon="1.59187">
        <ele>3</ele>
        <time>2016-09-10T09:58:55Z</time>
      </trkpt>
      <trkpt lat="50.18538" lon="1.59182">
        <ele>3</ele>
        <time>2016-09-10T09:58:57Z</time>
      </trkpt>
      <trkpt lat="50.18544" lon="1.59176">
        <ele>4</ele>
        <time>2016-09-10T09:58:59Z</time>
      </trkpt>
      <trkpt lat="50.1855" lon="1.59171">
        <ele>4</ele>
        <time>2016-09-10T09:59:01Z</time>
      </trkpt>
      <trkpt lat="50.18555" lon="1.59165">
        <ele>3</ele>
        <time>2016-09-10T09:59:03Z</time>
      </trkpt>
      <trkpt lat="50.1856" lon="1.5916">
        <ele>3</ele>
        <time>2016-09-10T09:59:05Z</time>
      </trkpt>
      <trkpt lat="50.18565" lon="1.59153">
        <ele>3</ele>
        <time>2016-09-10T09:59:07Z</time>
      </trkpt>
      <trkpt lat="50.1857" lon="1.59147">
        <ele>3</ele>
        <time>2016-09-10T09:59:09Z</time>
      </trkpt>
      <trkpt lat="50.18575" lon="1.59141">
        <ele>3</ele>
        <time>2016-09-10T09:59:11Z</time>
      </trkpt>
      <trkpt lat="50.1858" lon="1.59134">
        <ele>3</ele>
        <time>2016-09-10T09:59:13Z</time>
      </trkpt>
      <trkpt lat="50.18584" lon="1.59127">
        <ele>3</ele>
        <time>2016-09-10T09:59:15Z</time>
      </trkpt>
      <trkpt lat="50.18588" lon="1.59119">
        <ele>3</ele>
        <time>2016-09-10T09:59:17Z</time>
      </trkpt>
      <trkpt lat="50.18591" lon="1.59111">
        <ele>3</ele>
        <time>2016-09-10T09:59:19Z</time>
      </trkpt>
      <trkpt lat="50.18594" lon="1.59101">
        <ele>3</ele>
        <time>2016-09-10T09:59:21Z</time>
      </trkpt>
      <trkpt lat="50.18597" lon="1.59092">
        <ele>3</ele>
        <time>2016-09-10T09:59:23Z</time>
      </trkpt>
      <trkpt lat="50.18601" lon="1.59082">
        <ele>3</ele>
        <time>2016-09-10T09:59:25Z</time>
      </trkpt>
      <trkpt lat="50.18604" lon="1.59073">
        <ele>3</ele>
        <time>2016-09-10T09:59:27Z</time>
      </trkpt>
      <trkpt lat="50.18608" lon="1.59065">
        <ele>3</ele>
        <time>2016-09-10T09:59:29Z</time>
      </trkpt>
      <trkpt lat="50.18611" lon="1.59056">
        <ele>3</ele>
        <time>2016-09-10T09:59:31Z</time>
      </trkpt>
      <trkpt lat="50.18615" lon="1.59047">
        <ele>3</ele>
        <time>2016-09-10T09:59:33Z</time>
      </trkpt>
      <trkpt lat="50.18617" lon="1.59037">
        <ele>3</ele>
        <time>2016-09-10T09:59:35Z</time>
      </trkpt>
      <trkpt lat="50.1862" lon="1.59027">
        <ele>3</ele>
        <time>2016-09-10T09:59:37Z</time>
      </trkpt>
      <trkpt lat="50.18621" lon="1.59016">
        <ele>3</ele>
        <time>2016-09-10T09:59:39Z</time>
      </trkpt>
      <trkpt lat="50.18622" lon="1.59006">
        <ele>3</ele>
        <time>2016-09-10T09:59:41Z</time>
      </trkpt>
      <trkpt lat="50.18623" lon="1.58995">
        <ele>3</ele>
        <time>2016-09-10T09:59:43Z</time>
      </trkpt>
      <trkpt lat="50.18624" lon="1.58984">
        <ele>3</ele>
        <time>2016-09-10T09:59:45Z</time>
      </trkpt>
      <trkpt lat="50.18626" lon="1.58974">
        <ele>3</ele>
        <time>2016-09-10T09:59:47Z</time>
      </trkpt>
      <trkpt lat="50.18628" lon="1.58963">
        <ele>3</ele>
        <time>2016-09-10T09:59:49Z</time>
      </trkpt>
      <trkpt lat="50.1863" lon="1.58952">
        <ele>3</ele>
        <time>2016-09-10T09:59:51Z</time>
      </trkpt>
      <trkpt lat="50.18631" lon="1.58942">
        <ele>3</ele>
        <time>2016-09-10T09:59:53Z</time>
      </trkpt>
      <trkpt lat="50.18633" lon="1.58931">
        <ele>3</ele>
        <time>2016-09-10T09:59:55Z</time>
      </trkpt>
      <trkpt lat="50.18635" lon="1.58921">
        <ele>3</ele>
        <time>2016-09-10T09:59:57Z</time>
      </trkpt>
      <trkpt lat="50.18636" lon="1.58912">
        <ele>3</ele>
        <time>2016-09-10T09:59:59Z</time>
      </trkpt>
      <trkpt lat="50.18636" lon="1.58902">
        <ele>3</ele>
        <time>2016-09-10T10:00:01Z</time>
      </trkpt>
      <trkpt lat="50.18637" lon="1.58892">
        <ele>3</ele>
        <time>2016-09-10T10:00:03Z</time>
      </trkpt>
      <trkpt lat="50.1864" lon="1.58883">
        <ele>3</ele>
        <time>2016-09-10T10:00:05Z</time>
      </trkpt>
      <trkpt lat="50.18644" lon="1.58876">
        <ele>3</ele>
        <time>2016-09-10T10:00:07Z</time>
      </trkpt>
      <trkpt lat="50.18648" lon="1.58869">
        <ele>3</ele>
        <time>2016-09-10T10:00:09Z</time>
      </trkpt>
      <trkpt lat="50.18653" lon="1.58862">
        <ele>3</ele>
        <time>2016-09-10T10:00:11Z</time>
      </trkpt>
      <trkpt lat="50.18658" lon="1.58854">
        <ele>3</ele>
        <time>2016-09-10T10:00:13Z</time>
      </trkpt>
      <trkpt lat="50.18663" lon="1.58847">
        <ele>3</ele>
        <time>2016-09-10T10:00:15Z</time>
      </trkpt>
      <trkpt lat="50.18667" lon="1.5884">
        <ele>3</ele>
        <time>2016-09-10T10:00:17Z</time>
      </trkpt>
      <trkpt lat="50.18672" lon="1.58832">
        <ele>3</ele>
        <time>2016-09-10T10:00:19Z</time>
      </trkpt>
      <trkpt lat="50.18677" lon="1.58824">
        <ele>3</ele>
        <time>2016-09-10T10:00:21Z</time>
      </trkpt>
      <trkpt lat="50.18681" lon="1.58816">
        <ele>3</ele>
        <time>2016-09-10T10:00:23Z</time>
      </trkpt>
      <trkpt lat="50.18686" lon="1.58809">
        <ele>3</ele>
        <time>2016-09-10T10:00:25Z</time>
      </trkpt>
      <trkpt lat="50.18691" lon="1.58801">
        <ele>3</ele>
        <time>2016-09-10T10:00:27Z</time>
      </trkpt>
      <trkpt lat="50.18695" lon="1.58794">
        <ele>3</ele>
        <time>2016-09-10T10:00:29Z</time>
      </trkpt>
      <trkpt lat="50.187" lon="1.58787">
        <ele>2</ele>
        <time>2016-09-10T10:00:31Z</time>
      </trkpt>
      <trkpt lat="50.18705" lon="1.58779">
        <ele>2</ele>
        <time>2016-09-10T10:00:33Z</time>
      </trkpt>
      <trkpt lat="50.18709" lon="1.58772">
        <ele>3</ele>
        <time>2016-09-10T10:00:35Z</time>
      </trkpt>
      <trkpt lat="50.18714" lon="1.58763">
        <ele>3</ele>
        <time>2016-09-10T10:00:37Z</time>
      </trkpt>
      <trkpt lat="50.18719" lon="1.58755">
        <ele>3</ele>
        <time>2016-09-10T10:00:39Z</time>
      </trkpt>
      <trkpt lat="50.18724" lon="1.58748">
        <ele>3</ele>
        <time>2016-09-10T10:00:41Z</time>
      </trkpt>
      <trkpt lat="50.18729" lon="1.5874">
        <ele>3</ele>
        <time>2016-09-10T10:00:43Z</time>
      </trkpt>
      <trkpt lat="50.18733" lon="1.58732">
        <ele>3</ele>
        <time>2016-09-10T10:00:45Z</time>
      </trkpt>
      <trkpt lat="50.18738" lon="1.58724">
        <ele>3</ele>
        <time>2016-09-10T10:00:47Z</time>
      </trkpt>
      <trkpt lat="50.18742" lon="1.58716">
        <ele>3</ele>
        <time>2016-09-10T10:00:49Z</time>
      </trkpt>
      <trkpt lat="50.18747" lon="1.58708">
        <ele>3</ele>
        <time>2016-09-10T10:00:51Z</time>
      </trkpt>
      <trkpt lat="50.18751" lon="1.58699">
        <ele>3</ele>
        <time>2016-09-10T10:00:53Z</time>
      </trkpt>
      <trkpt lat="50.18756" lon="1.58691">
        <ele>3</ele>
        <time>2016-09-10T10:00:55Z</time>
      </trkpt>
      <trkpt lat="50.1876" lon="1.58684">
        <ele>3</ele>
        <time>2016-09-10T10:00:57Z</time>
      </trkpt>
      <trkpt lat="50.18765" lon="1.58677">
        <ele>3</ele>
        <time>2016-09-10T10:00:59Z</time>
      </trkpt>
      <trkpt lat="50.1877" lon="1.5867">
        <ele>3</ele>
        <time>2016-09-10T10:01:01Z</time>
      </trkpt>
      <trkpt lat="50.18774" lon="1.58663">
        <ele>3</ele>
        <time>2016-09-10T10:01:03Z</time>
      </trkpt>
      <trkpt lat="50.18779" lon="1.58655">
        <ele>3</ele>
        <time>2016-09-10T10:01:05Z</time>
      </trkpt>
      <trkpt lat="50.18838" lon="1.58552">
        <ele>2</ele>
        <time>2016-09-10T10:01:34Z</time>
      </trkpt>
      <trkpt lat="50.18845" lon="1.58546">
        <ele>2</ele>
        <time>2016-09-10T10:01:39Z</time>
      </trkpt>
      <trkpt lat="50.18849" lon="1.5854">
        <ele>2</ele>
        <time>2016-09-10T10:01:41Z</time>
      </trkpt>
      <trkpt lat="50.18853" lon="1.58534">
        <ele>2</ele>
        <time>2016-09-10T10:01:43Z</time>
      </trkpt>
      <trkpt lat="50.18857" lon="1.58529">
        <ele>2</ele>
        <time>2016-09-10T10:01:45Z</time>
      </trkpt>
      <trkpt lat="50.18862" lon="1.58522">
        <ele>2</ele>
        <time>2016-09-10T10:01:47Z</time>
      </trkpt>
      <trkpt lat="50.18866" lon="1.58515">
        <ele>2</ele>
        <time>2016-09-10T10:01:49Z</time>
      </trkpt>
      <trkpt lat="50.18869" lon="1.58509">
        <ele>2</ele>
        <time>2016-09-10T10:01:51Z</time>
      </trkpt>
      <trkpt lat="50.18873" lon="1.58502">
        <ele>2</ele>
        <time>2016-09-10T10:01:53Z</time>
      </trkpt>
      <trkpt lat="50.18877" lon="1.58495">
        <ele>2</ele>
        <time>2016-09-10T10:01:55Z</time>
      </trkpt>
      <trkpt lat="50.18881" lon="1.58489">
        <ele>2</ele>
        <time>2016-09-10T10:01:57Z</time>
      </trkpt>
      <trkpt lat="50.18886" lon="1.58483">
        <ele>2</ele>
        <time>2016-09-10T10:01:59Z</time>
      </trkpt>
      <trkpt lat="50.1889" lon="1.58476">
        <ele>2</ele>
        <time>2016-09-10T10:02:01Z</time>
      </trkpt>
      <trkpt lat="50.18894" lon="1.5847">
        <ele>2</ele>
        <time>2016-09-10T10:02:03Z</time>
      </trkpt>
      <trkpt lat="50.18898" lon="1.58463">
        <ele>2</ele>
        <time>2016-09-10T10:02:05Z</time>
      </trkpt>
      <trkpt lat="50.18902" lon="1.58457">
        <ele>2</ele>
        <time>2016-09-10T10:02:07Z</time>
      </trkpt>
      <trkpt lat="50.18906" lon="1.58451">
        <ele>2</ele>
        <time>2016-09-10T10:02:09Z</time>
      </trkpt>
      <trkpt lat="50.1891" lon="1.58445">
        <ele>2</ele>
        <time>2016-09-10T10:02:11Z</time>
      </trkpt>
      <trkpt lat="50.18913" lon="1.58438">
        <ele>2</ele>
        <time>2016-09-10T10:02:13Z</time>
      </trkpt>
      <trkpt lat="50.18917" lon="1.58433">
        <ele>2</ele>
        <time>2016-09-10T10:02:15Z</time>
      </trkpt>
      <trkpt lat="50.18923" lon="1.58423">
        <ele>2</ele>
        <time>2016-09-10T10:02:19Z</time>
      </trkpt>
      <trkpt lat="50.18927" lon="1.58418">
        <ele>2</ele>
        <time>2016-09-10T10:02:21Z</time>
      </trkpt>
      <trkpt lat="50.18932" lon="1.58408">
        <ele>2</ele>
        <time>2016-09-10T10:02:25Z</time>
      </trkpt>
      <trkpt lat="50.18936" lon="1.58401">
        <ele>2</ele>
        <time>2016-09-10T10:02:29Z</time>
      </trkpt>
      <trkpt lat="50.18939" lon="1.58395">
        <ele>2</ele>
        <time>2016-09-10T10:02:33Z</time>
      </trkpt>
      <trkpt lat="50.18944" lon="1.58389">
        <ele>2</ele>
        <time>2016-09-10T10:02:37Z</time>
      </trkpt>
      <trkpt lat="50.1895" lon="1.58385">
        <ele>2</ele>
        <time>2016-09-10T10:02:41Z</time>
      </trkpt>
      <trkpt lat="50.18959" lon="1.58382">
        <ele>2</ele>
        <time>2016-09-10T10:02:45Z</time>
      </trkpt>
      <trkpt lat="50.18963" lon="1.58381">
        <ele>2</ele>
        <time>2016-09-10T10:02:47Z</time>
      </trkpt>
      <trkpt lat="50.18968" lon="1.58382">
        <ele>2</ele>
        <time>2016-09-10T10:02:49Z</time>
      </trkpt>
      <trkpt lat="50.18974" lon="1.58383">
        <ele>2</ele>
        <time>2016-09-10T10:02:51Z</time>
      </trkpt>
      <trkpt lat="50.1898" lon="1.58383">
        <ele>2</ele>
        <time>2016-09-10T10:02:53Z</time>
      </trkpt>
      <trkpt lat="50.18985" lon="1.58383">
        <ele>2</ele>
        <time>2016-09-10T10:02:55Z</time>
      </trkpt>
      <trkpt lat="50.1899" lon="1.58381">
        <ele>2</ele>
        <time>2016-09-10T10:02:57Z</time>
      </trkpt>
      <trkpt lat="50.18996" lon="1.5838">
        <ele>2</ele>
        <time>2016-09-10T10:02:59Z</time>
      </trkpt>
      <trkpt lat="50.19001" lon="1.58379">
        <ele>2</ele>
        <time>2016-09-10T10:03:01Z</time>
      </trkpt>
      <trkpt lat="50.19006" lon="1.58379">
        <ele>2</ele>
        <time>2016-09-10T10:03:03Z</time>
      </trkpt>
      <trkpt lat="50.19011" lon="1.58379">
        <ele>2</ele>
        <time>2016-09-10T10:03:05Z</time>
      </trkpt>
      <trkpt lat="50.19016" lon="1.58379">
        <ele>2</ele>
        <time>2016-09-10T10:03:07Z</time>
      </trkpt>
      <trkpt lat="50.19021" lon="1.58377">
        <ele>2</ele>
        <time>2016-09-10T10:03:09Z</time>
      </trkpt>
      <trkpt lat="50.19025" lon="1.58376">
        <ele>2</ele>
        <time>2016-09-10T10:03:11Z</time>
      </trkpt>
      <trkpt lat="50.1903" lon="1.58374">
        <ele>2</ele>
        <time>2016-09-10T10:03:13Z</time>
      </trkpt>
      <trkpt lat="50.19035" lon="1.58373">
        <ele>2</ele>
        <time>2016-09-10T10:03:15Z</time>
      </trkpt>
      <trkpt lat="50.1904" lon="1.58372">
        <ele>2</ele>
        <time>2016-09-10T10:03:17Z</time>
      </trkpt>
      <trkpt lat="50.19045" lon="1.58371">
        <ele>2</ele>
        <time>2016-09-10T10:03:19Z</time>
      </trkpt>
      <trkpt lat="50.1905" lon="1.58371">
        <ele>2</ele>
        <time>2016-09-10T10:03:21Z</time>
      </trkpt>
      <trkpt lat="50.19055" lon="1.58371">
        <ele>2</ele>
        <time>2016-09-10T10:03:23Z</time>
      </trkpt>
      <trkpt lat="50.19061" lon="1.58372">
        <ele>2</ele>
        <time>2016-09-10T10:03:25Z</time>
      </trkpt>
      <trkpt lat="50.19066" lon="1.58372">
        <ele>2</ele>
        <time>2016-09-10T10:03:27Z</time>
      </trkpt>
      <trkpt lat="50.19072" lon="1.58372">
        <ele>2</ele>
        <time>2016-09-10T10:03:29Z</time>
      </trkpt>
      <trkpt lat="50.19077" lon="1.58374">
        <ele>2</ele>
        <time>2016-09-10T10:03:31Z</time>
      </trkpt>
      <trkpt lat="50.19082" lon="1.58375">
        <ele>2</ele>
        <time>2016-09-10T10:03:33Z</time>
      </trkpt>
      <trkpt lat="50.19087" lon="1.58376">
        <ele>2</ele>
        <time>2016-09-10T10:03:35Z</time>
      </trkpt>
      <trkpt lat="50.19091" lon="1.58377">
        <ele>2</ele>
        <time>2016-09-10T10:03:37Z</time>
      </trkpt>
      <trkpt lat="50.19096" lon="1.58378">
        <ele>2</ele>
        <time>2016-09-10T10:03:39Z</time>
      </trkpt>
      <trkpt lat="50.19101" lon="1.5838">
        <ele>2</ele>
        <time>2016-09-10T10:03:41Z</time>
      </trkpt>
      <trkpt lat="50.19109" lon="1.58384">
        <ele>2</ele>
        <time>2016-09-10T10:03:45Z</time>
      </trkpt>
      <trkpt lat="50.19116" lon="1.58388">
        <ele>2</ele>
        <time>2016-09-10T10:03:49Z</time>
      </trkpt>
      <trkpt lat="50.1912" lon="1.58395">
        <ele>2</ele>
        <time>2016-09-10T10:03:55Z</time>
      </trkpt>
      <trkpt lat="50.19116" lon="1.58392">
        <ele>2</ele>
        <time>2016-09-10T10:10:39Z</time>
      </trkpt>
      <trkpt lat="50.19117" lon="1.58381">
        <ele>2</ele>
        <time>2016-09-10T10:10:51Z</time>
      </trkpt>
      <trkpt lat="50.19121" lon="1.58371">
        <ele>2</ele>
        <time>2016-09-10T10:10:55Z</time>
      </trkpt>
      <trkpt lat="50.19126" lon="1.5836">
        <ele>3</ele>
        <time>2016-09-10T10:10:59Z</time>
      </trkpt>
      <trkpt lat="50.19132" lon="1.5835">
        <ele>3</ele>
        <time>2016-09-10T10:11:03Z</time>
      </trkpt>
      <trkpt lat="50.19099" lon="1.58292">
        <ele>2</ele>
        <time>2016-09-10T10:11:35Z</time>
      </trkpt>
      <trkpt lat="50.19087" lon="1.58287">
        <ele>2</ele>
        <time>2016-09-10T10:11:39Z</time>
      </trkpt>
      <trkpt lat="50.19081" lon="1.58286">
        <ele>2</ele>
        <time>2016-09-10T10:11:41Z</time>
      </trkpt>
      <trkpt lat="50.19075" lon="1.58285">
        <ele>2</ele>
        <time>2016-09-10T10:11:43Z</time>
      </trkpt>
      <trkpt lat="50.1907" lon="1.58285">
        <ele>2</ele>
        <time>2016-09-10T10:11:45Z</time>
      </trkpt>
      <trkpt lat="50.1906" lon="1.58283">
        <ele>2</ele>
        <time>2016-09-10T10:11:49Z</time>
      </trkpt>
      <trkpt lat="50.19056" lon="1.58282">
        <ele>2</ele>
        <time>2016-09-10T10:11:51Z</time>
      </trkpt>
      <trkpt lat="50.1905" lon="1.58281">
        <ele>2</ele>
        <time>2016-09-10T10:11:53Z</time>
      </trkpt>
      <trkpt lat="50.1904" lon="1.58282">
        <ele>2</ele>
        <time>2016-09-10T10:11:57Z</time>
      </trkpt>
      <trkpt lat="50.19035" lon="1.58282">
        <ele>2</ele>
        <time>2016-09-10T10:11:59Z</time>
      </trkpt>
      <trkpt lat="50.19029" lon="1.58281">
        <ele>2</ele>
        <time>2016-09-10T10:12:01Z</time>
      </trkpt>
      <trkpt lat="50.19024" lon="1.5828">
        <ele>2</ele>
        <time>2016-09-10T10:12:03Z</time>
      </trkpt>
      <trkpt lat="50.1902" lon="1.58275">
        <ele>2</ele>
        <time>2016-09-10T10:12:05Z</time>
      </trkpt>
      <trkpt lat="50.1902" lon="1.58268">
        <ele>2</ele>
        <time>2016-09-10T10:12:07Z</time>
      </trkpt>
      <trkpt lat="50.19023" lon="1.58259">
        <ele>2</ele>
        <time>2016-09-10T10:12:09Z</time>
      </trkpt>
      <trkpt lat="50.19028" lon="1.58253">
        <ele>2</ele>
        <time>2016-09-10T10:12:11Z</time>
      </trkpt>
      <trkpt lat="50.19033" lon="1.58247">
        <ele>2</ele>
        <time>2016-09-10T10:12:13Z</time>
      </trkpt>
      <trkpt lat="50.19037" lon="1.58241">
        <ele>2</ele>
        <time>2016-09-10T10:12:15Z</time>
      </trkpt>
      <trkpt lat="50.19042" lon="1.58235">
        <ele>2</ele>
        <time>2016-09-10T10:12:17Z</time>
      </trkpt>
      <trkpt lat="50.19046" lon="1.58229">
        <ele>2</ele>
        <time>2016-09-10T10:12:19Z</time>
      </trkpt>
      <trkpt lat="50.1905" lon="1.58223">
        <ele>2</ele>
        <time>2016-09-10T10:12:21Z</time>
      </trkpt>
      <trkpt lat="50.19054" lon="1.58216">
        <ele>2</ele>
        <time>2016-09-10T10:12:23Z</time>
      </trkpt>
      <trkpt lat="50.19058" lon="1.5821">
        <ele>2</ele>
        <time>2016-09-10T10:12:25Z</time>
      </trkpt>
      <trkpt lat="50.19063" lon="1.58204">
        <ele>2</ele>
        <time>2016-09-10T10:12:27Z</time>
      </trkpt>
      <trkpt lat="50.19067" lon="1.58198">
        <ele>2</ele>
        <time>2016-09-10T10:12:29Z</time>
      </trkpt>
      <trkpt lat="50.19072" lon="1.58193">
        <ele>2</ele>
        <time>2016-09-10T10:12:31Z</time>
      </trkpt>
      <trkpt lat="50.19076" lon="1.58187">
        <ele>2</ele>
        <time>2016-09-10T10:12:33Z</time>
      </trkpt>
      <trkpt lat="50.1908" lon="1.5818">
        <ele>2</ele>
        <time>2016-09-10T10:12:35Z</time>
      </trkpt>
      <trkpt lat="50.19084" lon="1.58173">
        <ele>2</ele>
        <time>2016-09-10T10:12:37Z</time>
      </trkpt>
      <trkpt lat="50.19088" lon="1.58167">
        <ele>2</ele>
        <time>2016-09-10T10:12:39Z</time>
      </trkpt>
      <trkpt lat="50.19092" lon="1.58161">
        <ele>2</ele>
        <time>2016-09-10T10:12:41Z</time>
      </trkpt>
      <trkpt lat="50.19097" lon="1.58154">
        <ele>2</ele>
        <time>2016-09-10T10:12:43Z</time>
      </trkpt>
      <trkpt lat="50.19101" lon="1.58147">
        <ele>2</ele>
        <time>2016-09-10T10:12:45Z</time>
      </trkpt>
      <trkpt lat="50.19105" lon="1.5814">
        <ele>2</ele>
        <time>2016-09-10T10:12:47Z</time>
      </trkpt>
      <trkpt lat="50.19109" lon="1.58133">
        <ele>2</ele>
        <time>2016-09-10T10:12:49Z</time>
      </trkpt>
      <trkpt lat="50.19113" lon="1.58127">
        <ele>2</ele>
        <time>2016-09-10T10:12:51Z</time>
      </trkpt>
      <trkpt lat="50.19117" lon="1.5812">
        <ele>2</ele>
        <time>2016-09-10T10:12:53Z</time>
      </trkpt>
      <trkpt lat="50.19121" lon="1.58113">
        <ele>2</ele>
        <time>2016-09-10T10:12:55Z</time>
      </trkpt>
      <trkpt lat="50.19125" lon="1.58106">
        <ele>2</ele>
        <time>2016-09-10T10:12:57Z</time>
      </trkpt>
      <trkpt lat="50.19129" lon="1.58098">
        <ele>3</ele>
        <time>2016-09-10T10:12:59Z</time>
      </trkpt>
      <trkpt lat="50.19134" lon="1.58092">
        <ele>3</ele>
        <time>2016-09-10T10:13:01Z</time>
      </trkpt>
      <trkpt lat="50.19139" lon="1.58087">
        <ele>3</ele>
        <time>2016-09-10T10:13:03Z</time>
      </trkpt>
      <trkpt lat="50.19144" lon="1.58081">
        <ele>3</ele>
        <time>2016-09-10T10:13:05Z</time>
      </trkpt>
      <trkpt lat="50.19148" lon="1.58075">
        <ele>3</ele>
        <time>2016-09-10T10:13:07Z</time>
      </trkpt>
      <trkpt lat="50.19151" lon="1.58068">
        <ele>3</ele>
        <time>2016-09-10T10:13:09Z</time>
      </trkpt>
      <trkpt lat="50.19154" lon="1.58062">
        <ele>3</ele>
        <time>2016-09-10T10:13:11Z</time>
      </trkpt>
      <trkpt lat="50.19157" lon="1.58056">
        <ele>3</ele>
        <time>2016-09-10T10:13:13Z</time>
      </trkpt>
      <trkpt lat="50.1916" lon="1.58049">
        <ele>3</ele>
        <time>2016-09-10T10:13:15Z</time>
      </trkpt>
      <trkpt lat="50.19163" lon="1.58043">
        <ele>3</ele>
        <time>2016-09-10T10:13:17Z</time>
      </trkpt>
      <trkpt lat="50.19169" lon="1.58033">
        <ele>3</ele>
        <time>2016-09-10T10:13:21Z</time>
      </trkpt>
      <trkpt lat="50.19172" lon="1.58027">
        <ele>3</ele>
        <time>2016-09-10T10:13:23Z</time>
      </trkpt>
      <trkpt lat="50.19176" lon="1.5802">
        <ele>3</ele>
        <time>2016-09-10T10:13:25Z</time>
      </trkpt>
      <trkpt lat="50.19182" lon="1.58011">
        <ele>3</ele>
        <time>2016-09-10T10:13:29Z</time>
      </trkpt>
      <trkpt lat="50.19186" lon="1.58006">
        <ele>3</ele>
        <time>2016-09-10T10:13:31Z</time>
      </trkpt>
      <trkpt lat="50.19189" lon="1.58001">
        <ele>3</ele>
        <time>2016-09-10T10:13:33Z</time>
      </trkpt>
      <trkpt lat="50.19192" lon="1.57995">
        <ele>2</ele>
        <time>2016-09-10T10:13:35Z</time>
      </trkpt>
      <trkpt lat="50.19195" lon="1.5799">
        <ele>2</ele>
        <time>2016-09-10T10:13:37Z</time>
      </trkpt>
      <trkpt lat="50.19201" lon="1.57981">
        <ele>2</ele>
        <time>2016-09-10T10:13:41Z</time>
      </trkpt>
      <trkpt lat="50.19204" lon="1.57975">
        <ele>2</ele>
        <time>2016-09-10T10:13:43Z</time>
      </trkpt>
      <trkpt lat="50.19207" lon="1.57969">
        <ele>2</ele>
        <time>2016-09-10T10:13:45Z</time>
      </trkpt>
      <trkpt lat="50.19211" lon="1.57964">
        <ele>2</ele>
        <time>2016-09-10T10:13:47Z</time>
      </trkpt>
      <trkpt lat="50.19214" lon="1.57958">
        <ele>2</ele>
        <time>2016-09-10T10:13:49Z</time>
      </trkpt>
      <trkpt lat="50.19219" lon="1.57953">
        <ele>2</ele>
        <time>2016-09-10T10:13:51Z</time>
      </trkpt>
      <trkpt lat="50.19223" lon="1.57944">
        <ele>2</ele>
        <time>2016-09-10T10:13:53Z</time>
      </trkpt>
      <trkpt lat="50.19227" lon="1.57937">
        <ele>2</ele>
        <time>2016-09-10T10:13:55Z</time>
      </trkpt>
      <trkpt lat="50.19231" lon="1.57929">
        <ele>2</ele>
        <time>2016-09-10T10:13:57Z</time>
      </trkpt>
      <trkpt lat="50.19235" lon="1.57923">
        <ele>2</ele>
        <time>2016-09-10T10:13:59Z</time>
      </trkpt>
      <trkpt lat="50.19239" lon="1.57916">
        <ele>2</ele>
        <time>2016-09-10T10:14:01Z</time>
      </trkpt>
      <trkpt lat="50.19243" lon="1.57909">
        <ele>2</ele>
        <time>2016-09-10T10:14:03Z</time>
      </trkpt>
      <trkpt lat="50.19247" lon="1.57902">
        <ele>2</ele>
        <time>2016-09-10T10:14:05Z</time>
      </trkpt>
      <trkpt lat="50.1925" lon="1.57896">
        <ele>2</ele>
        <time>2016-09-10T10:14:07Z</time>
      </trkpt>
      <trkpt lat="50.19254" lon="1.5789">
        <ele>2</ele>
        <time>2016-09-10T10:14:09Z</time>
      </trkpt>
      <trkpt lat="50.19258" lon="1.57883">
        <ele>2</ele>
        <time>2016-09-10T10:14:11Z</time>
      </trkpt>
      <trkpt lat="50.19262" lon="1.57876">
        <ele>3</ele>
        <time>2016-09-10T10:14:13Z</time>
      </trkpt>
      <trkpt lat="50.19266" lon="1.57869">
        <ele>3</ele>
        <time>2016-09-10T10:14:15Z</time>
      </trkpt>
      <trkpt lat="50.19269" lon="1.57862">
        <ele>3</ele>
        <time>2016-09-10T10:14:17Z</time>
      </trkpt>
      <trkpt lat="50.19273" lon="1.57855">
        <ele>3</ele>
        <time>2016-09-10T10:14:19Z</time>
      </trkpt>
      <trkpt lat="50.19277" lon="1.57847">
        <ele>3</ele>
        <time>2016-09-10T10:14:21Z</time>
      </trkpt>
      <trkpt lat="50.19281" lon="1.57841">
        <ele>3</ele>
        <time>2016-09-10T10:14:23Z</time>
      </trkpt>
      <trkpt lat="50.19285" lon="1.57834">
        <ele>3</ele>
        <time>2016-09-10T10:14:25Z</time>
      </trkpt>
      <trkpt lat="50.19289" lon="1.57827">
        <ele>3</ele>
        <time>2016-09-10T10:14:27Z</time>
      </trkpt>
      <trkpt lat="50.19293" lon="1.5782">
        <ele>3</ele>
        <time>2016-09-10T10:14:29Z</time>
      </trkpt>
      <trkpt lat="50.19297" lon="1.57813">
        <ele>3</ele>
        <time>2016-09-10T10:14:31Z</time>
      </trkpt>
      <trkpt lat="50.193" lon="1.57805">
        <ele>3</ele>
        <time>2016-09-10T10:14:33Z</time>
      </trkpt>
      <trkpt lat="50.19304" lon="1.57798">
        <ele>3</ele>
        <time>2016-09-10T10:14:35Z</time>
      </trkpt>
      <trkpt lat="50.19307" lon="1.5779">
        <ele>3</ele>
        <time>2016-09-10T10:14:37Z</time>
      </trkpt>
      <trkpt lat="50.1931" lon="1.57782">
        <ele>3</ele>
        <time>2016-09-10T10:14:39Z</time>
      </trkpt>
      <trkpt lat="50.19312" lon="1.57774">
        <ele>3</ele>
        <time>2016-09-10T10:14:41Z</time>
      </trkpt>
      <trkpt lat="50.19314" lon="1.57766">
        <ele>3</ele>
        <time>2016-09-10T10:14:43Z</time>
      </trkpt>
      <trkpt lat="50.19316" lon="1.57758">
        <ele>3</ele>
        <time>2016-09-10T10:14:45Z</time>
      </trkpt>
      <trkpt lat="50.19319" lon="1.57751">
        <ele>3</ele>
        <time>2016-09-10T10:14:47Z</time>
      </trkpt>
      <trkpt lat="50.19321" lon="1.57743">
        <ele>3</ele>
        <time>2016-09-10T10:14:49Z</time>
      </trkpt>
      <trkpt lat="50.19324" lon="1.57735">
        <ele>3</ele>
        <time>2016-09-10T10:14:51Z</time>
      </trkpt>
      <trkpt lat="50.19326" lon="1.57729">
        <ele>3</ele>
        <time>2016-09-10T10:14:53Z</time>
      </trkpt>
      <trkpt lat="50.19329" lon="1.57722">
        <ele>2</ele>
        <time>2016-09-10T10:14:55Z</time>
      </trkpt>
      <trkpt lat="50.19331" lon="1.57715">
        <ele>2</ele>
        <time>2016-09-10T10:14:57Z</time>
      </trkpt>
      <trkpt lat="50.19333" lon="1.57707">
        <ele>2</ele>
        <time>2016-09-10T10:14:59Z</time>
      </trkpt>
      <trkpt lat="50.19335" lon="1.577">
        <ele>3</ele>
        <time>2016-09-10T10:15:01Z</time>
      </trkpt>
      <trkpt lat="50.19338" lon="1.57692">
        <ele>3</ele>
        <time>2016-09-10T10:15:03Z</time>
      </trkpt>
      <trkpt lat="50.1934" lon="1.57686">
        <ele>3</ele>
        <time>2016-09-10T10:15:05Z</time>
      </trkpt>
      <trkpt lat="50.19343" lon="1.57679">
        <ele>3</ele>
        <time>2016-09-10T10:15:07Z</time>
      </trkpt>
      <trkpt lat="50.19346" lon="1.57672">
        <ele>3</ele>
        <time>2016-09-10T10:15:09Z</time>
      </trkpt>
      <trkpt lat="50.19348" lon="1.57665">
        <ele>2</ele>
        <time>2016-09-10T10:15:11Z</time>
      </trkpt>
      <trkpt lat="50.1935" lon="1.57657">
        <ele>3</ele>
        <time>2016-09-10T10:15:13Z</time>
      </trkpt>
      <trkpt lat="50.19353" lon="1.57649">
        <ele>3</ele>
        <time>2016-09-10T10:15:15Z</time>
      </trkpt>
      <trkpt lat="50.19356" lon="1.57642">
        <ele>3</ele>
        <time>2016-09-10T10:15:17Z</time>
      </trkpt>
      <trkpt lat="50.19359" lon="1.57634">
        <ele>3</ele>
        <time>2016-09-10T10:15:19Z</time>
      </trkpt>
      <trkpt lat="50.19362" lon="1.57626">
        <ele>3</ele>
        <time>2016-09-10T10:15:21Z</time>
      </trkpt>
      <trkpt lat="50.19365" lon="1.57618">
        <ele>3</ele>
        <time>2016-09-10T10:15:23Z</time>
      </trkpt>
      <trkpt lat="50.19369" lon="1.5761">
        <ele>3</ele>
        <time>2016-09-10T10:15:25Z</time>
      </trkpt>
      <trkpt lat="50.19372" lon="1.57602">
        <ele>3</ele>
        <time>2016-09-10T10:15:27Z</time>
      </trkpt>
      <trkpt lat="50.19375" lon="1.57594">
        <ele>3</ele>
        <time>2016-09-10T10:15:29Z</time>
      </trkpt>
      <trkpt lat="50.19378" lon="1.57587">
        <ele>3</ele>
        <time>2016-09-10T10:15:31Z</time>
      </trkpt>
      <trkpt lat="50.19381" lon="1.57579">
        <ele>3</ele>
        <time>2016-09-10T10:15:33Z</time>
      </trkpt>
      <trkpt lat="50.19383" lon="1.57571">
        <ele>3</ele>
        <time>2016-09-10T10:15:35Z</time>
      </trkpt>
      <trkpt lat="50.19385" lon="1.57563">
        <ele>3</ele>
        <time>2016-09-10T10:15:37Z</time>
      </trkpt>
      <trkpt lat="50.19388" lon="1.57554">
        <ele>3</ele>
        <time>2016-09-10T10:15:39Z</time>
      </trkpt>
      <trkpt lat="50.1939" lon="1.57547">
        <ele>3</ele>
        <time>2016-09-10T10:15:41Z</time>
      </trkpt>
      <trkpt lat="50.19393" lon="1.57539">
        <ele>3</ele>
        <time>2016-09-10T10:15:43Z</time>
      </trkpt>
      <trkpt lat="50.19396" lon="1.57531">
        <ele>3</ele>
        <time>2016-09-10T10:15:45Z</time>
      </trkpt>
      <trkpt lat="50.19399" lon="1.57524">
        <ele>3</ele>
        <time>2016-09-10T10:15:47Z</time>
      </trkpt>
      <trkpt lat="50.19401" lon="1.57516">
        <ele>2</ele>
        <time>2016-09-10T10:15:49Z</time>
      </trkpt>
      <trkpt lat="50.19404" lon="1.57507">
        <ele>2</ele>
        <time>2016-09-10T10:15:51Z</time>
      </trkpt>
      <trkpt lat="50.19406" lon="1.57499">
        <ele>2</ele>
        <time>2016-09-10T10:15:53Z</time>
      </trkpt>
      <trkpt lat="50.19408" lon="1.5749">
        <ele>2</ele>
        <time>2016-09-10T10:15:55Z</time>
      </trkpt>
      <trkpt lat="50.1941" lon="1.57482">
        <ele>2</ele>
        <time>2016-09-10T10:15:57Z</time>
      </trkpt>
      <trkpt lat="50.19413" lon="1.57474">
        <ele>2</ele>
        <time>2016-09-10T10:15:59Z</time>
      </trkpt>
      <trkpt lat="50.19415" lon="1.57467">
        <ele>2</ele>
        <time>2016-09-10T10:16:01Z</time>
      </trkpt>
      <trkpt lat="50.19417" lon="1.57459">
        <ele>2</ele>
        <time>2016-09-10T10:16:03Z</time>
      </trkpt>
      <trkpt lat="50.1942" lon="1.57451">
        <ele>2</ele>
        <time>2016-09-10T10:16:05Z</time>
      </trkpt>
      <trkpt lat="50.19457" lon="1.57345">
        <ele>2</ele>
        <time>2016-09-10T10:16:35Z</time>
      </trkpt>
      <trkpt lat="50.19461" lon="1.57334">
        <ele>3</ele>
        <time>2016-09-10T10:16:39Z</time>
      </trkpt>
      <trkpt lat="50.19464" lon="1.57323">
        <ele>3</ele>
        <time>2016-09-10T10:16:43Z</time>
      </trkpt>
      <trkpt lat="50.19466" lon="1.57314">
        <ele>3</ele>
        <time>2016-09-10T10:16:47Z</time>
      </trkpt>
      <trkpt lat="50.19471" lon="1.57302">
        <ele>3</ele>
        <time>2016-09-10T10:16:51Z</time>
      </trkpt>
      <trkpt lat="50.19473" lon="1.57295">
        <ele>3</ele>
        <time>2016-09-10T10:16:53Z</time>
      </trkpt>
      <trkpt lat="50.19475" lon="1.57288">
        <ele>3</ele>
        <time>2016-09-10T10:16:55Z</time>
      </trkpt>
      <trkpt lat="50.19478" lon="1.57281">
        <ele>3</ele>
        <time>2016-09-10T10:16:57Z</time>
      </trkpt>
      <trkpt lat="50.1948" lon="1.57274">
        <ele>3</ele>
        <time>2016-09-10T10:16:59Z</time>
      </trkpt>
      <trkpt lat="50.19483" lon="1.57268">
        <ele>3</ele>
        <time>2016-09-10T10:17:01Z</time>
      </trkpt>
      <trkpt lat="50.19485" lon="1.57261">
        <ele>3</ele>
        <time>2016-09-10T10:17:03Z</time>
      </trkpt>
      <trkpt lat="50.19487" lon="1.57254">
        <ele>3</ele>
        <time>2016-09-10T10:17:05Z</time>
      </trkpt>
      <trkpt lat="50.19489" lon="1.57247">
        <ele>3</ele>
        <time>2016-09-10T10:17:07Z</time>
      </trkpt>
      <trkpt lat="50.19491" lon="1.5724">
        <ele>3</ele>
        <time>2016-09-10T10:17:09Z</time>
      </trkpt>
      <trkpt lat="50.19493" lon="1.57232">
        <ele>3</ele>
        <time>2016-09-10T10:17:11Z</time>
      </trkpt>
      <trkpt lat="50.19495" lon="1.57225">
        <ele>3</ele>
        <time>2016-09-10T10:17:13Z</time>
      </trkpt>
      <trkpt lat="50.19497" lon="1.57218">
        <ele>3</ele>
        <time>2016-09-10T10:17:15Z</time>
      </trkpt>
      <trkpt lat="50.19501" lon="1.57207">
        <ele>3</ele>
        <time>2016-09-10T10:17:19Z</time>
      </trkpt>
      <trkpt lat="50.19508" lon="1.57202">
        <ele>3</ele>
        <time>2016-09-10T10:17:23Z</time>
      </trkpt>
      <trkpt lat="50.19514" lon="1.57194">
        <ele>3</ele>
        <time>2016-09-10T10:17:27Z</time>
      </trkpt>
      <trkpt lat="50.19516" lon="1.57181">
        <ele>3</ele>
        <time>2016-09-10T10:17:31Z</time>
      </trkpt>
      <trkpt lat="50.19518" lon="1.57168">
        <ele>3</ele>
        <time>2016-09-10T10:17:35Z</time>
      </trkpt>
      <trkpt lat="50.19519" lon="1.57161">
        <ele>3</ele>
        <time>2016-09-10T10:17:37Z</time>
      </trkpt>
      <trkpt lat="50.19521" lon="1.57152">
        <ele>3</ele>
        <time>2016-09-10T10:17:39Z</time>
      </trkpt>
      <trkpt lat="50.19524" lon="1.57144">
        <ele>3</ele>
        <time>2016-09-10T10:17:41Z</time>
      </trkpt>
      <trkpt lat="50.19527" lon="1.57137">
        <ele>3</ele>
        <time>2016-09-10T10:17:43Z</time>
      </trkpt>
      <trkpt lat="50.19531" lon="1.57131">
        <ele>3</ele>
        <time>2016-09-10T10:17:45Z</time>
      </trkpt>
      <trkpt lat="50.19534" lon="1.57124">
        <ele>2</ele>
        <time>2016-09-10T10:17:47Z</time>
      </trkpt>
      <trkpt lat="50.19539" lon="1.57118">
        <ele>2</ele>
        <time>2016-09-10T10:17:49Z</time>
      </trkpt>
      <trkpt lat="50.19542" lon="1.57112">
        <ele>2</ele>
        <time>2016-09-10T10:17:51Z</time>
      </trkpt>
      <trkpt lat="50.19546" lon="1.57106">
        <ele>2</ele>
        <time>2016-09-10T10:17:53Z</time>
      </trkpt>
      <trkpt lat="50.1955" lon="1.57099">
        <ele>2</ele>
        <time>2016-09-10T10:17:55Z</time>
      </trkpt>
      <trkpt lat="50.19554" lon="1.57092">
        <ele>2</ele>
        <time>2016-09-10T10:17:57Z</time>
      </trkpt>
      <trkpt lat="50.19557" lon="1.57085">
        <ele>2</ele>
        <time>2016-09-10T10:17:59Z</time>
      </trkpt>
      <trkpt lat="50.19561" lon="1.57078">
        <ele>2</ele>
        <time>2016-09-10T10:18:01Z</time>
      </trkpt>
      <trkpt lat="50.19565" lon="1.5707">
        <ele>2</ele>
        <time>2016-09-10T10:18:03Z</time>
      </trkpt>
      <trkpt lat="50.19568" lon="1.57064">
        <ele>2</ele>
        <time>2016-09-10T10:18:05Z</time>
      </trkpt>
      <trkpt lat="50.19572" lon="1.57054">
        <ele>2</ele>
        <time>2016-09-10T10:18:07Z</time>
      </trkpt>
      <trkpt lat="50.19575" lon="1.57046">
        <ele>2</ele>
        <time>2016-09-10T10:18:09Z</time>
      </trkpt>
      <trkpt lat="50.19578" lon="1.57038">
        <ele>2</ele>
        <time>2016-09-10T10:18:11Z</time>
      </trkpt>
      <trkpt lat="50.19581" lon="1.5703">
        <ele>2</ele>
        <time>2016-09-10T10:18:13Z</time>
      </trkpt>
      <trkpt lat="50.19584" lon="1.57023">
        <ele>3</ele>
        <time>2016-09-10T10:18:15Z</time>
      </trkpt>
      <trkpt lat="50.19588" lon="1.57017">
        <ele>2</ele>
        <time>2016-09-10T10:18:17Z</time>
      </trkpt>
      <trkpt lat="50.19591" lon="1.57009">
        <ele>2</ele>
        <time>2016-09-10T10:18:19Z</time>
      </trkpt>
      <trkpt lat="50.19594" lon="1.57003">
        <ele>2</ele>
        <time>2016-09-10T10:18:21Z</time>
      </trkpt>
      <trkpt lat="50.19598" lon="1.56996">
        <ele>2</ele>
        <time>2016-09-10T10:18:23Z</time>
      </trkpt>
      <trkpt lat="50.19601" lon="1.5699">
        <ele>3</ele>
        <time>2016-09-10T10:18:25Z</time>
      </trkpt>
      <trkpt lat="50.19604" lon="1.56984">
        <ele>3</ele>
        <time>2016-09-10T10:18:27Z</time>
      </trkpt>
      <trkpt lat="50.19608" lon="1.56977">
        <ele>3</ele>
        <time>2016-09-10T10:18:29Z</time>
      </trkpt>
      <trkpt lat="50.19611" lon="1.56971">
        <ele>3</ele>
        <time>2016-09-10T10:18:31Z</time>
      </trkpt>
      <trkpt lat="50.19615" lon="1.56964">
        <ele>3</ele>
        <time>2016-09-10T10:18:33Z</time>
      </trkpt>
      <trkpt lat="50.19619" lon="1.56958">
        <ele>3</ele>
        <time>2016-09-10T10:18:35Z</time>
      </trkpt>
      <trkpt lat="50.19623" lon="1.56953">
        <ele>3</ele>
        <time>2016-09-10T10:18:37Z</time>
      </trkpt>
      <trkpt lat="50.1963" lon="1.56945">
        <ele>3</ele>
        <time>2016-09-10T10:18:41Z</time>
      </trkpt>
      <trkpt lat="50.19636" lon="1.56937">
        <ele>3</ele>
        <time>2016-09-10T10:18:45Z</time>
      </trkpt>
      <trkpt lat="50.19639" lon="1.56932">
        <ele>3</ele>
        <time>2016-09-10T10:18:47Z</time>
      </trkpt>
      <trkpt lat="50.19643" lon="1.56927">
        <ele>3</ele>
        <time>2016-09-10T10:18:49Z</time>
      </trkpt>
      <trkpt lat="50.19647" lon="1.56921">
        <ele>3</ele>
        <time>2016-09-10T10:18:51Z</time>
      </trkpt>
      <trkpt lat="50.19651" lon="1.56915">
        <ele>4</ele>
        <time>2016-09-10T10:18:53Z</time>
      </trkpt>
      <trkpt lat="50.19654" lon="1.56908">
        <ele>4</ele>
        <time>2016-09-10T10:18:55Z</time>
      </trkpt>
      <trkpt lat="50.19657" lon="1.56903">
        <ele>4</ele>
        <time>2016-09-10T10:18:57Z</time>
      </trkpt>
      <trkpt lat="50.1966" lon="1.56897">
        <ele>3</ele>
        <time>2016-09-10T10:18:59Z</time>
      </trkpt>
      <trkpt lat="50.19664" lon="1.56892">
        <ele>3</ele>
        <time>2016-09-10T10:19:01Z</time>
      </trkpt>
      <trkpt lat="50.19668" lon="1.56886">
        <ele>4</ele>
        <time>2016-09-10T10:19:03Z</time>
      </trkpt>
      <trkpt lat="50.19672" lon="1.56882">
        <ele>4</ele>
        <time>2016-09-10T10:19:05Z</time>
      </trkpt>
      <trkpt lat="50.19676" lon="1.56877">
        <ele>4</ele>
        <time>2016-09-10T10:19:07Z</time>
      </trkpt>
      <trkpt lat="50.1968" lon="1.5687">
        <ele>4</ele>
        <time>2016-09-10T10:19:09Z</time>
      </trkpt>
      <trkpt lat="50.19684" lon="1.56864">
        <ele>4</ele>
        <time>2016-09-10T10:19:11Z</time>
      </trkpt>
      <trkpt lat="50.19687" lon="1.56858">
        <ele>4</ele>
        <time>2016-09-10T10:19:13Z</time>
      </trkpt>
      <trkpt lat="50.19691" lon="1.56852">
        <ele>4</ele>
        <time>2016-09-10T10:19:15Z</time>
      </trkpt>
      <trkpt lat="50.19695" lon="1.56845">
        <ele>4</ele>
        <time>2016-09-10T10:19:17Z</time>
      </trkpt>
      <trkpt lat="50.19698" lon="1.56839">
        <ele>4</ele>
        <time>2016-09-10T10:19:19Z</time>
      </trkpt>
      <trkpt lat="50.19702" lon="1.56831">
        <ele>3</ele>
        <time>2016-09-10T10:19:21Z</time>
      </trkpt>
      <trkpt lat="50.19706" lon="1.56824">
        <ele>3</ele>
        <time>2016-09-10T10:19:23Z</time>
      </trkpt>
      <trkpt lat="50.19709" lon="1.56818">
        <ele>3</ele>
        <time>2016-09-10T10:19:25Z</time>
      </trkpt>
      <trkpt lat="50.19713" lon="1.56811">
        <ele>3</ele>
        <time>2016-09-10T10:19:27Z</time>
      </trkpt>
      <trkpt lat="50.19716" lon="1.56805">
        <ele>3</ele>
        <time>2016-09-10T10:19:29Z</time>
      </trkpt>
      <trkpt lat="50.1972" lon="1.56799">
        <ele>3</ele>
        <time>2016-09-10T10:19:31Z</time>
      </trkpt>
      <trkpt lat="50.19724" lon="1.56793">
        <ele>3</ele>
        <time>2016-09-10T10:19:33Z</time>
      </trkpt>
      <trkpt lat="50.19727" lon="1.56786">
        <ele>3</ele>
        <time>2016-09-10T10:19:35Z</time>
      </trkpt>
      <trkpt lat="50.19731" lon="1.5678">
        <ele>3</ele>
        <time>2016-09-10T10:19:37Z</time>
      </trkpt>
      <trkpt lat="50.19735" lon="1.56773">
        <ele>3</ele>
        <time>2016-09-10T10:19:39Z</time>
      </trkpt>
      <trkpt lat="50.19738" lon="1.56767">
        <ele>3</ele>
        <time>2016-09-10T10:19:41Z</time>
      </trkpt>
      <trkpt lat="50.19742" lon="1.56761">
        <ele>2</ele>
        <time>2016-09-10T10:19:43Z</time>
      </trkpt>
      <trkpt lat="50.19746" lon="1.56755">
        <ele>2</ele>
        <time>2016-09-10T10:19:45Z</time>
      </trkpt>
      <trkpt lat="50.19749" lon="1.56748">
        <ele>2</ele>
        <time>2016-09-10T10:19:47Z</time>
      </trkpt>
      <trkpt lat="50.19754" lon="1.56742">
        <ele>2</ele>
        <time>2016-09-10T10:19:49Z</time>
      </trkpt>
      <trkpt lat="50.19758" lon="1.56735">
        <ele>2</ele>
        <time>2016-09-10T10:19:51Z</time>
      </trkpt>
      <trkpt lat="50.19762" lon="1.56729">
        <ele>2</ele>
        <time>2016-09-10T10:19:53Z</time>
      </trkpt>
      <trkpt lat="50.19767" lon="1.56722">
        <ele>2</ele>
        <time>2016-09-10T10:19:55Z</time>
      </trkpt>
      <trkpt lat="50.19771" lon="1.56715">
        <ele>2</ele>
        <time>2016-09-10T10:19:57Z</time>
      </trkpt>
      <trkpt lat="50.19775" lon="1.56707">
        <ele>2</ele>
        <time>2016-09-10T10:19:59Z</time>
      </trkpt>
      <trkpt lat="50.19779" lon="1.56701">
        <ele>2</ele>
        <time>2016-09-10T10:20:01Z</time>
      </trkpt>
      <trkpt lat="50.19783" lon="1.56694">
        <ele>2</ele>
        <time>2016-09-10T10:20:03Z</time>
      </trkpt>
      <trkpt lat="50.19787" lon="1.56688">
        <ele>2</ele>
        <time>2016-09-10T10:20:05Z</time>
      </trkpt>
      <trkpt lat="50.19791" lon="1.56683">
        <ele>2</ele>
        <time>2016-09-10T10:20:07Z</time>
      </trkpt>
      <trkpt lat="50.19795" lon="1.56676">
        <ele>2</ele>
        <time>2016-09-10T10:20:09Z</time>
      </trkpt>
      <trkpt lat="50.19799" lon="1.5667">
        <ele>2</ele>
        <time>2016-09-10T10:20:11Z</time>
      </trkpt>
      <trkpt lat="50.19802" lon="1.56665">
        <ele>2</ele>
        <time>2016-09-10T10:20:13Z</time>
      </trkpt>
      <trkpt lat="50.19806" lon="1.56659">
        <ele>2</ele>
        <time>2016-09-10T10:20:15Z</time>
      </trkpt>
      <trkpt lat="50.19809" lon="1.56654">
        <ele>2</ele>
        <time>2016-09-10T10:20:17Z</time>
      </trkpt>
      <trkpt lat="50.19814" lon="1.56649">
        <ele>2</ele>
        <time>2016-09-10T10:20:19Z</time>
      </trkpt>
      <trkpt lat="50.19818" lon="1.56644">
        <ele>2</ele>
        <time>2016-09-10T10:20:21Z</time>
      </trkpt>
      <trkpt lat="50.19822" lon="1.56638">
        <ele>2</ele>
        <time>2016-09-10T10:20:23Z</time>
      </trkpt>
      <trkpt lat="50.19827" lon="1.56635">
        <ele>2</ele>
        <time>2016-09-10T10:20:25Z</time>
      </trkpt>
      <trkpt lat="50.19831" lon="1.56629">
        <ele>2</ele>
        <time>2016-09-10T10:20:27Z</time>
      </trkpt>
      <trkpt lat="50.19835" lon="1.56624">
        <ele>2</ele>
        <time>2016-09-10T10:20:29Z</time>
      </trkpt>
      <trkpt lat="50.19839" lon="1.56619">
        <ele>2</ele>
        <time>2016-09-10T10:20:31Z</time>
      </trkpt>
      <trkpt lat="50.19843" lon="1.56613">
        <ele>2</ele>
        <time>2016-09-10T10:20:33Z</time>
      </trkpt>
      <trkpt lat="50.19847" lon="1.56607">
        <ele>2</ele>
        <time>2016-09-10T10:20:35Z</time>
      </trkpt>
      <trkpt lat="50.19851" lon="1.56601">
        <ele>2</ele>
        <time>2016-09-10T10:20:37Z</time>
      </trkpt>
      <trkpt lat="50.19855" lon="1.56596">
        <ele>2</ele>
        <time>2016-09-10T10:20:39Z</time>
      </trkpt>
      <trkpt lat="50.19859" lon="1.5659">
        <ele>2</ele>
        <time>2016-09-10T10:20:41Z</time>
      </trkpt>
      <trkpt lat="50.19864" lon="1.56586">
        <ele>2</ele>
        <time>2016-09-10T10:20:43Z</time>
      </trkpt>
      <trkpt lat="50.19869" lon="1.56581">
        <ele>3</ele>
        <time>2016-09-10T10:20:45Z</time>
      </trkpt>
      <trkpt lat="50.19875" lon="1.56577">
        <ele>3</ele>
        <time>2016-09-10T10:20:47Z</time>
      </trkpt>
      <trkpt lat="50.19881" lon="1.56573">
        <ele>2</ele>
        <time>2016-09-10T10:20:49Z</time>
      </trkpt>
      <trkpt lat="50.19887" lon="1.56569">
        <ele>2</ele>
        <time>2016-09-10T10:20:51Z</time>
      </trkpt>
      <trkpt lat="50.19892" lon="1.56565">
        <ele>2</ele>
        <time>2016-09-10T10:20:53Z</time>
      </trkpt>
      <trkpt lat="50.19898" lon="1.56562">
        <ele>2</ele>
        <time>2016-09-10T10:20:55Z</time>
      </trkpt>
      <trkpt lat="50.19904" lon="1.56558">
        <ele>2</ele>
        <time>2016-09-10T10:20:57Z</time>
      </trkpt>
      <trkpt lat="50.19909" lon="1.56556">
        <ele>2</ele>
        <time>2016-09-10T10:20:59Z</time>
      </trkpt>
      <trkpt lat="50.19915" lon="1.56553">
        <ele>2</ele>
        <time>2016-09-10T10:21:01Z</time>
      </trkpt>
      <trkpt lat="50.19921" lon="1.5655">
        <ele>2</ele>
        <time>2016-09-10T10:21:03Z</time>
      </trkpt>
      <trkpt lat="50.19925" lon="1.56547">
        <ele>2</ele>
        <time>2016-09-10T10:21:05Z</time>
      </trkpt>
      <trkpt lat="50.1993" lon="1.56544">
        <ele>2</ele>
        <time>2016-09-10T10:21:07Z</time>
      </trkpt>
      <trkpt lat="50.19936" lon="1.56542">
        <ele>2</ele>
        <time>2016-09-10T10:21:09Z</time>
      </trkpt>
      <trkpt lat="50.19941" lon="1.5654">
        <ele>2</ele>
        <time>2016-09-10T10:21:11Z</time>
      </trkpt>
      <trkpt lat="50.19947" lon="1.56537">
        <ele>2</ele>
        <time>2016-09-10T10:21:13Z</time>
      </trkpt>
      <trkpt lat="50.19952" lon="1.56534">
        <ele>2</ele>
        <time>2016-09-10T10:21:15Z</time>
      </trkpt>
      <trkpt lat="50.19957" lon="1.5653">
        <ele>2</ele>
        <time>2016-09-10T10:21:17Z</time>
      </trkpt>
      <trkpt lat="50.19963" lon="1.56527">
        <ele>2</ele>
        <time>2016-09-10T10:21:19Z</time>
      </trkpt>
      <trkpt lat="50.19968" lon="1.56523">
        <ele>2</ele>
        <time>2016-09-10T10:21:21Z</time>
      </trkpt>
      <trkpt lat="50.19973" lon="1.5652">
        <ele>2</ele>
        <time>2016-09-10T10:21:23Z</time>
      </trkpt>
      <trkpt lat="50.19978" lon="1.56517">
        <ele>2</ele>
        <time>2016-09-10T10:21:25Z</time>
      </trkpt>
      <trkpt lat="50.19984" lon="1.56514">
        <ele>2</ele>
        <time>2016-09-10T10:21:27Z</time>
      </trkpt>
      <trkpt lat="50.19989" lon="1.56512">
        <ele>2</ele>
        <time>2016-09-10T10:21:29Z</time>
      </trkpt>
      <trkpt lat="50.19996" lon="1.56509">
        <ele>2</ele>
        <time>2016-09-10T10:21:33Z</time>
      </trkpt>
      <trkpt lat="50.20001" lon="1.56507">
        <ele>2</ele>
        <time>2016-09-10T10:21:35Z</time>
      </trkpt>
      <trkpt lat="50.2001" lon="1.56504">
        <ele>2</ele>
        <time>2016-09-10T10:21:39Z</time>
      </trkpt>
      <trkpt lat="50.20015" lon="1.56506">
        <ele>2</ele>
        <time>2016-09-10T10:21:41Z</time>
      </trkpt>
      <trkpt lat="50.2002" lon="1.56511">
        <ele>2</ele>
        <time>2016-09-10T10:21:43Z</time>
      </trkpt>
      <trkpt lat="50.20024" lon="1.5652">
        <ele>2</ele>
        <time>2016-09-10T10:21:45Z</time>
      </trkpt>
      <trkpt lat="50.20027" lon="1.56529">
        <ele>2</ele>
        <time>2016-09-10T10:21:47Z</time>
      </trkpt>
      <trkpt lat="50.20029" lon="1.56539">
        <ele>2</ele>
        <time>2016-09-10T10:21:49Z</time>
      </trkpt>
      <trkpt lat="50.20032" lon="1.56551">
        <ele>2</ele>
        <time>2016-09-10T10:21:51Z</time>
      </trkpt>
      <trkpt lat="50.20035" lon="1.56562">
        <ele>2</ele>
        <time>2016-09-10T10:21:53Z</time>
      </trkpt>
      <trkpt lat="50.20038" lon="1.56572">
        <ele>2</ele>
        <time>2016-09-10T10:21:55Z</time>
      </trkpt>
      <trkpt lat="50.2004" lon="1.5658">
        <ele>2</ele>
        <time>2016-09-10T10:21:57Z</time>
      </trkpt>
      <trkpt lat="50.20044" lon="1.56589">
        <ele>2</ele>
        <time>2016-09-10T10:21:59Z</time>
      </trkpt>
      <trkpt lat="50.20048" lon="1.56596">
        <ele>2</ele>
        <time>2016-09-10T10:22:01Z</time>
      </trkpt>
      <trkpt lat="50.20054" lon="1.56601">
        <ele>2</ele>
        <time>2016-09-10T10:22:03Z</time>
      </trkpt>
      <trkpt lat="50.2006" lon="1.56603">
        <ele>2</ele>
        <time>2016-09-10T10:22:05Z</time>
      </trkpt>
      <trkpt lat="50.20066" lon="1.56602">
        <ele>2</ele>
        <time>2016-09-10T10:22:07Z</time>
      </trkpt>
      <trkpt lat="50.20072" lon="1.56602">
        <ele>2</ele>
        <time>2016-09-10T10:22:09Z</time>
      </trkpt>
      <trkpt lat="50.20077" lon="1.56601">
        <ele>2</ele>
        <time>2016-09-10T10:22:11Z</time>
      </trkpt>
      <trkpt lat="50.20083" lon="1.56599">
        <ele>1</ele>
        <time>2016-09-10T10:22:13Z</time>
      </trkpt>
      <trkpt lat="50.20088" lon="1.56598">
        <ele>1</ele>
        <time>2016-09-10T10:22:15Z</time>
      </trkpt>
      <trkpt lat="50.20094" lon="1.56597">
        <ele>1</ele>
        <time>2016-09-10T10:22:17Z</time>
      </trkpt>
      <trkpt lat="50.201" lon="1.56597">
        <ele>1</ele>
        <time>2016-09-10T10:22:19Z</time>
      </trkpt>
      <trkpt lat="50.20107" lon="1.56596">
        <ele>1</ele>
        <time>2016-09-10T10:22:21Z</time>
      </trkpt>
      <trkpt lat="50.20113" lon="1.56595">
        <ele>1</ele>
        <time>2016-09-10T10:22:23Z</time>
      </trkpt>
      <trkpt lat="50.20119" lon="1.56595">
        <ele>1</ele>
        <time>2016-09-10T10:22:25Z</time>
      </trkpt>
      <trkpt lat="50.20126" lon="1.56594">
        <ele>1</ele>
        <time>2016-09-10T10:22:27Z</time>
      </trkpt>
      <trkpt lat="50.20133" lon="1.56594">
        <ele>1</ele>
        <time>2016-09-10T10:22:29Z</time>
      </trkpt>
      <trkpt lat="50.2014" lon="1.56594">
        <ele>1</ele>
        <time>2016-09-10T10:22:31Z</time>
      </trkpt>
      <trkpt lat="50.20146" lon="1.56596">
        <ele>1</ele>
        <time>2016-09-10T10:22:33Z</time>
      </trkpt>
      <trkpt lat="50.20152" lon="1.56601">
        <ele>1</ele>
        <time>2016-09-10T10:22:35Z</time>
      </trkpt>
      <trkpt lat="50.20158" lon="1.56607">
        <ele>1</ele>
        <time>2016-09-10T10:22:37Z</time>
      </trkpt>
      <trkpt lat="50.20163" lon="1.56615">
        <ele>1</ele>
        <time>2016-09-10T10:22:39Z</time>
      </trkpt>
      <trkpt lat="50.20163" lon="1.56622">
        <ele>1</ele>
        <time>2016-09-10T10:26:23Z</time>
      </trkpt>
      <trkpt lat="50.20168" lon="1.56629">
        <ele>2</ele>
        <time>2016-09-10T10:26:41Z</time>
      </trkpt>
      <trkpt lat="50.20173" lon="1.56636">
        <ele>2</ele>
        <time>2016-09-10T10:26:45Z</time>
      </trkpt>
      <trkpt lat="50.20176" lon="1.56642">
        <ele>2</ele>
        <time>2016-09-10T10:27:37Z</time>
      </trkpt>
      <trkpt lat="50.20182" lon="1.56644">
        <ele>2</ele>
        <time>2016-09-10T10:27:57Z</time>
      </trkpt>
      <trkpt lat="50.20188" lon="1.56647">
        <ele>2</ele>
        <time>2016-09-10T10:27:59Z</time>
      </trkpt>
      <trkpt lat="50.20195" lon="1.56649">
        <ele>2</ele>
        <time>2016-09-10T10:28:01Z</time>
      </trkpt>
      <trkpt lat="50.20202" lon="1.56653">
        <ele>2</ele>
        <time>2016-09-10T10:28:03Z</time>
      </trkpt>
      <trkpt lat="50.20208" lon="1.56653">
        <ele>2</ele>
        <time>2016-09-10T10:28:05Z</time>
      </trkpt>
      <trkpt lat="50.20214" lon="1.56651">
        <ele>2</ele>
        <time>2016-09-10T10:28:07Z</time>
      </trkpt>
      <trkpt lat="50.20218" lon="1.56647">
        <ele>2</ele>
        <time>2016-09-10T10:28:09Z</time>
      </trkpt>
      <trkpt lat="50.20224" lon="1.56642">
        <ele>2</ele>
        <time>2016-09-10T10:28:11Z</time>
      </trkpt>
      <trkpt lat="50.20229" lon="1.56637">
        <ele>2</ele>
        <time>2016-09-10T10:28:13Z</time>
      </trkpt>
      <trkpt lat="50.20235" lon="1.56632">
        <ele>2</ele>
        <time>2016-09-10T10:28:15Z</time>
      </trkpt>
      <trkpt lat="50.2024" lon="1.56626">
        <ele>2</ele>
        <time>2016-09-10T10:28:17Z</time>
      </trkpt>
      <trkpt lat="50.20246" lon="1.5662">
        <ele>3</ele>
        <time>2016-09-10T10:28:19Z</time>
      </trkpt>
      <trkpt lat="50.20254" lon="1.56613">
        <ele>3</ele>
        <time>2016-09-10T10:28:21Z</time>
      </trkpt>
      <trkpt lat="50.20263" lon="1.56605">
        <ele>3</ele>
        <time>2016-09-10T10:28:23Z</time>
      </trkpt>
      <trkpt lat="50.20278" lon="1.56596">
        <ele>3</ele>
        <time>2016-09-10T10:28:25Z</time>
      </trkpt>
      <trkpt lat="50.20289" lon="1.56585">
        <ele>3</ele>
        <time>2016-09-10T10:28:27Z</time>
      </trkpt>
      <trkpt lat="50.20299" lon="1.56573">
        <ele>3</ele>
        <time>2016-09-10T10:28:29Z</time>
      </trkpt>
      <trkpt lat="50.20309" lon="1.56558">
        <ele>3</ele>
        <time>2016-09-10T10:28:31Z</time>
      </trkpt>
      <trkpt lat="50.20318" lon="1.5655">
        <ele>3</ele>
        <time>2016-09-10T10:28:33Z</time>
      </trkpt>
      <trkpt lat="50.2033" lon="1.56536">
        <ele>3</ele>
        <time>2016-09-10T10:28:35Z</time>
      </trkpt>
      <trkpt lat="50.2034" lon="1.56523">
        <ele>3</ele>
        <time>2016-09-10T10:28:37Z</time>
      </trkpt>
      <trkpt lat="50.2035" lon="1.56511">
        <ele>3</ele>
        <time>2016-09-10T10:28:39Z</time>
      </trkpt>
      <trkpt lat="50.20361" lon="1.56504">
        <ele>3</ele>
        <time>2016-09-10T10:28:41Z</time>
      </trkpt>
      <trkpt lat="50.20373" lon="1.56494">
        <ele>3</ele>
        <time>2016-09-10T10:28:43Z</time>
      </trkpt>
      <trkpt lat="50.20382" lon="1.56483">
        <ele>3</ele>
        <time>2016-09-10T10:28:45Z</time>
      </trkpt>
      <trkpt lat="50.2039" lon="1.56468">
        <ele>3</ele>
        <time>2016-09-10T10:28:47Z</time>
      </trkpt>
      <trkpt lat="50.20401" lon="1.56456">
        <ele>2</ele>
        <time>2016-09-10T10:28:49Z</time>
      </trkpt>
      <trkpt lat="50.20412" lon="1.56445">
        <ele>2</ele>
        <time>2016-09-10T10:28:51Z</time>
      </trkpt>
      <trkpt lat="50.20421" lon="1.56436">
        <ele>2</ele>
        <time>2016-09-10T10:28:53Z</time>
      </trkpt>
      <trkpt lat="50.20431" lon="1.56421">
        <ele>2</ele>
        <time>2016-09-10T10:28:55Z</time>
      </trkpt>
      <trkpt lat="50.2044" lon="1.5641">
        <ele>2</ele>
        <time>2016-09-10T10:28:57Z</time>
      </trkpt>
      <trkpt lat="50.2045" lon="1.56399">
        <ele>2</ele>
        <time>2016-09-10T10:28:59Z</time>
      </trkpt>
      <trkpt lat="50.20458" lon="1.56387">
        <ele>2</ele>
        <time>2016-09-10T10:29:01Z</time>
      </trkpt>
      <trkpt lat="50.20467" lon="1.56376">
        <ele>2</ele>
        <time>2016-09-10T10:29:03Z</time>
      </trkpt>
      <trkpt lat="50.20476" lon="1.56365">
        <ele>2</ele>
        <time>2016-09-10T10:29:05Z</time>
      </trkpt>
      <trkpt lat="50.20485" lon="1.56357">
        <ele>2</ele>
        <time>2016-09-10T10:29:07Z</time>
      </trkpt>
      <trkpt lat="50.20491" lon="1.56345">
        <ele>2</ele>
        <time>2016-09-10T10:29:09Z</time>
      </trkpt>
      <trkpt lat="50.205" lon="1.56337">
        <ele>2</ele>
        <time>2016-09-10T10:29:11Z</time>
      </trkpt>
      <trkpt lat="50.20507" lon="1.5633">
        <ele>2</ele>
        <time>2016-09-10T10:29:13Z</time>
      </trkpt>
      <trkpt lat="50.20514" lon="1.56322">
        <ele>2</ele>
        <time>2016-09-10T10:29:15Z</time>
      </trkpt>
      <trkpt lat="50.20519" lon="1.56313">
        <ele>2</ele>
        <time>2016-09-10T10:29:17Z</time>
      </trkpt>
      <trkpt lat="50.20527" lon="1.56307">
        <ele>2</ele>
        <time>2016-09-10T10:29:19Z</time>
      </trkpt>
      <trkpt lat="50.20535" lon="1.56302">
        <ele>2</ele>
        <time>2016-09-10T10:29:21Z</time>
      </trkpt>
      <trkpt lat="50.20542" lon="1.56293">
        <ele>2</ele>
        <time>2016-09-10T10:29:23Z</time>
      </trkpt>
      <trkpt lat="50.20546" lon="1.56285">
        <ele>2</ele>
        <time>2016-09-10T10:29:25Z</time>
      </trkpt>
      <trkpt lat="50.20554" lon="1.56282">
        <ele>2</ele>
        <time>2016-09-10T10:29:27Z</time>
      </trkpt>
      <trkpt lat="50.20561" lon="1.56275">
        <ele>2</ele>
        <time>2016-09-10T10:29:29Z</time>
      </trkpt>
      <trkpt lat="50.20566" lon="1.56267">
        <ele>2</ele>
        <time>2016-09-10T10:29:31Z</time>
      </trkpt>
      <trkpt lat="50.20572" lon="1.56257">
        <ele>2</ele>
        <time>2016-09-10T10:29:33Z</time>
      </trkpt>
      <trkpt lat="50.20579" lon="1.56251">
        <ele>2</ele>
        <time>2016-09-10T10:29:35Z</time>
      </trkpt>
      <trkpt lat="50.20585" lon="1.56242">
        <ele>2</ele>
        <time>2016-09-10T10:29:37Z</time>
      </trkpt>
      <trkpt lat="50.20591" lon="1.56235">
        <ele>2</ele>
        <time>2016-09-10T10:29:39Z</time>
      </trkpt>
      <trkpt lat="50.206" lon="1.5623">
        <ele>2</ele>
        <time>2016-09-10T10:29:41Z</time>
      </trkpt>
      <trkpt lat="50.20605" lon="1.56223">
        <ele>2</ele>
        <time>2016-09-10T10:29:43Z</time>
      </trkpt>
      <trkpt lat="50.20611" lon="1.56216">
        <ele>2</ele>
        <time>2016-09-10T10:29:45Z</time>
      </trkpt>
      <trkpt lat="50.20616" lon="1.56208">
        <ele>2</ele>
        <time>2016-09-10T10:29:47Z</time>
      </trkpt>
      <trkpt lat="50.20621" lon="1.562">
        <ele>2</ele>
        <time>2016-09-10T10:29:49Z</time>
      </trkpt>
      <trkpt lat="50.20627" lon="1.56196">
        <ele>2</ele>
        <time>2016-09-10T10:29:51Z</time>
      </trkpt>
      <trkpt lat="50.20632" lon="1.56192">
        <ele>2</ele>
        <time>2016-09-10T10:29:53Z</time>
      </trkpt>
      <trkpt lat="50.20638" lon="1.56188">
        <ele>2</ele>
        <time>2016-09-10T10:29:55Z</time>
      </trkpt>
      <trkpt lat="50.20644" lon="1.56181">
        <ele>2</ele>
        <time>2016-09-10T10:29:57Z</time>
      </trkpt>
      <trkpt lat="50.20651" lon="1.56174">
        <ele>2</ele>
        <time>2016-09-10T10:29:59Z</time>
      </trkpt>
      <trkpt lat="50.20656" lon="1.56165">
        <ele>2</ele>
        <time>2016-09-10T10:30:01Z</time>
      </trkpt>
      <trkpt lat="50.20664" lon="1.5616">
        <ele>2</ele>
        <time>2016-09-10T10:30:03Z</time>
      </trkpt>
      <trkpt lat="50.20669" lon="1.56152">
        <ele>2</ele>
        <time>2016-09-10T10:30:05Z</time>
      </trkpt>
      <trkpt lat="50.20675" lon="1.56146">
        <ele>2</ele>
        <time>2016-09-10T10:30:07Z</time>
      </trkpt>
      <trkpt lat="50.2068" lon="1.56141">
        <ele>2</ele>
        <time>2016-09-10T10:30:09Z</time>
      </trkpt>
      <trkpt lat="50.20686" lon="1.56134">
        <ele>2</ele>
        <time>2016-09-10T10:30:11Z</time>
      </trkpt>
      <trkpt lat="50.20693" lon="1.56127">
        <ele>2</ele>
        <time>2016-09-10T10:30:13Z</time>
      </trkpt>
      <trkpt lat="50.20698" lon="1.56122">
        <ele>2</ele>
        <time>2016-09-10T10:30:15Z</time>
      </trkpt>
      <trkpt lat="50.20704" lon="1.56114">
        <ele>2</ele>
        <time>2016-09-10T10:30:17Z</time>
      </trkpt>
      <trkpt lat="50.20712" lon="1.56106">
        <ele>2</ele>
        <time>2016-09-10T10:30:19Z</time>
      </trkpt>
      <trkpt lat="50.20718" lon="1.56097">
        <ele>2</ele>
        <time>2016-09-10T10:30:21Z</time>
      </trkpt>
      <trkpt lat="50.20725" lon="1.56092">
        <ele>2</ele>
        <time>2016-09-10T10:30:23Z</time>
      </trkpt>
      <trkpt lat="50.20731" lon="1.56086">
        <ele>2</ele>
        <time>2016-09-10T10:30:25Z</time>
      </trkpt>
      <trkpt lat="50.20736" lon="1.56079">
        <ele>2</ele>
        <time>2016-09-10T10:30:27Z</time>
      </trkpt>
      <trkpt lat="50.20742" lon="1.56072">
        <ele>2</ele>
        <time>2016-09-10T10:30:29Z</time>
      </trkpt>
      <trkpt lat="50.20747" lon="1.56065">
        <ele>2</ele>
        <time>2016-09-10T10:30:31Z</time>
      </trkpt>
      <trkpt lat="50.20751" lon="1.56061">
        <ele>2</ele>
        <time>2016-09-10T10:30:33Z</time>
      </trkpt>
      <trkpt lat="50.20755" lon="1.56054">
        <ele>2</ele>
        <time>2016-09-10T10:30:35Z</time>
      </trkpt>
      <trkpt lat="50.20759" lon="1.56049">
        <ele>2</ele>
        <time>2016-09-10T10:30:37Z</time>
      </trkpt>
      <trkpt lat="50.20763" lon="1.56043">
        <ele>2</ele>
        <time>2016-09-10T10:30:39Z</time>
      </trkpt>
      <trkpt lat="50.20769" lon="1.5604">
        <ele>2</ele>
        <time>2016-09-10T10:30:41Z</time>
      </trkpt>
      <trkpt lat="50.20771" lon="1.56032">
        <ele>2</ele>
        <time>2016-09-10T10:30:43Z</time>
      </trkpt>
      <trkpt lat="50.20774" lon="1.56022">
        <ele>2</ele>
        <time>2016-09-10T10:30:47Z</time>
      </trkpt>
      <trkpt lat="50.20778" lon="1.56014">
        <ele>2</ele>
        <time>2016-09-10T10:30:51Z</time>
      </trkpt>
      <trkpt lat="50.20779" lon="1.56007">
        <ele>2</ele>
        <time>2016-09-10T10:30:53Z</time>
      </trkpt>
      <trkpt lat="50.20779" lon="1.56">
        <ele>2</ele>
        <time>2016-09-10T10:30:55Z</time>
      </trkpt>
      <trkpt lat="50.20779" lon="1.55991">
        <ele>2</ele>
        <time>2016-09-10T10:30:57Z</time>
      </trkpt>
      <trkpt lat="50.20782" lon="1.55977">
        <ele>2</ele>
        <time>2016-09-10T10:31:01Z</time>
      </trkpt>
      <trkpt lat="50.20783" lon="1.55969">
        <ele>2</ele>
        <time>2016-09-10T10:31:03Z</time>
      </trkpt>
      <trkpt lat="50.20785" lon="1.55961">
        <ele>2</ele>
        <time>2016-09-10T10:31:05Z</time>
      </trkpt>
      <trkpt lat="50.20787" lon="1.55954">
        <ele>2</ele>
        <time>2016-09-10T10:31:07Z</time>
      </trkpt>
      <trkpt lat="50.2079" lon="1.55946">
        <ele>2</ele>
        <time>2016-09-10T10:31:09Z</time>
      </trkpt>
      <trkpt lat="50.20793" lon="1.55939">
        <ele>3</ele>
        <time>2016-09-10T10:31:11Z</time>
      </trkpt>
      <trkpt lat="50.20796" lon="1.55931">
        <ele>3</ele>
        <time>2016-09-10T10:31:13Z</time>
      </trkpt>
      <trkpt lat="50.20799" lon="1.55923">
        <ele>3</ele>
        <time>2016-09-10T10:31:15Z</time>
      </trkpt>
      <trkpt lat="50.20802" lon="1.55915">
        <ele>3</ele>
        <time>2016-09-10T10:31:17Z</time>
      </trkpt>
      <trkpt lat="50.20805" lon="1.55908">
        <ele>3</ele>
        <time>2016-09-10T10:31:19Z</time>
      </trkpt>
      <trkpt lat="50.20808" lon="1.559">
        <ele>3</ele>
        <time>2016-09-10T10:31:21Z</time>
      </trkpt>
      <trkpt lat="50.20811" lon="1.55893">
        <ele>3</ele>
        <time>2016-09-10T10:31:23Z</time>
      </trkpt>
      <trkpt lat="50.20814" lon="1.55887">
        <ele>3</ele>
        <time>2016-09-10T10:31:25Z</time>
      </trkpt>
      <trkpt lat="50.20818" lon="1.5588">
        <ele>3</ele>
        <time>2016-09-10T10:31:27Z</time>
      </trkpt>
      <trkpt lat="50.2082" lon="1.55873">
        <ele>3</ele>
        <time>2016-09-10T10:31:29Z</time>
      </trkpt>
      <trkpt lat="50.20822" lon="1.55866">
        <ele>3</ele>
        <time>2016-09-10T10:31:31Z</time>
      </trkpt>
      <trkpt lat="50.20825" lon="1.55859">
        <ele>3</ele>
        <time>2016-09-10T10:31:33Z</time>
      </trkpt>
      <trkpt lat="50.20828" lon="1.55852">
        <ele>3</ele>
        <time>2016-09-10T10:31:35Z</time>
      </trkpt>
      <trkpt lat="50.20831" lon="1.55845">
        <ele>3</ele>
        <time>2016-09-10T10:31:37Z</time>
      </trkpt>
      <trkpt lat="50.20833" lon="1.55837">
        <ele>3</ele>
        <time>2016-09-10T10:31:39Z</time>
      </trkpt>
      <trkpt lat="50.20836" lon="1.5583">
        <ele>3</ele>
        <time>2016-09-10T10:31:41Z</time>
      </trkpt>
      <trkpt lat="50.20838" lon="1.55822">
        <ele>3</ele>
        <time>2016-09-10T10:31:43Z</time>
      </trkpt>
      <trkpt lat="50.20841" lon="1.55814">
        <ele>2</ele>
        <time>2016-09-10T10:31:45Z</time>
      </trkpt>
      <trkpt lat="50.20844" lon="1.55807">
        <ele>2</ele>
        <time>2016-09-10T10:31:47Z</time>
      </trkpt>
      <trkpt lat="50.20846" lon="1.558">
        <ele>2</ele>
        <time>2016-09-10T10:31:49Z</time>
      </trkpt>
      <trkpt lat="50.20848" lon="1.55793">
        <ele>2</ele>
        <time>2016-09-10T10:31:51Z</time>
      </trkpt>
      <trkpt lat="50.2085" lon="1.55786">
        <ele>2</ele>
        <time>2016-09-10T10:31:53Z</time>
      </trkpt>
      <trkpt lat="50.20852" lon="1.55779">
        <ele>2</ele>
        <time>2016-09-10T10:31:55Z</time>
      </trkpt>
      <trkpt lat="50.20855" lon="1.55771">
        <ele>2</ele>
        <time>2016-09-10T10:31:59Z</time>
      </trkpt>
      <trkpt lat="50.20859" lon="1.55761">
        <ele>2</ele>
        <time>2016-09-10T10:32:03Z</time>
      </trkpt>
      <trkpt lat="50.20862" lon="1.55755">
        <ele>2</ele>
        <time>2016-09-10T10:32:05Z</time>
      </trkpt>
      <trkpt lat="50.20865" lon="1.55749">
        <ele>2</ele>
        <time>2016-09-10T10:32:07Z</time>
      </trkpt>
      <trkpt lat="50.20867" lon="1.55743">
        <ele>2</ele>
        <time>2016-09-10T10:32:09Z</time>
      </trkpt>
      <trkpt lat="50.2087" lon="1.55735">
        <ele>2</ele>
        <time>2016-09-10T10:32:11Z</time>
      </trkpt>
      <trkpt lat="50.20872" lon="1.55729">
        <ele>2</ele>
        <time>2016-09-10T10:32:13Z</time>
      </trkpt>
      <trkpt lat="50.20875" lon="1.55722">
        <ele>2</ele>
        <time>2016-09-10T10:32:15Z</time>
      </trkpt>
      <trkpt lat="50.20877" lon="1.55715">
        <ele>2</ele>
        <time>2016-09-10T10:32:17Z</time>
      </trkpt>
      <trkpt lat="50.2088" lon="1.55709">
        <ele>2</ele>
        <time>2016-09-10T10:32:19Z</time>
      </trkpt>
      <trkpt lat="50.20883" lon="1.55702">
        <ele>2</ele>
        <time>2016-09-10T10:32:21Z</time>
      </trkpt>
      <trkpt lat="50.20885" lon="1.55696">
        <ele>2</ele>
        <time>2016-09-10T10:32:23Z</time>
      </trkpt>
      <trkpt lat="50.20888" lon="1.5569">
        <ele>2</ele>
        <time>2016-09-10T10:32:25Z</time>
      </trkpt>
      <trkpt lat="50.20891" lon="1.55684">
        <ele>2</ele>
        <time>2016-09-10T10:32:27Z</time>
      </trkpt>
      <trkpt lat="50.20896" lon="1.55673">
        <ele>2</ele>
        <time>2016-09-10T10:32:31Z</time>
      </trkpt>
      <trkpt lat="50.20903" lon="1.55664">
        <ele>2</ele>
        <time>2016-09-10T10:32:35Z</time>
      </trkpt>
      <trkpt lat="50.20908" lon="1.55663">
        <ele>2</ele>
        <time>2016-09-10T10:32:37Z</time>
      </trkpt>
      <trkpt lat="50.20912" lon="1.55665">
        <ele>2</ele>
        <time>2016-09-10T10:32:39Z</time>
      </trkpt>
      <trkpt lat="50.20917" lon="1.55667">
        <ele>2</ele>
        <time>2016-09-10T10:32:41Z</time>
      </trkpt>
      <trkpt lat="50.20921" lon="1.55667">
        <ele>2</ele>
        <time>2016-09-10T10:32:43Z</time>
      </trkpt>
      <trkpt lat="50.20926" lon="1.55668">
        <ele>2</ele>
        <time>2016-09-10T10:32:45Z</time>
      </trkpt>
      <trkpt lat="50.20931" lon="1.55671">
        <ele>2</ele>
        <time>2016-09-10T10:32:47Z</time>
      </trkpt>
      <trkpt lat="50.20935" lon="1.55673">
        <ele>2</ele>
        <time>2016-09-10T10:32:49Z</time>
      </trkpt>
      <trkpt lat="50.2094" lon="1.55676">
        <ele>2</ele>
        <time>2016-09-10T10:32:51Z</time>
      </trkpt>
      <trkpt lat="50.20945" lon="1.5568">
        <ele>2</ele>
        <time>2016-09-10T10:32:53Z</time>
      </trkpt>
      <trkpt lat="50.2095" lon="1.55683">
        <ele>2</ele>
        <time>2016-09-10T10:32:55Z</time>
      </trkpt>
      <trkpt lat="50.20955" lon="1.55686">
        <ele>2</ele>
        <time>2016-09-10T10:32:57Z</time>
      </trkpt>
      <trkpt lat="50.2096" lon="1.5569">
        <ele>3</ele>
        <time>2016-09-10T10:32:59Z</time>
      </trkpt>
      <trkpt lat="50.20965" lon="1.55694">
        <ele>3</ele>
        <time>2016-09-10T10:33:01Z</time>
      </trkpt>
      <trkpt lat="50.20971" lon="1.55699">
        <ele>3</ele>
        <time>2016-09-10T10:33:03Z</time>
      </trkpt>
      <trkpt lat="50.20977" lon="1.55706">
        <ele>3</ele>
        <time>2016-09-10T10:33:05Z</time>
      </trkpt>
      <trkpt lat="50.20984" lon="1.55712">
        <ele>3</ele>
        <time>2016-09-10T10:33:07Z</time>
      </trkpt>
      <trkpt lat="50.20991" lon="1.55718">
        <ele>3</ele>
        <time>2016-09-10T10:33:09Z</time>
      </trkpt>
      <trkpt lat="50.20998" lon="1.55725">
        <ele>3</ele>
        <time>2016-09-10T10:33:11Z</time>
      </trkpt>
      <trkpt lat="50.21005" lon="1.55732">
        <ele>4</ele>
        <time>2016-09-10T10:33:13Z</time>
      </trkpt>
      <trkpt lat="50.21012" lon="1.55739">
        <ele>4</ele>
        <time>2016-09-10T10:33:15Z</time>
      </trkpt>
      <trkpt lat="50.21019" lon="1.55746">
        <ele>4</ele>
        <time>2016-09-10T10:33:17Z</time>
      </trkpt>
      <trkpt lat="50.21026" lon="1.55753">
        <ele>4</ele>
        <time>2016-09-10T10:33:19Z</time>
      </trkpt>
      <trkpt lat="50.21033" lon="1.5576">
        <ele>4</ele>
        <time>2016-09-10T10:33:21Z</time>
      </trkpt>
      <trkpt lat="50.2104" lon="1.55768">
        <ele>4</ele>
        <time>2016-09-10T10:33:23Z</time>
      </trkpt>
      <trkpt lat="50.21047" lon="1.55775">
        <ele>4</ele>
        <time>2016-09-10T10:33:25Z</time>
      </trkpt>
      <trkpt lat="50.21054" lon="1.55783">
        <ele>4</ele>
        <time>2016-09-10T10:33:27Z</time>
      </trkpt>
      <trkpt lat="50.21062" lon="1.55792">
        <ele>4</ele>
        <time>2016-09-10T10:33:29Z</time>
      </trkpt>
      <trkpt lat="50.2107" lon="1.55799">
        <ele>4</ele>
        <time>2016-09-10T10:33:31Z</time>
      </trkpt>
      <trkpt lat="50.21077" lon="1.55808">
        <ele>4</ele>
        <time>2016-09-10T10:33:33Z</time>
      </trkpt>
      <trkpt lat="50.21086" lon="1.55816">
        <ele>4</ele>
        <time>2016-09-10T10:33:35Z</time>
      </trkpt>
      <trkpt lat="50.21093" lon="1.55821">
        <ele>4</ele>
        <time>2016-09-10T10:33:37Z</time>
      </trkpt>
      <trkpt lat="50.21103" lon="1.55827">
        <ele>4</ele>
        <time>2016-09-10T10:33:39Z</time>
      </trkpt>
      <trkpt lat="50.21112" lon="1.55832">
        <ele>4</ele>
        <time>2016-09-10T10:33:41Z</time>
      </trkpt>
      <trkpt lat="50.2112" lon="1.55837">
        <ele>3</ele>
        <time>2016-09-10T10:33:43Z</time>
      </trkpt>
      <trkpt lat="50.21127" lon="1.55843">
        <ele>3</ele>
        <time>2016-09-10T10:33:45Z</time>
      </trkpt>
      <trkpt lat="50.21134" lon="1.55848">
        <ele>3</ele>
        <time>2016-09-10T10:33:47Z</time>
      </trkpt>
      <trkpt lat="50.21141" lon="1.55852">
        <ele>3</ele>
        <time>2016-09-10T10:33:49Z</time>
      </trkpt>
      <trkpt lat="50.21149" lon="1.55855">
        <ele>3</ele>
        <time>2016-09-10T10:33:51Z</time>
      </trkpt>
      <trkpt lat="50.21155" lon="1.55861">
        <ele>3</ele>
        <time>2016-09-10T10:33:53Z</time>
      </trkpt>
      <trkpt lat="50.21164" lon="1.55867">
        <ele>3</ele>
        <time>2016-09-10T10:33:55Z</time>
      </trkpt>
      <trkpt lat="50.2117" lon="1.55873">
        <ele>3</ele>
        <time>2016-09-10T10:33:57Z</time>
      </trkpt>
      <trkpt lat="50.21176" lon="1.5588">
        <ele>3</ele>
        <time>2016-09-10T10:33:59Z</time>
      </trkpt>
      <trkpt lat="50.21183" lon="1.55885">
        <ele>3</ele>
        <time>2016-09-10T10:34:01Z</time>
      </trkpt>
      <trkpt lat="50.21192" lon="1.5589">
        <ele>3</ele>
        <time>2016-09-10T10:34:03Z</time>
      </trkpt>
      <trkpt lat="50.21199" lon="1.55897">
        <ele>3</ele>
        <time>2016-09-10T10:34:05Z</time>
      </trkpt>
      <trkpt lat="50.21206" lon="1.55905">
        <ele>3</ele>
        <time>2016-09-10T10:34:07Z</time>
      </trkpt>
      <trkpt lat="50.21212" lon="1.55911">
        <ele>3</ele>
        <time>2016-09-10T10:34:09Z</time>
      </trkpt>
      <trkpt lat="50.2122" lon="1.5592">
        <ele>2</ele>
        <time>2016-09-10T10:34:11Z</time>
      </trkpt>
      <trkpt lat="50.21227" lon="1.55927">
        <ele>2</ele>
        <time>2016-09-10T10:34:13Z</time>
      </trkpt>
      <trkpt lat="50.21234" lon="1.55934">
        <ele>2</ele>
        <time>2016-09-10T10:34:15Z</time>
      </trkpt>
      <trkpt lat="50.21243" lon="1.55942">
        <ele>2</ele>
        <time>2016-09-10T10:34:17Z</time>
      </trkpt>
      <trkpt lat="50.21249" lon="1.55949">
        <ele>2</ele>
        <time>2016-09-10T10:34:19Z</time>
      </trkpt>
      <trkpt lat="50.21256" lon="1.5596">
        <ele>3</ele>
        <time>2016-09-10T10:34:21Z</time>
      </trkpt>
      <trkpt lat="50.2126" lon="1.55968">
        <ele>3</ele>
        <time>2016-09-10T10:34:23Z</time>
      </trkpt>
      <trkpt lat="50.21266" lon="1.55977">
        <ele>3</ele>
        <time>2016-09-10T10:34:25Z</time>
      </trkpt>
      <trkpt lat="50.21271" lon="1.55987">
        <ele>3</ele>
        <time>2016-09-10T10:34:27Z</time>
      </trkpt>
      <trkpt lat="50.21277" lon="1.55997">
        <ele>3</ele>
        <time>2016-09-10T10:34:29Z</time>
      </trkpt>
      <trkpt lat="50.21282" lon="1.56008">
        <ele>2</ele>
        <time>2016-09-10T10:34:31Z</time>
      </trkpt>
      <trkpt lat="50.21287" lon="1.56015">
        <ele>2</ele>
        <time>2016-09-10T10:34:33Z</time>
      </trkpt>
      <trkpt lat="50.21292" lon="1.56022">
        <ele>3</ele>
        <time>2016-09-10T10:34:35Z</time>
      </trkpt>
      <trkpt lat="50.21298" lon="1.56029">
        <ele>3</ele>
        <time>2016-09-10T10:34:37Z</time>
      </trkpt>
      <trkpt lat="50.21303" lon="1.56037">
        <ele>3</ele>
        <time>2016-09-10T10:34:39Z</time>
      </trkpt>
      <trkpt lat="50.21307" lon="1.56046">
        <ele>3</ele>
        <time>2016-09-10T10:34:41Z</time>
      </trkpt>
      <trkpt lat="50.21314" lon="1.56056">
        <ele>3</ele>
        <time>2016-09-10T10:34:43Z</time>
      </trkpt>
      <trkpt lat="50.21319" lon="1.56065">
        <ele>3</ele>
        <time>2016-09-10T10:34:45Z</time>
      </trkpt>
      <trkpt lat="50.21323" lon="1.56075">
        <ele>3</ele>
        <time>2016-09-10T10:34:47Z</time>
      </trkpt>
      <trkpt lat="50.21328" lon="1.56086">
        <ele>3</ele>
        <time>2016-09-10T10:34:49Z</time>
      </trkpt>
      <trkpt lat="50.21331" lon="1.56097">
        <ele>3</ele>
        <time>2016-09-10T10:34:51Z</time>
      </trkpt>
      <trkpt lat="50.21332" lon="1.56108">
        <ele>2</ele>
        <time>2016-09-10T10:34:53Z</time>
      </trkpt>
      <trkpt lat="50.21336" lon="1.56117">
        <ele>3</ele>
        <time>2016-09-10T10:34:55Z</time>
      </trkpt>
      <trkpt lat="50.21339" lon="1.56128">
        <ele>2</ele>
        <time>2016-09-10T10:34:57Z</time>
      </trkpt>
      <trkpt lat="50.21342" lon="1.56139">
        <ele>2</ele>
        <time>2016-09-10T10:34:59Z</time>
      </trkpt>
      <trkpt lat="50.21345" lon="1.5615">
        <ele>2</ele>
        <time>2016-09-10T10:35:01Z</time>
      </trkpt>
      <trkpt lat="50.2135" lon="1.56161">
        <ele>2</ele>
        <time>2016-09-10T10:35:03Z</time>
      </trkpt>
      <trkpt lat="50.21356" lon="1.56169">
        <ele>2</ele>
        <time>2016-09-10T10:35:05Z</time>
      </trkpt>
      <trkpt lat="50.21361" lon="1.56179">
        <ele>2</ele>
        <time>2016-09-10T10:35:07Z</time>
      </trkpt>
      <trkpt lat="50.21366" lon="1.56189">
        <ele>2</ele>
        <time>2016-09-10T10:35:09Z</time>
      </trkpt>
      <trkpt lat="50.21368" lon="1.56197">
        <ele>2</ele>
        <time>2016-09-10T10:35:11Z</time>
      </trkpt>
      <trkpt lat="50.21372" lon="1.56207">
        <ele>2</ele>
        <time>2016-09-10T10:35:13Z</time>
      </trkpt>
      <trkpt lat="50.21374" lon="1.56218">
        <ele>2</ele>
        <time>2016-09-10T10:35:15Z</time>
      </trkpt>
      <trkpt lat="50.21376" lon="1.5623">
        <ele>3</ele>
        <time>2016-09-10T10:35:17Z</time>
      </trkpt>
      <trkpt lat="50.2138" lon="1.56241">
        <ele>3</ele>
        <time>2016-09-10T10:35:19Z</time>
      </trkpt>
      <trkpt lat="50.21383" lon="1.56253">
        <ele>3</ele>
        <time>2016-09-10T10:35:21Z</time>
      </trkpt>
      <trkpt lat="50.21386" lon="1.56264">
        <ele>3</ele>
        <time>2016-09-10T10:35:23Z</time>
      </trkpt>
      <trkpt lat="50.21388" lon="1.56273">
        <ele>3</ele>
        <time>2016-09-10T10:35:25Z</time>
      </trkpt>
      <trkpt lat="50.21391" lon="1.56284">
        <ele>3</ele>
        <time>2016-09-10T10:35:27Z</time>
      </trkpt>
      <trkpt lat="50.21393" lon="1.56294">
        <ele>3</ele>
        <time>2016-09-10T10:35:29Z</time>
      </trkpt>
      <trkpt lat="50.21394" lon="1.56307">
        <ele>3</ele>
        <time>2016-09-10T10:35:31Z</time>
      </trkpt>
      <trkpt lat="50.21396" lon="1.56319">
        <ele>3</ele>
        <time>2016-09-10T10:35:33Z</time>
      </trkpt>
      <trkpt lat="50.21397" lon="1.56328">
        <ele>3</ele>
        <time>2016-09-10T10:35:35Z</time>
      </trkpt>
      <trkpt lat="50.21401" lon="1.56341">
        <ele>3</ele>
        <time>2016-09-10T10:35:37Z</time>
      </trkpt>
      <trkpt lat="50.21405" lon="1.56353">
        <ele>3</ele>
        <time>2016-09-10T10:35:39Z</time>
      </trkpt>
      <trkpt lat="50.21406" lon="1.56364">
        <ele>3</ele>
        <time>2016-09-10T10:35:41Z</time>
      </trkpt>
      <trkpt lat="50.21409" lon="1.56375">
        <ele>3</ele>
        <time>2016-09-10T10:35:43Z</time>
      </trkpt>
      <trkpt lat="50.21412" lon="1.56382">
        <ele>3</ele>
        <time>2016-09-10T10:35:45Z</time>
      </trkpt>
      <trkpt lat="50.21415" lon="1.56393">
        <ele>3</ele>
        <time>2016-09-10T10:35:47Z</time>
      </trkpt>
      <trkpt lat="50.21418" lon="1.56403">
        <ele>4</ele>
        <time>2016-09-10T10:35:49Z</time>
      </trkpt>
      <trkpt lat="50.21419" lon="1.56415">
        <ele>3</ele>
        <time>2016-09-10T10:35:51Z</time>
      </trkpt>
      <trkpt lat="50.21422" lon="1.56422">
        <ele>3</ele>
        <time>2016-09-10T10:35:53Z</time>
      </trkpt>
      <trkpt lat="50.21424" lon="1.56434">
        <ele>3</ele>
        <time>2016-09-10T10:35:57Z</time>
      </trkpt>
      <trkpt lat="50.21421" lon="1.56448">
        <ele>3</ele>
        <time>2016-09-10T10:36:01Z</time>
      </trkpt>
      <trkpt lat="50.21422" lon="1.56459">
        <ele>3</ele>
        <time>2016-09-10T10:36:03Z</time>
      </trkpt>
      <trkpt lat="50.21422" lon="1.56469">
        <ele>3</ele>
        <time>2016-09-10T10:36:05Z</time>
      </trkpt>
      <trkpt lat="50.21424" lon="1.56479">
        <ele>3</ele>
        <time>2016-09-10T10:36:07Z</time>
      </trkpt>
      <trkpt lat="50.21428" lon="1.5649">
        <ele>2</ele>
        <time>2016-09-10T10:36:09Z</time>
      </trkpt>
      <trkpt lat="50.21431" lon="1.565">
        <ele>2</ele>
        <time>2016-09-10T10:36:11Z</time>
      </trkpt>
      <trkpt lat="50.21434" lon="1.5651">
        <ele>2</ele>
        <time>2016-09-10T10:36:13Z</time>
      </trkpt>
      <trkpt lat="50.21437" lon="1.56517">
        <ele>2</ele>
        <time>2016-09-10T10:36:15Z</time>
      </trkpt>
      <trkpt lat="50.21442" lon="1.56526">
        <ele>2</ele>
        <time>2016-09-10T10:36:17Z</time>
      </trkpt>
      <trkpt lat="50.21443" lon="1.56535">
        <ele>2</ele>
        <time>2016-09-10T10:36:19Z</time>
      </trkpt>
      <trkpt lat="50.21445" lon="1.56544">
        <ele>2</ele>
        <time>2016-09-10T10:36:21Z</time>
      </trkpt>
      <trkpt lat="50.2145" lon="1.56554">
        <ele>2</ele>
        <time>2016-09-10T10:36:23Z</time>
      </trkpt>
      <trkpt lat="50.21453" lon="1.56562">
        <ele>2</ele>
        <time>2016-09-10T10:36:25Z</time>
      </trkpt>
      <trkpt lat="50.21456" lon="1.5657">
        <ele>2</ele>
        <time>2016-09-10T10:36:27Z</time>
      </trkpt>
      <trkpt lat="50.2146" lon="1.56577">
        <ele>2</ele>
        <time>2016-09-10T10:36:29Z</time>
      </trkpt>
      <trkpt lat="50.21461" lon="1.56587">
        <ele>2</ele>
        <time>2016-09-10T10:36:31Z</time>
      </trkpt>
      <trkpt lat="50.21465" lon="1.56594">
        <ele>2</ele>
        <time>2016-09-10T10:36:33Z</time>
      </trkpt>
      <trkpt lat="50.21467" lon="1.56601">
        <ele>2</ele>
        <time>2016-09-10T10:36:35Z</time>
      </trkpt>
      <trkpt lat="50.21471" lon="1.56608">
        <ele>2</ele>
        <time>2016-09-10T10:36:37Z</time>
      </trkpt>
      <trkpt lat="50.2147" lon="1.56616">
        <ele>2</ele>
        <time>2016-09-10T10:36:39Z</time>
      </trkpt>
      <trkpt lat="50.21473" lon="1.56624">
        <ele>2</ele>
        <time>2016-09-10T10:36:41Z</time>
      </trkpt>
      <trkpt lat="50.21478" lon="1.56635">
        <ele>2</ele>
        <time>2016-09-10T10:36:45Z</time>
      </trkpt>
      <trkpt lat="50.21482" lon="1.56647">
        <ele>1</ele>
        <time>2016-09-10T10:36:49Z</time>
      </trkpt>
      <trkpt lat="50.21488" lon="1.56649">
        <ele>1</ele>
        <time>2016-09-10T10:36:53Z</time>
      </trkpt>
      <trkpt lat="50.21495" lon="1.56646">
        <ele>1</ele>
        <time>2016-09-10T10:36:57Z</time>
      </trkpt>
      <trkpt lat="50.215" lon="1.5664">
        <ele>2</ele>
        <time>2016-09-10T10:37:01Z</time>
      </trkpt>
      <trkpt lat="50.21504" lon="1.56637">
        <ele>2</ele>
        <time>2016-09-10T10:37:05Z</time>
      </trkpt>
      <trkpt lat="50.2151" lon="1.56634">
        <ele>2</ele>
        <time>2016-09-10T10:37:09Z</time>
      </trkpt>
      <trkpt lat="50.21518" lon="1.56629">
        <ele>2</ele>
        <time>2016-09-10T10:37:13Z</time>
      </trkpt>
      <trkpt lat="50.21525" lon="1.56625">
        <ele>2</ele>
        <time>2016-09-10T10:37:17Z</time>
      </trkpt>
      <trkpt lat="50.21529" lon="1.56623">
        <ele>2</ele>
        <time>2016-09-10T10:37:19Z</time>
      </trkpt>
      <trkpt lat="50.21534" lon="1.56621">
        <ele>2</ele>
        <time>2016-09-10T10:37:21Z</time>
      </trkpt>
      <trkpt lat="50.21542" lon="1.56614">
        <ele>2</ele>
        <time>2016-09-10T10:37:25Z</time>
      </trkpt>
      <trkpt lat="50.21549" lon="1.56611">
        <ele>2</ele>
        <time>2016-09-10T10:37:29Z</time>
      </trkpt>
      <trkpt lat="50.21556" lon="1.56604">
        <ele>2</ele>
        <time>2016-09-10T10:37:33Z</time>
      </trkpt>
      <trkpt lat="50.2156" lon="1.56601">
        <ele>3</ele>
        <time>2016-09-10T10:37:37Z</time>
      </trkpt>
      <trkpt lat="50.21566" lon="1.566">
        <ele>3</ele>
        <time>2016-09-10T10:40:53Z</time>
      </trkpt>
      <trkpt lat="50.2157" lon="1.56595">
        <ele>3</ele>
        <time>2016-09-10T10:40:57Z</time>
      </trkpt>
      <trkpt lat="50.21578" lon="1.56594">
        <ele>3</ele>
        <time>2016-09-10T10:41:01Z</time>
      </trkpt>
      <trkpt lat="50.21585" lon="1.56591">
        <ele>3</ele>
        <time>2016-09-10T10:41:03Z</time>
      </trkpt>
      <trkpt lat="50.21592" lon="1.56593">
        <ele>3</ele>
        <time>2016-09-10T10:41:05Z</time>
      </trkpt>
      <trkpt lat="50.21599" lon="1.56596">
        <ele>3</ele>
        <time>2016-09-10T10:41:07Z</time>
      </trkpt>
      <trkpt lat="50.21609" lon="1.56598">
        <ele>3</ele>
        <time>2016-09-10T10:41:09Z</time>
      </trkpt>
      <trkpt lat="50.21617" lon="1.56601">
        <ele>3</ele>
        <time>2016-09-10T10:41:11Z</time>
      </trkpt>
      <trkpt lat="50.21622" lon="1.56599">
        <ele>3</ele>
        <time>2016-09-10T10:41:13Z</time>
      </trkpt>
      <trkpt lat="50.21627" lon="1.56594">
        <ele>3</ele>
        <time>2016-09-10T10:41:15Z</time>
      </trkpt>
      <trkpt lat="50.21631" lon="1.56588">
        <ele>3</ele>
        <time>2016-09-10T10:41:17Z</time>
      </trkpt>
      <trkpt lat="50.21635" lon="1.5658">
        <ele>3</ele>
        <time>2016-09-10T10:41:19Z</time>
      </trkpt>
      <trkpt lat="50.21641" lon="1.56575">
        <ele>3</ele>
        <time>2016-09-10T10:41:21Z</time>
      </trkpt>
      <trkpt lat="50.21649" lon="1.56585">
        <ele>3</ele>
        <time>2016-09-10T10:41:25Z</time>
      </trkpt>
      <trkpt lat="50.21652" lon="1.56593">
        <ele>3</ele>
        <time>2016-09-10T10:41:27Z</time>
      </trkpt>
      <trkpt lat="50.21652" lon="1.56604">
        <ele>3</ele>
        <time>2016-09-10T10:41:29Z</time>
      </trkpt>
      <trkpt lat="50.21653" lon="1.56614">
        <ele>3</ele>
        <time>2016-09-10T10:41:31Z</time>
      </trkpt>
      <trkpt lat="50.21656" lon="1.56623">
        <ele>3</ele>
        <time>2016-09-10T10:41:33Z</time>
      </trkpt>
      <trkpt lat="50.21659" lon="1.56628">
        <ele>3</ele>
        <time>2016-09-10T10:41:35Z</time>
      </trkpt>
      <trkpt lat="50.21666" lon="1.56636">
        <ele>3</ele>
        <time>2016-09-10T10:41:39Z</time>
      </trkpt>
      <trkpt lat="50.2167" lon="1.56642">
        <ele>3</ele>
        <time>2016-09-10T10:41:41Z</time>
      </trkpt>
      <trkpt lat="50.21676" lon="1.56645">
        <ele>3</ele>
        <time>2016-09-10T10:41:43Z</time>
      </trkpt>
      <trkpt lat="50.2168" lon="1.56648">
        <ele>3</ele>
        <time>2016-09-10T10:41:45Z</time>
      </trkpt>
      <trkpt lat="50.21683" lon="1.56663">
        <ele>3</ele>
        <time>2016-09-10T10:41:49Z</time>
      </trkpt>
      <trkpt lat="50.21684" lon="1.56672">
        <ele>3</ele>
        <time>2016-09-10T10:41:51Z</time>
      </trkpt>
      <trkpt lat="50.21685" lon="1.5668">
        <ele>3</ele>
        <time>2016-09-10T10:41:53Z</time>
      </trkpt>
      <trkpt lat="50.21687" lon="1.56687">
        <ele>3</ele>
        <time>2016-09-10T10:41:55Z</time>
      </trkpt>
      <trkpt lat="50.2169" lon="1.56695">
        <ele>3</ele>
        <time>2016-09-10T10:41:57Z</time>
      </trkpt>
      <trkpt lat="50.21694" lon="1.56702">
        <ele>2</ele>
        <time>2016-09-10T10:41:59Z</time>
      </trkpt>
      <trkpt lat="50.21696" lon="1.56712">
        <ele>2</ele>
        <time>2016-09-10T10:42:01Z</time>
      </trkpt>
      <trkpt lat="50.217" lon="1.56718">
        <ele>2</ele>
        <time>2016-09-10T10:42:03Z</time>
      </trkpt>
      <trkpt lat="50.21704" lon="1.56726">
        <ele>2</ele>
        <time>2016-09-10T10:42:11Z</time>
      </trkpt>
      <trkpt lat="50.21707" lon="1.56721">
        <ele>2</ele>
        <time>2016-09-10T10:42:17Z</time>
      </trkpt>
      <trkpt lat="50.2171" lon="1.56716">
        <ele>2</ele>
        <time>2016-09-10T10:42:41Z</time>
      </trkpt>
      <trkpt lat="50.21712" lon="1.56724">
        <ele>2</ele>
        <time>2016-09-10T11:22:05Z</time>
      </trkpt>
      <trkpt lat="50.21711" lon="1.56733">
        <ele>2</ele>
        <time>2016-09-10T11:22:09Z</time>
      </trkpt>
      <trkpt lat="50.21708" lon="1.56742">
        <ele>2</ele>
        <time>2016-09-10T11:22:13Z</time>
      </trkpt>
      <trkpt lat="50.21702" lon="1.56748">
        <ele>2</ele>
        <time>2016-09-10T11:22:17Z</time>
      </trkpt>
      <trkpt lat="50.21696" lon="1.56753">
        <ele>2</ele>
        <time>2016-09-10T11:22:21Z</time>
      </trkpt>
      <trkpt lat="50.21695" lon="1.5676">
        <ele>2</ele>
        <time>2016-09-10T11:22:23Z</time>
      </trkpt>
      <trkpt lat="50.21696" lon="1.56775">
        <ele>2</ele>
        <time>2016-09-10T11:22:27Z</time>
      </trkpt>
      <trkpt lat="50.21696" lon="1.56783">
        <ele>2</ele>
        <time>2016-09-10T11:22:29Z</time>
      </trkpt>
      <trkpt lat="50.21695" lon="1.5679">
        <ele>2</ele>
        <time>2016-09-10T11:22:31Z</time>
      </trkpt>
      <trkpt lat="50.21695" lon="1.56798">
        <ele>2</ele>
        <time>2016-09-10T11:22:33Z</time>
      </trkpt>
      <trkpt lat="50.21695" lon="1.56812">
        <ele>2</ele>
        <time>2016-09-10T11:22:37Z</time>
      </trkpt>
      <trkpt lat="50.21696" lon="1.5682">
        <ele>2</ele>
        <time>2016-09-10T11:22:39Z</time>
      </trkpt>
      <trkpt lat="50.21695" lon="1.56829">
        <ele>2</ele>
        <time>2016-09-10T11:22:41Z</time>
      </trkpt>
      <trkpt lat="50.21693" lon="1.56838">
        <ele>3</ele>
        <time>2016-09-10T11:22:43Z</time>
      </trkpt>
      <trkpt lat="50.21692" lon="1.56848">
        <ele>3</ele>
        <time>2016-09-10T11:22:45Z</time>
      </trkpt>
      <trkpt lat="50.21691" lon="1.56858">
        <ele>3</ele>
        <time>2016-09-10T11:22:47Z</time>
      </trkpt>
      <trkpt lat="50.2169" lon="1.56868">
        <ele>3</ele>
        <time>2016-09-10T11:22:49Z</time>
      </trkpt>
      <trkpt lat="50.21687" lon="1.5688">
        <ele>3</ele>
        <time>2016-09-10T11:22:51Z</time>
      </trkpt>
      <trkpt lat="50.21686" lon="1.56889">
        <ele>3</ele>
        <time>2016-09-10T11:22:53Z</time>
      </trkpt>
      <trkpt lat="50.21684" lon="1.56899">
        <ele>3</ele>
        <time>2016-09-10T11:22:55Z</time>
      </trkpt>
      <trkpt lat="50.21682" lon="1.56908">
        <ele>3</ele>
        <time>2016-09-10T11:22:57Z</time>
      </trkpt>
      <trkpt lat="50.21678" lon="1.56918">
        <ele>3</ele>
        <time>2016-09-10T11:22:59Z</time>
      </trkpt>
      <trkpt lat="50.21677" lon="1.56927">
        <ele>3</ele>
        <time>2016-09-10T11:23:01Z</time>
      </trkpt>
      <trkpt lat="50.21675" lon="1.56935">
        <ele>3</ele>
        <time>2016-09-10T11:23:03Z</time>
      </trkpt>
      <trkpt lat="50.21673" lon="1.56944">
        <ele>3</ele>
        <time>2016-09-10T11:23:05Z</time>
      </trkpt>
      <trkpt lat="50.21671" lon="1.56955">
        <ele>3</ele>
        <time>2016-09-10T11:23:07Z</time>
      </trkpt>
      <trkpt lat="50.21669" lon="1.56967">
        <ele>3</ele>
        <time>2016-09-10T11:23:09Z</time>
      </trkpt>
      <trkpt lat="50.21667" lon="1.56977">
        <ele>3</ele>
        <time>2016-09-10T11:23:11Z</time>
      </trkpt>
      <trkpt lat="50.21666" lon="1.56988">
        <ele>3</ele>
        <time>2016-09-10T11:23:13Z</time>
      </trkpt>
      <trkpt lat="50.21665" lon="1.57">
        <ele>3</ele>
        <time>2016-09-10T11:23:15Z</time>
      </trkpt>
      <trkpt lat="50.21664" lon="1.5701">
        <ele>3</ele>
        <time>2016-09-10T11:23:17Z</time>
      </trkpt>
      <trkpt lat="50.21664" lon="1.5702">
        <ele>3</ele>
        <time>2016-09-10T11:23:19Z</time>
      </trkpt>
      <trkpt lat="50.21664" lon="1.5703">
        <ele>2</ele>
        <time>2016-09-10T11:23:21Z</time>
      </trkpt>
      <trkpt lat="50.21664" lon="1.57041">
        <ele>2</ele>
        <time>2016-09-10T11:23:23Z</time>
      </trkpt>
      <trkpt lat="50.21666" lon="1.57049">
        <ele>2</ele>
        <time>2016-09-10T11:23:25Z</time>
      </trkpt>
      <trkpt lat="50.21669" lon="1.57056">
        <ele>2</ele>
        <time>2016-09-10T11:23:27Z</time>
      </trkpt>
      <trkpt lat="50.21672" lon="1.57064">
        <ele>2</ele>
        <time>2016-09-10T11:23:29Z</time>
      </trkpt>
      <trkpt lat="50.21676" lon="1.57073">
        <ele>3</ele>
        <time>2016-09-10T11:23:31Z</time>
      </trkpt>
      <trkpt lat="50.21681" lon="1.57081">
        <ele>3</ele>
        <time>2016-09-10T11:23:33Z</time>
      </trkpt>
      <trkpt lat="50.21683" lon="1.57089">
        <ele>2</ele>
        <time>2016-09-10T11:23:35Z</time>
      </trkpt>
      <trkpt lat="50.21683" lon="1.571">
        <ele>2</ele>
        <time>2016-09-10T11:23:37Z</time>
      </trkpt>
      <trkpt lat="50.21684" lon="1.57111">
        <ele>2</ele>
        <time>2016-09-10T11:23:39Z</time>
      </trkpt>
      <trkpt lat="50.21684" lon="1.57119">
        <ele>2</ele>
        <time>2016-09-10T11:23:41Z</time>
      </trkpt>
      <trkpt lat="50.21684" lon="1.57127">
        <ele>2</ele>
        <time>2016-09-10T11:23:43Z</time>
      </trkpt>
      <trkpt lat="50.21689" lon="1.57134">
        <ele>2</ele>
        <time>2016-09-10T11:23:47Z</time>
      </trkpt>
      <trkpt lat="50.21695" lon="1.57139">
        <ele>2</ele>
        <time>2016-09-10T11:23:51Z</time>
      </trkpt>
      <trkpt lat="50.21703" lon="1.57149">
        <ele>2</ele>
        <time>2016-09-10T11:23:55Z</time>
      </trkpt>
      <trkpt lat="50.21708" lon="1.57156">
        <ele>2</ele>
        <time>2016-09-10T11:23:57Z</time>
      </trkpt>
      <trkpt lat="50.21711" lon="1.57164">
        <ele>2</ele>
        <time>2016-09-10T11:23:59Z</time>
      </trkpt>
      <trkpt lat="50.21714" lon="1.5717">
        <ele>2</ele>
        <time>2016-09-10T11:24:01Z</time>
      </trkpt>
      <trkpt lat="50.21708" lon="1.57165">
        <ele>2</ele>
        <time>2016-09-10T11:26:15Z</time>
      </trkpt>
      <trkpt lat="50.21705" lon="1.57156">
        <ele>2</ele>
        <time>2016-09-10T11:26:17Z</time>
      </trkpt>
      <trkpt lat="50.21701" lon="1.57146">
        <ele>2</ele>
        <time>2016-09-10T11:26:19Z</time>
      </trkpt>
      <trkpt lat="50.21698" lon="1.57139">
        <ele>2</ele>
        <time>2016-09-10T11:26:21Z</time>
      </trkpt>
      <trkpt lat="50.21693" lon="1.57134">
        <ele>2</ele>
        <time>2016-09-10T11:26:23Z</time>
      </trkpt>
      <trkpt lat="50.21688" lon="1.5713">
        <ele>2</ele>
        <time>2016-09-10T11:26:25Z</time>
      </trkpt>
      <trkpt lat="50.21685" lon="1.57118">
        <ele>2</ele>
        <time>2016-09-10T11:26:29Z</time>
      </trkpt>
      <trkpt lat="50.21683" lon="1.5711">
        <ele>2</ele>
        <time>2016-09-10T11:26:31Z</time>
      </trkpt>
      <trkpt lat="50.21682" lon="1.57098">
        <ele>2</ele>
        <time>2016-09-10T11:26:35Z</time>
      </trkpt>
      <trkpt lat="50.21682" lon="1.57088">
        <ele>3</ele>
        <time>2016-09-10T11:26:39Z</time>
      </trkpt>
      <trkpt lat="50.21677" lon="1.57076">
        <ele>3</ele>
        <time>2016-09-10T11:26:43Z</time>
      </trkpt>
      <trkpt lat="50.21672" lon="1.57068">
        <ele>3</ele>
        <time>2016-09-10T11:26:47Z</time>
      </trkpt>
      <trkpt lat="50.21667" lon="1.5706">
        <ele>2</ele>
        <time>2016-09-10T11:26:51Z</time>
      </trkpt>
      <trkpt lat="50.21664" lon="1.57051">
        <ele>2</ele>
        <time>2016-09-10T11:26:55Z</time>
      </trkpt>
      <trkpt lat="50.21661" lon="1.57041">
        <ele>2</ele>
        <time>2016-09-10T11:26:59Z</time>
      </trkpt>
      <trkpt lat="50.2166" lon="1.57029">
        <ele>2</ele>
        <time>2016-09-10T11:27:03Z</time>
      </trkpt>
      <trkpt lat="50.2166" lon="1.5702">
        <ele>2</ele>
        <time>2016-09-10T11:27:07Z</time>
      </trkpt>
      <trkpt lat="50.21661" lon="1.57011">
        <ele>3</ele>
        <time>2016-09-10T11:27:11Z</time>
      </trkpt>
      <trkpt lat="50.21663" lon="1.57">
        <ele>3</ele>
        <time>2016-09-10T11:27:21Z</time>
      </trkpt>
      <trkpt lat="50.21665" lon="1.56993">
        <ele>3</ele>
        <time>2016-09-10T11:27:25Z</time>
      </trkpt>
      <trkpt lat="50.21666" lon="1.56985">
        <ele>3</ele>
        <time>2016-09-10T11:27:27Z</time>
      </trkpt>
      <trkpt lat="50.21668" lon="1.56973">
        <ele>3</ele>
        <time>2016-09-10T11:27:31Z</time>
      </trkpt>
      <trkpt lat="50.21669" lon="1.56965">
        <ele>3</ele>
        <time>2016-09-10T11:27:33Z</time>
      </trkpt>
      <trkpt lat="50.21672" lon="1.56956">
        <ele>3</ele>
        <time>2016-09-10T11:27:37Z</time>
      </trkpt>
      <trkpt lat="50.21672" lon="1.56949">
        <ele>3</ele>
        <time>2016-09-10T11:27:39Z</time>
      </trkpt>
      <trkpt lat="50.21671" lon="1.56936">
        <ele>3</ele>
        <time>2016-09-10T11:27:43Z</time>
      </trkpt>
      <trkpt lat="50.21673" lon="1.56925">
        <ele>3</ele>
        <time>2016-09-10T11:27:47Z</time>
      </trkpt>
      <trkpt lat="50.21676" lon="1.56916">
        <ele>3</ele>
        <time>2016-09-10T11:27:51Z</time>
      </trkpt>
      <trkpt lat="50.21678" lon="1.56904">
        <ele>3</ele>
        <time>2016-09-10T11:27:55Z</time>
      </trkpt>
      <trkpt lat="50.21681" lon="1.56892">
        <ele>3</ele>
        <time>2016-09-10T11:27:59Z</time>
      </trkpt>
      <trkpt lat="50.21685" lon="1.56881">
        <ele>3</ele>
        <time>2016-09-10T11:28:03Z</time>
      </trkpt>
      <trkpt lat="50.21686" lon="1.56869">
        <ele>3</ele>
        <time>2016-09-10T11:28:07Z</time>
      </trkpt>
      <trkpt lat="50.21687" lon="1.56861">
        <ele>3</ele>
        <time>2016-09-10T11:28:09Z</time>
      </trkpt>
      <trkpt lat="50.21691" lon="1.56849">
        <ele>3</ele>
        <time>2016-09-10T11:28:13Z</time>
      </trkpt>
      <trkpt lat="50.21693" lon="1.56837">
        <ele>3</ele>
        <time>2016-09-10T11:28:17Z</time>
      </trkpt>
      <trkpt lat="50.21694" lon="1.5683">
        <ele>2</ele>
        <time>2016-09-10T11:28:19Z</time>
      </trkpt>
      <trkpt lat="50.21694" lon="1.56821">
        <ele>2</ele>
        <time>2016-09-10T11:28:21Z</time>
      </trkpt>
      <trkpt lat="50.21694" lon="1.56814">
        <ele>2</ele>
        <time>2016-09-10T11:28:23Z</time>
      </trkpt>
      <trkpt lat="50.21693" lon="1.56797">
        <ele>2</ele>
        <time>2016-09-10T11:28:27Z</time>
      </trkpt>
      <trkpt lat="50.21693" lon="1.56788">
        <ele>2</ele>
        <time>2016-09-10T11:28:29Z</time>
      </trkpt>
      <trkpt lat="50.21693" lon="1.56779">
        <ele>2</ele>
        <time>2016-09-10T11:28:31Z</time>
      </trkpt>
      <trkpt lat="50.2169" lon="1.5677">
        <ele>2</ele>
        <time>2016-09-10T11:28:33Z</time>
      </trkpt>
      <trkpt lat="50.2169" lon="1.5676">
        <ele>2</ele>
        <time>2016-09-10T11:28:35Z</time>
      </trkpt>
      <trkpt lat="50.21689" lon="1.56749">
        <ele>3</ele>
        <time>2016-09-10T11:28:37Z</time>
      </trkpt>
      <trkpt lat="50.21689" lon="1.56739">
        <ele>3</ele>
        <time>2016-09-10T11:28:39Z</time>
      </trkpt>
      <trkpt lat="50.21688" lon="1.5673">
        <ele>3</ele>
        <time>2016-09-10T11:28:41Z</time>
      </trkpt>
      <trkpt lat="50.21688" lon="1.56722">
        <ele>3</ele>
        <time>2016-09-10T11:28:43Z</time>
      </trkpt>
      <trkpt lat="50.21686" lon="1.56711">
        <ele>3</ele>
        <time>2016-09-10T11:28:45Z</time>
      </trkpt>
      <trkpt lat="50.21685" lon="1.56702">
        <ele>3</ele>
        <time>2016-09-10T11:28:47Z</time>
      </trkpt>
      <trkpt lat="50.21684" lon="1.56692">
        <ele>3</ele>
        <time>2016-09-10T11:28:49Z</time>
      </trkpt>
      <trkpt lat="50.21683" lon="1.56684">
        <ele>3</ele>
        <time>2016-09-10T11:28:51Z</time>
      </trkpt>
      <trkpt lat="50.21681" lon="1.56674">
        <ele>3</ele>
        <time>2016-09-10T11:28:53Z</time>
      </trkpt>
      <trkpt lat="50.2168" lon="1.56665">
        <ele>3</ele>
        <time>2016-09-10T11:28:55Z</time>
      </trkpt>
      <trkpt lat="50.21679" lon="1.56656">
        <ele>3</ele>
        <time>2016-09-10T11:28:57Z</time>
      </trkpt>
      <trkpt lat="50.21679" lon="1.56646">
        <ele>3</ele>
        <time>2016-09-10T11:28:59Z</time>
      </trkpt>
      <trkpt lat="50.21679" lon="1.56636">
        <ele>3</ele>
        <time>2016-09-10T11:29:01Z</time>
      </trkpt>
      <trkpt lat="50.21679" lon="1.56621">
        <ele>3</ele>
        <time>2016-09-10T11:29:05Z</time>
      </trkpt>
      <trkpt lat="50.21679" lon="1.56607">
        <ele>3</ele>
        <time>2016-09-10T11:29:09Z</time>
      </trkpt>
      <trkpt lat="50.21677" lon="1.56597">
        <ele>3</ele>
        <time>2016-09-10T11:29:11Z</time>
      </trkpt>
      <trkpt lat="50.21678" lon="1.56587">
        <ele>3</ele>
        <time>2016-09-10T11:29:13Z</time>
      </trkpt>
      <trkpt lat="50.21677" lon="1.56578">
        <ele>3</ele>
        <time>2016-09-10T11:29:15Z</time>
      </trkpt>
      <trkpt lat="50.21676" lon="1.5657">
        <ele>3</ele>
        <time>2016-09-10T11:29:17Z</time>
      </trkpt>
      <trkpt lat="50.21675" lon="1.56563">
        <ele>3</ele>
        <time>2016-09-10T11:29:19Z</time>
      </trkpt>
      <trkpt lat="50.21673" lon="1.56553">
        <ele>3</ele>
        <time>2016-09-10T11:29:21Z</time>
      </trkpt>
      <trkpt lat="50.21667" lon="1.56546">
        <ele>3</ele>
        <time>2016-09-10T11:29:25Z</time>
      </trkpt>
      <trkpt lat="50.21668" lon="1.56539">
        <ele>3</ele>
        <time>2016-09-10T11:30:35Z</time>
      </trkpt>
      <trkpt lat="50.21662" lon="1.5654">
        <ele>3</ele>
        <time>2016-09-10T11:32:45Z</time>
      </trkpt>
      <trkpt lat="50.21656" lon="1.56543">
        <ele>3</ele>
        <time>2016-09-10T11:32:47Z</time>
      </trkpt>
      <trkpt lat="50.21646" lon="1.56547">
        <ele>3</ele>
        <time>2016-09-10T11:32:49Z</time>
      </trkpt>
      <trkpt lat="50.21638" lon="1.56552">
        <ele>3</ele>
        <time>2016-09-10T11:32:51Z</time>
      </trkpt>
      <trkpt lat="50.2163" lon="1.56556">
        <ele>3</ele>
        <time>2016-09-10T11:32:53Z</time>
      </trkpt>
      <trkpt lat="50.21622" lon="1.56559">
        <ele>3</ele>
        <time>2016-09-10T11:32:55Z</time>
      </trkpt>
      <trkpt lat="50.21615" lon="1.56556">
        <ele>3</ele>
        <time>2016-09-10T11:32:57Z</time>
      </trkpt>
      <trkpt lat="50.21611" lon="1.56552">
        <ele>3</ele>
        <time>2016-09-10T11:32:59Z</time>
      </trkpt>
      <trkpt lat="50.21606" lon="1.56547">
        <ele>3</ele>
        <time>2016-09-10T11:33:01Z</time>
      </trkpt>
      <trkpt lat="50.21602" lon="1.5654">
        <ele>3</ele>
        <time>2016-09-10T11:33:03Z</time>
      </trkpt>
      <trkpt lat="50.21598" lon="1.56527">
        <ele>3</ele>
        <time>2016-09-10T11:33:07Z</time>
      </trkpt>
      <trkpt lat="50.21595" lon="1.56517">
        <ele>4</ele>
        <time>2016-09-10T11:33:11Z</time>
      </trkpt>
      <trkpt lat="50.21595" lon="1.5651">
        <ele>4</ele>
        <time>2016-09-10T11:33:13Z</time>
      </trkpt>
      <trkpt lat="50.21601" lon="1.565">
        <ele>4</ele>
        <time>2016-09-10T11:33:17Z</time>
      </trkpt>
      <trkpt lat="50.21604" lon="1.56493">
        <ele>4</ele>
        <time>2016-09-10T11:33:19Z</time>
      </trkpt>
      <trkpt lat="50.21608" lon="1.56487">
        <ele>4</ele>
        <time>2016-09-10T11:33:21Z</time>
      </trkpt>
      <trkpt lat="50.2161" lon="1.56472">
        <ele>4</ele>
        <time>2016-09-10T11:33:25Z</time>
      </trkpt>
      <trkpt lat="50.21612" lon="1.5646">
        <ele>4</ele>
        <time>2016-09-10T11:33:29Z</time>
      </trkpt>
      <trkpt lat="50.21613" lon="1.56453">
        <ele>4</ele>
        <time>2016-09-10T11:33:31Z</time>
      </trkpt>
      <trkpt lat="50.21616" lon="1.56446">
        <ele>4</ele>
        <time>2016-09-10T11:33:33Z</time>
      </trkpt>
      <trkpt lat="50.21619" lon="1.56439">
        <ele>4</ele>
        <time>2016-09-10T11:33:35Z</time>
      </trkpt>
      <trkpt lat="50.2162" lon="1.56431">
        <ele>4</ele>
        <time>2016-09-10T11:33:37Z</time>
      </trkpt>
      <trkpt lat="50.21619" lon="1.56423">
        <ele>4</ele>
        <time>2016-09-10T11:33:39Z</time>
      </trkpt>
      <trkpt lat="50.21617" lon="1.56413">
        <ele>4</ele>
        <time>2016-09-10T11:33:41Z</time>
      </trkpt>
      <trkpt lat="50.21615" lon="1.56405">
        <ele>4</ele>
        <time>2016-09-10T11:33:43Z</time>
      </trkpt>
      <trkpt lat="50.21614" lon="1.56397">
        <ele>4</ele>
        <time>2016-09-10T11:33:45Z</time>
      </trkpt>
      <trkpt lat="50.21611" lon="1.5639">
        <ele>4</ele>
        <time>2016-09-10T11:33:47Z</time>
      </trkpt>
      <trkpt lat="50.21609" lon="1.56382">
        <ele>4</ele>
        <time>2016-09-10T11:33:49Z</time>
      </trkpt>
      <trkpt lat="50.21608" lon="1.56374">
        <ele>4</ele>
        <time>2016-09-10T11:33:51Z</time>
      </trkpt>
      <trkpt lat="50.21608" lon="1.56367">
        <ele>4</ele>
        <time>2016-09-10T11:33:53Z</time>
      </trkpt>
      <trkpt lat="50.21608" lon="1.56359">
        <ele>4</ele>
        <time>2016-09-10T11:33:55Z</time>
      </trkpt>
      <trkpt lat="50.21608" lon="1.56351">
        <ele>4</ele>
        <time>2016-09-10T11:33:57Z</time>
      </trkpt>
      <trkpt lat="50.21607" lon="1.56344">
        <ele>4</ele>
        <time>2016-09-10T11:33:59Z</time>
      </trkpt>
      <trkpt lat="50.21608" lon="1.5633">
        <ele>4</ele>
        <time>2016-09-10T11:34:03Z</time>
      </trkpt>
      <trkpt lat="50.21609" lon="1.56322">
        <ele>4</ele>
        <time>2016-09-10T11:34:05Z</time>
      </trkpt>
      <trkpt lat="50.21612" lon="1.56316">
        <ele>4</ele>
        <time>2016-09-10T11:34:07Z</time>
      </trkpt>
      <trkpt lat="50.21616" lon="1.56306">
        <ele>4</ele>
        <time>2016-09-10T11:34:11Z</time>
      </trkpt>
      <trkpt lat="50.21617" lon="1.56314">
        <ele>4</ele>
        <time>2016-09-10T11:34:15Z</time>
      </trkpt>
      <trkpt lat="50.21616" lon="1.56304">
        <ele>4</ele>
        <time>2016-09-10T11:36:11Z</time>
      </trkpt>
      <trkpt lat="50.21615" lon="1.56294">
        <ele>4</ele>
        <time>2016-09-10T11:36:13Z</time>
      </trkpt>
      <trkpt lat="50.21616" lon="1.56283">
        <ele>4</ele>
        <time>2016-09-10T11:36:15Z</time>
      </trkpt>
      <trkpt lat="50.21615" lon="1.56272">
        <ele>4</ele>
        <time>2016-09-10T11:36:17Z</time>
      </trkpt>
      <trkpt lat="50.21615" lon="1.5626">
        <ele>4</ele>
        <time>2016-09-10T11:36:19Z</time>
      </trkpt>
      <trkpt lat="50.21613" lon="1.5625">
        <ele>4</ele>
        <time>2016-09-10T11:36:21Z</time>
      </trkpt>
      <trkpt lat="50.21611" lon="1.5624">
        <ele>4</ele>
        <time>2016-09-10T11:36:23Z</time>
      </trkpt>
      <trkpt lat="50.2161" lon="1.5623">
        <ele>4</ele>
        <time>2016-09-10T11:36:25Z</time>
      </trkpt>
      <trkpt lat="50.2161" lon="1.5622">
        <ele>4</ele>
        <time>2016-09-10T11:36:27Z</time>
      </trkpt>
      <trkpt lat="50.21608" lon="1.5621">
        <ele>4</ele>
        <time>2016-09-10T11:36:29Z</time>
      </trkpt>
      <trkpt lat="50.21605" lon="1.56201">
        <ele>4</ele>
        <time>2016-09-10T11:36:31Z</time>
      </trkpt>
      <trkpt lat="50.21603" lon="1.56191">
        <ele>4</ele>
        <time>2016-09-10T11:36:33Z</time>
      </trkpt>
      <trkpt lat="50.21601" lon="1.56182">
        <ele>4</ele>
        <time>2016-09-10T11:36:35Z</time>
      </trkpt>
      <trkpt lat="50.216" lon="1.56172">
        <ele>4</ele>
        <time>2016-09-10T11:36:37Z</time>
      </trkpt>
      <trkpt lat="50.21598" lon="1.56162">
        <ele>4</ele>
        <time>2016-09-10T11:36:39Z</time>
      </trkpt>
      <trkpt lat="50.21597" lon="1.56154">
        <ele>4</ele>
        <time>2016-09-10T11:36:41Z</time>
      </trkpt>
      <trkpt lat="50.21597" lon="1.56145">
        <ele>4</ele>
        <time>2016-09-10T11:36:43Z</time>
      </trkpt>
      <trkpt lat="50.21596" lon="1.56136">
        <ele>4</ele>
        <time>2016-09-10T11:36:45Z</time>
      </trkpt>
      <trkpt lat="50.21596" lon="1.56127">
        <ele>4</ele>
        <time>2016-09-10T11:36:47Z</time>
      </trkpt>
      <trkpt lat="50.21595" lon="1.56117">
        <ele>4</ele>
        <time>2016-09-10T11:36:49Z</time>
      </trkpt>
      <trkpt lat="50.21595" lon="1.56108">
        <ele>4</ele>
        <time>2016-09-10T11:36:51Z</time>
      </trkpt>
      <trkpt lat="50.21592" lon="1.561">
        <ele>4</ele>
        <time>2016-09-10T11:36:53Z</time>
      </trkpt>
      <trkpt lat="50.21588" lon="1.56093">
        <ele>4</ele>
        <time>2016-09-10T11:36:55Z</time>
      </trkpt>
      <trkpt lat="50.21585" lon="1.56085">
        <ele>4</ele>
        <time>2016-09-10T11:36:57Z</time>
      </trkpt>
      <trkpt lat="50.21583" lon="1.56077">
        <ele>4</ele>
        <time>2016-09-10T11:36:59Z</time>
      </trkpt>
      <trkpt lat="50.2158" lon="1.56069">
        <ele>4</ele>
        <time>2016-09-10T11:37:01Z</time>
      </trkpt>
      <trkpt lat="50.21577" lon="1.5606">
        <ele>4</ele>
        <time>2016-09-10T11:37:03Z</time>
      </trkpt>
      <trkpt lat="50.21576" lon="1.56052">
        <ele>4</ele>
        <time>2016-09-10T11:37:05Z</time>
      </trkpt>
      <trkpt lat="50.21576" lon="1.56043">
        <ele>4</ele>
        <time>2016-09-10T11:37:07Z</time>
      </trkpt>
      <trkpt lat="50.21574" lon="1.56034">
        <ele>4</ele>
        <time>2016-09-10T11:37:09Z</time>
      </trkpt>
      <trkpt lat="50.21572" lon="1.56025">
        <ele>4</ele>
        <time>2016-09-10T11:37:11Z</time>
      </trkpt>
      <trkpt lat="50.21571" lon="1.56015">
        <ele>4</ele>
        <time>2016-09-10T11:37:13Z</time>
      </trkpt>
      <trkpt lat="50.21571" lon="1.56006">
        <ele>4</ele>
        <time>2016-09-10T11:37:15Z</time>
      </trkpt>
      <trkpt lat="50.21571" lon="1.55996">
        <ele>4</ele>
        <time>2016-09-10T11:37:17Z</time>
      </trkpt>
      <trkpt lat="50.21572" lon="1.55986">
        <ele>4</ele>
        <time>2016-09-10T11:37:19Z</time>
      </trkpt>
      <trkpt lat="50.21572" lon="1.55976">
        <ele>4</ele>
        <time>2016-09-10T11:37:21Z</time>
      </trkpt>
      <trkpt lat="50.21571" lon="1.55966">
        <ele>4</ele>
        <time>2016-09-10T11:37:23Z</time>
      </trkpt>
      <trkpt lat="50.21569" lon="1.55956">
        <ele>4</ele>
        <time>2016-09-10T11:37:25Z</time>
      </trkpt>
      <trkpt lat="50.21567" lon="1.55947">
        <ele>4</ele>
        <time>2016-09-10T11:37:27Z</time>
      </trkpt>
      <trkpt lat="50.21566" lon="1.55937">
        <ele>4</ele>
        <time>2016-09-10T11:37:29Z</time>
      </trkpt>
      <trkpt lat="50.21566" lon="1.55927">
        <ele>4</ele>
        <time>2016-09-10T11:37:31Z</time>
      </trkpt>
      <trkpt lat="50.21567" lon="1.55917">
        <ele>4</ele>
        <time>2016-09-10T11:37:33Z</time>
      </trkpt>
      <trkpt lat="50.21568" lon="1.55908">
        <ele>4</ele>
        <time>2016-09-10T11:37:35Z</time>
      </trkpt>
      <trkpt lat="50.21569" lon="1.55898">
        <ele>4</ele>
        <time>2016-09-10T11:37:37Z</time>
      </trkpt>
      <trkpt lat="50.2157" lon="1.55889">
        <ele>4</ele>
        <time>2016-09-10T11:37:39Z</time>
      </trkpt>
      <trkpt lat="50.21571" lon="1.55879">
        <ele>4</ele>
        <time>2016-09-10T11:37:41Z</time>
      </trkpt>
      <trkpt lat="50.2157" lon="1.55868">
        <ele>4</ele>
        <time>2016-09-10T11:37:43Z</time>
      </trkpt>
      <trkpt lat="50.21568" lon="1.5586">
        <ele>4</ele>
        <time>2016-09-10T11:37:45Z</time>
      </trkpt>
      <trkpt lat="50.21551" lon="1.55732">
        <ele>4</ele>
        <time>2016-09-10T11:38:15Z</time>
      </trkpt>
      <trkpt lat="50.21561" lon="1.55712">
        <ele>4</ele>
        <time>2016-09-10T11:38:19Z</time>
      </trkpt>
      <trkpt lat="50.21565" lon="1.55703">
        <ele>4</ele>
        <time>2016-09-10T11:38:21Z</time>
      </trkpt>
      <trkpt lat="50.21569" lon="1.55695">
        <ele>4</ele>
        <time>2016-09-10T11:38:23Z</time>
      </trkpt>
      <trkpt lat="50.21572" lon="1.55686">
        <ele>4</ele>
        <time>2016-09-10T11:38:25Z</time>
      </trkpt>
      <trkpt lat="50.21575" lon="1.55677">
        <ele>4</ele>
        <time>2016-09-10T11:38:27Z</time>
      </trkpt>
      <trkpt lat="50.21576" lon="1.55666">
        <ele>4</ele>
        <time>2016-09-10T11:38:29Z</time>
      </trkpt>
      <trkpt lat="50.21576" lon="1.55657">
        <ele>4</ele>
        <time>2016-09-10T11:38:31Z</time>
      </trkpt>
      <trkpt lat="50.21577" lon="1.55647">
        <ele>4</ele>
        <time>2016-09-10T11:38:33Z</time>
      </trkpt>
      <trkpt lat="50.21577" lon="1.55637">
        <ele>4</ele>
        <time>2016-09-10T11:38:35Z</time>
      </trkpt>
      <trkpt lat="50.21577" lon="1.55628">
        <ele>4</ele>
        <time>2016-09-10T11:38:37Z</time>
      </trkpt>
      <trkpt lat="50.21576" lon="1.55619">
        <ele>4</ele>
        <time>2016-09-10T11:38:39Z</time>
      </trkpt>
      <trkpt lat="50.21574" lon="1.55611">
        <ele>4</ele>
        <time>2016-09-10T11:38:41Z</time>
      </trkpt>
      <trkpt lat="50.21571" lon="1.55604">
        <ele>4</ele>
        <time>2016-09-10T11:38:43Z</time>
      </trkpt>
      <trkpt lat="50.21568" lon="1.55594">
        <ele>4</ele>
        <time>2016-09-10T11:38:47Z</time>
      </trkpt>
      <trkpt lat="50.21566" lon="1.55583">
        <ele>4</ele>
        <time>2016-09-10T11:38:51Z</time>
      </trkpt>
      <trkpt lat="50.21561" lon="1.55575">
        <ele>4</ele>
        <time>2016-09-10T11:38:55Z</time>
      </trkpt>
      <trkpt lat="50.21554" lon="1.55573">
        <ele>4</ele>
        <time>2016-09-10T11:38:59Z</time>
      </trkpt>
      <trkpt lat="50.2155" lon="1.55566">
        <ele>4</ele>
        <time>2016-09-10T11:39:03Z</time>
      </trkpt>
      <trkpt lat="50.21548" lon="1.55554">
        <ele>4</ele>
        <time>2016-09-10T11:39:07Z</time>
      </trkpt>
      <trkpt lat="50.21549" lon="1.55541">
        <ele>4</ele>
        <time>2016-09-10T11:39:11Z</time>
      </trkpt>
      <trkpt lat="50.21549" lon="1.55533">
        <ele>4</ele>
        <time>2016-09-10T11:39:13Z</time>
      </trkpt>
      <trkpt lat="50.21548" lon="1.5552">
        <ele>4</ele>
        <time>2016-09-10T11:39:17Z</time>
      </trkpt>
      <trkpt lat="50.21547" lon="1.55506">
        <ele>4</ele>
        <time>2016-09-10T11:39:21Z</time>
      </trkpt>
      <trkpt lat="50.21546" lon="1.55499">
        <ele>4</ele>
        <time>2016-09-10T11:39:23Z</time>
      </trkpt>
      <trkpt lat="50.21547" lon="1.55491">
        <ele>4</ele>
        <time>2016-09-10T11:39:25Z</time>
      </trkpt>
      <trkpt lat="50.21548" lon="1.55483">
        <ele>4</ele>
        <time>2016-09-10T11:39:27Z</time>
      </trkpt>
      <trkpt lat="50.21548" lon="1.55475">
        <ele>4</ele>
        <time>2016-09-10T11:39:29Z</time>
      </trkpt>
      <trkpt lat="50.21548" lon="1.55467">
        <ele>4</ele>
        <time>2016-09-10T11:39:31Z</time>
      </trkpt>
      <trkpt lat="50.21546" lon="1.55459">
        <ele>4</ele>
        <time>2016-09-10T11:39:33Z</time>
      </trkpt>
      <trkpt lat="50.21543" lon="1.55452">
        <ele>4</ele>
        <time>2016-09-10T11:39:35Z</time>
      </trkpt>
      <trkpt lat="50.2154" lon="1.55445">
        <ele>5</ele>
        <time>2016-09-10T11:39:37Z</time>
      </trkpt>
      <trkpt lat="50.21536" lon="1.5544">
        <ele>5</ele>
        <time>2016-09-10T11:39:39Z</time>
      </trkpt>
      <trkpt lat="50.21532" lon="1.55436">
        <ele>5</ele>
        <time>2016-09-10T11:39:41Z</time>
      </trkpt>
      <trkpt lat="50.21527" lon="1.55433">
        <ele>5</ele>
        <time>2016-09-10T11:39:43Z</time>
      </trkpt>
      <trkpt lat="50.21523" lon="1.55428">
        <ele>5</ele>
        <time>2016-09-10T11:39:45Z</time>
      </trkpt>
      <trkpt lat="50.21521" lon="1.55421">
        <ele>5</ele>
        <time>2016-09-10T11:39:47Z</time>
      </trkpt>
      <trkpt lat="50.21521" lon="1.55413">
        <ele>5</ele>
        <time>2016-09-10T11:39:49Z</time>
      </trkpt>
      <trkpt lat="50.21521" lon="1.55404">
        <ele>5</ele>
        <time>2016-09-10T11:39:51Z</time>
      </trkpt>
      <trkpt lat="50.21522" lon="1.55396">
        <ele>5</ele>
        <time>2016-09-10T11:39:53Z</time>
      </trkpt>
      <trkpt lat="50.21522" lon="1.55388">
        <ele>5</ele>
        <time>2016-09-10T11:39:55Z</time>
      </trkpt>
      <trkpt lat="50.21523" lon="1.5538">
        <ele>5</ele>
        <time>2016-09-10T11:39:57Z</time>
      </trkpt>
      <trkpt lat="50.21524" lon="1.55373">
        <ele>5</ele>
        <time>2016-09-10T11:39:59Z</time>
      </trkpt>
      <trkpt lat="50.21525" lon="1.55366">
        <ele>5</ele>
        <time>2016-09-10T11:40:01Z</time>
      </trkpt>
      <trkpt lat="50.21527" lon="1.55353">
        <ele>5</ele>
        <time>2016-09-10T11:40:05Z</time>
      </trkpt>
      <trkpt lat="50.21527" lon="1.55342">
        <ele>5</ele>
        <time>2016-09-10T11:40:09Z</time>
      </trkpt>
      <trkpt lat="50.21526" lon="1.55333">
        <ele>5</ele>
        <time>2016-09-10T11:40:13Z</time>
      </trkpt>
      <trkpt lat="50.21526" lon="1.55325">
        <ele>5</ele>
        <time>2016-09-10T11:40:27Z</time>
      </trkpt>
      <trkpt lat="50.21525" lon="1.55318">
        <ele>5</ele>
        <time>2016-09-10T11:40:33Z</time>
      </trkpt>
      <trkpt lat="50.21523" lon="1.55309">
        <ele>5</ele>
        <time>2016-09-10T11:40:41Z</time>
      </trkpt>
      <trkpt lat="50.21521" lon="1.55303">
        <ele>5</ele>
        <time>2016-09-10T11:40:49Z</time>
      </trkpt>
      <trkpt lat="50.2152" lon="1.55296">
        <ele>5</ele>
        <time>2016-09-10T11:40:57Z</time>
      </trkpt>
      <trkpt lat="50.21524" lon="1.55292">
        <ele>5</ele>
        <time>2016-09-10T11:41:13Z</time>
      </trkpt>
      <trkpt lat="50.2153" lon="1.55292">
        <ele>4</ele>
        <time>2016-09-10T11:41:19Z</time>
      </trkpt>
      <trkpt lat="50.21535" lon="1.55286">
        <ele>4</ele>
        <time>2016-09-10T11:41:25Z</time>
      </trkpt>
      <trkpt lat="50.21538" lon="1.55279">
        <ele>4</ele>
        <time>2016-09-10T11:41:31Z</time>
      </trkpt>
      <trkpt lat="50.21542" lon="1.55275">
        <ele>4</ele>
        <time>2016-09-10T11:41:41Z</time>
      </trkpt>
      <trkpt lat="50.21547" lon="1.55274">
        <ele>4</ele>
        <time>2016-09-10T11:41:45Z</time>
      </trkpt>
      <trkpt lat="50.21553" lon="1.55268">
        <ele>3</ele>
        <time>2016-09-10T11:41:49Z</time>
      </trkpt>
      <trkpt lat="50.21553" lon="1.55256">
        <ele>3</ele>
        <time>2016-09-10T11:41:53Z</time>
      </trkpt>
      <trkpt lat="50.21551" lon="1.55246">
        <ele>3</ele>
        <time>2016-09-10T11:41:57Z</time>
      </trkpt>
      <trkpt lat="50.2155" lon="1.55235">
        <ele>3</ele>
        <time>2016-09-10T11:42:01Z</time>
      </trkpt>
      <trkpt lat="50.21549" lon="1.55223">
        <ele>4</ele>
        <time>2016-09-10T11:42:05Z</time>
      </trkpt>
      <trkpt lat="50.21545" lon="1.5521">
        <ele>4</ele>
        <time>2016-09-10T11:42:09Z</time>
      </trkpt>
      <trkpt lat="50.21544" lon="1.55204">
        <ele>4</ele>
        <time>2016-09-10T11:42:11Z</time>
      </trkpt>
      <trkpt lat="50.21542" lon="1.55197">
        <ele>4</ele>
        <time>2016-09-10T11:42:13Z</time>
      </trkpt>
      <trkpt lat="50.21542" lon="1.55189">
        <ele>4</ele>
        <time>2016-09-10T11:42:15Z</time>
      </trkpt>
      <trkpt lat="50.21541" lon="1.55182">
        <ele>4</ele>
        <time>2016-09-10T11:42:17Z</time>
      </trkpt>
      <trkpt lat="50.2154" lon="1.55174">
        <ele>4</ele>
        <time>2016-09-10T11:42:19Z</time>
      </trkpt>
      <trkpt lat="50.21538" lon="1.55167">
        <ele>4</ele>
        <time>2016-09-10T11:42:21Z</time>
      </trkpt>
      <trkpt lat="50.21537" lon="1.5516">
        <ele>5</ele>
        <time>2016-09-10T11:42:23Z</time>
      </trkpt>
      <trkpt lat="50.21535" lon="1.55153">
        <ele>5</ele>
        <time>2016-09-10T11:42:25Z</time>
      </trkpt>
      <trkpt lat="50.21534" lon="1.55145">
        <ele>5</ele>
        <time>2016-09-10T11:42:27Z</time>
      </trkpt>
      <trkpt lat="50.21533" lon="1.55138">
        <ele>5</ele>
        <time>2016-09-10T11:42:29Z</time>
      </trkpt>
      <trkpt lat="50.21532" lon="1.5513">
        <ele>5</ele>
        <time>2016-09-10T11:42:31Z</time>
      </trkpt>
      <trkpt lat="50.2153" lon="1.55122">
        <ele>4</ele>
        <time>2016-09-10T11:42:33Z</time>
      </trkpt>
      <trkpt lat="50.21529" lon="1.55114">
        <ele>4</ele>
        <time>2016-09-10T11:42:35Z</time>
      </trkpt>
      <trkpt lat="50.21527" lon="1.55107">
        <ele>4</ele>
        <time>2016-09-10T11:42:37Z</time>
      </trkpt>
      <trkpt lat="50.21526" lon="1.55099">
        <ele>4</ele>
        <time>2016-09-10T11:42:39Z</time>
      </trkpt>
      <trkpt lat="50.21524" lon="1.55092">
        <ele>4</ele>
        <time>2016-09-10T11:42:41Z</time>
      </trkpt>
      <trkpt lat="50.21523" lon="1.55085">
        <ele>4</ele>
        <time>2016-09-10T11:42:43Z</time>
      </trkpt>
      <trkpt lat="50.21522" lon="1.55077">
        <ele>4</ele>
        <time>2016-09-10T11:42:45Z</time>
      </trkpt>
      <trkpt lat="50.2152" lon="1.5507">
        <ele>4</ele>
        <time>2016-09-10T11:42:47Z</time>
      </trkpt>
      <trkpt lat="50.21518" lon="1.55063">
        <ele>4</ele>
        <time>2016-09-10T11:42:49Z</time>
      </trkpt>
      <trkpt lat="50.21516" lon="1.55055">
        <ele>4</ele>
        <time>2016-09-10T11:42:51Z</time>
      </trkpt>
      <trkpt lat="50.21514" lon="1.55048">
        <ele>4</ele>
        <time>2016-09-10T11:42:53Z</time>
      </trkpt>
      <trkpt lat="50.21511" lon="1.5504">
        <ele>3</ele>
        <time>2016-09-10T11:42:55Z</time>
      </trkpt>
      <trkpt lat="50.21509" lon="1.55031">
        <ele>3</ele>
        <time>2016-09-10T11:42:57Z</time>
      </trkpt>
      <trkpt lat="50.21507" lon="1.55023">
        <ele>3</ele>
        <time>2016-09-10T11:42:59Z</time>
      </trkpt>
      <trkpt lat="50.21505" lon="1.55014">
        <ele>3</ele>
        <time>2016-09-10T11:43:01Z</time>
      </trkpt>
      <trkpt lat="50.21503" lon="1.55005">
        <ele>3</ele>
        <time>2016-09-10T11:43:03Z</time>
      </trkpt>
      <trkpt lat="50.21501" lon="1.54995">
        <ele>3</ele>
        <time>2016-09-10T11:43:05Z</time>
      </trkpt>
      <trkpt lat="50.21499" lon="1.54986">
        <ele>3</ele>
        <time>2016-09-10T11:43:07Z</time>
      </trkpt>
      <trkpt lat="50.21497" lon="1.54976">
        <ele>3</ele>
        <time>2016-09-10T11:43:09Z</time>
      </trkpt>
      <trkpt lat="50.21495" lon="1.54966">
        <ele>3</ele>
        <time>2016-09-10T11:43:11Z</time>
      </trkpt>
      <trkpt lat="50.21493" lon="1.54956">
        <ele>3</ele>
        <time>2016-09-10T11:43:13Z</time>
      </trkpt>
      <trkpt lat="50.21492" lon="1.54946">
        <ele>3</ele>
        <time>2016-09-10T11:43:15Z</time>
      </trkpt>
      <trkpt lat="50.2149" lon="1.54936">
        <ele>2</ele>
        <time>2016-09-10T11:43:17Z</time>
      </trkpt>
      <trkpt lat="50.21488" lon="1.54926">
        <ele>2</ele>
        <time>2016-09-10T11:43:19Z</time>
      </trkpt>
      <trkpt lat="50.21486" lon="1.54915">
        <ele>2</ele>
        <time>2016-09-10T11:43:21Z</time>
      </trkpt>
      <trkpt lat="50.21483" lon="1.54905">
        <ele>2</ele>
        <time>2016-09-10T11:43:23Z</time>
      </trkpt>
      <trkpt lat="50.21481" lon="1.54895">
        <ele>2</ele>
        <time>2016-09-10T11:43:25Z</time>
      </trkpt>
      <trkpt lat="50.21479" lon="1.54885">
        <ele>2</ele>
        <time>2016-09-10T11:43:27Z</time>
      </trkpt>
      <trkpt lat="50.21477" lon="1.54875">
        <ele>2</ele>
        <time>2016-09-10T11:43:29Z</time>
      </trkpt>
      <trkpt lat="50.21475" lon="1.54865">
        <ele>3</ele>
        <time>2016-09-10T11:43:31Z</time>
      </trkpt>
      <trkpt lat="50.21473" lon="1.54855">
        <ele>3</ele>
        <time>2016-09-10T11:43:33Z</time>
      </trkpt>
      <trkpt lat="50.2147" lon="1.54845">
        <ele>3</ele>
        <time>2016-09-10T11:43:35Z</time>
      </trkpt>
      <trkpt lat="50.21468" lon="1.54836">
        <ele>3</ele>
        <time>2016-09-10T11:43:37Z</time>
      </trkpt>
      <trkpt lat="50.21466" lon="1.54826">
        <ele>2</ele>
        <time>2016-09-10T11:43:39Z</time>
      </trkpt>
      <trkpt lat="50.21464" lon="1.54817">
        <ele>2</ele>
        <time>2016-09-10T11:43:41Z</time>
      </trkpt>
      <trkpt lat="50.21462" lon="1.54807">
        <ele>2</ele>
        <time>2016-09-10T11:43:43Z</time>
      </trkpt>
      <trkpt lat="50.2146" lon="1.54798">
        <ele>2</ele>
        <time>2016-09-10T11:43:45Z</time>
      </trkpt>
      <trkpt lat="50.21458" lon="1.54788">
        <ele>2</ele>
        <time>2016-09-10T11:43:47Z</time>
      </trkpt>
      <trkpt lat="50.21456" lon="1.54778">
        <ele>2</ele>
        <time>2016-09-10T11:43:49Z</time>
      </trkpt>
      <trkpt lat="50.21454" lon="1.54769">
        <ele>2</ele>
        <time>2016-09-10T11:43:51Z</time>
      </trkpt>
      <trkpt lat="50.21452" lon="1.5476">
        <ele>2</ele>
        <time>2016-09-10T11:43:53Z</time>
      </trkpt>
      <trkpt lat="50.21449" lon="1.54751">
        <ele>2</ele>
        <time>2016-09-10T11:43:55Z</time>
      </trkpt>
      <trkpt lat="50.21447" lon="1.54742">
        <ele>1</ele>
        <time>2016-09-10T11:43:57Z</time>
      </trkpt>
      <trkpt lat="50.21445" lon="1.54733">
        <ele>1</ele>
        <time>2016-09-10T11:43:59Z</time>
      </trkpt>
      <trkpt lat="50.21443" lon="1.54724">
        <ele>1</ele>
        <time>2016-09-10T11:44:01Z</time>
      </trkpt>
      <trkpt lat="50.21441" lon="1.54715">
        <ele>1</ele>
        <time>2016-09-10T11:44:03Z</time>
      </trkpt>
      <trkpt lat="50.21439" lon="1.54706">
        <ele>1</ele>
        <time>2016-09-10T11:44:05Z</time>
      </trkpt>
      <trkpt lat="50.21438" lon="1.54697">
        <ele>1</ele>
        <time>2016-09-10T11:44:07Z</time>
      </trkpt>
      <trkpt lat="50.21436" lon="1.54687">
        <ele>1</ele>
        <time>2016-09-10T11:44:09Z</time>
      </trkpt>
      <trkpt lat="50.21434" lon="1.54679">
        <ele>1</ele>
        <time>2016-09-10T11:44:11Z</time>
      </trkpt>
      <trkpt lat="50.21432" lon="1.5467">
        <ele>1</ele>
        <time>2016-09-10T11:44:13Z</time>
      </trkpt>
      <trkpt lat="50.21431" lon="1.54661">
        <ele>4.8</ele>
        <time>2016-09-10T11:44:15Z</time>
      </trkpt>
      <trkpt lat="50.21429" lon="1.54652">
        <ele>4.7</ele>
        <time>2016-09-10T11:44:17Z</time>
      </trkpt>
      <trkpt lat="50.21427" lon="1.54643">
        <ele>4.5</ele>
        <time>2016-09-10T11:44:19Z</time>
      </trkpt>
      <trkpt lat="50.21425" lon="1.54635">
        <ele>4.4</ele>
        <time>2016-09-10T11:44:21Z</time>
      </trkpt>
      <trkpt lat="50.21423" lon="1.54626">
        <ele>4.5</ele>
        <time>2016-09-10T11:44:23Z</time>
      </trkpt>
      <trkpt lat="50.21422" lon="1.54619">
        <ele>4.6</ele>
        <time>2016-09-10T11:44:25Z</time>
      </trkpt>
      <trkpt lat="50.2142" lon="1.54611">
        <ele>4.8</ele>
        <time>2016-09-10T11:44:27Z</time>
      </trkpt>
      <trkpt lat="50.21418" lon="1.54604">
        <ele>4.7</ele>
        <time>2016-09-10T11:44:29Z</time>
      </trkpt>
      <trkpt lat="50.21416" lon="1.54598">
        <ele>3</ele>
        <time>2016-09-10T11:44:31Z</time>
      </trkpt>
      <trkpt lat="50.21414" lon="1.54591">
        <ele>3</ele>
        <time>2016-09-10T11:44:33Z</time>
      </trkpt>
      <trkpt lat="50.21412" lon="1.54584">
        <ele>3</ele>
        <time>2016-09-10T11:44:35Z</time>
      </trkpt>
      <trkpt lat="50.21411" lon="1.54577">
        <ele>4</ele>
        <time>2016-09-10T11:44:37Z</time>
      </trkpt>
      <trkpt lat="50.21409" lon="1.5457">
        <ele>4</ele>
        <time>2016-09-10T11:44:39Z</time>
      </trkpt>
      <trkpt lat="50.21406" lon="1.54557">
        <ele>4</ele>
        <time>2016-09-10T11:44:43Z</time>
      </trkpt>
      <trkpt lat="50.21403" lon="1.54546">
        <ele>4</ele>
        <time>2016-09-10T11:44:47Z</time>
      </trkpt>
      <trkpt lat="50.21398" lon="1.54536">
        <ele>5</ele>
        <time>2016-09-10T11:44:51Z</time>
      </trkpt>
      <trkpt lat="50.21394" lon="1.54526">
        <ele>5</ele>
        <time>2016-09-10T11:44:55Z</time>
      </trkpt>
      <trkpt lat="50.21389" lon="1.54517">
        <ele>5</ele>
        <time>2016-09-10T11:44:59Z</time>
      </trkpt>
      <trkpt lat="50.21385" lon="1.54509">
        <ele>5</ele>
        <time>2016-09-10T11:45:03Z</time>
      </trkpt>
      <trkpt lat="50.21382" lon="1.54501">
        <ele>5</ele>
        <time>2016-09-10T11:45:07Z</time>
      </trkpt>
      <trkpt lat="50.21382" lon="1.54488">
        <ele>5</ele>
        <time>2016-09-10T11:45:11Z</time>
      </trkpt>
      <trkpt lat="50.21381" lon="1.54475">
        <ele>5</ele>
        <time>2016-09-10T11:45:15Z</time>
      </trkpt>
      <trkpt lat="50.2138" lon="1.54467">
        <ele>5</ele>
        <time>2016-09-10T11:45:17Z</time>
      </trkpt>
      <trkpt lat="50.21379" lon="1.5446">
        <ele>5</ele>
        <time>2016-09-10T11:45:19Z</time>
      </trkpt>
      <trkpt lat="50.21378" lon="1.54452">
        <ele>4</ele>
        <time>2016-09-10T11:45:21Z</time>
      </trkpt>
      <trkpt lat="50.21377" lon="1.54444">
        <ele>4</ele>
        <time>2016-09-10T11:45:23Z</time>
      </trkpt>
      <trkpt lat="50.21376" lon="1.54435">
        <ele>4</ele>
        <time>2016-09-10T11:45:25Z</time>
      </trkpt>
      <trkpt lat="50.21375" lon="1.54427">
        <ele>4</ele>
        <time>2016-09-10T11:45:27Z</time>
      </trkpt>
      <trkpt lat="50.21373" lon="1.54418">
        <ele>4</ele>
        <time>2016-09-10T11:45:29Z</time>
      </trkpt>
      <trkpt lat="50.21372" lon="1.5441">
        <ele>4</ele>
        <time>2016-09-10T11:45:31Z</time>
      </trkpt>
      <trkpt lat="50.21371" lon="1.54401">
        <ele>4</ele>
        <time>2016-09-10T11:45:33Z</time>
      </trkpt>
      <trkpt lat="50.2137" lon="1.54392">
        <ele>4</ele>
        <time>2016-09-10T11:45:35Z</time>
      </trkpt>
      <trkpt lat="50.21368" lon="1.54384">
        <ele>4</ele>
        <time>2016-09-10T11:45:37Z</time>
      </trkpt>
      <trkpt lat="50.21367" lon="1.54375">
        <ele>4</ele>
        <time>2016-09-10T11:45:39Z</time>
      </trkpt>
      <trkpt lat="50.21366" lon="1.54366">
        <ele>4</ele>
        <time>2016-09-10T11:45:41Z</time>
      </trkpt>
      <trkpt lat="50.21365" lon="1.54357">
        <ele>4</ele>
        <time>2016-09-10T11:45:43Z</time>
      </trkpt>
      <trkpt lat="50.21363" lon="1.54348">
        <ele>4</ele>
        <time>2016-09-10T11:45:45Z</time>
      </trkpt>
      <trkpt lat="50.21361" lon="1.54339">
        <ele>4</ele>
        <time>2016-09-10T11:45:47Z</time>
      </trkpt>
      <trkpt lat="50.21359" lon="1.54331">
        <ele>4</ele>
        <time>2016-09-10T11:45:49Z</time>
      </trkpt>
      <trkpt lat="50.21356" lon="1.54323">
        <ele>4</ele>
        <time>2016-09-10T11:45:51Z</time>
      </trkpt>
      <trkpt lat="50.21353" lon="1.54315">
        <ele>4</ele>
        <time>2016-09-10T11:45:53Z</time>
      </trkpt>
      <trkpt lat="50.21351" lon="1.54308">
        <ele>4</ele>
        <time>2016-09-10T11:45:55Z</time>
      </trkpt>
      <trkpt lat="50.21349" lon="1.543">
        <ele>4</ele>
        <time>2016-09-10T11:45:57Z</time>
      </trkpt>
      <trkpt lat="50.21346" lon="1.54292">
        <ele>4</ele>
        <time>2016-09-10T11:45:59Z</time>
      </trkpt>
      <trkpt lat="50.2135" lon="1.54285">
        <ele>3</ele>
        <time>2016-09-10T11:46:01Z</time>
      </trkpt>
      <trkpt lat="50.21345" lon="1.54277">
        <ele>3</ele>
        <time>2016-09-10T11:46:03Z</time>
      </trkpt>
      <trkpt lat="50.21342" lon="1.5427">
        <ele>3</ele>
        <time>2016-09-10T11:46:05Z</time>
      </trkpt>
      <trkpt lat="50.2134" lon="1.54263">
        <ele>3</ele>
        <time>2016-09-10T11:46:07Z</time>
      </trkpt>
      <trkpt lat="50.21338" lon="1.54256">
        <ele>3</ele>
        <time>2016-09-10T11:46:09Z</time>
      </trkpt>
      <trkpt lat="50.21335" lon="1.5425">
        <ele>3</ele>
        <time>2016-09-10T11:46:11Z</time>
      </trkpt>
      <trkpt lat="50.21332" lon="1.54244">
        <ele>3</ele>
        <time>2016-09-10T11:46:13Z</time>
      </trkpt>
      <trkpt lat="50.21327" lon="1.54234">
        <ele>4</ele>
        <time>2016-09-10T11:46:17Z</time>
      </trkpt>
      <trkpt lat="50.21322" lon="1.54226">
        <ele>4</ele>
        <time>2016-09-10T11:46:21Z</time>
      </trkpt>
      <trkpt lat="50.21319" lon="1.54217">
        <ele>5</ele>
        <time>2016-09-10T11:46:25Z</time>
      </trkpt>
      <trkpt lat="50.21323" lon="1.54224">
        <ele>4</ele>
        <time>2016-09-10T11:46:29Z</time>
      </trkpt>
      <trkpt lat="50.21317" lon="1.54221">
        <ele>5</ele>
        <time>2016-09-10T11:47:03Z</time>
      </trkpt>
      <trkpt lat="50.21313" lon="1.54216">
        <ele>5</ele>
        <time>2016-09-10T11:47:05Z</time>
      </trkpt>
      <trkpt lat="50.2131" lon="1.54211">
        <ele>5</ele>
        <time>2016-09-10T11:47:07Z</time>
      </trkpt>
      <trkpt lat="50.21307" lon="1.54204">
        <ele>5</ele>
        <time>2016-09-10T11:47:09Z</time>
      </trkpt>
      <trkpt lat="50.21304" lon="1.54197">
        <ele>5</ele>
        <time>2016-09-10T11:47:11Z</time>
      </trkpt>
      <trkpt lat="50.213" lon="1.5419">
        <ele>5</ele>
        <time>2016-09-10T11:47:13Z</time>
      </trkpt>
      <trkpt lat="50.21297" lon="1.54183">
        <ele>5</ele>
        <time>2016-09-10T11:47:15Z</time>
      </trkpt>
      <trkpt lat="50.21294" lon="1.54176">
        <ele>5</ele>
        <time>2016-09-10T11:47:17Z</time>
      </trkpt>
      <trkpt lat="50.21291" lon="1.54168">
        <ele>5</ele>
        <time>2016-09-10T11:47:19Z</time>
      </trkpt>
      <trkpt lat="50.21288" lon="1.54159">
        <ele>5</ele>
        <time>2016-09-10T11:47:21Z</time>
      </trkpt>
      <trkpt lat="50.21286" lon="1.54152">
        <ele>5</ele>
        <time>2016-09-10T11:47:23Z</time>
      </trkpt>
      <trkpt lat="50.21283" lon="1.54144">
        <ele>5</ele>
        <time>2016-09-10T11:47:25Z</time>
      </trkpt>
      <trkpt lat="50.21281" lon="1.54136">
        <ele>5</ele>
        <time>2016-09-10T11:47:27Z</time>
      </trkpt>
      <trkpt lat="50.21279" lon="1.54128">
        <ele>5</ele>
        <time>2016-09-10T11:47:29Z</time>
      </trkpt>
      <trkpt lat="50.21277" lon="1.54119">
        <ele>5</ele>
        <time>2016-09-10T11:47:31Z</time>
      </trkpt>
      <trkpt lat="50.21274" lon="1.5411">
        <ele>4</ele>
        <time>2016-09-10T11:47:33Z</time>
      </trkpt>
      <trkpt lat="50.21273" lon="1.54101">
        <ele>4</ele>
        <time>2016-09-10T11:47:35Z</time>
      </trkpt>
      <trkpt lat="50.21271" lon="1.54091">
        <ele>4</ele>
        <time>2016-09-10T11:47:37Z</time>
      </trkpt>
      <trkpt lat="50.21269" lon="1.54081">
        <ele>4</ele>
        <time>2016-09-10T11:47:39Z</time>
      </trkpt>
      <trkpt lat="50.21266" lon="1.54072">
        <ele>4</ele>
        <time>2016-09-10T11:47:41Z</time>
      </trkpt>
      <trkpt lat="50.21263" lon="1.54063">
        <ele>4</ele>
        <time>2016-09-10T11:47:43Z</time>
      </trkpt>
      <trkpt lat="50.2126" lon="1.54055">
        <ele>4</ele>
        <time>2016-09-10T11:47:45Z</time>
      </trkpt>
      <trkpt lat="50.21256" lon="1.54047">
        <ele>4</ele>
        <time>2016-09-10T11:47:47Z</time>
      </trkpt>
      <trkpt lat="50.21252" lon="1.5404">
        <ele>3</ele>
        <time>2016-09-10T11:47:49Z</time>
      </trkpt>
      <trkpt lat="50.21249" lon="1.54032">
        <ele>5</ele>
        <time>2016-09-10T11:47:51Z</time>
      </trkpt>
      <trkpt lat="50.21245" lon="1.54025">
        <ele>4</ele>
        <time>2016-09-10T11:47:53Z</time>
      </trkpt>
      <trkpt lat="50.21241" lon="1.54017">
        <ele>4</ele>
        <time>2016-09-10T11:47:55Z</time>
      </trkpt>
      <trkpt lat="50.21238" lon="1.54009">
        <ele>4</ele>
        <time>2016-09-10T11:47:57Z</time>
      </trkpt>
      <trkpt lat="50.21235" lon="1.54">
        <ele>4</ele>
        <time>2016-09-10T11:47:59Z</time>
      </trkpt>
      <trkpt lat="50.21232" lon="1.53991">
        <ele>4</ele>
        <time>2016-09-10T11:48:01Z</time>
      </trkpt>
      <trkpt lat="50.21229" lon="1.53982">
        <ele>5</ele>
        <time>2016-09-10T11:48:03Z</time>
      </trkpt>
      <trkpt lat="50.21226" lon="1.53972">
        <ele>5</ele>
        <time>2016-09-10T11:48:05Z</time>
      </trkpt>
      <trkpt lat="50.21222" lon="1.53963">
        <ele>5</ele>
        <time>2016-09-10T11:48:07Z</time>
      </trkpt>
      <trkpt lat="50.21219" lon="1.53954">
        <ele>5</ele>
        <time>2016-09-10T11:48:09Z</time>
      </trkpt>
      <trkpt lat="50.21215" lon="1.53944">
        <ele>5</ele>
        <time>2016-09-10T11:48:11Z</time>
      </trkpt>
      <trkpt lat="50.21212" lon="1.53934">
        <ele>5</ele>
        <time>2016-09-10T11:48:13Z</time>
      </trkpt>
      <trkpt lat="50.21209" lon="1.53924">
        <ele>5</ele>
        <time>2016-09-10T11:48:15Z</time>
      </trkpt>
      <trkpt lat="50.21206" lon="1.53914">
        <ele>6</ele>
        <time>2016-09-10T11:48:17Z</time>
      </trkpt>
      <trkpt lat="50.21202" lon="1.53904">
        <ele>6</ele>
        <time>2016-09-10T11:48:19Z</time>
      </trkpt>
      <trkpt lat="50.21199" lon="1.53894">
        <ele>6</ele>
        <time>2016-09-10T11:48:21Z</time>
      </trkpt>
      <trkpt lat="50.21195" lon="1.53884">
        <ele>6</ele>
        <time>2016-09-10T11:48:23Z</time>
      </trkpt>
      <trkpt lat="50.21191" lon="1.53873">
        <ele>5</ele>
        <time>2016-09-10T11:48:25Z</time>
      </trkpt>
      <trkpt lat="50.21187" lon="1.53863">
        <ele>5</ele>
        <time>2016-09-10T11:48:27Z</time>
      </trkpt>
      <trkpt lat="50.21183" lon="1.53853">
        <ele>5</ele>
        <time>2016-09-10T11:48:29Z</time>
      </trkpt>
      <trkpt lat="50.21179" lon="1.53843">
        <ele>5</ele>
        <time>2016-09-10T11:48:31Z</time>
      </trkpt>
      <trkpt lat="50.21175" lon="1.53833">
        <ele>5</ele>
        <time>2016-09-10T11:48:33Z</time>
      </trkpt>
      <trkpt lat="50.21171" lon="1.53823">
        <ele>5</ele>
        <time>2016-09-10T11:48:35Z</time>
      </trkpt>
      <trkpt lat="50.21167" lon="1.53812">
        <ele>5</ele>
        <time>2016-09-10T11:48:37Z</time>
      </trkpt>
      <trkpt lat="50.21162" lon="1.53801">
        <ele>5</ele>
        <time>2016-09-10T11:48:39Z</time>
      </trkpt>
      <trkpt lat="50.21158" lon="1.53791">
        <ele>5</ele>
        <time>2016-09-10T11:48:41Z</time>
      </trkpt>
      <trkpt lat="50.21154" lon="1.5378">
        <ele>5</ele>
        <time>2016-09-10T11:48:43Z</time>
      </trkpt>
      <trkpt lat="50.2115" lon="1.53769">
        <ele>4</ele>
        <time>2016-09-10T11:48:45Z</time>
      </trkpt>
      <trkpt lat="50.21145" lon="1.53758">
        <ele>4</ele>
        <time>2016-09-10T11:48:47Z</time>
      </trkpt>
      <trkpt lat="50.21141" lon="1.53748">
        <ele>4</ele>
        <time>2016-09-10T11:48:49Z</time>
      </trkpt>
      <trkpt lat="50.21136" lon="1.53738">
        <ele>4</ele>
        <time>2016-09-10T11:48:51Z</time>
      </trkpt>
      <trkpt lat="50.21131" lon="1.53728">
        <ele>4</ele>
        <time>2016-09-10T11:48:53Z</time>
      </trkpt>
      <trkpt lat="50.21126" lon="1.53718">
        <ele>4</ele>
        <time>2016-09-10T11:48:55Z</time>
      </trkpt>
      <trkpt lat="50.21121" lon="1.53709">
        <ele>4</ele>
        <time>2016-09-10T11:48:57Z</time>
      </trkpt>
      <trkpt lat="50.21117" lon="1.53699">
        <ele>4</ele>
        <time>2016-09-10T11:48:59Z</time>
      </trkpt>
      <trkpt lat="50.21112" lon="1.53689">
        <ele>4</ele>
        <time>2016-09-10T11:49:01Z</time>
      </trkpt>
      <trkpt lat="50.21108" lon="1.53679">
        <ele>4</ele>
        <time>2016-09-10T11:49:03Z</time>
      </trkpt>
      <trkpt lat="50.21104" lon="1.5367">
        <ele>4</ele>
        <time>2016-09-10T11:49:05Z</time>
      </trkpt>
      <trkpt lat="50.21099" lon="1.5366">
        <ele>4</ele>
        <time>2016-09-10T11:49:07Z</time>
      </trkpt>
      <trkpt lat="50.21094" lon="1.5365">
        <ele>4</ele>
        <time>2016-09-10T11:49:09Z</time>
      </trkpt>
      <trkpt lat="50.21089" lon="1.53641">
        <ele>4</ele>
        <time>2016-09-10T11:49:11Z</time>
      </trkpt>
      <trkpt lat="50.21084" lon="1.53633">
        <ele>4</ele>
        <time>2016-09-10T11:49:13Z</time>
      </trkpt>
      <trkpt lat="50.2108" lon="1.53623">
        <ele>5</ele>
        <time>2016-09-10T11:49:15Z</time>
      </trkpt>
      <trkpt lat="50.21076" lon="1.53614">
        <ele>5</ele>
        <time>2016-09-10T11:49:17Z</time>
      </trkpt>
      <trkpt lat="50.21072" lon="1.53604">
        <ele>5</ele>
        <time>2016-09-10T11:49:19Z</time>
      </trkpt>
      <trkpt lat="50.21067" lon="1.53595">
        <ele>5</ele>
        <time>2016-09-10T11:49:21Z</time>
      </trkpt>
      <trkpt lat="50.21063" lon="1.53586">
        <ele>5</ele>
        <time>2016-09-10T11:49:23Z</time>
      </trkpt>
      <trkpt lat="50.21058" lon="1.53577">
        <ele>5</ele>
        <time>2016-09-10T11:49:25Z</time>
      </trkpt>
      <trkpt lat="50.21053" lon="1.53568">
        <ele>5</ele>
        <time>2016-09-10T11:49:27Z</time>
      </trkpt>
      <trkpt lat="50.21049" lon="1.53559">
        <ele>5</ele>
        <time>2016-09-10T11:49:29Z</time>
      </trkpt>
      <trkpt lat="50.21046" lon="1.53547">
        <ele>5</ele>
        <time>2016-09-10T11:49:31Z</time>
      </trkpt>
      <trkpt lat="50.21043" lon="1.53536">
        <ele>5</ele>
        <time>2016-09-10T11:49:33Z</time>
      </trkpt>
      <trkpt lat="50.2104" lon="1.53525">
        <ele>5</ele>
        <time>2016-09-10T11:49:35Z</time>
      </trkpt>
      <trkpt lat="50.21036" lon="1.53513">
        <ele>5</ele>
        <time>2016-09-10T11:49:37Z</time>
      </trkpt>
      <trkpt lat="50.21032" lon="1.53502">
        <ele>5</ele>
        <time>2016-09-10T11:49:39Z</time>
      </trkpt>
      <trkpt lat="50.21027" lon="1.53489">
        <ele>5</ele>
        <time>2016-09-10T11:49:41Z</time>
      </trkpt>
      <trkpt lat="50.21023" lon="1.53476">
        <ele>5</ele>
        <time>2016-09-10T11:49:43Z</time>
      </trkpt>
      <trkpt lat="50.21018" lon="1.53465">
        <ele>5</ele>
        <time>2016-09-10T11:49:45Z</time>
      </trkpt>
      <trkpt lat="50.21014" lon="1.53454">
        <ele>5</ele>
        <time>2016-09-10T11:49:47Z</time>
      </trkpt>
      <trkpt lat="50.21009" lon="1.53442">
        <ele>5</ele>
        <time>2016-09-10T11:49:49Z</time>
      </trkpt>
      <trkpt lat="50.21005" lon="1.53431">
        <ele>5</ele>
        <time>2016-09-10T11:49:51Z</time>
      </trkpt>
      <trkpt lat="50.21002" lon="1.5342">
        <ele>5</ele>
        <time>2016-09-10T11:49:53Z</time>
      </trkpt>
      <trkpt lat="50.20998" lon="1.53408">
        <ele>5</ele>
        <time>2016-09-10T11:49:55Z</time>
      </trkpt>
      <trkpt lat="50.20994" lon="1.53397">
        <ele>5</ele>
        <time>2016-09-10T11:49:57Z</time>
      </trkpt>
      <trkpt lat="50.2099" lon="1.53386">
        <ele>5</ele>
        <time>2016-09-10T11:49:59Z</time>
      </trkpt>
      <trkpt lat="50.20985" lon="1.53375">
        <ele>5</ele>
        <time>2016-09-10T11:50:01Z</time>
      </trkpt>
      <trkpt lat="50.2098" lon="1.53365">
        <ele>5</ele>
        <time>2016-09-10T11:50:03Z</time>
      </trkpt>
      <trkpt lat="50.20975" lon="1.53354">
        <ele>5</ele>
        <time>2016-09-10T11:50:05Z</time>
      </trkpt>
      <trkpt lat="50.2097" lon="1.53344">
        <ele>5</ele>
        <time>2016-09-10T11:50:07Z</time>
      </trkpt>
      <trkpt lat="50.20965" lon="1.53335">
        <ele>5</ele>
        <time>2016-09-10T11:50:09Z</time>
      </trkpt>
      <trkpt lat="50.2096" lon="1.53326">
        <ele>5</ele>
        <time>2016-09-10T11:50:11Z</time>
      </trkpt>
      <trkpt lat="50.20956" lon="1.53317">
        <ele>5</ele>
        <time>2016-09-10T11:50:13Z</time>
      </trkpt>
      <trkpt lat="50.20951" lon="1.53308">
        <ele>5</ele>
        <time>2016-09-10T11:50:15Z</time>
      </trkpt>
      <trkpt lat="50.20948" lon="1.53299">
        <ele>5</ele>
        <time>2016-09-10T11:50:17Z</time>
      </trkpt>
      <trkpt lat="50.20944" lon="1.5329">
        <ele>5</ele>
        <time>2016-09-10T11:50:19Z</time>
      </trkpt>
      <trkpt lat="50.20939" lon="1.53281">
        <ele>5</ele>
        <time>2016-09-10T11:50:21Z</time>
      </trkpt>
      <trkpt lat="50.20935" lon="1.53273">
        <ele>5</ele>
        <time>2016-09-10T11:50:23Z</time>
      </trkpt>
      <trkpt lat="50.20931" lon="1.53264">
        <ele>5</ele>
        <time>2016-09-10T11:50:25Z</time>
      </trkpt>
      <trkpt lat="50.20927" lon="1.53256">
        <ele>5</ele>
        <time>2016-09-10T11:50:27Z</time>
      </trkpt>
      <trkpt lat="50.20924" lon="1.53248">
        <ele>5</ele>
        <time>2016-09-10T11:50:29Z</time>
      </trkpt>
      <trkpt lat="50.2092" lon="1.5324">
        <ele>4</ele>
        <time>2016-09-10T11:50:31Z</time>
      </trkpt>
      <trkpt lat="50.20916" lon="1.53232">
        <ele>5</ele>
        <time>2016-09-10T11:50:33Z</time>
      </trkpt>
      <trkpt lat="50.20912" lon="1.53223">
        <ele>5</ele>
        <time>2016-09-10T11:50:35Z</time>
      </trkpt>
      <trkpt lat="50.20909" lon="1.53214">
        <ele>5</ele>
        <time>2016-09-10T11:50:37Z</time>
      </trkpt>
      <trkpt lat="50.20906" lon="1.53205">
        <ele>5</ele>
        <time>2016-09-10T11:50:39Z</time>
      </trkpt>
      <trkpt lat="50.20902" lon="1.53196">
        <ele>5</ele>
        <time>2016-09-10T11:50:41Z</time>
      </trkpt>
      <trkpt lat="50.20898" lon="1.53187">
        <ele>5</ele>
        <time>2016-09-10T11:50:43Z</time>
      </trkpt>
      <trkpt lat="50.20894" lon="1.53178">
        <ele>5</ele>
        <time>2016-09-10T11:50:45Z</time>
      </trkpt>
      <trkpt lat="50.2089" lon="1.5317">
        <ele>5</ele>
        <time>2016-09-10T11:50:47Z</time>
      </trkpt>
      <trkpt lat="50.20887" lon="1.53161">
        <ele>5</ele>
        <time>2016-09-10T11:50:49Z</time>
      </trkpt>
      <trkpt lat="50.20883" lon="1.53152">
        <ele>5</ele>
        <time>2016-09-10T11:50:51Z</time>
      </trkpt>
      <trkpt lat="50.2088" lon="1.53142">
        <ele>5</ele>
        <time>2016-09-10T11:50:53Z</time>
      </trkpt>
      <trkpt lat="50.20877" lon="1.53132">
        <ele>5</ele>
        <time>2016-09-10T11:50:55Z</time>
      </trkpt>
      <trkpt lat="50.20875" lon="1.53123">
        <ele>5</ele>
        <time>2016-09-10T11:50:57Z</time>
      </trkpt>
      <trkpt lat="50.20872" lon="1.53113">
        <ele>5</ele>
        <time>2016-09-10T11:50:59Z</time>
      </trkpt>
      <trkpt lat="50.20869" lon="1.53102">
        <ele>5</ele>
        <time>2016-09-10T11:51:01Z</time>
      </trkpt>
      <trkpt lat="50.20866" lon="1.53092">
        <ele>5</ele>
        <time>2016-09-10T11:51:03Z</time>
      </trkpt>
      <trkpt lat="50.20864" lon="1.53082">
        <ele>4</ele>
        <time>2016-09-10T11:51:05Z</time>
      </trkpt>
      <trkpt lat="50.20861" lon="1.53072">
        <ele>4</ele>
        <time>2016-09-10T11:51:07Z</time>
      </trkpt>
      <trkpt lat="50.20859" lon="1.53062">
        <ele>4</ele>
        <time>2016-09-10T11:51:09Z</time>
      </trkpt>
      <trkpt lat="50.20857" lon="1.53052">
        <ele>4</ele>
        <time>2016-09-10T11:51:11Z</time>
      </trkpt>
      <trkpt lat="50.20855" lon="1.53044">
        <ele>4</ele>
        <time>2016-09-10T11:51:13Z</time>
      </trkpt>
      <trkpt lat="50.20854" lon="1.53034">
        <ele>4</ele>
        <time>2016-09-10T11:51:15Z</time>
      </trkpt>
      <trkpt lat="50.20853" lon="1.53025">
        <ele>4</ele>
        <time>2016-09-10T11:51:17Z</time>
      </trkpt>
      <trkpt lat="50.20852" lon="1.53016">
        <ele>4</ele>
        <time>2016-09-10T11:51:19Z</time>
      </trkpt>
      <trkpt lat="50.20851" lon="1.53007">
        <ele>4</ele>
        <time>2016-09-10T11:51:21Z</time>
      </trkpt>
      <trkpt lat="50.2085" lon="1.52997">
        <ele>3</ele>
        <time>2016-09-10T11:51:23Z</time>
      </trkpt>
      <trkpt lat="50.20849" lon="1.52987">
        <ele>3</ele>
        <time>2016-09-10T11:51:25Z</time>
      </trkpt>
      <trkpt lat="50.20848" lon="1.52977">
        <ele>3</ele>
        <time>2016-09-10T11:51:27Z</time>
      </trkpt>
      <trkpt lat="50.20847" lon="1.52968">
        <ele>3</ele>
        <time>2016-09-10T11:51:29Z</time>
      </trkpt>
      <trkpt lat="50.20845" lon="1.52959">
        <ele>3</ele>
        <time>2016-09-10T11:51:31Z</time>
      </trkpt>
      <trkpt lat="50.20844" lon="1.52949">
        <ele>3</ele>
        <time>2016-09-10T11:51:33Z</time>
      </trkpt>
      <trkpt lat="50.20842" lon="1.5294">
        <ele>3</ele>
        <time>2016-09-10T11:51:35Z</time>
      </trkpt>
      <trkpt lat="50.20841" lon="1.5293">
        <ele>3</ele>
        <time>2016-09-10T11:51:37Z</time>
      </trkpt>
      <trkpt lat="50.20839" lon="1.52921">
        <ele>4</ele>
        <time>2016-09-10T11:51:39Z</time>
      </trkpt>
      <trkpt lat="50.20838" lon="1.52911">
        <ele>4</ele>
        <time>2016-09-10T11:51:41Z</time>
      </trkpt>
      <trkpt lat="50.20836" lon="1.52901">
        <ele>4</ele>
        <time>2016-09-10T11:51:43Z</time>
      </trkpt>
      <trkpt lat="50.20835" lon="1.52891">
        <ele>4</ele>
        <time>2016-09-10T11:51:45Z</time>
      </trkpt>
      <trkpt lat="50.20834" lon="1.52882">
        <ele>4</ele>
        <time>2016-09-10T11:51:47Z</time>
      </trkpt>
      <trkpt lat="50.20834" lon="1.52872">
        <ele>4</ele>
        <time>2016-09-10T11:51:49Z</time>
      </trkpt>
      <trkpt lat="50.20833" lon="1.52861">
        <ele>5</ele>
        <time>2016-09-10T11:51:51Z</time>
      </trkpt>
      <trkpt lat="50.20832" lon="1.52852">
        <ele>5</ele>
        <time>2016-09-10T11:51:53Z</time>
      </trkpt>
      <trkpt lat="50.2083" lon="1.52841">
        <ele>5</ele>
        <time>2016-09-10T11:51:55Z</time>
      </trkpt>
      <trkpt lat="50.20829" lon="1.52832">
        <ele>4</ele>
        <time>2016-09-10T11:51:57Z</time>
      </trkpt>
      <trkpt lat="50.20827" lon="1.52823">
        <ele>5</ele>
        <time>2016-09-10T11:51:59Z</time>
      </trkpt>
      <trkpt lat="50.20824" lon="1.52814">
        <ele>5</ele>
        <time>2016-09-10T11:52:01Z</time>
      </trkpt>
      <trkpt lat="50.2082" lon="1.52807">
        <ele>5</ele>
        <time>2016-09-10T11:52:03Z</time>
      </trkpt>
      <trkpt lat="50.20815" lon="1.52801">
        <ele>5</ele>
        <time>2016-09-10T11:52:05Z</time>
      </trkpt>
      <trkpt lat="50.2081" lon="1.52795">
        <ele>5</ele>
        <time>2016-09-10T11:52:07Z</time>
      </trkpt>
      <trkpt lat="50.20807" lon="1.52787">
        <ele>5</ele>
        <time>2016-09-10T11:52:09Z</time>
      </trkpt>
      <trkpt lat="50.20804" lon="1.52778">
        <ele>5</ele>
        <time>2016-09-10T11:52:11Z</time>
      </trkpt>
      <trkpt lat="50.20803" lon="1.52768">
        <ele>5</ele>
        <time>2016-09-10T11:52:13Z</time>
      </trkpt>
      <trkpt lat="50.20802" lon="1.52759">
        <ele>5</ele>
        <time>2016-09-10T11:52:15Z</time>
      </trkpt>
      <trkpt lat="50.208" lon="1.52749">
        <ele>5</ele>
        <time>2016-09-10T11:52:17Z</time>
      </trkpt>
      <trkpt lat="50.20799" lon="1.52741">
        <ele>5</ele>
        <time>2016-09-10T11:52:19Z</time>
      </trkpt>
      <trkpt lat="50.20798" lon="1.52731">
        <ele>5</ele>
        <time>2016-09-10T11:52:21Z</time>
      </trkpt>
      <trkpt lat="50.20797" lon="1.52721">
        <ele>5</ele>
        <time>2016-09-10T11:52:23Z</time>
      </trkpt>
      <trkpt lat="50.20797" lon="1.52712">
        <ele>5</ele>
        <time>2016-09-10T11:52:25Z</time>
      </trkpt>
      <trkpt lat="50.20796" lon="1.52702">
        <ele>5</ele>
        <time>2016-09-10T11:52:27Z</time>
      </trkpt>
      <trkpt lat="50.20796" lon="1.52692">
        <ele>5</ele>
        <time>2016-09-10T11:52:29Z</time>
      </trkpt>
      <trkpt lat="50.20794" lon="1.52683">
        <ele>5</ele>
        <time>2016-09-10T11:52:31Z</time>
      </trkpt>
      <trkpt lat="50.20792" lon="1.52675">
        <ele>5</ele>
        <time>2016-09-10T11:52:33Z</time>
      </trkpt>
      <trkpt lat="50.2079" lon="1.52666">
        <ele>4</ele>
        <time>2016-09-10T11:52:35Z</time>
      </trkpt>
      <trkpt lat="50.20788" lon="1.52657">
        <ele>4</ele>
        <time>2016-09-10T11:52:37Z</time>
      </trkpt>
      <trkpt lat="50.20785" lon="1.52647">
        <ele>4</ele>
        <time>2016-09-10T11:52:39Z</time>
      </trkpt>
      <trkpt lat="50.20782" lon="1.52639">
        <ele>4</ele>
        <time>2016-09-10T11:52:41Z</time>
      </trkpt>
      <trkpt lat="50.20779" lon="1.52629">
        <ele>4</ele>
        <time>2016-09-10T11:52:43Z</time>
      </trkpt>
      <trkpt lat="50.20776" lon="1.5262">
        <ele>4</ele>
        <time>2016-09-10T11:52:45Z</time>
      </trkpt>
      <trkpt lat="50.20774" lon="1.52611">
        <ele>4</ele>
        <time>2016-09-10T11:52:47Z</time>
      </trkpt>
      <trkpt lat="50.20771" lon="1.52601">
        <ele>4</ele>
        <time>2016-09-10T11:52:49Z</time>
      </trkpt>
      <trkpt lat="50.20768" lon="1.52593">
        <ele>4</ele>
        <time>2016-09-10T11:52:51Z</time>
      </trkpt>
      <trkpt lat="50.20764" lon="1.52585">
        <ele>4</ele>
        <time>2016-09-10T11:52:53Z</time>
      </trkpt>
      <trkpt lat="50.2076" lon="1.52576">
        <ele>4</ele>
        <time>2016-09-10T11:52:55Z</time>
      </trkpt>
      <trkpt lat="50.20757" lon="1.52568">
        <ele>4</ele>
        <time>2016-09-10T11:52:57Z</time>
      </trkpt>
      <trkpt lat="50.20754" lon="1.52559">
        <ele>4</ele>
        <time>2016-09-10T11:52:59Z</time>
      </trkpt>
      <trkpt lat="50.20752" lon="1.52549">
        <ele>4</ele>
        <time>2016-09-10T11:53:01Z</time>
      </trkpt>
      <trkpt lat="50.2075" lon="1.5254">
        <ele>4</ele>
        <time>2016-09-10T11:53:03Z</time>
      </trkpt>
      <trkpt lat="50.20747" lon="1.52532">
        <ele>4</ele>
        <time>2016-09-10T11:53:05Z</time>
      </trkpt>
      <trkpt lat="50.20744" lon="1.52524">
        <ele>4</ele>
        <time>2016-09-10T11:53:07Z</time>
      </trkpt>
      <trkpt lat="50.20742" lon="1.52515">
        <ele>4</ele>
        <time>2016-09-10T11:53:09Z</time>
      </trkpt>
      <trkpt lat="50.2074" lon="1.52506">
        <ele>4</ele>
        <time>2016-09-10T11:53:11Z</time>
      </trkpt>
      <trkpt lat="50.20739" lon="1.52498">
        <ele>3</ele>
        <time>2016-09-10T11:53:13Z</time>
      </trkpt>
      <trkpt lat="50.20738" lon="1.52491">
        <ele>3</ele>
        <time>2016-09-10T11:53:15Z</time>
      </trkpt>
      <trkpt lat="50.20738" lon="1.52483">
        <ele>4</ele>
        <time>2016-09-10T11:53:17Z</time>
      </trkpt>
      <trkpt lat="50.20737" lon="1.52476">
        <ele>4</ele>
        <time>2016-09-10T11:53:19Z</time>
      </trkpt>
      <trkpt lat="50.20735" lon="1.52469">
        <ele>4</ele>
        <time>2016-09-10T11:53:21Z</time>
      </trkpt>
      <trkpt lat="50.20733" lon="1.52462">
        <ele>4</ele>
        <time>2016-09-10T11:53:23Z</time>
      </trkpt>
      <trkpt lat="50.2073" lon="1.52455">
        <ele>4</ele>
        <time>2016-09-10T11:53:25Z</time>
      </trkpt>
      <trkpt lat="50.20728" lon="1.52448">
        <ele>4</ele>
        <time>2016-09-10T11:53:27Z</time>
      </trkpt>
      <trkpt lat="50.20728" lon="1.52441">
        <ele>4</ele>
        <time>2016-09-10T11:53:29Z</time>
      </trkpt>
      <trkpt lat="50.20729" lon="1.52432">
        <ele>4</ele>
        <time>2016-09-10T11:53:31Z</time>
      </trkpt>
      <trkpt lat="50.20729" lon="1.52424">
        <ele>4</ele>
        <time>2016-09-10T11:53:33Z</time>
      </trkpt>
      <trkpt lat="50.20728" lon="1.52416">
        <ele>4</ele>
        <time>2016-09-10T11:53:35Z</time>
      </trkpt>
      <trkpt lat="50.20726" lon="1.52408">
        <ele>4</ele>
        <time>2016-09-10T11:53:37Z</time>
      </trkpt>
      <trkpt lat="50.20725" lon="1.524">
        <ele>4</ele>
        <time>2016-09-10T11:53:39Z</time>
      </trkpt>
      <trkpt lat="50.20723" lon="1.5239">
        <ele>4</ele>
        <time>2016-09-10T11:53:41Z</time>
      </trkpt>
      <trkpt lat="50.20721" lon="1.52381">
        <ele>4</ele>
        <time>2016-09-10T11:53:43Z</time>
      </trkpt>
      <trkpt lat="50.20718" lon="1.52372">
        <ele>4</ele>
        <time>2016-09-10T11:53:45Z</time>
      </trkpt>
      <trkpt lat="50.20715" lon="1.52362">
        <ele>4</ele>
        <time>2016-09-10T11:53:47Z</time>
      </trkpt>
      <trkpt lat="50.20713" lon="1.52353">
        <ele>4</ele>
        <time>2016-09-10T11:53:49Z</time>
      </trkpt>
      <trkpt lat="50.20711" lon="1.52344">
        <ele>4</ele>
        <time>2016-09-10T11:53:51Z</time>
      </trkpt>
      <trkpt lat="50.20709" lon="1.52335">
        <ele>4</ele>
        <time>2016-09-10T11:53:53Z</time>
      </trkpt>
      <trkpt lat="50.20707" lon="1.52326">
        <ele>4</ele>
        <time>2016-09-10T11:53:55Z</time>
      </trkpt>
      <trkpt lat="50.20704" lon="1.52316">
        <ele>4</ele>
        <time>2016-09-10T11:53:57Z</time>
      </trkpt>
      <trkpt lat="50.20702" lon="1.52307">
        <ele>4</ele>
        <time>2016-09-10T11:53:59Z</time>
      </trkpt>
      <trkpt lat="50.20699" lon="1.52298">
        <ele>4</ele>
        <time>2016-09-10T11:54:01Z</time>
      </trkpt>
      <trkpt lat="50.20697" lon="1.5229">
        <ele>4</ele>
        <time>2016-09-10T11:54:03Z</time>
      </trkpt>
      <trkpt lat="50.20695" lon="1.52282">
        <ele>4</ele>
        <time>2016-09-10T11:54:05Z</time>
      </trkpt>
      <trkpt lat="50.20693" lon="1.52274">
        <ele>4</ele>
        <time>2016-09-10T11:54:07Z</time>
      </trkpt>
      <trkpt lat="50.20687" lon="1.52275">
        <ele>4</ele>
        <time>2016-09-10T11:55:07Z</time>
      </trkpt>
      <trkpt lat="50.20682" lon="1.52275">
        <ele>4</ele>
        <time>2016-09-10T11:55:17Z</time>
      </trkpt>
      <trkpt lat="50.20677" lon="1.52276">
        <ele>4</ele>
        <time>2016-09-10T11:55:21Z</time>
      </trkpt>
      <trkpt lat="50.20669" lon="1.52279">
        <ele>4</ele>
        <time>2016-09-10T11:55:23Z</time>
      </trkpt>
      <trkpt lat="50.20662" lon="1.52278">
        <ele>5</ele>
        <time>2016-09-10T11:55:25Z</time>
      </trkpt>
      <trkpt lat="50.20657" lon="1.52272">
        <ele>5</ele>
        <time>2016-09-10T11:55:27Z</time>
      </trkpt>
      <trkpt lat="50.20654" lon="1.52261">
        <ele>5</ele>
        <time>2016-09-10T11:55:29Z</time>
      </trkpt>
      <trkpt lat="50.20652" lon="1.5225">
        <ele>5</ele>
        <time>2016-09-10T11:55:31Z</time>
      </trkpt>
      <trkpt lat="50.2065" lon="1.5224">
        <ele>5</ele>
        <time>2016-09-10T11:55:33Z</time>
      </trkpt>
      <trkpt lat="50.20648" lon="1.52231">
        <ele>5</ele>
        <time>2016-09-10T11:55:35Z</time>
      </trkpt>
      <trkpt lat="50.20646" lon="1.52223">
        <ele>5</ele>
        <time>2016-09-10T11:55:37Z</time>
      </trkpt>
      <trkpt lat="50.20644" lon="1.52216">
        <ele>5</ele>
        <time>2016-09-10T11:55:39Z</time>
      </trkpt>
      <trkpt lat="50.20642" lon="1.52209">
        <ele>5</ele>
        <time>2016-09-10T11:55:41Z</time>
      </trkpt>
      <trkpt lat="50.2064" lon="1.522">
        <ele>5</ele>
        <time>2016-09-10T11:55:45Z</time>
      </trkpt>
      <trkpt lat="50.20639" lon="1.52192">
        <ele>5</ele>
        <time>2016-09-10T11:55:49Z</time>
      </trkpt>
      <trkpt lat="50.20636" lon="1.5218">
        <ele>5</ele>
        <time>2016-09-10T11:55:53Z</time>
      </trkpt>
      <trkpt lat="50.20634" lon="1.52174">
        <ele>5</ele>
        <time>2016-09-10T11:55:55Z</time>
      </trkpt>
      <trkpt lat="50.20629" lon="1.52164">
        <ele>4</ele>
        <time>2016-09-10T11:55:59Z</time>
      </trkpt>
      <trkpt lat="50.20625" lon="1.52152">
        <ele>4</ele>
        <time>2016-09-10T11:56:03Z</time>
      </trkpt>
      <trkpt lat="50.20622" lon="1.52142">
        <ele>4</ele>
        <time>2016-09-10T11:56:07Z</time>
      </trkpt>
      <trkpt lat="50.20619" lon="1.5213">
        <ele>4</ele>
        <time>2016-09-10T11:56:11Z</time>
      </trkpt>
      <trkpt lat="50.20615" lon="1.52118">
        <ele>3</ele>
        <time>2016-09-10T11:56:15Z</time>
      </trkpt>
      <trkpt lat="50.20612" lon="1.52111">
        <ele>3</ele>
        <time>2016-09-10T11:56:17Z</time>
      </trkpt>
      <trkpt lat="50.20605" lon="1.52087">
        <ele>3</ele>
        <time>2016-09-10T11:56:19Z</time>
      </trkpt>
      <trkpt lat="50.20599" lon="1.52072">
        <ele>3</ele>
        <time>2016-09-10T11:56:21Z</time>
      </trkpt>
      <trkpt lat="50.20596" lon="1.52062">
        <ele>3</ele>
        <time>2016-09-10T11:56:23Z</time>
      </trkpt>
      <trkpt lat="50.20595" lon="1.52054">
        <ele>3</ele>
        <time>2016-09-10T11:56:25Z</time>
      </trkpt>
      <trkpt lat="50.20591" lon="1.52038">
        <ele>3</ele>
        <time>2016-09-10T11:56:29Z</time>
      </trkpt>
      <trkpt lat="50.20587" lon="1.52029">
        <ele>3</ele>
        <time>2016-09-10T11:56:31Z</time>
      </trkpt>
      <trkpt lat="50.20585" lon="1.5202">
        <ele>3</ele>
        <time>2016-09-10T11:56:33Z</time>
      </trkpt>
      <trkpt lat="50.2058" lon="1.52011">
        <ele>3</ele>
        <time>2016-09-10T11:56:35Z</time>
      </trkpt>
      <trkpt lat="50.20577" lon="1.52002">
        <ele>3</ele>
        <time>2016-09-10T11:56:37Z</time>
      </trkpt>
      <trkpt lat="50.20572" lon="1.51994">
        <ele>3</ele>
        <time>2016-09-10T11:56:41Z</time>
      </trkpt>
      <trkpt lat="50.20565" lon="1.5199">
        <ele>3</ele>
        <time>2016-09-10T11:56:45Z</time>
      </trkpt>
      <trkpt lat="50.20562" lon="1.51984">
        <ele>3</ele>
        <time>2016-09-10T11:56:47Z</time>
      </trkpt>
      <trkpt lat="50.2056" lon="1.51975">
        <ele>3</ele>
        <time>2016-09-10T11:56:51Z</time>
      </trkpt>
      <trkpt lat="50.20557" lon="1.51968">
        <ele>3</ele>
        <time>2016-09-10T11:56:55Z</time>
      </trkpt>
      <trkpt lat="50.20552" lon="1.5196">
        <ele>2</ele>
        <time>2016-09-10T11:56:59Z</time>
      </trkpt>
      <trkpt lat="50.20547" lon="1.51958">
        <ele>2</ele>
        <time>2016-09-10T12:02:35Z</time>
      </trkpt>
      <trkpt lat="50.20545" lon="1.51951">
        <ele>2</ele>
        <time>2016-09-10T12:02:41Z</time>
      </trkpt>
      <trkpt lat="50.2054" lon="1.51953">
        <ele>2</ele>
        <time>2016-09-10T12:02:47Z</time>
      </trkpt>
      <trkpt lat="50.20534" lon="1.51955">
        <ele>3</ele>
        <time>2016-09-10T12:02:53Z</time>
      </trkpt>
      <trkpt lat="50.20529" lon="1.51958">
        <ele>3</ele>
        <time>2016-09-10T12:02:57Z</time>
      </trkpt>
      <trkpt lat="50.20524" lon="1.51959">
        <ele>3</ele>
        <time>2016-09-10T12:03:35Z</time>
      </trkpt>
      <trkpt lat="50.20516" lon="1.51962">
        <ele>3</ele>
        <time>2016-09-10T12:03:39Z</time>
      </trkpt>
      <trkpt lat="50.2051" lon="1.51967">
        <ele>3</ele>
        <time>2016-09-10T12:03:41Z</time>
      </trkpt>
      <trkpt lat="50.20504" lon="1.51974">
        <ele>3</ele>
        <time>2016-09-10T12:03:43Z</time>
      </trkpt>
      <trkpt lat="50.20497" lon="1.51979">
        <ele>3</ele>
        <time>2016-09-10T12:03:45Z</time>
      </trkpt>
      <trkpt lat="50.20489" lon="1.51985">
        <ele>3</ele>
        <time>2016-09-10T12:03:47Z</time>
      </trkpt>
      <trkpt lat="50.20484" lon="1.51991">
        <ele>3</ele>
        <time>2016-09-10T12:03:49Z</time>
      </trkpt>
      <trkpt lat="50.20478" lon="1.51995">
        <ele>3</ele>
        <time>2016-09-10T12:03:51Z</time>
      </trkpt>
      <trkpt lat="50.20474" lon="1.52">
        <ele>3</ele>
        <time>2016-09-10T12:03:53Z</time>
      </trkpt>
      <trkpt lat="50.20466" lon="1.52008">
        <ele>3</ele>
        <time>2016-09-10T12:03:57Z</time>
      </trkpt>
      <trkpt lat="50.20462" lon="1.52011">
        <ele>3</ele>
        <time>2016-09-10T12:03:59Z</time>
      </trkpt>
      <trkpt lat="50.20457" lon="1.52015">
        <ele>4</ele>
        <time>2016-09-10T12:04:01Z</time>
      </trkpt>
      <trkpt lat="50.2045" lon="1.5202">
        <ele>4</ele>
        <time>2016-09-10T12:04:05Z</time>
      </trkpt>
      <trkpt lat="50.20443" lon="1.52027">
        <ele>4</ele>
        <time>2016-09-10T12:04:09Z</time>
      </trkpt>
      <trkpt lat="50.20439" lon="1.52033">
        <ele>4</ele>
        <time>2016-09-10T12:04:11Z</time>
      </trkpt>
      <trkpt lat="50.20436" lon="1.52037">
        <ele>4</ele>
        <time>2016-09-10T12:04:13Z</time>
      </trkpt>
      <trkpt lat="50.20431" lon="1.5204">
        <ele>4</ele>
        <time>2016-09-10T12:04:15Z</time>
      </trkpt>
      <trkpt lat="50.20427" lon="1.52043">
        <ele>4</ele>
        <time>2016-09-10T12:04:17Z</time>
      </trkpt>
      <trkpt lat="50.20421" lon="1.52046">
        <ele>4</ele>
        <time>2016-09-10T12:04:19Z</time>
      </trkpt>
      <trkpt lat="50.20415" lon="1.52052">
        <ele>5</ele>
        <time>2016-09-10T12:04:21Z</time>
      </trkpt>
      <trkpt lat="50.20409" lon="1.52057">
        <ele>5</ele>
        <time>2016-09-10T12:04:23Z</time>
      </trkpt>
      <trkpt lat="50.20405" lon="1.52062">
        <ele>5</ele>
        <time>2016-09-10T12:04:25Z</time>
      </trkpt>
      <trkpt lat="50.20401" lon="1.52066">
        <ele>5</ele>
        <time>2016-09-10T12:04:27Z</time>
      </trkpt>
      <trkpt lat="50.20396" lon="1.52069">
        <ele>5</ele>
        <time>2016-09-10T12:04:29Z</time>
      </trkpt>
      <trkpt lat="50.20388" lon="1.52073">
        <ele>5</ele>
        <time>2016-09-10T12:04:33Z</time>
      </trkpt>
      <trkpt lat="50.20383" lon="1.52076">
        <ele>5</ele>
        <time>2016-09-10T12:04:35Z</time>
      </trkpt>
      <trkpt lat="50.20378" lon="1.52075">
        <ele>5</ele>
        <time>2016-09-10T12:04:37Z</time>
      </trkpt>
      <trkpt lat="50.20373" lon="1.52075">
        <ele>5</ele>
        <time>2016-09-10T12:04:39Z</time>
      </trkpt>
      <trkpt lat="50.20367" lon="1.52078">
        <ele>5</ele>
        <time>2016-09-10T12:04:41Z</time>
      </trkpt>
      <trkpt lat="50.20362" lon="1.52079">
        <ele>5</ele>
        <time>2016-09-10T12:04:43Z</time>
      </trkpt>
      <trkpt lat="50.20358" lon="1.52082">
        <ele>5</ele>
        <time>2016-09-10T12:04:45Z</time>
      </trkpt>
      <trkpt lat="50.20351" lon="1.5208">
        <ele>5</ele>
        <time>2016-09-10T12:04:47Z</time>
      </trkpt>
      <trkpt lat="50.2034" lon="1.52078">
        <ele>6</ele>
        <time>2016-09-10T12:04:51Z</time>
      </trkpt>
      <trkpt lat="50.20334" lon="1.52076">
        <ele>6</ele>
        <time>2016-09-10T12:04:53Z</time>
      </trkpt>
      <trkpt lat="50.20329" lon="1.52075">
        <ele>6</ele>
        <time>2016-09-10T12:04:55Z</time>
      </trkpt>
      <trkpt lat="50.20324" lon="1.52072">
        <ele>6</ele>
        <time>2016-09-10T12:04:57Z</time>
      </trkpt>
      <trkpt lat="50.20318" lon="1.52068">
        <ele>7</ele>
        <time>2016-09-10T12:04:59Z</time>
      </trkpt>
      <trkpt lat="50.20312" lon="1.52067">
        <ele>7</ele>
        <time>2016-09-10T12:05:01Z</time>
      </trkpt>
      <trkpt lat="50.20304" lon="1.52073">
        <ele>7</ele>
        <time>2016-09-10T12:05:05Z</time>
      </trkpt>
      <trkpt lat="50.203" lon="1.52077">
        <ele>7</ele>
        <time>2016-09-10T12:05:07Z</time>
      </trkpt>
      <trkpt lat="50.20297" lon="1.52085">
        <ele>7</ele>
        <time>2016-09-10T12:05:09Z</time>
      </trkpt>
      <trkpt lat="50.20296" lon="1.52093">
        <ele>7</ele>
        <time>2016-09-10T12:05:11Z</time>
      </trkpt>
      <trkpt lat="50.20294" lon="1.52108">
        <ele>7</ele>
        <time>2016-09-10T12:05:15Z</time>
      </trkpt>
      <trkpt lat="50.20291" lon="1.52115">
        <ele>7</ele>
        <time>2016-09-10T12:05:17Z</time>
      </trkpt>
      <trkpt lat="50.20288" lon="1.52125">
        <ele>7</ele>
        <time>2016-09-10T12:05:21Z</time>
      </trkpt>
      <trkpt lat="50.20285" lon="1.52131">
        <ele>7</ele>
        <time>2016-09-10T12:05:23Z</time>
      </trkpt>
      <trkpt lat="50.20282" lon="1.52143">
        <ele>7</ele>
        <time>2016-09-10T12:05:27Z</time>
      </trkpt>
      <trkpt lat="50.20276" lon="1.5215">
        <ele>7</ele>
        <time>2016-09-10T12:05:31Z</time>
      </trkpt>
      <trkpt lat="50.20273" lon="1.52157">
        <ele>7</ele>
        <time>2016-09-10T12:05:35Z</time>
      </trkpt>
      <trkpt lat="50.20271" lon="1.52168">
        <ele>7</ele>
        <time>2016-09-10T12:05:39Z</time>
      </trkpt>
      <trkpt lat="50.20275" lon="1.52179">
        <ele>7</ele>
        <time>2016-09-10T12:05:43Z</time>
      </trkpt>
      <trkpt lat="50.20278" lon="1.52187">
        <ele>7</ele>
        <time>2016-09-10T12:05:47Z</time>
      </trkpt>
      <trkpt lat="50.20283" lon="1.52195">
        <ele>7</ele>
        <time>2016-09-10T12:05:51Z</time>
      </trkpt>
      <trkpt lat="50.20287" lon="1.52204">
        <ele>7</ele>
        <time>2016-09-10T12:05:55Z</time>
      </trkpt>
      <trkpt lat="50.2029" lon="1.52209">
        <ele>7</ele>
        <time>2016-09-10T12:05:57Z</time>
      </trkpt>
      <trkpt lat="50.20294" lon="1.52218">
        <ele>7</ele>
        <time>2016-09-10T12:05:59Z</time>
      </trkpt>
      <trkpt lat="50.20297" lon="1.52224">
        <ele>7</ele>
        <time>2016-09-10T12:06:01Z</time>
      </trkpt>
      <trkpt lat="50.203" lon="1.52231">
        <ele>7</ele>
        <time>2016-09-10T12:06:03Z</time>
      </trkpt>
      <trkpt lat="50.20303" lon="1.52238">
        <ele>7</ele>
        <time>2016-09-10T12:06:05Z</time>
      </trkpt>
      <trkpt lat="50.20307" lon="1.52244">
        <ele>7</ele>
        <time>2016-09-10T12:06:07Z</time>
      </trkpt>
      <trkpt lat="50.20311" lon="1.52251">
        <ele>7</ele>
        <time>2016-09-10T12:06:09Z</time>
      </trkpt>
      <trkpt lat="50.20315" lon="1.52258">
        <ele>7</ele>
        <time>2016-09-10T12:06:11Z</time>
      </trkpt>
      <trkpt lat="50.20321" lon="1.52267">
        <ele>7</ele>
        <time>2016-09-10T12:06:13Z</time>
      </trkpt>
      <trkpt lat="50.20325" lon="1.52277">
        <ele>7</ele>
        <time>2016-09-10T12:06:15Z</time>
      </trkpt>
      <trkpt lat="50.20331" lon="1.52284">
        <ele>7</ele>
        <time>2016-09-10T12:06:17Z</time>
      </trkpt>
      <trkpt lat="50.20336" lon="1.52293">
        <ele>8</ele>
        <time>2016-09-10T12:06:19Z</time>
      </trkpt>
      <trkpt lat="50.20341" lon="1.52299">
        <ele>8</ele>
        <time>2016-09-10T12:06:21Z</time>
      </trkpt>
      <trkpt lat="50.20345" lon="1.52308">
        <ele>8</ele>
        <time>2016-09-10T12:06:23Z</time>
      </trkpt>
      <trkpt lat="50.2035" lon="1.52317">
        <ele>8</ele>
        <time>2016-09-10T12:06:25Z</time>
      </trkpt>
      <trkpt lat="50.20354" lon="1.52325">
        <ele>8</ele>
        <time>2016-09-10T12:06:27Z</time>
      </trkpt>
      <trkpt lat="50.20358" lon="1.52334">
        <ele>9</ele>
        <time>2016-09-10T12:06:29Z</time>
      </trkpt>
      <trkpt lat="50.20364" lon="1.52343">
        <ele>9</ele>
        <time>2016-09-10T12:06:31Z</time>
      </trkpt>
      <trkpt lat="50.2037" lon="1.52352">
        <ele>9</ele>
        <time>2016-09-10T12:06:33Z</time>
      </trkpt>
      <trkpt lat="50.20376" lon="1.52361">
        <ele>9</ele>
        <time>2016-09-10T12:06:35Z</time>
      </trkpt>
      <trkpt lat="50.20382" lon="1.5237">
        <ele>9</ele>
        <time>2016-09-10T12:06:37Z</time>
      </trkpt>
      <trkpt lat="50.20387" lon="1.52379">
        <ele>9</ele>
        <time>2016-09-10T12:06:39Z</time>
      </trkpt>
      <trkpt lat="50.20391" lon="1.5239">
        <ele>9</ele>
        <time>2016-09-10T12:06:41Z</time>
      </trkpt>
      <trkpt lat="50.20399" lon="1.52401">
        <ele>9</ele>
        <time>2016-09-10T12:06:43Z</time>
      </trkpt>
      <trkpt lat="50.20408" lon="1.52414">
        <ele>9</ele>
        <time>2016-09-10T12:06:45Z</time>
      </trkpt>
      <trkpt lat="50.20414" lon="1.52426">
        <ele>9</ele>
        <time>2016-09-10T12:06:47Z</time>
      </trkpt>
      <trkpt lat="50.20419" lon="1.52438">
        <ele>9</ele>
        <time>2016-09-10T12:06:49Z</time>
      </trkpt>
      <trkpt lat="50.20425" lon="1.5245">
        <ele>9</ele>
        <time>2016-09-10T12:06:51Z</time>
      </trkpt>
      <trkpt lat="50.20435" lon="1.52463">
        <ele>9</ele>
        <time>2016-09-10T12:06:53Z</time>
      </trkpt>
      <trkpt lat="50.2044" lon="1.52474">
        <ele>8</ele>
        <time>2016-09-10T12:06:55Z</time>
      </trkpt>
      <trkpt lat="50.20448" lon="1.52486">
        <ele>8</ele>
        <time>2016-09-10T12:06:57Z</time>
      </trkpt>
      <trkpt lat="50.20454" lon="1.52497">
        <ele>9</ele>
        <time>2016-09-10T12:06:59Z</time>
      </trkpt>
      <trkpt lat="50.20459" lon="1.52506">
        <ele>8</ele>
        <time>2016-09-10T12:07:01Z</time>
      </trkpt>
      <trkpt lat="50.20466" lon="1.52517">
        <ele>8</ele>
        <time>2016-09-10T12:07:03Z</time>
      </trkpt>
      <trkpt lat="50.20472" lon="1.52527">
        <ele>9</ele>
        <time>2016-09-10T12:07:05Z</time>
      </trkpt>
      <trkpt lat="50.20477" lon="1.52538">
        <ele>9</ele>
        <time>2016-09-10T12:07:07Z</time>
      </trkpt>
      <trkpt lat="50.20485" lon="1.52549">
        <ele>9</ele>
        <time>2016-09-10T12:07:09Z</time>
      </trkpt>
      <trkpt lat="50.20492" lon="1.52562">
        <ele>9</ele>
        <time>2016-09-10T12:07:11Z</time>
      </trkpt>
      <trkpt lat="50.20497" lon="1.52574">
        <ele>9</ele>
        <time>2016-09-10T12:07:13Z</time>
      </trkpt>
      <trkpt lat="50.20502" lon="1.52585">
        <ele>9</ele>
        <time>2016-09-10T12:07:15Z</time>
      </trkpt>
      <trkpt lat="50.20508" lon="1.52595">
        <ele>9</ele>
        <time>2016-09-10T12:07:17Z</time>
      </trkpt>
      <trkpt lat="50.20515" lon="1.52609">
        <ele>9</ele>
        <time>2016-09-10T12:07:19Z</time>
      </trkpt>
      <trkpt lat="50.20521" lon="1.5262">
        <ele>9</ele>
        <time>2016-09-10T12:07:21Z</time>
      </trkpt>
      <trkpt lat="50.20528" lon="1.52628">
        <ele>9</ele>
        <time>2016-09-10T12:07:23Z</time>
      </trkpt>
      <trkpt lat="50.20536" lon="1.52639">
        <ele>9</ele>
        <time>2016-09-10T12:07:25Z</time>
      </trkpt>
      <trkpt lat="50.20541" lon="1.52648">
        <ele>9</ele>
        <time>2016-09-10T12:07:27Z</time>
      </trkpt>
      <trkpt lat="50.20548" lon="1.52662">
        <ele>10</ele>
        <time>2016-09-10T12:07:29Z</time>
      </trkpt>
      <trkpt lat="50.20556" lon="1.52673">
        <ele>9</ele>
        <time>2016-09-10T12:07:31Z</time>
      </trkpt>
      <trkpt lat="50.20562" lon="1.52684">
        <ele>9</ele>
        <time>2016-09-10T12:07:33Z</time>
      </trkpt>
      <trkpt lat="50.20569" lon="1.52696">
        <ele>9</ele>
        <time>2016-09-10T12:07:35Z</time>
      </trkpt>
      <trkpt lat="50.20575" lon="1.52708">
        <ele>9</ele>
        <time>2016-09-10T12:07:37Z</time>
      </trkpt>
      <trkpt lat="50.20582" lon="1.52719">
        <ele>9</ele>
        <time>2016-09-10T12:07:39Z</time>
      </trkpt>
      <trkpt lat="50.20588" lon="1.52731">
        <ele>10</ele>
        <time>2016-09-10T12:07:41Z</time>
      </trkpt>
      <trkpt lat="50.2059" lon="1.52745">
        <ele>9</ele>
        <time>2016-09-10T12:07:43Z</time>
      </trkpt>
      <trkpt lat="50.20598" lon="1.52755">
        <ele>9</ele>
        <time>2016-09-10T12:07:45Z</time>
      </trkpt>
      <trkpt lat="50.20602" lon="1.52763">
        <ele>9</ele>
        <time>2016-09-10T12:07:47Z</time>
      </trkpt>
      <trkpt lat="50.20609" lon="1.52776">
        <ele>9</ele>
        <time>2016-09-10T12:07:49Z</time>
      </trkpt>
      <trkpt lat="50.20615" lon="1.52786">
        <ele>9</ele>
        <time>2016-09-10T12:07:51Z</time>
      </trkpt>
      <trkpt lat="50.2062" lon="1.52794">
        <ele>9</ele>
        <time>2016-09-10T12:07:53Z</time>
      </trkpt>
      <trkpt lat="50.20627" lon="1.52806">
        <ele>9</ele>
        <time>2016-09-10T12:07:55Z</time>
      </trkpt>
      <trkpt lat="50.20633" lon="1.52817">
        <ele>9</ele>
        <time>2016-09-10T12:07:57Z</time>
      </trkpt>
      <trkpt lat="50.20637" lon="1.52827">
        <ele>9</ele>
        <time>2016-09-10T12:07:59Z</time>
      </trkpt>
      <trkpt lat="50.20642" lon="1.5284">
        <ele>9</ele>
        <time>2016-09-10T12:08:01Z</time>
      </trkpt>
      <trkpt lat="50.20647" lon="1.5285">
        <ele>9</ele>
        <time>2016-09-10T12:08:03Z</time>
      </trkpt>
      <trkpt lat="50.20654" lon="1.52862">
        <ele>9</ele>
        <time>2016-09-10T12:08:05Z</time>
      </trkpt>
      <trkpt lat="50.20663" lon="1.52872">
        <ele>9</ele>
        <time>2016-09-10T12:08:07Z</time>
      </trkpt>
      <trkpt lat="50.2067" lon="1.52884">
        <ele>9</ele>
        <time>2016-09-10T12:08:09Z</time>
      </trkpt>
      <trkpt lat="50.20676" lon="1.52896">
        <ele>9</ele>
        <time>2016-09-10T12:08:11Z</time>
      </trkpt>
      <trkpt lat="50.20684" lon="1.52905">
        <ele>9</ele>
        <time>2016-09-10T12:08:13Z</time>
      </trkpt>
      <trkpt lat="50.2069" lon="1.52918">
        <ele>9</ele>
        <time>2016-09-10T12:08:15Z</time>
      </trkpt>
      <trkpt lat="50.20696" lon="1.52931">
        <ele>8</ele>
        <time>2016-09-10T12:08:17Z</time>
      </trkpt>
      <trkpt lat="50.20704" lon="1.52942">
        <ele>8</ele>
        <time>2016-09-10T12:08:19Z</time>
      </trkpt>
      <trkpt lat="50.2071" lon="1.52954">
        <ele>8</ele>
        <time>2016-09-10T12:08:21Z</time>
      </trkpt>
      <trkpt lat="50.20718" lon="1.52964">
        <ele>8</ele>
        <time>2016-09-10T12:08:23Z</time>
      </trkpt>
      <trkpt lat="50.20723" lon="1.52976">
        <ele>8</ele>
        <time>2016-09-10T12:08:25Z</time>
      </trkpt>
      <trkpt lat="50.20731" lon="1.52991">
        <ele>8</ele>
        <time>2016-09-10T12:08:27Z</time>
      </trkpt>
      <trkpt lat="50.20737" lon="1.53002">
        <ele>8</ele>
        <time>2016-09-10T12:08:29Z</time>
      </trkpt>
      <trkpt lat="50.20744" lon="1.53015">
        <ele>8</ele>
        <time>2016-09-10T12:08:31Z</time>
      </trkpt>
      <trkpt lat="50.2075" lon="1.53023">
        <ele>8</ele>
        <time>2016-09-10T12:08:33Z</time>
      </trkpt>
      <trkpt lat="50.20757" lon="1.53034">
        <ele>7</ele>
        <time>2016-09-10T12:08:35Z</time>
      </trkpt>
      <trkpt lat="50.20764" lon="1.53047">
        <ele>7</ele>
        <time>2016-09-10T12:08:37Z</time>
      </trkpt>
      <trkpt lat="50.20771" lon="1.53059">
        <ele>7</ele>
        <time>2016-09-10T12:08:39Z</time>
      </trkpt>
      <trkpt lat="50.20777" lon="1.53071">
        <ele>7</ele>
        <time>2016-09-10T12:08:41Z</time>
      </trkpt>
      <trkpt lat="50.20783" lon="1.53081">
        <ele>7</ele>
        <time>2016-09-10T12:08:43Z</time>
      </trkpt>
      <trkpt lat="50.20791" lon="1.53091">
        <ele>7</ele>
        <time>2016-09-10T12:08:45Z</time>
      </trkpt>
      <trkpt lat="50.20796" lon="1.53104">
        <ele>7</ele>
        <time>2016-09-10T12:08:47Z</time>
      </trkpt>
      <trkpt lat="50.20801" lon="1.53117">
        <ele>7</ele>
        <time>2016-09-10T12:08:49Z</time>
      </trkpt>
      <trkpt lat="50.20808" lon="1.53127">
        <ele>7</ele>
        <time>2016-09-10T12:08:51Z</time>
      </trkpt>
      <trkpt lat="50.20814" lon="1.5314">
        <ele>7</ele>
        <time>2016-09-10T12:08:53Z</time>
      </trkpt>
      <trkpt lat="50.20819" lon="1.53149">
        <ele>7</ele>
        <time>2016-09-10T12:08:55Z</time>
      </trkpt>
      <trkpt lat="50.20826" lon="1.53161">
        <ele>8</ele>
        <time>2016-09-10T12:08:57Z</time>
      </trkpt>
      <trkpt lat="50.20831" lon="1.5317">
        <ele>8</ele>
        <time>2016-09-10T12:08:59Z</time>
      </trkpt>
      <trkpt lat="50.20838" lon="1.53182">
        <ele>7</ele>
        <time>2016-09-10T12:09:01Z</time>
      </trkpt>
      <trkpt lat="50.20843" lon="1.53197">
        <ele>7</ele>
        <time>2016-09-10T12:09:03Z</time>
      </trkpt>
      <trkpt lat="50.2085" lon="1.53205">
        <ele>7</ele>
        <time>2016-09-10T12:09:05Z</time>
      </trkpt>
      <trkpt lat="50.20856" lon="1.53213">
        <ele>6</ele>
        <time>2016-09-10T12:09:07Z</time>
      </trkpt>
      <trkpt lat="50.20861" lon="1.53225">
        <ele>6</ele>
        <time>2016-09-10T12:09:09Z</time>
      </trkpt>
      <trkpt lat="50.20867" lon="1.53231">
        <ele>6</ele>
        <time>2016-09-10T12:09:11Z</time>
      </trkpt>
      <trkpt lat="50.20873" lon="1.53242">
        <ele>6</ele>
        <time>2016-09-10T12:09:13Z</time>
      </trkpt>
      <trkpt lat="50.20878" lon="1.53252">
        <ele>7</ele>
        <time>2016-09-10T12:09:15Z</time>
      </trkpt>
      <trkpt lat="50.20884" lon="1.53263">
        <ele>6</ele>
        <time>2016-09-10T12:09:17Z</time>
      </trkpt>
      <trkpt lat="50.20891" lon="1.53273">
        <ele>6</ele>
        <time>2016-09-10T12:09:19Z</time>
      </trkpt>
      <trkpt lat="50.20897" lon="1.53285">
        <ele>6</ele>
        <time>2016-09-10T12:09:21Z</time>
      </trkpt>
      <trkpt lat="50.20904" lon="1.53296">
        <ele>7</ele>
        <time>2016-09-10T12:09:23Z</time>
      </trkpt>
      <trkpt lat="50.2091" lon="1.53305">
        <ele>7</ele>
        <time>2016-09-10T12:09:25Z</time>
      </trkpt>
      <trkpt lat="50.20917" lon="1.53316">
        <ele>6</ele>
        <time>2016-09-10T12:09:27Z</time>
      </trkpt>
      <trkpt lat="50.20923" lon="1.53328">
        <ele>6</ele>
        <time>2016-09-10T12:09:29Z</time>
      </trkpt>
      <trkpt lat="50.2093" lon="1.53339">
        <ele>6</ele>
        <time>2016-09-10T12:09:31Z</time>
      </trkpt>
      <trkpt lat="50.20935" lon="1.5335">
        <ele>6</ele>
        <time>2016-09-10T12:09:33Z</time>
      </trkpt>
      <trkpt lat="50.20941" lon="1.53362">
        <ele>6</ele>
        <time>2016-09-10T12:09:35Z</time>
      </trkpt>
      <trkpt lat="50.20946" lon="1.53377">
        <ele>6</ele>
        <time>2016-09-10T12:09:37Z</time>
      </trkpt>
      <trkpt lat="50.20951" lon="1.53389">
        <ele>6</ele>
        <time>2016-09-10T12:09:39Z</time>
      </trkpt>
      <trkpt lat="50.20956" lon="1.53401">
        <ele>6</ele>
        <time>2016-09-10T12:09:41Z</time>
      </trkpt>
      <trkpt lat="50.20962" lon="1.53414">
        <ele>6</ele>
        <time>2016-09-10T12:09:43Z</time>
      </trkpt>
      <trkpt lat="50.20965" lon="1.53425">
        <ele>6</ele>
        <time>2016-09-10T12:09:45Z</time>
      </trkpt>
      <trkpt lat="50.20975" lon="1.53439">
        <ele>6</ele>
        <time>2016-09-10T12:09:47Z</time>
      </trkpt>
      <trkpt lat="50.20978" lon="1.5345">
        <ele>6</ele>
        <time>2016-09-10T12:09:49Z</time>
      </trkpt>
      <trkpt lat="50.20983" lon="1.53459">
        <ele>6</ele>
        <time>2016-09-10T12:09:51Z</time>
      </trkpt>
      <trkpt lat="50.20987" lon="1.53472">
        <ele>7</ele>
        <time>2016-09-10T12:09:53Z</time>
      </trkpt>
      <trkpt lat="50.20989" lon="1.53482">
        <ele>7</ele>
        <time>2016-09-10T12:09:55Z</time>
      </trkpt>
      <trkpt lat="50.20995" lon="1.53493">
        <ele>7</ele>
        <time>2016-09-10T12:09:57Z</time>
      </trkpt>
      <trkpt lat="50.20999" lon="1.53503">
        <ele>7</ele>
        <time>2016-09-10T12:09:59Z</time>
      </trkpt>
      <trkpt lat="50.21004" lon="1.53516">
        <ele>6</ele>
        <time>2016-09-10T12:10:01Z</time>
      </trkpt>
      <trkpt lat="50.21009" lon="1.53524">
        <ele>6</ele>
        <time>2016-09-10T12:10:03Z</time>
      </trkpt>
      <trkpt lat="50.21012" lon="1.53536">
        <ele>6</ele>
        <time>2016-09-10T12:10:05Z</time>
      </trkpt>
      <trkpt lat="50.21017" lon="1.53548">
        <ele>6</ele>
        <time>2016-09-10T12:10:07Z</time>
      </trkpt>
      <trkpt lat="50.21024" lon="1.53563">
        <ele>6</ele>
        <time>2016-09-10T12:10:09Z</time>
      </trkpt>
      <trkpt lat="50.21029" lon="1.53575">
        <ele>6</ele>
        <time>2016-09-10T12:10:11Z</time>
      </trkpt>
      <trkpt lat="50.21034" lon="1.53592">
        <ele>6</ele>
        <time>2016-09-10T12:10:13Z</time>
      </trkpt>
      <trkpt lat="50.21041" lon="1.53605">
        <ele>6</ele>
        <time>2016-09-10T12:10:15Z</time>
      </trkpt>
      <trkpt lat="50.21046" lon="1.53618">
        <ele>5</ele>
        <time>2016-09-10T12:10:17Z</time>
      </trkpt>
      <trkpt lat="50.2105" lon="1.53631">
        <ele>5</ele>
        <time>2016-09-10T12:10:19Z</time>
      </trkpt>
      <trkpt lat="50.21054" lon="1.53645">
        <ele>5</ele>
        <time>2016-09-10T12:10:21Z</time>
      </trkpt>
      <trkpt lat="50.2106" lon="1.53655">
        <ele>5</ele>
        <time>2016-09-10T12:10:23Z</time>
      </trkpt>
      <trkpt lat="50.21066" lon="1.53665">
        <ele>5</ele>
        <time>2016-09-10T12:10:25Z</time>
      </trkpt>
      <trkpt lat="50.2107" lon="1.53678">
        <ele>5</ele>
        <time>2016-09-10T12:10:27Z</time>
      </trkpt>
      <trkpt lat="50.21076" lon="1.53691">
        <ele>5</ele>
        <time>2016-09-10T12:10:29Z</time>
      </trkpt>
      <trkpt lat="50.21081" lon="1.53703">
        <ele>5</ele>
        <time>2016-09-10T12:10:31Z</time>
      </trkpt>
      <trkpt lat="50.21085" lon="1.53715">
        <ele>5</ele>
        <time>2016-09-10T12:10:33Z</time>
      </trkpt>
      <trkpt lat="50.2109" lon="1.53726">
        <ele>5</ele>
        <time>2016-09-10T12:10:35Z</time>
      </trkpt>
      <trkpt lat="50.21094" lon="1.53735">
        <ele>5</ele>
        <time>2016-09-10T12:10:37Z</time>
      </trkpt>
      <trkpt lat="50.21099" lon="1.53746">
        <ele>5</ele>
        <time>2016-09-10T12:10:39Z</time>
      </trkpt>
      <trkpt lat="50.21104" lon="1.53759">
        <ele>5</ele>
        <time>2016-09-10T12:10:41Z</time>
      </trkpt>
      <trkpt lat="50.21107" lon="1.53775">
        <ele>5</ele>
        <time>2016-09-10T12:10:43Z</time>
      </trkpt>
      <trkpt lat="50.21112" lon="1.53788">
        <ele>5</ele>
        <time>2016-09-10T12:10:45Z</time>
      </trkpt>
      <trkpt lat="50.21117" lon="1.53803">
        <ele>5</ele>
        <time>2016-09-10T12:10:47Z</time>
      </trkpt>
      <trkpt lat="50.21122" lon="1.53817">
        <ele>6</ele>
        <time>2016-09-10T12:10:49Z</time>
      </trkpt>
      <trkpt lat="50.21125" lon="1.53831">
        <ele>6</ele>
        <time>2016-09-10T12:10:51Z</time>
      </trkpt>
      <trkpt lat="50.21131" lon="1.53844">
        <ele>6</ele>
        <time>2016-09-10T12:10:53Z</time>
      </trkpt>
      <trkpt lat="50.21136" lon="1.53858">
        <ele>6</ele>
        <time>2016-09-10T12:10:55Z</time>
      </trkpt>
      <trkpt lat="50.21141" lon="1.53869">
        <ele>5</ele>
        <time>2016-09-10T12:10:57Z</time>
      </trkpt>
      <trkpt lat="50.21145" lon="1.5388">
        <ele>6</ele>
        <time>2016-09-10T12:10:59Z</time>
      </trkpt>
      <trkpt lat="50.21152" lon="1.53894">
        <ele>6</ele>
        <time>2016-09-10T12:11:01Z</time>
      </trkpt>
      <trkpt lat="50.21157" lon="1.53907">
        <ele>6</ele>
        <time>2016-09-10T12:11:03Z</time>
      </trkpt>
      <trkpt lat="50.21163" lon="1.5392">
        <ele>6</ele>
        <time>2016-09-10T12:11:05Z</time>
      </trkpt>
      <trkpt lat="50.21167" lon="1.53934">
        <ele>5</ele>
        <time>2016-09-10T12:11:07Z</time>
      </trkpt>
      <trkpt lat="50.21172" lon="1.53946">
        <ele>6</ele>
        <time>2016-09-10T12:11:09Z</time>
      </trkpt>
      <trkpt lat="50.21177" lon="1.53958">
        <ele>6</ele>
        <time>2016-09-10T12:11:11Z</time>
      </trkpt>
      <trkpt lat="50.21181" lon="1.53971">
        <ele>6</ele>
        <time>2016-09-10T12:11:13Z</time>
      </trkpt>
      <trkpt lat="50.21185" lon="1.53984">
        <ele>6</ele>
        <time>2016-09-10T12:11:15Z</time>
      </trkpt>
      <trkpt lat="50.2119" lon="1.53996">
        <ele>6</ele>
        <time>2016-09-10T12:11:17Z</time>
      </trkpt>
      <trkpt lat="50.21193" lon="1.54006">
        <ele>6</ele>
        <time>2016-09-10T12:11:19Z</time>
      </trkpt>
      <trkpt lat="50.21198" lon="1.54018">
        <ele>5</ele>
        <time>2016-09-10T12:11:21Z</time>
      </trkpt>
      <trkpt lat="50.21203" lon="1.5403">
        <ele>5</ele>
        <time>2016-09-10T12:11:23Z</time>
      </trkpt>
      <trkpt lat="50.21209" lon="1.54042">
        <ele>5</ele>
        <time>2016-09-10T12:11:25Z</time>
      </trkpt>
      <trkpt lat="50.21214" lon="1.54055">
        <ele>5</ele>
        <time>2016-09-10T12:11:27Z</time>
      </trkpt>
      <trkpt lat="50.21218" lon="1.54069">
        <ele>5</ele>
        <time>2016-09-10T12:11:29Z</time>
      </trkpt>
      <trkpt lat="50.21223" lon="1.54083">
        <ele>6</ele>
        <time>2016-09-10T12:11:31Z</time>
      </trkpt>
      <trkpt lat="50.21227" lon="1.54094">
        <ele>6</ele>
        <time>2016-09-10T12:11:33Z</time>
      </trkpt>
      <trkpt lat="50.21232" lon="1.54106">
        <ele>6</ele>
        <time>2016-09-10T12:11:35Z</time>
      </trkpt>
      <trkpt lat="50.21235" lon="1.54117">
        <ele>6</ele>
        <time>2016-09-10T12:11:37Z</time>
      </trkpt>
      <trkpt lat="50.21239" lon="1.54132">
        <ele>6</ele>
        <time>2016-09-10T12:11:39Z</time>
      </trkpt>
      <trkpt lat="50.21244" lon="1.54143">
        <ele>7</ele>
        <time>2016-09-10T12:11:41Z</time>
      </trkpt>
      <trkpt lat="50.21249" lon="1.54156">
        <ele>7</ele>
        <time>2016-09-10T12:11:43Z</time>
      </trkpt>
      <trkpt lat="50.21254" lon="1.54167">
        <ele>8</ele>
        <time>2016-09-10T12:11:45Z</time>
      </trkpt>
      <trkpt lat="50.21258" lon="1.54177">
        <ele>7</ele>
        <time>2016-09-10T12:11:47Z</time>
      </trkpt>
      <trkpt lat="50.21262" lon="1.54192">
        <ele>6</ele>
        <time>2016-09-10T12:11:49Z</time>
      </trkpt>
      <trkpt lat="50.21267" lon="1.54204">
        <ele>6</ele>
        <time>2016-09-10T12:11:51Z</time>
      </trkpt>
      <trkpt lat="50.21271" lon="1.54214">
        <ele>6</ele>
        <time>2016-09-10T12:11:53Z</time>
      </trkpt>
      <trkpt lat="50.21276" lon="1.54227">
        <ele>6</ele>
        <time>2016-09-10T12:11:55Z</time>
      </trkpt>
      <trkpt lat="50.21281" lon="1.54238">
        <ele>6</ele>
        <time>2016-09-10T12:11:57Z</time>
      </trkpt>
      <trkpt lat="50.21285" lon="1.5425">
        <ele>5</ele>
        <time>2016-09-10T12:11:59Z</time>
      </trkpt>
      <trkpt lat="50.21289" lon="1.54264">
        <ele>5</ele>
        <time>2016-09-10T12:12:01Z</time>
      </trkpt>
      <trkpt lat="50.21293" lon="1.54274">
        <ele>5</ele>
        <time>2016-09-10T12:12:03Z</time>
      </trkpt>
      <trkpt lat="50.21296" lon="1.54287">
        <ele>5</ele>
        <time>2016-09-10T12:12:05Z</time>
      </trkpt>
      <trkpt lat="50.213" lon="1.54297">
        <ele>5</ele>
        <time>2016-09-10T12:12:07Z</time>
      </trkpt>
      <trkpt lat="50.21303" lon="1.54308">
        <ele>5</ele>
        <time>2016-09-10T12:12:09Z</time>
      </trkpt>
      <trkpt lat="50.21307" lon="1.54317">
        <ele>5</ele>
        <time>2016-09-10T12:12:11Z</time>
      </trkpt>
      <trkpt lat="50.21311" lon="1.54326">
        <ele>5</ele>
        <time>2016-09-10T12:12:13Z</time>
      </trkpt>
      <trkpt lat="50.21314" lon="1.54335">
        <ele>4</ele>
        <time>2016-09-10T12:12:15Z</time>
      </trkpt>
      <trkpt lat="50.21318" lon="1.54345">
        <ele>4</ele>
        <time>2016-09-10T12:12:17Z</time>
      </trkpt>
      <trkpt lat="50.21322" lon="1.54354">
        <ele>4</ele>
        <time>2016-09-10T12:12:19Z</time>
      </trkpt>
      <trkpt lat="50.21324" lon="1.54362">
        <ele>4</ele>
        <time>2016-09-10T12:12:21Z</time>
      </trkpt>
      <trkpt lat="50.21328" lon="1.54371">
        <ele>4</ele>
        <time>2016-09-10T12:12:23Z</time>
      </trkpt>
      <trkpt lat="50.2133" lon="1.54378">
        <ele>4</ele>
        <time>2016-09-10T12:12:25Z</time>
      </trkpt>
      <trkpt lat="50.21333" lon="1.54387">
        <ele>4</ele>
        <time>2016-09-10T12:12:27Z</time>
      </trkpt>
      <trkpt lat="50.21336" lon="1.54393">
        <ele>4</ele>
        <time>2016-09-10T12:12:31Z</time>
      </trkpt>
      <trkpt lat="50.21337" lon="1.54399">
        <ele>4</ele>
        <time>2016-09-10T12:12:55Z</time>
      </trkpt>
      <trkpt lat="50.21332" lon="1.54398">
        <ele>4</ele>
        <time>2016-09-10T12:13:19Z</time>
      </trkpt>
      <trkpt lat="50.21336" lon="1.54405">
        <ele>4</ele>
        <time>2016-09-10T12:19:19Z</time>
      </trkpt>
      <trkpt lat="50.21339" lon="1.54418">
        <ele>4</ele>
        <time>2016-09-10T12:19:23Z</time>
      </trkpt>
      <trkpt lat="50.21343" lon="1.54425">
        <ele>4</ele>
        <time>2016-09-10T12:19:25Z</time>
      </trkpt>
      <trkpt lat="50.21345" lon="1.54433">
        <ele>4</ele>
        <time>2016-09-10T12:19:27Z</time>
      </trkpt>
      <trkpt lat="50.21348" lon="1.54441">
        <ele>4</ele>
        <time>2016-09-10T12:19:29Z</time>
      </trkpt>
      <trkpt lat="50.2135" lon="1.54449">
        <ele>4</ele>
        <time>2016-09-10T12:19:31Z</time>
      </trkpt>
      <trkpt lat="50.21352" lon="1.5446">
        <ele>5</ele>
        <time>2016-09-10T12:19:33Z</time>
      </trkpt>
      <trkpt lat="50.21354" lon="1.54471">
        <ele>5</ele>
        <time>2016-09-10T12:19:35Z</time>
      </trkpt>
      <trkpt lat="50.21357" lon="1.5448">
        <ele>5</ele>
        <time>2016-09-10T12:19:37Z</time>
      </trkpt>
      <trkpt lat="50.21358" lon="1.5449">
        <ele>5</ele>
        <time>2016-09-10T12:19:39Z</time>
      </trkpt>
      <trkpt lat="50.2136" lon="1.54501">
        <ele>5</ele>
        <time>2016-09-10T12:19:41Z</time>
      </trkpt>
      <trkpt lat="50.21364" lon="1.54512">
        <ele>5</ele>
        <time>2016-09-10T12:19:43Z</time>
      </trkpt>
      <trkpt lat="50.21367" lon="1.54523">
        <ele>5</ele>
        <time>2016-09-10T12:19:45Z</time>
      </trkpt>
      <trkpt lat="50.21368" lon="1.54536">
        <ele>5</ele>
        <time>2016-09-10T12:19:47Z</time>
      </trkpt>
      <trkpt lat="50.2137" lon="1.54549">
        <ele>4</ele>
        <time>2016-09-10T12:19:49Z</time>
      </trkpt>
      <trkpt lat="50.21372" lon="1.54564">
        <ele>4</ele>
        <time>2016-09-10T12:19:51Z</time>
      </trkpt>
      <trkpt lat="50.21374" lon="1.54579">
        <ele>4</ele>
        <time>2016-09-10T12:19:53Z</time>
      </trkpt>
      <trkpt lat="50.21377" lon="1.54595">
        <ele>3</ele>
        <time>2016-09-10T12:19:55Z</time>
      </trkpt>
      <trkpt lat="50.21381" lon="1.54618">
        <ele>3</ele>
        <time>2016-09-10T12:19:57Z</time>
      </trkpt>
      <trkpt lat="50.21386" lon="1.54638">
        <ele>3</ele>
        <time>2016-09-10T12:19:59Z</time>
      </trkpt>
      <trkpt lat="50.21392" lon="1.5466">
        <ele>3</ele>
        <time>2016-09-10T12:20:01Z</time>
      </trkpt>
      <trkpt lat="50.21398" lon="1.54685">
        <ele>2</ele>
        <time>2016-09-10T12:20:03Z</time>
      </trkpt>
      <trkpt lat="50.21403" lon="1.54712">
        <ele>1</ele>
        <time>2016-09-10T12:20:05Z</time>
      </trkpt>
      <trkpt lat="50.21408" lon="1.5474">
        <ele>1</ele>
        <time>2016-09-10T12:20:07Z</time>
      </trkpt>
      <trkpt lat="50.21413" lon="1.54768">
        <ele>1</ele>
        <time>2016-09-10T12:20:09Z</time>
      </trkpt>
      <trkpt lat="50.21419" lon="1.54795">
        <ele>2</ele>
        <time>2016-09-10T12:20:11Z</time>
      </trkpt>
      <trkpt lat="50.21423" lon="1.54819">
        <ele>3</ele>
        <time>2016-09-10T12:20:13Z</time>
      </trkpt>
      <trkpt lat="50.21431" lon="1.54842">
        <ele>3</ele>
        <time>2016-09-10T12:20:15Z</time>
      </trkpt>
      <trkpt lat="50.21438" lon="1.54863">
        <ele>3</ele>
        <time>2016-09-10T12:20:17Z</time>
      </trkpt>
      <trkpt lat="50.21442" lon="1.54883">
        <ele>3</ele>
        <time>2016-09-10T12:20:19Z</time>
      </trkpt>
      <trkpt lat="50.21445" lon="1.54906">
        <ele>3</ele>
        <time>2016-09-10T12:20:21Z</time>
      </trkpt>
      <trkpt lat="50.21448" lon="1.54927">
        <ele>3</ele>
        <time>2016-09-10T12:20:23Z</time>
      </trkpt>
      <trkpt lat="50.21452" lon="1.54947">
        <ele>3</ele>
        <time>2016-09-10T12:20:25Z</time>
      </trkpt>
      <trkpt lat="50.21458" lon="1.54966">
        <ele>4</ele>
        <time>2016-09-10T12:20:27Z</time>
      </trkpt>
      <trkpt lat="50.21462" lon="1.54988">
        <ele>4</ele>
        <time>2016-09-10T12:20:29Z</time>
      </trkpt>
      <trkpt lat="50.21469" lon="1.55009">
        <ele>4</ele>
        <time>2016-09-10T12:20:31Z</time>
      </trkpt>
      <trkpt lat="50.21473" lon="1.55028">
        <ele>4</ele>
        <time>2016-09-10T12:20:33Z</time>
      </trkpt>
      <trkpt lat="50.21476" lon="1.55044">
        <ele>5</ele>
        <time>2016-09-10T12:20:35Z</time>
      </trkpt>
      <trkpt lat="50.21479" lon="1.55062">
        <ele>5</ele>
        <time>2016-09-10T12:20:37Z</time>
      </trkpt>
      <trkpt lat="50.21484" lon="1.55082">
        <ele>4</ele>
        <time>2016-09-10T12:20:39Z</time>
      </trkpt>
      <trkpt lat="50.21487" lon="1.55102">
        <ele>5</ele>
        <time>2016-09-10T12:20:41Z</time>
      </trkpt>
      <trkpt lat="50.21491" lon="1.55123">
        <ele>5</ele>
        <time>2016-09-10T12:20:43Z</time>
      </trkpt>
      <trkpt lat="50.21493" lon="1.55142">
        <ele>5</ele>
        <time>2016-09-10T12:20:45Z</time>
      </trkpt>
      <trkpt lat="50.21494" lon="1.5516">
        <ele>5</ele>
        <time>2016-09-10T12:20:47Z</time>
      </trkpt>
      <trkpt lat="50.21496" lon="1.55177">
        <ele>5</ele>
        <time>2016-09-10T12:20:49Z</time>
      </trkpt>
      <trkpt lat="50.21498" lon="1.55194">
        <ele>6</ele>
        <time>2016-09-10T12:20:51Z</time>
      </trkpt>
      <trkpt lat="50.21499" lon="1.55214">
        <ele>6</ele>
        <time>2016-09-10T12:20:53Z</time>
      </trkpt>
      <trkpt lat="50.21501" lon="1.55232">
        <ele>5</ele>
        <time>2016-09-10T12:20:55Z</time>
      </trkpt>
      <trkpt lat="50.215" lon="1.5525">
        <ele>6</ele>
        <time>2016-09-10T12:20:57Z</time>
      </trkpt>
      <trkpt lat="50.215" lon="1.55268">
        <ele>6</ele>
        <time>2016-09-10T12:20:59Z</time>
      </trkpt>
      <trkpt lat="50.21498" lon="1.55283">
        <ele>6</ele>
        <time>2016-09-10T12:21:01Z</time>
      </trkpt>
      <trkpt lat="50.21497" lon="1.55298">
        <ele>6</ele>
        <time>2016-09-10T12:21:03Z</time>
      </trkpt>
      <trkpt lat="50.21497" lon="1.55313">
        <ele>7</ele>
        <time>2016-09-10T12:21:05Z</time>
      </trkpt>
      <trkpt lat="50.21495" lon="1.55327">
        <ele>7</ele>
        <time>2016-09-10T12:21:07Z</time>
      </trkpt>
      <trkpt lat="50.21493" lon="1.55339">
        <ele>7</ele>
        <time>2016-09-10T12:21:09Z</time>
      </trkpt>
      <trkpt lat="50.21492" lon="1.55352">
        <ele>7</ele>
        <time>2016-09-10T12:21:11Z</time>
      </trkpt>
      <trkpt lat="50.21491" lon="1.55362">
        <ele>7</ele>
        <time>2016-09-10T12:21:13Z</time>
      </trkpt>
      <trkpt lat="50.21491" lon="1.55376">
        <ele>7</ele>
        <time>2016-09-10T12:21:15Z</time>
      </trkpt>
      <trkpt lat="50.2149" lon="1.55391">
        <ele>7</ele>
        <time>2016-09-10T12:21:17Z</time>
      </trkpt>
      <trkpt lat="50.2149" lon="1.55404">
        <ele>7</ele>
        <time>2016-09-10T12:21:19Z</time>
      </trkpt>
      <trkpt lat="50.21492" lon="1.55416">
        <ele>7</ele>
        <time>2016-09-10T12:21:21Z</time>
      </trkpt>
      <trkpt lat="50.21491" lon="1.55432">
        <ele>7</ele>
        <time>2016-09-10T12:21:23Z</time>
      </trkpt>
      <trkpt lat="50.2149" lon="1.55447">
        <ele>6</ele>
        <time>2016-09-10T12:21:25Z</time>
      </trkpt>
      <trkpt lat="50.21488" lon="1.5546">
        <ele>6</ele>
        <time>2016-09-10T12:21:27Z</time>
      </trkpt>
      <trkpt lat="50.2149" lon="1.55473">
        <ele>6</ele>
        <time>2016-09-10T12:21:29Z</time>
      </trkpt>
      <trkpt lat="50.21491" lon="1.55489">
        <ele>6</ele>
        <time>2016-09-10T12:21:31Z</time>
      </trkpt>
      <trkpt lat="50.2149" lon="1.55498">
        <ele>6</ele>
        <time>2016-09-10T12:21:33Z</time>
      </trkpt>
      <trkpt lat="50.2149" lon="1.55513">
        <ele>6</ele>
        <time>2016-09-10T12:21:35Z</time>
      </trkpt>
      <trkpt lat="50.21489" lon="1.55526">
        <ele>5</ele>
        <time>2016-09-10T12:21:37Z</time>
      </trkpt>
      <trkpt lat="50.21486" lon="1.55541">
        <ele>5</ele>
        <time>2016-09-10T12:21:39Z</time>
      </trkpt>
      <trkpt lat="50.21485" lon="1.55556">
        <ele>5</ele>
        <time>2016-09-10T12:21:41Z</time>
      </trkpt>
      <trkpt lat="50.21483" lon="1.55569">
        <ele>5</ele>
        <time>2016-09-10T12:21:43Z</time>
      </trkpt>
      <trkpt lat="50.21484" lon="1.55585">
        <ele>5</ele>
        <time>2016-09-10T12:21:45Z</time>
      </trkpt>
      <trkpt lat="50.21484" lon="1.55599">
        <ele>4</ele>
        <time>2016-09-10T12:21:47Z</time>
      </trkpt>
      <trkpt lat="50.21485" lon="1.55613">
        <ele>4</ele>
        <time>2016-09-10T12:21:49Z</time>
      </trkpt>
      <trkpt lat="50.21484" lon="1.55627">
        <ele>4</ele>
        <time>2016-09-10T12:21:51Z</time>
      </trkpt>
      <trkpt lat="50.21485" lon="1.55645">
        <ele>4</ele>
        <time>2016-09-10T12:21:53Z</time>
      </trkpt>
      <trkpt lat="50.21486" lon="1.55664">
        <ele>4</ele>
        <time>2016-09-10T12:21:55Z</time>
      </trkpt>
      <trkpt lat="50.21484" lon="1.55679">
        <ele>4</ele>
        <time>2016-09-10T12:21:57Z</time>
      </trkpt>
      <trkpt lat="50.21484" lon="1.55698">
        <ele>4</ele>
        <time>2016-09-10T12:21:59Z</time>
      </trkpt>
      <trkpt lat="50.21484" lon="1.55714">
        <ele>4</ele>
        <time>2016-09-10T12:22:01Z</time>
      </trkpt>
      <trkpt lat="50.21481" lon="1.5573">
        <ele>4</ele>
        <time>2016-09-10T12:22:03Z</time>
      </trkpt>
      <trkpt lat="50.21481" lon="1.55747">
        <ele>4</ele>
        <time>2016-09-10T12:22:05Z</time>
      </trkpt>
      <trkpt lat="50.21482" lon="1.5576">
        <ele>3</ele>
        <time>2016-09-10T12:22:07Z</time>
      </trkpt>
      <trkpt lat="50.21483" lon="1.5578">
        <ele>3</ele>
        <time>2016-09-10T12:22:09Z</time>
      </trkpt>
      <trkpt lat="50.21484" lon="1.55794">
        <ele>3</ele>
        <time>2016-09-10T12:22:11Z</time>
      </trkpt>
      <trkpt lat="50.21485" lon="1.55811">
        <ele>3</ele>
        <time>2016-09-10T12:22:13Z</time>
      </trkpt>
      <trkpt lat="50.21486" lon="1.55827">
        <ele>3</ele>
        <time>2016-09-10T12:22:15Z</time>
      </trkpt>
      <trkpt lat="50.21487" lon="1.55841">
        <ele>3</ele>
        <time>2016-09-10T12:22:17Z</time>
      </trkpt>
      <trkpt lat="50.21488" lon="1.55858">
        <ele>3</ele>
        <time>2016-09-10T12:22:19Z</time>
      </trkpt>
      <trkpt lat="50.21489" lon="1.55876">
        <ele>3</ele>
        <time>2016-09-10T12:22:21Z</time>
      </trkpt>
      <trkpt lat="50.21488" lon="1.55891">
        <ele>3</ele>
        <time>2016-09-10T12:22:23Z</time>
      </trkpt>
      <trkpt lat="50.2149" lon="1.55907">
        <ele>3</ele>
        <time>2016-09-10T12:22:25Z</time>
      </trkpt>
      <trkpt lat="50.21491" lon="1.55922">
        <ele>3</ele>
        <time>2016-09-10T12:22:27Z</time>
      </trkpt>
      <trkpt lat="50.21492" lon="1.55936">
        <ele>3</ele>
        <time>2016-09-10T12:22:29Z</time>
      </trkpt>
      <trkpt lat="50.21491" lon="1.55951">
        <ele>3</ele>
        <time>2016-09-10T12:22:31Z</time>
      </trkpt>
      <trkpt lat="50.2149" lon="1.55969">
        <ele>3</ele>
        <time>2016-09-10T12:22:33Z</time>
      </trkpt>
      <trkpt lat="50.2149" lon="1.55986">
        <ele>3</ele>
        <time>2016-09-10T12:22:35Z</time>
      </trkpt>
      <trkpt lat="50.2149" lon="1.56">
        <ele>3</ele>
        <time>2016-09-10T12:22:37Z</time>
      </trkpt>
      <trkpt lat="50.2149" lon="1.56016">
        <ele>3</ele>
        <time>2016-09-10T12:22:39Z</time>
      </trkpt>
      <trkpt lat="50.21487" lon="1.56032">
        <ele>3</ele>
        <time>2016-09-10T12:22:41Z</time>
      </trkpt>
      <trkpt lat="50.21486" lon="1.56047">
        <ele>3</ele>
        <time>2016-09-10T12:22:43Z</time>
      </trkpt>
      <trkpt lat="50.21486" lon="1.56064">
        <ele>3</ele>
        <time>2016-09-10T12:22:45Z</time>
      </trkpt>
      <trkpt lat="50.21486" lon="1.56079">
        <ele>3</ele>
        <time>2016-09-10T12:22:47Z</time>
      </trkpt>
      <trkpt lat="50.21485" lon="1.56093">
        <ele>4</ele>
        <time>2016-09-10T12:22:49Z</time>
      </trkpt>
      <trkpt lat="50.21485" lon="1.56112">
        <ele>4</ele>
        <time>2016-09-10T12:22:51Z</time>
      </trkpt>
      <trkpt lat="50.21482" lon="1.56125">
        <ele>4</ele>
        <time>2016-09-10T12:22:53Z</time>
      </trkpt>
      <trkpt lat="50.2148" lon="1.56141">
        <ele>4</ele>
        <time>2016-09-10T12:22:55Z</time>
      </trkpt>
      <trkpt lat="50.21481" lon="1.56156">
        <ele>5</ele>
        <time>2016-09-10T12:22:57Z</time>
      </trkpt>
      <trkpt lat="50.2148" lon="1.5617">
        <ele>5</ele>
        <time>2016-09-10T12:22:59Z</time>
      </trkpt>
      <trkpt lat="50.21478" lon="1.56185">
        <ele>5</ele>
        <time>2016-09-10T12:23:01Z</time>
      </trkpt>
      <trkpt lat="50.21477" lon="1.562">
        <ele>5</ele>
        <time>2016-09-10T12:23:03Z</time>
      </trkpt>
      <trkpt lat="50.21476" lon="1.56216">
        <ele>5</ele>
        <time>2016-09-10T12:23:05Z</time>
      </trkpt>
      <trkpt lat="50.21475" lon="1.5623">
        <ele>5</ele>
        <time>2016-09-10T12:23:07Z</time>
      </trkpt>
      <trkpt lat="50.21472" lon="1.56244">
        <ele>5</ele>
        <time>2016-09-10T12:23:09Z</time>
      </trkpt>
      <trkpt lat="50.21465" lon="1.56259">
        <ele>5</ele>
        <time>2016-09-10T12:23:11Z</time>
      </trkpt>
      <trkpt lat="50.21456" lon="1.56261">
        <ele>5</ele>
        <time>2016-09-10T12:23:13Z</time>
      </trkpt>
      <trkpt lat="50.2145" lon="1.56264">
        <ele>4</ele>
        <time>2016-09-10T12:23:15Z</time>
      </trkpt>
      <trkpt lat="50.21443" lon="1.56273">
        <ele>4</ele>
        <time>2016-09-10T12:23:17Z</time>
      </trkpt>
      <trkpt lat="50.21437" lon="1.56276">
        <ele>4</ele>
        <time>2016-09-10T12:23:19Z</time>
      </trkpt>
      <trkpt lat="50.21431" lon="1.56281">
        <ele>4</ele>
        <time>2016-09-10T12:23:21Z</time>
      </trkpt>
      <trkpt lat="50.21425" lon="1.56286">
        <ele>4</ele>
        <time>2016-09-10T12:23:23Z</time>
      </trkpt>
      <trkpt lat="50.21419" lon="1.56291">
        <ele>4</ele>
        <time>2016-09-10T12:23:25Z</time>
      </trkpt>
      <trkpt lat="50.21413" lon="1.56299">
        <ele>3</ele>
        <time>2016-09-10T12:23:27Z</time>
      </trkpt>
      <trkpt lat="50.21406" lon="1.56304">
        <ele>3</ele>
        <time>2016-09-10T12:23:29Z</time>
      </trkpt>
      <trkpt lat="50.214" lon="1.56298">
        <ele>3</ele>
        <time>2016-09-10T12:23:31Z</time>
      </trkpt>
      <trkpt lat="50.21393" lon="1.56297">
        <ele>3</ele>
        <time>2016-09-10T12:23:33Z</time>
      </trkpt>
      <trkpt lat="50.2139" lon="1.56287">
        <ele>3</ele>
        <time>2016-09-10T12:23:35Z</time>
      </trkpt>
      <trkpt lat="50.21388" lon="1.56277">
        <ele>3</ele>
        <time>2016-09-10T12:23:37Z</time>
      </trkpt>
      <trkpt lat="50.21387" lon="1.56266">
        <ele>3</ele>
        <time>2016-09-10T12:23:39Z</time>
      </trkpt>
      <trkpt lat="50.21384" lon="1.56255">
        <ele>3</ele>
        <time>2016-09-10T12:23:41Z</time>
      </trkpt>
      <trkpt lat="50.21381" lon="1.56245">
        <ele>3</ele>
        <time>2016-09-10T12:23:43Z</time>
      </trkpt>
      <trkpt lat="50.21378" lon="1.56234">
        <ele>3</ele>
        <time>2016-09-10T12:23:45Z</time>
      </trkpt>
      <trkpt lat="50.21376" lon="1.56223">
        <ele>3</ele>
        <time>2016-09-10T12:23:47Z</time>
      </trkpt>
      <trkpt lat="50.21373" lon="1.56211">
        <ele>2</ele>
        <time>2016-09-10T12:23:49Z</time>
      </trkpt>
      <trkpt lat="50.2137" lon="1.562">
        <ele>2</ele>
        <time>2016-09-10T12:23:51Z</time>
      </trkpt>
      <trkpt lat="50.21367" lon="1.5619">
        <ele>2</ele>
        <time>2016-09-10T12:23:53Z</time>
      </trkpt>
      <trkpt lat="50.21363" lon="1.56178">
        <ele>2</ele>
        <time>2016-09-10T12:23:55Z</time>
      </trkpt>
      <trkpt lat="50.21359" lon="1.56168">
        <ele>2</ele>
        <time>2016-09-10T12:23:57Z</time>
      </trkpt>
      <trkpt lat="50.21354" lon="1.56158">
        <ele>2</ele>
        <time>2016-09-10T12:23:59Z</time>
      </trkpt>
      <trkpt lat="50.21349" lon="1.56148">
        <ele>2</ele>
        <time>2016-09-10T12:24:01Z</time>
      </trkpt>
      <trkpt lat="50.21345" lon="1.56137">
        <ele>2</ele>
        <time>2016-09-10T12:24:03Z</time>
      </trkpt>
      <trkpt lat="50.21341" lon="1.56125">
        <ele>2</ele>
        <time>2016-09-10T12:24:05Z</time>
      </trkpt>
      <trkpt lat="50.21337" lon="1.56114">
        <ele>3</ele>
        <time>2016-09-10T12:24:07Z</time>
      </trkpt>
      <trkpt lat="50.21334" lon="1.56101">
        <ele>3</ele>
        <time>2016-09-10T12:24:09Z</time>
      </trkpt>
      <trkpt lat="50.21331" lon="1.56089">
        <ele>3</ele>
        <time>2016-09-10T12:24:11Z</time>
      </trkpt>
      <trkpt lat="50.21327" lon="1.56077">
        <ele>3</ele>
        <time>2016-09-10T12:24:13Z</time>
      </trkpt>
      <trkpt lat="50.21323" lon="1.56066">
        <ele>3</ele>
        <time>2016-09-10T12:24:15Z</time>
      </trkpt>
      <trkpt lat="50.21318" lon="1.56056">
        <ele>3</ele>
        <time>2016-09-10T12:24:17Z</time>
      </trkpt>
      <trkpt lat="50.21313" lon="1.56046">
        <ele>3</ele>
        <time>2016-09-10T12:24:19Z</time>
      </trkpt>
      <trkpt lat="50.21307" lon="1.56035">
        <ele>3</ele>
        <time>2016-09-10T12:24:21Z</time>
      </trkpt>
      <trkpt lat="50.21297" lon="1.56024">
        <ele>3</ele>
        <time>2016-09-10T12:24:23Z</time>
      </trkpt>
      <trkpt lat="50.2129" lon="1.56016">
        <ele>2</ele>
        <time>2016-09-10T12:24:25Z</time>
      </trkpt>
      <trkpt lat="50.21185" lon="1.55885">
        <ele>3</ele>
        <time>2016-09-10T12:24:55Z</time>
      </trkpt>
      <trkpt lat="50.21172" lon="1.55871">
        <ele>3</ele>
        <time>2016-09-10T12:24:59Z</time>
      </trkpt>
      <trkpt lat="50.21163" lon="1.55865">
        <ele>3</ele>
        <time>2016-09-10T12:25:01Z</time>
      </trkpt>
      <trkpt lat="50.21154" lon="1.5586">
        <ele>3</ele>
        <time>2016-09-10T12:25:03Z</time>
      </trkpt>
      <trkpt lat="50.21145" lon="1.55854">
        <ele>3</ele>
        <time>2016-09-10T12:25:05Z</time>
      </trkpt>
      <trkpt lat="50.21135" lon="1.55847">
        <ele>3</ele>
        <time>2016-09-10T12:25:07Z</time>
      </trkpt>
      <trkpt lat="50.21126" lon="1.55841">
        <ele>3</ele>
        <time>2016-09-10T12:25:09Z</time>
      </trkpt>
      <trkpt lat="50.21118" lon="1.55835">
        <ele>3</ele>
        <time>2016-09-10T12:25:11Z</time>
      </trkpt>
      <trkpt lat="50.2111" lon="1.5583">
        <ele>4</ele>
        <time>2016-09-10T12:25:13Z</time>
      </trkpt>
      <trkpt lat="50.21101" lon="1.55824">
        <ele>4</ele>
        <time>2016-09-10T12:25:15Z</time>
      </trkpt>
      <trkpt lat="50.21093" lon="1.55818">
        <ele>4</ele>
        <time>2016-09-10T12:25:17Z</time>
      </trkpt>
      <trkpt lat="50.21084" lon="1.55812">
        <ele>4</ele>
        <time>2016-09-10T12:25:19Z</time>
      </trkpt>
      <trkpt lat="50.21076" lon="1.55801">
        <ele>4</ele>
        <time>2016-09-10T12:25:21Z</time>
      </trkpt>
      <trkpt lat="50.21069" lon="1.55791">
        <ele>4</ele>
        <time>2016-09-10T12:25:23Z</time>
      </trkpt>
      <trkpt lat="50.2106" lon="1.55782">
        <ele>4</ele>
        <time>2016-09-10T12:25:25Z</time>
      </trkpt>
      <trkpt lat="50.21052" lon="1.55778">
        <ele>4</ele>
        <time>2016-09-10T12:25:27Z</time>
      </trkpt>
      <trkpt lat="50.21041" lon="1.55771">
        <ele>4</ele>
        <time>2016-09-10T12:25:29Z</time>
      </trkpt>
      <trkpt lat="50.21034" lon="1.55761">
        <ele>4</ele>
        <time>2016-09-10T12:25:31Z</time>
      </trkpt>
      <trkpt lat="50.21025" lon="1.55752">
        <ele>4</ele>
        <time>2016-09-10T12:25:33Z</time>
      </trkpt>
      <trkpt lat="50.21017" lon="1.55739">
        <ele>4</ele>
        <time>2016-09-10T12:25:35Z</time>
      </trkpt>
      <trkpt lat="50.21008" lon="1.5573">
        <ele>4</ele>
        <time>2016-09-10T12:25:37Z</time>
      </trkpt>
      <trkpt lat="50.20998" lon="1.55718">
        <ele>3</ele>
        <time>2016-09-10T12:25:39Z</time>
      </trkpt>
      <trkpt lat="50.20989" lon="1.55711">
        <ele>3</ele>
        <time>2016-09-10T12:25:41Z</time>
      </trkpt>
      <trkpt lat="50.20983" lon="1.55704">
        <ele>3</ele>
        <time>2016-09-10T12:25:43Z</time>
      </trkpt>
      <trkpt lat="50.20974" lon="1.557">
        <ele>3</ele>
        <time>2016-09-10T12:25:45Z</time>
      </trkpt>
      <trkpt lat="50.20966" lon="1.55693">
        <ele>3</ele>
        <time>2016-09-10T12:25:47Z</time>
      </trkpt>
      <trkpt lat="50.20956" lon="1.55688">
        <ele>2</ele>
        <time>2016-09-10T12:25:49Z</time>
      </trkpt>
      <trkpt lat="50.20947" lon="1.55683">
        <ele>2</ele>
        <time>2016-09-10T12:25:51Z</time>
      </trkpt>
      <trkpt lat="50.20938" lon="1.55681">
        <ele>2</ele>
        <time>2016-09-10T12:25:53Z</time>
      </trkpt>
      <trkpt lat="50.2093" lon="1.55675">
        <ele>2</ele>
        <time>2016-09-10T12:25:55Z</time>
      </trkpt>
      <trkpt lat="50.20923" lon="1.55671">
        <ele>2</ele>
        <time>2016-09-10T12:25:57Z</time>
      </trkpt>
      <trkpt lat="50.20914" lon="1.55671">
        <ele>2</ele>
        <time>2016-09-10T12:25:59Z</time>
      </trkpt>
      <trkpt lat="50.20907" lon="1.55676">
        <ele>2</ele>
        <time>2016-09-10T12:26:01Z</time>
      </trkpt>
      <trkpt lat="50.20897" lon="1.55677">
        <ele>2</ele>
        <time>2016-09-10T12:26:03Z</time>
      </trkpt>
      <trkpt lat="50.2089" lon="1.55687">
        <ele>2</ele>
        <time>2016-09-10T12:26:05Z</time>
      </trkpt>
      <trkpt lat="50.20888" lon="1.55697">
        <ele>2</ele>
        <time>2016-09-10T12:26:07Z</time>
      </trkpt>
      <trkpt lat="50.20884" lon="1.55708">
        <ele>2</ele>
        <time>2016-09-10T12:26:09Z</time>
      </trkpt>
      <trkpt lat="50.20879" lon="1.55717">
        <ele>2</ele>
        <time>2016-09-10T12:26:11Z</time>
      </trkpt>
      <trkpt lat="50.20874" lon="1.55726">
        <ele>2</ele>
        <time>2016-09-10T12:26:13Z</time>
      </trkpt>
      <trkpt lat="50.2087" lon="1.55736">
        <ele>2</ele>
        <time>2016-09-10T12:26:15Z</time>
      </trkpt>
      <trkpt lat="50.20867" lon="1.55747">
        <ele>2</ele>
        <time>2016-09-10T12:26:17Z</time>
      </trkpt>
      <trkpt lat="50.20863" lon="1.55757">
        <ele>2</ele>
        <time>2016-09-10T12:26:19Z</time>
      </trkpt>
      <trkpt lat="50.20859" lon="1.55767">
        <ele>2</ele>
        <time>2016-09-10T12:26:23Z</time>
      </trkpt>
      <trkpt lat="50.20856" lon="1.55779">
        <ele>2</ele>
        <time>2016-09-10T12:26:27Z</time>
      </trkpt>
      <trkpt lat="50.20852" lon="1.55791">
        <ele>2</ele>
        <time>2016-09-10T12:26:31Z</time>
      </trkpt>
      <trkpt lat="50.2085" lon="1.55799">
        <ele>2</ele>
        <time>2016-09-10T12:26:33Z</time>
      </trkpt>
      <trkpt lat="50.20848" lon="1.55806">
        <ele>2</ele>
        <time>2016-09-10T12:26:35Z</time>
      </trkpt>
      <trkpt lat="50.20845" lon="1.55814">
        <ele>2</ele>
        <time>2016-09-10T12:26:37Z</time>
      </trkpt>
      <trkpt lat="50.20842" lon="1.5582">
        <ele>2</ele>
        <time>2016-09-10T12:26:39Z</time>
      </trkpt>
      <trkpt lat="50.20838" lon="1.55832">
        <ele>3</ele>
        <time>2016-09-10T12:26:41Z</time>
      </trkpt>
      <trkpt lat="50.20835" lon="1.55845">
        <ele>3</ele>
        <time>2016-09-10T12:26:45Z</time>
      </trkpt>
      <trkpt lat="50.20831" lon="1.55853">
        <ele>3</ele>
        <time>2016-09-10T12:26:47Z</time>
      </trkpt>
      <trkpt lat="50.20827" lon="1.5586">
        <ele>3</ele>
        <time>2016-09-10T12:26:49Z</time>
      </trkpt>
      <trkpt lat="50.20825" lon="1.55871">
        <ele>3</ele>
        <time>2016-09-10T12:26:51Z</time>
      </trkpt>
      <trkpt lat="50.20821" lon="1.55879">
        <ele>3</ele>
        <time>2016-09-10T12:26:53Z</time>
      </trkpt>
      <trkpt lat="50.20819" lon="1.55888">
        <ele>3</ele>
        <time>2016-09-10T12:26:55Z</time>
      </trkpt>
      <trkpt lat="50.20816" lon="1.55895">
        <ele>3</ele>
        <time>2016-09-10T12:26:57Z</time>
      </trkpt>
      <trkpt lat="50.20813" lon="1.55901">
        <ele>3</ele>
        <time>2016-09-10T12:26:59Z</time>
      </trkpt>
      <trkpt lat="50.2081" lon="1.55908">
        <ele>3</ele>
        <time>2016-09-10T12:27:01Z</time>
      </trkpt>
      <trkpt lat="50.20807" lon="1.55914">
        <ele>3</ele>
        <time>2016-09-10T12:27:03Z</time>
      </trkpt>
      <trkpt lat="50.20806" lon="1.5592">
        <ele>3</ele>
        <time>2016-09-10T12:27:05Z</time>
      </trkpt>
      <trkpt lat="50.20802" lon="1.55929">
        <ele>3</ele>
        <time>2016-09-10T12:27:07Z</time>
      </trkpt>
      <trkpt lat="50.20798" lon="1.55935">
        <ele>3</ele>
        <time>2016-09-10T12:27:09Z</time>
      </trkpt>
      <trkpt lat="50.20796" lon="1.55944">
        <ele>3</ele>
        <time>2016-09-10T12:27:11Z</time>
      </trkpt>
      <trkpt lat="50.20792" lon="1.55952">
        <ele>3</ele>
        <time>2016-09-10T12:27:13Z</time>
      </trkpt>
      <trkpt lat="50.2079" lon="1.55958">
        <ele>2</ele>
        <time>2016-09-10T12:27:15Z</time>
      </trkpt>
      <trkpt lat="50.20787" lon="1.55967">
        <ele>2</ele>
        <time>2016-09-10T12:27:17Z</time>
      </trkpt>
      <trkpt lat="50.20783" lon="1.55976">
        <ele>2</ele>
        <time>2016-09-10T12:27:19Z</time>
      </trkpt>
      <trkpt lat="50.2078" lon="1.55982">
        <ele>2</ele>
        <time>2016-09-10T12:27:21Z</time>
      </trkpt>
      <trkpt lat="50.20778" lon="1.55989">
        <ele>2</ele>
        <time>2016-09-10T12:27:23Z</time>
      </trkpt>
      <trkpt lat="50.20777" lon="1.55998">
        <ele>2</ele>
        <time>2016-09-10T12:27:25Z</time>
      </trkpt>
      <trkpt lat="50.20775" lon="1.56011">
        <ele>2</ele>
        <time>2016-09-10T12:27:27Z</time>
      </trkpt>
      <trkpt lat="50.2077" lon="1.56021">
        <ele>2</ele>
        <time>2016-09-10T12:27:29Z</time>
      </trkpt>
      <trkpt lat="50.20767" lon="1.56032">
        <ele>2</ele>
        <time>2016-09-10T12:27:31Z</time>
      </trkpt>
      <trkpt lat="50.20761" lon="1.56042">
        <ele>2</ele>
        <time>2016-09-10T12:27:33Z</time>
      </trkpt>
      <trkpt lat="50.20756" lon="1.56049">
        <ele>2</ele>
        <time>2016-09-10T12:27:35Z</time>
      </trkpt>
      <trkpt lat="50.20752" lon="1.56055">
        <ele>2</ele>
        <time>2016-09-10T12:27:37Z</time>
      </trkpt>
      <trkpt lat="50.20746" lon="1.56061">
        <ele>2</ele>
        <time>2016-09-10T12:27:39Z</time>
      </trkpt>
      <trkpt lat="50.20741" lon="1.56067">
        <ele>2</ele>
        <time>2016-09-10T12:27:41Z</time>
      </trkpt>
      <trkpt lat="50.20734" lon="1.56073">
        <ele>2</ele>
        <time>2016-09-10T12:27:43Z</time>
      </trkpt>
      <trkpt lat="50.20729" lon="1.56082">
        <ele>2</ele>
        <time>2016-09-10T12:27:45Z</time>
      </trkpt>
      <trkpt lat="50.20724" lon="1.5609">
        <ele>2</ele>
        <time>2016-09-10T12:27:47Z</time>
      </trkpt>
      <trkpt lat="50.20717" lon="1.56098">
        <ele>2</ele>
        <time>2016-09-10T12:27:49Z</time>
      </trkpt>
      <trkpt lat="50.20711" lon="1.56104">
        <ele>2</ele>
        <time>2016-09-10T12:27:51Z</time>
      </trkpt>
      <trkpt lat="50.20706" lon="1.56111">
        <ele>2</ele>
        <time>2016-09-10T12:27:53Z</time>
      </trkpt>
      <trkpt lat="50.20701" lon="1.56118">
        <ele>2</ele>
        <time>2016-09-10T12:27:55Z</time>
      </trkpt>
      <trkpt lat="50.20695" lon="1.56124">
        <ele>2</ele>
        <time>2016-09-10T12:27:57Z</time>
      </trkpt>
      <trkpt lat="50.2069" lon="1.56131">
        <ele>2</ele>
        <time>2016-09-10T12:27:59Z</time>
      </trkpt>
      <trkpt lat="50.20683" lon="1.5614">
        <ele>2</ele>
        <time>2016-09-10T12:28:01Z</time>
      </trkpt>
      <trkpt lat="50.20677" lon="1.56147">
        <ele>2</ele>
        <time>2016-09-10T12:28:03Z</time>
      </trkpt>
      <trkpt lat="50.2067" lon="1.56153">
        <ele>2</ele>
        <time>2016-09-10T12:28:05Z</time>
      </trkpt>
      <trkpt lat="50.20664" lon="1.56159">
        <ele>2</ele>
        <time>2016-09-10T12:28:07Z</time>
      </trkpt>
      <trkpt lat="50.20659" lon="1.56164">
        <ele>2</ele>
        <time>2016-09-10T12:28:09Z</time>
      </trkpt>
      <trkpt lat="50.20654" lon="1.5617">
        <ele>2</ele>
        <time>2016-09-10T12:28:11Z</time>
      </trkpt>
      <trkpt lat="50.20649" lon="1.56179">
        <ele>2</ele>
        <time>2016-09-10T12:28:15Z</time>
      </trkpt>
      <trkpt lat="50.20646" lon="1.56185">
        <ele>2</ele>
        <time>2016-09-10T12:28:43Z</time>
      </trkpt>
      <trkpt lat="50.20643" lon="1.56191">
        <ele>2</ele>
        <time>2016-09-10T12:28:45Z</time>
      </trkpt>
      <trkpt lat="50.20639" lon="1.56193">
        <ele>2</ele>
        <time>2016-09-10T12:28:47Z</time>
      </trkpt>
      <trkpt lat="50.20633" lon="1.56195">
        <ele>2</ele>
        <time>2016-09-10T12:28:49Z</time>
      </trkpt>
      <trkpt lat="50.20628" lon="1.56199">
        <ele>2</ele>
        <time>2016-09-10T12:28:51Z</time>
      </trkpt>
      <trkpt lat="50.20621" lon="1.56206">
        <ele>2</ele>
        <time>2016-09-10T12:28:53Z</time>
      </trkpt>
      <trkpt lat="50.20618" lon="1.56212">
        <ele>2</ele>
        <time>2016-09-10T12:28:55Z</time>
      </trkpt>
      <trkpt lat="50.20611" lon="1.56217">
        <ele>2</ele>
        <time>2016-09-10T12:28:57Z</time>
      </trkpt>
      <trkpt lat="50.20604" lon="1.56222">
        <ele>2</ele>
        <time>2016-09-10T12:28:59Z</time>
      </trkpt>
      <trkpt lat="50.20598" lon="1.5623">
        <ele>2</ele>
        <time>2016-09-10T12:29:01Z</time>
      </trkpt>
      <trkpt lat="50.20593" lon="1.56236">
        <ele>2</ele>
        <time>2016-09-10T12:29:03Z</time>
      </trkpt>
      <trkpt lat="50.20588" lon="1.56243">
        <ele>2</ele>
        <time>2016-09-10T12:29:05Z</time>
      </trkpt>
      <trkpt lat="50.20582" lon="1.5625">
        <ele>2</ele>
        <time>2016-09-10T12:29:07Z</time>
      </trkpt>
      <trkpt lat="50.20575" lon="1.56256">
        <ele>2</ele>
        <time>2016-09-10T12:29:09Z</time>
      </trkpt>
      <trkpt lat="50.2057" lon="1.56261">
        <ele>2</ele>
        <time>2016-09-10T12:29:11Z</time>
      </trkpt>
      <trkpt lat="50.20567" lon="1.56266">
        <ele>2</ele>
        <time>2016-09-10T12:29:13Z</time>
      </trkpt>
      <trkpt lat="50.20562" lon="1.56268">
        <ele>2</ele>
        <time>2016-09-10T12:29:15Z</time>
      </trkpt>
      <trkpt lat="50.20558" lon="1.56271">
        <ele>2</ele>
        <time>2016-09-10T12:29:17Z</time>
      </trkpt>
      <trkpt lat="50.20553" lon="1.56275">
        <ele>2</ele>
        <time>2016-09-10T12:29:19Z</time>
      </trkpt>
      <trkpt lat="50.20546" lon="1.56281">
        <ele>2</ele>
        <time>2016-09-10T12:29:21Z</time>
      </trkpt>
      <trkpt lat="50.20542" lon="1.56287">
        <ele>2</ele>
        <time>2016-09-10T12:29:23Z</time>
      </trkpt>
      <trkpt lat="50.20538" lon="1.56291">
        <ele>2</ele>
        <time>2016-09-10T12:29:25Z</time>
      </trkpt>
      <trkpt lat="50.20533" lon="1.56296">
        <ele>2</ele>
        <time>2016-09-10T12:29:27Z</time>
      </trkpt>
      <trkpt lat="50.20564" lon="1.56396">
        <ele>2</ele>
        <time>2016-09-10T12:29:57Z</time>
      </trkpt>
      <trkpt lat="50.2057" lon="1.56404">
        <ele>2</ele>
        <time>2016-09-10T12:30:01Z</time>
      </trkpt>
      <trkpt lat="50.20575" lon="1.56403">
        <ele>2</ele>
        <time>2016-09-10T12:30:03Z</time>
      </trkpt>
      <trkpt lat="50.20583" lon="1.56403">
        <ele>2</ele>
        <time>2016-09-10T12:30:05Z</time>
      </trkpt>
      <trkpt lat="50.20589" lon="1.56403">
        <ele>2</ele>
        <time>2016-09-10T12:30:07Z</time>
      </trkpt>
      <trkpt lat="50.20595" lon="1.56403">
        <ele>2</ele>
        <time>2016-09-10T12:30:09Z</time>
      </trkpt>
      <trkpt lat="50.20602" lon="1.56408">
        <ele>2</ele>
        <time>2016-09-10T12:30:11Z</time>
      </trkpt>
      <trkpt lat="50.20605" lon="1.56417">
        <ele>2</ele>
        <time>2016-09-10T12:30:13Z</time>
      </trkpt>
      <trkpt lat="50.20605" lon="1.56429">
        <ele>2</ele>
        <time>2016-09-10T12:30:15Z</time>
      </trkpt>
      <trkpt lat="50.20603" lon="1.56439">
        <ele>2</ele>
        <time>2016-09-10T12:30:17Z</time>
      </trkpt>
      <trkpt lat="50.20601" lon="1.5645">
        <ele>2</ele>
        <time>2016-09-10T12:30:19Z</time>
      </trkpt>
      <trkpt lat="50.20599" lon="1.56461">
        <ele>3</ele>
        <time>2016-09-10T12:30:21Z</time>
      </trkpt>
      <trkpt lat="50.20596" lon="1.56471">
        <ele>3</ele>
        <time>2016-09-10T12:30:23Z</time>
      </trkpt>
      <trkpt lat="50.20594" lon="1.56481">
        <ele>3</ele>
        <time>2016-09-10T12:30:25Z</time>
      </trkpt>
      <trkpt lat="50.20592" lon="1.56491">
        <ele>3</ele>
        <time>2016-09-10T12:30:27Z</time>
      </trkpt>
      <trkpt lat="50.2059" lon="1.56502">
        <ele>3</ele>
        <time>2016-09-10T12:30:29Z</time>
      </trkpt>
      <trkpt lat="50.20589" lon="1.56513">
        <ele>3</ele>
        <time>2016-09-10T12:30:31Z</time>
      </trkpt>
      <trkpt lat="50.20589" lon="1.56524">
        <ele>3</ele>
        <time>2016-09-10T12:30:33Z</time>
      </trkpt>
      <trkpt lat="50.20587" lon="1.56535">
        <ele>3</ele>
        <time>2016-09-10T12:30:35Z</time>
      </trkpt>
      <trkpt lat="50.20584" lon="1.56544">
        <ele>3</ele>
        <time>2016-09-10T12:30:37Z</time>
      </trkpt>
      <trkpt lat="50.20579" lon="1.56551">
        <ele>3</ele>
        <time>2016-09-10T12:30:39Z</time>
      </trkpt>
      <trkpt lat="50.20574" lon="1.56557">
        <ele>3</ele>
        <time>2016-09-10T12:30:41Z</time>
      </trkpt>
      <trkpt lat="50.20569" lon="1.56562">
        <ele>3</ele>
        <time>2016-09-10T12:30:43Z</time>
      </trkpt>
      <trkpt lat="50.20569" lon="1.56571">
        <ele>3</ele>
        <time>2016-09-10T12:30:47Z</time>
      </trkpt>
      <trkpt lat="50.20574" lon="1.56583">
        <ele>3</ele>
        <time>2016-09-10T12:30:51Z</time>
      </trkpt>
      <trkpt lat="50.20576" lon="1.56591">
        <ele>3</ele>
        <time>2016-09-10T12:30:53Z</time>
      </trkpt>
      <trkpt lat="50.20579" lon="1.56599">
        <ele>3</ele>
        <time>2016-09-10T12:30:55Z</time>
      </trkpt>
      <trkpt lat="50.20584" lon="1.56606">
        <ele>3</ele>
        <time>2016-09-10T12:30:57Z</time>
      </trkpt>
      <trkpt lat="50.20588" lon="1.56612">
        <ele>3</ele>
        <time>2016-09-10T12:30:59Z</time>
      </trkpt>
      <trkpt lat="50.20593" lon="1.56619">
        <ele>3</ele>
        <time>2016-09-10T12:31:01Z</time>
      </trkpt>
      <trkpt lat="50.20597" lon="1.56627">
        <ele>3</ele>
        <time>2016-09-10T12:31:03Z</time>
      </trkpt>
      <trkpt lat="50.20598" lon="1.56635">
        <ele>3</ele>
        <time>2016-09-10T12:31:05Z</time>
      </trkpt>
      <trkpt lat="50.20599" lon="1.56644">
        <ele>3</ele>
        <time>2016-09-10T12:31:07Z</time>
      </trkpt>
      <trkpt lat="50.206" lon="1.56652">
        <ele>3</ele>
        <time>2016-09-10T12:31:09Z</time>
      </trkpt>
      <trkpt lat="50.206" lon="1.56659">
        <ele>3</ele>
        <time>2016-09-10T12:31:11Z</time>
      </trkpt>
      <trkpt lat="50.20599" lon="1.56671">
        <ele>3</ele>
        <time>2016-09-10T12:31:15Z</time>
      </trkpt>
      <trkpt lat="50.20598" lon="1.56664">
        <ele>3</ele>
        <time>2016-09-10T12:31:27Z</time>
      </trkpt>
      <trkpt lat="50.20603" lon="1.56666">
        <ele>3</ele>
        <time>2016-09-10T12:32:07Z</time>
      </trkpt>
      <trkpt lat="50.20606" lon="1.5667">
        <ele>3</ele>
        <time>2016-09-10T12:32:21Z</time>
      </trkpt>
      <trkpt lat="50.20608" lon="1.56683">
        <ele>3</ele>
        <time>2016-09-10T12:32:27Z</time>
      </trkpt>
      <trkpt lat="50.20608" lon="1.56695">
        <ele>3</ele>
        <time>2016-09-10T12:32:29Z</time>
      </trkpt>
      <trkpt lat="50.20608" lon="1.56703">
        <ele>3</ele>
        <time>2016-09-10T12:32:31Z</time>
      </trkpt>
      <trkpt lat="50.20606" lon="1.5671">
        <ele>3</ele>
        <time>2016-09-10T12:32:51Z</time>
      </trkpt>
      <trkpt lat="50.20604" lon="1.56716">
        <ele>3</ele>
        <time>2016-09-10T12:32:55Z</time>
      </trkpt>
      <trkpt lat="50.206" lon="1.56725">
        <ele>3</ele>
        <time>2016-09-10T12:32:59Z</time>
      </trkpt>
      <trkpt lat="50.20596" lon="1.56732">
        <ele>3</ele>
        <time>2016-09-10T12:33:01Z</time>
      </trkpt>
      <trkpt lat="50.20592" lon="1.56739">
        <ele>3</ele>
        <time>2016-09-10T12:33:03Z</time>
      </trkpt>
      <trkpt lat="50.20587" lon="1.56745">
        <ele>3</ele>
        <time>2016-09-10T12:33:05Z</time>
      </trkpt>
      <trkpt lat="50.20582" lon="1.56752">
        <ele>3</ele>
        <time>2016-09-10T12:33:07Z</time>
      </trkpt>
      <trkpt lat="50.20576" lon="1.56759">
        <ele>3</ele>
        <time>2016-09-10T12:33:09Z</time>
      </trkpt>
      <trkpt lat="50.20571" lon="1.56765">
        <ele>3</ele>
        <time>2016-09-10T12:33:11Z</time>
      </trkpt>
      <trkpt lat="50.20566" lon="1.56771">
        <ele>3</ele>
        <time>2016-09-10T12:33:13Z</time>
      </trkpt>
      <trkpt lat="50.2056" lon="1.56778">
        <ele>3</ele>
        <time>2016-09-10T12:33:15Z</time>
      </trkpt>
      <trkpt lat="50.20556" lon="1.56784">
        <ele>3</ele>
        <time>2016-09-10T12:33:17Z</time>
      </trkpt>
      <trkpt lat="50.20551" lon="1.5679">
        <ele>3</ele>
        <time>2016-09-10T12:33:19Z</time>
      </trkpt>
      <trkpt lat="50.20547" lon="1.56797">
        <ele>3</ele>
        <time>2016-09-10T12:33:21Z</time>
      </trkpt>
      <trkpt lat="50.20543" lon="1.56803">
        <ele>3</ele>
        <time>2016-09-10T12:33:23Z</time>
      </trkpt>
      <trkpt lat="50.20539" lon="1.56809">
        <ele>3</ele>
        <time>2016-09-10T12:33:25Z</time>
      </trkpt>
      <trkpt lat="50.20535" lon="1.56814">
        <ele>3</ele>
        <time>2016-09-10T12:33:27Z</time>
      </trkpt>
      <trkpt lat="50.20531" lon="1.56818">
        <ele>3</ele>
        <time>2016-09-10T12:33:29Z</time>
      </trkpt>
      <trkpt lat="50.20527" lon="1.56822">
        <ele>3</ele>
        <time>2016-09-10T12:33:31Z</time>
      </trkpt>
      <trkpt lat="50.20523" lon="1.56826">
        <ele>2</ele>
        <time>2016-09-10T12:33:33Z</time>
      </trkpt>
      <trkpt lat="50.20516" lon="1.56832">
        <ele>2</ele>
        <time>2016-09-10T12:33:37Z</time>
      </trkpt>
      <trkpt lat="50.20509" lon="1.56839">
        <ele>2</ele>
        <time>2016-09-10T12:33:41Z</time>
      </trkpt>
      <trkpt lat="50.20501" lon="1.56844">
        <ele>2</ele>
        <time>2016-09-10T12:33:45Z</time>
      </trkpt>
      <trkpt lat="50.20493" lon="1.56847">
        <ele>2</ele>
        <time>2016-09-10T12:33:49Z</time>
      </trkpt>
      <trkpt lat="50.20484" lon="1.5685">
        <ele>2</ele>
        <time>2016-09-10T12:33:53Z</time>
      </trkpt>
      <trkpt lat="50.20476" lon="1.56853">
        <ele>2</ele>
        <time>2016-09-10T12:33:57Z</time>
      </trkpt>
      <trkpt lat="50.20471" lon="1.56856">
        <ele>2</ele>
        <time>2016-09-10T12:33:59Z</time>
      </trkpt>
      <trkpt lat="50.20462" lon="1.56858">
        <ele>2</ele>
        <time>2016-09-10T12:34:03Z</time>
      </trkpt>
      <trkpt lat="50.20458" lon="1.56859">
        <ele>3</ele>
        <time>2016-09-10T12:34:05Z</time>
      </trkpt>
      <trkpt lat="50.20453" lon="1.56861">
        <ele>3</ele>
        <time>2016-09-10T12:34:07Z</time>
      </trkpt>
      <trkpt lat="50.20448" lon="1.56864">
        <ele>3</ele>
        <time>2016-09-10T12:34:09Z</time>
      </trkpt>
      <trkpt lat="50.20444" lon="1.56865">
        <ele>3</ele>
        <time>2016-09-10T12:34:11Z</time>
      </trkpt>
      <trkpt lat="50.20439" lon="1.56867">
        <ele>3</ele>
        <time>2016-09-10T12:34:13Z</time>
      </trkpt>
      <trkpt lat="50.20434" lon="1.56869">
        <ele>3</ele>
        <time>2016-09-10T12:34:15Z</time>
      </trkpt>
      <trkpt lat="50.20429" lon="1.5687">
        <ele>3</ele>
        <time>2016-09-10T12:34:17Z</time>
      </trkpt>
      <trkpt lat="50.20425" lon="1.56872">
        <ele>3</ele>
        <time>2016-09-10T12:34:19Z</time>
      </trkpt>
      <trkpt lat="50.20416" lon="1.56877">
        <ele>3</ele>
        <time>2016-09-10T12:34:23Z</time>
      </trkpt>
      <trkpt lat="50.20408" lon="1.56884">
        <ele>3</ele>
        <time>2016-09-10T12:34:27Z</time>
      </trkpt>
      <trkpt lat="50.20405" lon="1.56889">
        <ele>3</ele>
        <time>2016-09-10T12:34:29Z</time>
      </trkpt>
      <trkpt lat="50.2035" lon="1.56891">
        <ele>3</ele>
        <time>2016-09-10T12:35:00Z</time>
      </trkpt>
      <trkpt lat="50.20348" lon="1.56884">
        <ele>3</ele>
        <time>2016-09-10T12:35:03Z</time>
      </trkpt>
      <trkpt lat="50.20345" lon="1.56874">
        <ele>3</ele>
        <time>2016-09-10T12:35:07Z</time>
      </trkpt>
      <trkpt lat="50.20341" lon="1.56864">
        <ele>3</ele>
        <time>2016-09-10T12:35:11Z</time>
      </trkpt>
      <trkpt lat="50.20339" lon="1.56854">
        <ele>3</ele>
        <time>2016-09-10T12:35:15Z</time>
      </trkpt>
      <trkpt lat="50.20337" lon="1.56844">
        <ele>3</ele>
        <time>2016-09-10T12:35:19Z</time>
      </trkpt>
      <trkpt lat="50.20334" lon="1.56833">
        <ele>3</ele>
        <time>2016-09-10T12:35:23Z</time>
      </trkpt>
      <trkpt lat="50.2033" lon="1.5682">
        <ele>3</ele>
        <time>2016-09-10T12:35:27Z</time>
      </trkpt>
      <trkpt lat="50.20328" lon="1.56814">
        <ele>3</ele>
        <time>2016-09-10T12:35:29Z</time>
      </trkpt>
      <trkpt lat="50.20326" lon="1.56807">
        <ele>3</ele>
        <time>2016-09-10T12:35:31Z</time>
      </trkpt>
      <trkpt lat="50.20324" lon="1.568">
        <ele>3</ele>
        <time>2016-09-10T12:35:33Z</time>
      </trkpt>
      <trkpt lat="50.20322" lon="1.56794">
        <ele>3</ele>
        <time>2016-09-10T12:35:35Z</time>
      </trkpt>
      <trkpt lat="50.20318" lon="1.56781">
        <ele>3</ele>
        <time>2016-09-10T12:35:39Z</time>
      </trkpt>
      <trkpt lat="50.20316" lon="1.56769">
        <ele>3</ele>
        <time>2016-09-10T12:35:43Z</time>
      </trkpt>
      <trkpt lat="50.20318" lon="1.56757">
        <ele>2</ele>
        <time>2016-09-10T12:35:47Z</time>
      </trkpt>
      <trkpt lat="50.20325" lon="1.56749">
        <ele>2</ele>
        <time>2016-09-10T12:35:51Z</time>
      </trkpt>
      <trkpt lat="50.20332" lon="1.56743">
        <ele>2</ele>
        <time>2016-09-10T12:35:55Z</time>
      </trkpt>
      <trkpt lat="50.20339" lon="1.56739">
        <ele>2</ele>
        <time>2016-09-10T12:35:59Z</time>
      </trkpt>
      <trkpt lat="50.20346" lon="1.56744">
        <ele>2</ele>
        <time>2016-09-10T12:36:03Z</time>
      </trkpt>
      <trkpt lat="50.20353" lon="1.56748">
        <ele>2</ele>
        <time>2016-09-10T12:36:07Z</time>
      </trkpt>
      <trkpt lat="50.20358" lon="1.56747">
        <ele>2</ele>
        <time>2016-09-10T12:36:09Z</time>
      </trkpt>
      <trkpt lat="50.20365" lon="1.56742">
        <ele>2</ele>
        <time>2016-09-10T12:36:13Z</time>
      </trkpt>
      <trkpt lat="50.20372" lon="1.56738">
        <ele>2</ele>
        <time>2016-09-10T12:36:17Z</time>
      </trkpt>
      <trkpt lat="50.2038" lon="1.5674">
        <ele>3</ele>
        <time>2016-09-10T12:36:21Z</time>
      </trkpt>
      <trkpt lat="50.20387" lon="1.56744">
        <ele>3</ele>
        <time>2016-09-10T12:36:25Z</time>
      </trkpt>
      <trkpt lat="50.20394" lon="1.56748">
        <ele>3</ele>
        <time>2016-09-10T12:36:29Z</time>
      </trkpt>
      <trkpt lat="50.20401" lon="1.5675">
        <ele>3</ele>
        <time>2016-09-10T12:36:33Z</time>
      </trkpt>
      <trkpt lat="50.20406" lon="1.56746">
        <ele>3</ele>
        <time>2016-09-10T12:36:37Z</time>
      </trkpt>
      <trkpt lat="50.20402" lon="1.56746">
        <ele>3</ele>
        <time>2016-09-10T12:36:43Z</time>
      </trkpt>
      <trkpt lat="50.20404" lon="1.56752">
        <ele>3</ele>
        <time>2016-09-10T12:37:51Z</time>
      </trkpt>
      <trkpt lat="50.20409" lon="1.56765">
        <ele>3</ele>
        <time>2016-09-10T12:37:55Z</time>
      </trkpt>
      <trkpt lat="50.20412" lon="1.56771">
        <ele>3</ele>
        <time>2016-09-10T12:37:57Z</time>
      </trkpt>
      <trkpt lat="50.20415" lon="1.56779">
        <ele>3</ele>
        <time>2016-09-10T12:37:59Z</time>
      </trkpt>
      <trkpt lat="50.20417" lon="1.56786">
        <ele>3</ele>
        <time>2016-09-10T12:38:01Z</time>
      </trkpt>
      <trkpt lat="50.20419" lon="1.56795">
        <ele>3</ele>
        <time>2016-09-10T12:38:03Z</time>
      </trkpt>
      <trkpt lat="50.20419" lon="1.56803">
        <ele>3</ele>
        <time>2016-09-10T12:38:05Z</time>
      </trkpt>
      <trkpt lat="50.20419" lon="1.56812">
        <ele>3</ele>
        <time>2016-09-10T12:38:07Z</time>
      </trkpt>
      <trkpt lat="50.20417" lon="1.5682">
        <ele>3</ele>
        <time>2016-09-10T12:38:09Z</time>
      </trkpt>
      <trkpt lat="50.20415" lon="1.56829">
        <ele>3</ele>
        <time>2016-09-10T12:38:11Z</time>
      </trkpt>
      <trkpt lat="50.20413" lon="1.56837">
        <ele>3</ele>
        <time>2016-09-10T12:38:13Z</time>
      </trkpt>
      <trkpt lat="50.20413" lon="1.56846">
        <ele>3</ele>
        <time>2016-09-10T12:38:15Z</time>
      </trkpt>
      <trkpt lat="50.20412" lon="1.56854">
        <ele>3</ele>
        <time>2016-09-10T12:38:17Z</time>
      </trkpt>
      <trkpt lat="50.20411" lon="1.56862">
        <ele>3</ele>
        <time>2016-09-10T12:38:19Z</time>
      </trkpt>
      <trkpt lat="50.2041" lon="1.56871">
        <ele>3</ele>
        <time>2016-09-10T12:38:21Z</time>
      </trkpt>
      <trkpt lat="50.20409" lon="1.56879">
        <ele>3</ele>
        <time>2016-09-10T12:38:23Z</time>
      </trkpt>
      <trkpt lat="50.20406" lon="1.56886">
        <ele>3</ele>
        <time>2016-09-10T12:38:25Z</time>
      </trkpt>
      <trkpt lat="50.20402" lon="1.56893">
        <ele>3</ele>
        <time>2016-09-10T12:38:27Z</time>
      </trkpt>
      <trkpt lat="50.20397" lon="1.56898">
        <ele>3</ele>
        <time>2016-09-10T12:38:29Z</time>
      </trkpt>
      <trkpt lat="50.20392" lon="1.569">
        <ele>3</ele>
        <time>2016-09-10T12:38:31Z</time>
      </trkpt>
      <trkpt lat="50.20387" lon="1.56903">
        <ele>3</ele>
        <time>2016-09-10T12:38:33Z</time>
      </trkpt>
      <trkpt lat="50.20382" lon="1.56906">
        <ele>3</ele>
        <time>2016-09-10T12:38:35Z</time>
      </trkpt>
      <trkpt lat="50.20377" lon="1.5691">
        <ele>3</ele>
        <time>2016-09-10T12:38:37Z</time>
      </trkpt>
      <trkpt lat="50.20372" lon="1.56912">
        <ele>3</ele>
        <time>2016-09-10T12:38:39Z</time>
      </trkpt>
      <trkpt lat="50.20366" lon="1.56914">
        <ele>3</ele>
        <time>2016-09-10T12:38:41Z</time>
      </trkpt>
      <trkpt lat="50.20361" lon="1.56915">
        <ele>3</ele>
        <time>2016-09-10T12:38:43Z</time>
      </trkpt>
      <trkpt lat="50.20355" lon="1.56913">
        <ele>3</ele>
        <time>2016-09-10T12:38:45Z</time>
      </trkpt>
      <trkpt lat="50.2035" lon="1.56909">
        <ele>3</ele>
        <time>2016-09-10T12:38:47Z</time>
      </trkpt>
      <trkpt lat="50.20347" lon="1.56903">
        <ele>3</ele>
        <time>2016-09-10T12:38:49Z</time>
      </trkpt>
      <trkpt lat="50.20344" lon="1.56895">
        <ele>3</ele>
        <time>2016-09-10T12:38:51Z</time>
      </trkpt>
      <trkpt lat="50.20342" lon="1.56887">
        <ele>3</ele>
        <time>2016-09-10T12:38:53Z</time>
      </trkpt>
      <trkpt lat="50.2034" lon="1.56879">
        <ele>3</ele>
        <time>2016-09-10T12:38:55Z</time>
      </trkpt>
      <trkpt lat="50.20338" lon="1.56871">
        <ele>3</ele>
        <time>2016-09-10T12:38:57Z</time>
      </trkpt>
      <trkpt lat="50.20336" lon="1.56863">
        <ele>3</ele>
        <time>2016-09-10T12:38:59Z</time>
      </trkpt>
      <trkpt lat="50.20334" lon="1.56854">
        <ele>3</ele>
        <time>2016-09-10T12:39:01Z</time>
      </trkpt>
      <trkpt lat="50.20333" lon="1.56845">
        <ele>3</ele>
        <time>2016-09-10T12:39:03Z</time>
      </trkpt>
      <trkpt lat="50.20331" lon="1.56837">
        <ele>3</ele>
        <time>2016-09-10T12:39:05Z</time>
      </trkpt>
      <trkpt lat="50.20329" lon="1.56828">
        <ele>3</ele>
        <time>2016-09-10T12:39:07Z</time>
      </trkpt>
      <trkpt lat="50.20327" lon="1.5682">
        <ele>3</ele>
        <time>2016-09-10T12:39:09Z</time>
      </trkpt>
      <trkpt lat="50.20325" lon="1.56812">
        <ele>3</ele>
        <time>2016-09-10T12:39:11Z</time>
      </trkpt>
      <trkpt lat="50.20323" lon="1.56804">
        <ele>3</ele>
        <time>2016-09-10T12:39:13Z</time>
      </trkpt>
      <trkpt lat="50.20321" lon="1.56796">
        <ele>3</ele>
        <time>2016-09-10T12:39:15Z</time>
      </trkpt>
      <trkpt lat="50.20317" lon="1.56788">
        <ele>3</ele>
        <time>2016-09-10T12:39:17Z</time>
      </trkpt>
      <trkpt lat="50.20313" lon="1.56783">
        <ele>3</ele>
        <time>2016-09-10T12:39:19Z</time>
      </trkpt>
      <trkpt lat="50.20308" lon="1.56782">
        <ele>3</ele>
        <time>2016-09-10T12:39:21Z</time>
      </trkpt>
      <trkpt lat="50.20302" lon="1.56782">
        <ele>3</ele>
        <time>2016-09-10T12:39:23Z</time>
      </trkpt>
      <trkpt lat="50.20296" lon="1.56785">
        <ele>3</ele>
        <time>2016-09-10T12:39:25Z</time>
      </trkpt>
      <trkpt lat="50.2029" lon="1.56787">
        <ele>3</ele>
        <time>2016-09-10T12:39:27Z</time>
      </trkpt>
      <trkpt lat="50.20285" lon="1.56788">
        <ele>3</ele>
        <time>2016-09-10T12:39:29Z</time>
      </trkpt>
      <trkpt lat="50.20279" lon="1.56788">
        <ele>3</ele>
        <time>2016-09-10T12:39:31Z</time>
      </trkpt>
      <trkpt lat="50.20236" lon="1.56703">
        <ele>3</ele>
        <time>2016-09-10T12:40:01Z</time>
      </trkpt>
      <trkpt lat="50.20231" lon="1.56696">
        <ele>3</ele>
        <time>2016-09-10T12:40:05Z</time>
      </trkpt>
      <trkpt lat="50.20228" lon="1.56691">
        <ele>3</ele>
        <time>2016-09-10T12:40:07Z</time>
      </trkpt>
      <trkpt lat="50.20224" lon="1.56685">
        <ele>3</ele>
        <time>2016-09-10T12:40:09Z</time>
      </trkpt>
      <trkpt lat="50.20221" lon="1.56679">
        <ele>3</ele>
        <time>2016-09-10T12:40:11Z</time>
      </trkpt>
      <trkpt lat="50.20217" lon="1.56673">
        <ele>3</ele>
        <time>2016-09-10T12:40:13Z</time>
      </trkpt>
      <trkpt lat="50.20213" lon="1.56667">
        <ele>3</ele>
        <time>2016-09-10T12:40:15Z</time>
      </trkpt>
      <trkpt lat="50.20209" lon="1.56661">
        <ele>2</ele>
        <time>2016-09-10T12:40:17Z</time>
      </trkpt>
      <trkpt lat="50.20205" lon="1.56656">
        <ele>2</ele>
        <time>2016-09-10T12:40:19Z</time>
      </trkpt>
      <trkpt lat="50.20202" lon="1.56648">
        <ele>2</ele>
        <time>2016-09-10T12:40:55Z</time>
      </trkpt>
      <trkpt lat="50.20194" lon="1.56643">
        <ele>2</ele>
        <time>2016-09-10T12:40:59Z</time>
      </trkpt>
      <trkpt lat="50.20189" lon="1.56641">
        <ele>2</ele>
        <time>2016-09-10T12:41:01Z</time>
      </trkpt>
      <trkpt lat="50.20183" lon="1.56638">
        <ele>2</ele>
        <time>2016-09-10T12:41:03Z</time>
      </trkpt>
      <trkpt lat="50.20178" lon="1.56633">
        <ele>2</ele>
        <time>2016-09-10T12:41:05Z</time>
      </trkpt>
      <trkpt lat="50.20174" lon="1.56628">
        <ele>2</ele>
        <time>2016-09-10T12:41:07Z</time>
      </trkpt>
      <trkpt lat="50.2017" lon="1.56621">
        <ele>2</ele>
        <time>2016-09-10T12:41:09Z</time>
      </trkpt>
      <trkpt lat="50.20165" lon="1.56614">
        <ele>1</ele>
        <time>2016-09-10T12:41:11Z</time>
      </trkpt>
      <trkpt lat="50.20161" lon="1.56607">
        <ele>1</ele>
        <time>2016-09-10T12:41:13Z</time>
      </trkpt>
      <trkpt lat="50.20156" lon="1.56601">
        <ele>1</ele>
        <time>2016-09-10T12:41:15Z</time>
      </trkpt>
      <trkpt lat="50.20151" lon="1.56595">
        <ele>1</ele>
        <time>2016-09-10T12:41:17Z</time>
      </trkpt>
      <trkpt lat="50.20145" lon="1.56591">
        <ele>1</ele>
        <time>2016-09-10T12:41:19Z</time>
      </trkpt>
      <trkpt lat="50.20138" lon="1.56588">
        <ele>1</ele>
        <time>2016-09-10T12:41:21Z</time>
      </trkpt>
      <trkpt lat="50.20132" lon="1.56587">
        <ele>1</ele>
        <time>2016-09-10T12:41:23Z</time>
      </trkpt>
      <trkpt lat="50.20124" lon="1.56586">
        <ele>1</ele>
        <time>2016-09-10T12:41:25Z</time>
      </trkpt>
      <trkpt lat="50.20109" lon="1.5659">
        <ele>1</ele>
        <time>2016-09-10T12:41:27Z</time>
      </trkpt>
      <trkpt lat="50.20099" lon="1.56594">
        <ele>1</ele>
        <time>2016-09-10T12:41:29Z</time>
      </trkpt>
      <trkpt lat="50.20087" lon="1.56593">
        <ele>1</ele>
        <time>2016-09-10T12:41:31Z</time>
      </trkpt>
      <trkpt lat="50.20078" lon="1.56593">
        <ele>1</ele>
        <time>2016-09-10T12:41:33Z</time>
      </trkpt>
      <trkpt lat="50.20068" lon="1.56596">
        <ele>2</ele>
        <time>2016-09-10T12:41:35Z</time>
      </trkpt>
      <trkpt lat="50.20058" lon="1.56596">
        <ele>2</ele>
        <time>2016-09-10T12:41:37Z</time>
      </trkpt>
      <trkpt lat="50.2005" lon="1.56594">
        <ele>2</ele>
        <time>2016-09-10T12:41:39Z</time>
      </trkpt>
      <trkpt lat="50.20042" lon="1.56582">
        <ele>1</ele>
        <time>2016-09-10T12:41:41Z</time>
      </trkpt>
      <trkpt lat="50.20038" lon="1.56569">
        <ele>2</ele>
        <time>2016-09-10T12:41:43Z</time>
      </trkpt>
      <trkpt lat="50.20035" lon="1.56552">
        <ele>2</ele>
        <time>2016-09-10T12:41:45Z</time>
      </trkpt>
      <trkpt lat="50.2003" lon="1.56539">
        <ele>2</ele>
        <time>2016-09-10T12:41:47Z</time>
      </trkpt>
      <trkpt lat="50.20028" lon="1.56525">
        <ele>2</ele>
        <time>2016-09-10T12:41:49Z</time>
      </trkpt>
      <trkpt lat="50.20022" lon="1.56511">
        <ele>2</ele>
        <time>2016-09-10T12:41:51Z</time>
      </trkpt>
      <trkpt lat="50.20012" lon="1.56506">
        <ele>2</ele>
        <time>2016-09-10T12:41:53Z</time>
      </trkpt>
      <trkpt lat="50.20002" lon="1.56508">
        <ele>2</ele>
        <time>2016-09-10T12:41:55Z</time>
      </trkpt>
      <trkpt lat="50.19991" lon="1.56514">
        <ele>2</ele>
        <time>2016-09-10T12:41:57Z</time>
      </trkpt>
      <trkpt lat="50.19982" lon="1.56516">
        <ele>2</ele>
        <time>2016-09-10T12:41:59Z</time>
      </trkpt>
      <trkpt lat="50.19973" lon="1.56522">
        <ele>2</ele>
        <time>2016-09-10T12:42:01Z</time>
      </trkpt>
      <trkpt lat="50.19966" lon="1.56532">
        <ele>2</ele>
        <time>2016-09-10T12:42:03Z</time>
      </trkpt>
      <trkpt lat="50.19959" lon="1.56533">
        <ele>2</ele>
        <time>2016-09-10T12:42:05Z</time>
      </trkpt>
      <trkpt lat="50.19951" lon="1.56539">
        <ele>2</ele>
        <time>2016-09-10T12:42:07Z</time>
      </trkpt>
      <trkpt lat="50.19942" lon="1.5654">
        <ele>2</ele>
        <time>2016-09-10T12:42:09Z</time>
      </trkpt>
      <trkpt lat="50.19933" lon="1.56543">
        <ele>2</ele>
        <time>2016-09-10T12:42:11Z</time>
      </trkpt>
      <trkpt lat="50.19926" lon="1.56547">
        <ele>2</ele>
        <time>2016-09-10T12:42:13Z</time>
      </trkpt>
      <trkpt lat="50.19917" lon="1.56553">
        <ele>2</ele>
        <time>2016-09-10T12:42:15Z</time>
      </trkpt>
      <trkpt lat="50.1991" lon="1.56559">
        <ele>2</ele>
        <time>2016-09-10T12:42:17Z</time>
      </trkpt>
      <trkpt lat="50.19901" lon="1.56563">
        <ele>2</ele>
        <time>2016-09-10T12:42:19Z</time>
      </trkpt>
      <trkpt lat="50.19893" lon="1.56568">
        <ele>2</ele>
        <time>2016-09-10T12:42:21Z</time>
      </trkpt>
      <trkpt lat="50.19885" lon="1.56576">
        <ele>2</ele>
        <time>2016-09-10T12:42:23Z</time>
      </trkpt>
      <trkpt lat="50.19879" lon="1.5658">
        <ele>2</ele>
        <time>2016-09-10T12:42:25Z</time>
      </trkpt>
      <trkpt lat="50.19871" lon="1.56585">
        <ele>2</ele>
        <time>2016-09-10T12:42:27Z</time>
      </trkpt>
      <trkpt lat="50.19862" lon="1.56592">
        <ele>2</ele>
        <time>2016-09-10T12:42:29Z</time>
      </trkpt>
      <trkpt lat="50.19854" lon="1.566">
        <ele>2</ele>
        <time>2016-09-10T12:42:31Z</time>
      </trkpt>
      <trkpt lat="50.19847" lon="1.56607">
        <ele>2</ele>
        <time>2016-09-10T12:42:33Z</time>
      </trkpt>
      <trkpt lat="50.19839" lon="1.56614">
        <ele>2</ele>
        <time>2016-09-10T12:42:35Z</time>
      </trkpt>
      <trkpt lat="50.19833" lon="1.56624">
        <ele>2</ele>
        <time>2016-09-10T12:42:37Z</time>
      </trkpt>
      <trkpt lat="50.19825" lon="1.56631">
        <ele>2</ele>
        <time>2016-09-10T12:42:39Z</time>
      </trkpt>
      <trkpt lat="50.19818" lon="1.56638">
        <ele>2</ele>
        <time>2016-09-10T12:42:41Z</time>
      </trkpt>
      <trkpt lat="50.19812" lon="1.56644">
        <ele>2</ele>
        <time>2016-09-10T12:42:43Z</time>
      </trkpt>
      <trkpt lat="50.19805" lon="1.56651">
        <ele>2</ele>
        <time>2016-09-10T12:42:45Z</time>
      </trkpt>
      <trkpt lat="50.19799" lon="1.56658">
        <ele>2</ele>
        <time>2016-09-10T12:42:47Z</time>
      </trkpt>
      <trkpt lat="50.19794" lon="1.56669">
        <ele>2</ele>
        <time>2016-09-10T12:42:49Z</time>
      </trkpt>
      <trkpt lat="50.1979" lon="1.56681">
        <ele>2</ele>
        <time>2016-09-10T12:42:51Z</time>
      </trkpt>
      <trkpt lat="50.19784" lon="1.5669">
        <ele>2</ele>
        <time>2016-09-10T12:42:53Z</time>
      </trkpt>
      <trkpt lat="50.19778" lon="1.567">
        <ele>2</ele>
        <time>2016-09-10T12:42:55Z</time>
      </trkpt>
      <trkpt lat="50.19773" lon="1.56712">
        <ele>2</ele>
        <time>2016-09-10T12:42:57Z</time>
      </trkpt>
      <trkpt lat="50.19768" lon="1.5672">
        <ele>2</ele>
        <time>2016-09-10T12:42:59Z</time>
      </trkpt>
      <trkpt lat="50.19761" lon="1.5673">
        <ele>2</ele>
        <time>2016-09-10T12:43:01Z</time>
      </trkpt>
      <trkpt lat="50.19754" lon="1.56739">
        <ele>2</ele>
        <time>2016-09-10T12:43:03Z</time>
      </trkpt>
      <trkpt lat="50.1975" lon="1.56747">
        <ele>2</ele>
        <time>2016-09-10T12:43:05Z</time>
      </trkpt>
      <trkpt lat="50.19745" lon="1.56757">
        <ele>2</ele>
        <time>2016-09-10T12:43:07Z</time>
      </trkpt>
      <trkpt lat="50.19739" lon="1.56766">
        <ele>3</ele>
        <time>2016-09-10T12:43:09Z</time>
      </trkpt>
      <trkpt lat="50.19733" lon="1.56776">
        <ele>3</ele>
        <time>2016-09-10T12:43:11Z</time>
      </trkpt>
      <trkpt lat="50.19728" lon="1.56785">
        <ele>3</ele>
        <time>2016-09-10T12:43:13Z</time>
      </trkpt>
      <trkpt lat="50.19722" lon="1.56793">
        <ele>3</ele>
        <time>2016-09-10T12:43:15Z</time>
      </trkpt>
      <trkpt lat="50.19716" lon="1.56803">
        <ele>3</ele>
        <time>2016-09-10T12:43:17Z</time>
      </trkpt>
      <trkpt lat="50.19709" lon="1.56812">
        <ele>3</ele>
        <time>2016-09-10T12:43:19Z</time>
      </trkpt>
      <trkpt lat="50.19703" lon="1.56821">
        <ele>3</ele>
        <time>2016-09-10T12:43:21Z</time>
      </trkpt>
      <trkpt lat="50.19698" lon="1.56832">
        <ele>3</ele>
        <time>2016-09-10T12:43:23Z</time>
      </trkpt>
      <trkpt lat="50.19692" lon="1.56842">
        <ele>4</ele>
        <time>2016-09-10T12:43:25Z</time>
      </trkpt>
      <trkpt lat="50.19687" lon="1.56853">
        <ele>4</ele>
        <time>2016-09-10T12:43:27Z</time>
      </trkpt>
      <trkpt lat="50.19681" lon="1.56862">
        <ele>4</ele>
        <time>2016-09-10T12:43:29Z</time>
      </trkpt>
      <trkpt lat="50.19677" lon="1.56873">
        <ele>4</ele>
        <time>2016-09-10T12:43:31Z</time>
      </trkpt>
      <trkpt lat="50.19672" lon="1.56885">
        <ele>4</ele>
        <time>2016-09-10T12:43:33Z</time>
      </trkpt>
      <trkpt lat="50.19667" lon="1.56895">
        <ele>3</ele>
        <time>2016-09-10T12:43:35Z</time>
      </trkpt>
      <trkpt lat="50.19661" lon="1.56905">
        <ele>4</ele>
        <time>2016-09-10T12:43:37Z</time>
      </trkpt>
      <trkpt lat="50.19654" lon="1.56911">
        <ele>4</ele>
        <time>2016-09-10T12:43:39Z</time>
      </trkpt>
      <trkpt lat="50.19649" lon="1.56919">
        <ele>3</ele>
        <time>2016-09-10T12:43:41Z</time>
      </trkpt>
      <trkpt lat="50.19643" lon="1.56927">
        <ele>3</ele>
        <time>2016-09-10T12:43:43Z</time>
      </trkpt>
      <trkpt lat="50.19637" lon="1.56935">
        <ele>3</ele>
        <time>2016-09-10T12:43:45Z</time>
      </trkpt>
      <trkpt lat="50.19632" lon="1.56942">
        <ele>3</ele>
        <time>2016-09-10T12:43:47Z</time>
      </trkpt>
      <trkpt lat="50.19627" lon="1.56948">
        <ele>3</ele>
        <time>2016-09-10T12:43:49Z</time>
      </trkpt>
      <trkpt lat="50.19622" lon="1.56955">
        <ele>3</ele>
        <time>2016-09-10T12:43:51Z</time>
      </trkpt>
      <trkpt lat="50.19617" lon="1.56961">
        <ele>3</ele>
        <time>2016-09-10T12:43:53Z</time>
      </trkpt>
      <trkpt lat="50.19614" lon="1.56968">
        <ele>3</ele>
        <time>2016-09-10T12:43:55Z</time>
      </trkpt>
      <trkpt lat="50.19609" lon="1.56974">
        <ele>3</ele>
        <time>2016-09-10T12:43:57Z</time>
      </trkpt>
      <trkpt lat="50.19606" lon="1.5698">
        <ele>3</ele>
        <time>2016-09-10T12:43:59Z</time>
      </trkpt>
      <trkpt lat="50.19602" lon="1.56987">
        <ele>3</ele>
        <time>2016-09-10T12:44:01Z</time>
      </trkpt>
      <trkpt lat="50.19597" lon="1.56994">
        <ele>2</ele>
        <time>2016-09-10T12:44:03Z</time>
      </trkpt>
      <trkpt lat="50.19594" lon="1.57002">
        <ele>2</ele>
        <time>2016-09-10T12:44:05Z</time>
      </trkpt>
      <trkpt lat="50.19591" lon="1.57009">
        <ele>2</ele>
        <time>2016-09-10T12:44:07Z</time>
      </trkpt>
      <trkpt lat="50.19588" lon="1.57019">
        <ele>2</ele>
        <time>2016-09-10T12:44:09Z</time>
      </trkpt>
      <trkpt lat="50.19584" lon="1.57027">
        <ele>3</ele>
        <time>2016-09-10T12:44:11Z</time>
      </trkpt>
      <trkpt lat="50.1958" lon="1.57037">
        <ele>2</ele>
        <time>2016-09-10T12:44:13Z</time>
      </trkpt>
      <trkpt lat="50.19576" lon="1.57045">
        <ele>2</ele>
        <time>2016-09-10T12:44:15Z</time>
      </trkpt>
      <trkpt lat="50.19572" lon="1.57053">
        <ele>2</ele>
        <time>2016-09-10T12:44:17Z</time>
      </trkpt>
      <trkpt lat="50.19569" lon="1.5706">
        <ele>2</ele>
        <time>2016-09-10T12:44:19Z</time>
      </trkpt>
      <trkpt lat="50.19564" lon="1.57069">
        <ele>2</ele>
        <time>2016-09-10T12:44:21Z</time>
      </trkpt>
      <trkpt lat="50.1956" lon="1.57079">
        <ele>2</ele>
        <time>2016-09-10T12:44:23Z</time>
      </trkpt>
      <trkpt lat="50.19556" lon="1.57087">
        <ele>2</ele>
        <time>2016-09-10T12:44:25Z</time>
      </trkpt>
      <trkpt lat="50.19552" lon="1.57096">
        <ele>2</ele>
        <time>2016-09-10T12:44:27Z</time>
      </trkpt>
      <trkpt lat="50.19548" lon="1.57104">
        <ele>2</ele>
        <time>2016-09-10T12:44:29Z</time>
      </trkpt>
      <trkpt lat="50.19544" lon="1.57111">
        <ele>2</ele>
        <time>2016-09-10T12:44:31Z</time>
      </trkpt>
      <trkpt lat="50.19539" lon="1.5712">
        <ele>2</ele>
        <time>2016-09-10T12:44:33Z</time>
      </trkpt>
      <trkpt lat="50.19493" lon="1.57204">
        <ele>3</ele>
        <time>2016-09-10T12:45:03Z</time>
      </trkpt>
      <trkpt lat="50.19484" lon="1.57221">
        <ele>3</ele>
        <time>2016-09-10T12:45:07Z</time>
      </trkpt>
      <trkpt lat="50.1948" lon="1.57231">
        <ele>3</ele>
        <time>2016-09-10T12:45:09Z</time>
      </trkpt>
      <trkpt lat="50.19478" lon="1.57242">
        <ele>3</ele>
        <time>2016-09-10T12:45:11Z</time>
      </trkpt>
      <trkpt lat="50.19474" lon="1.57253">
        <ele>3</ele>
        <time>2016-09-10T12:45:13Z</time>
      </trkpt>
      <trkpt lat="50.19471" lon="1.57261">
        <ele>3</ele>
        <time>2016-09-10T12:45:15Z</time>
      </trkpt>
      <trkpt lat="50.19467" lon="1.57271">
        <ele>3</ele>
        <time>2016-09-10T12:45:17Z</time>
      </trkpt>
      <trkpt lat="50.19464" lon="1.57281">
        <ele>3</ele>
        <time>2016-09-10T12:45:19Z</time>
      </trkpt>
      <trkpt lat="50.1946" lon="1.57292">
        <ele>3</ele>
        <time>2016-09-10T12:45:21Z</time>
      </trkpt>
      <trkpt lat="50.19456" lon="1.57302">
        <ele>2</ele>
        <time>2016-09-10T12:45:23Z</time>
      </trkpt>
      <trkpt lat="50.19454" lon="1.57313">
        <ele>2</ele>
        <time>2016-09-10T12:45:25Z</time>
      </trkpt>
      <trkpt lat="50.1945" lon="1.57323">
        <ele>2</ele>
        <time>2016-09-10T12:45:27Z</time>
      </trkpt>
      <trkpt lat="50.19446" lon="1.57333">
        <ele>2</ele>
        <time>2016-09-10T12:45:29Z</time>
      </trkpt>
      <trkpt lat="50.19442" lon="1.57344">
        <ele>2</ele>
        <time>2016-09-10T12:45:31Z</time>
      </trkpt>
      <trkpt lat="50.19439" lon="1.57354">
        <ele>2</ele>
        <time>2016-09-10T12:45:33Z</time>
      </trkpt>
      <trkpt lat="50.19435" lon="1.57364">
        <ele>2</ele>
        <time>2016-09-10T12:45:35Z</time>
      </trkpt>
      <trkpt lat="50.19432" lon="1.57374">
        <ele>2</ele>
        <time>2016-09-10T12:45:37Z</time>
      </trkpt>
      <trkpt lat="50.19429" lon="1.57384">
        <ele>2</ele>
        <time>2016-09-10T12:45:39Z</time>
      </trkpt>
      <trkpt lat="50.19426" lon="1.57394">
        <ele>2</ele>
        <time>2016-09-10T12:45:41Z</time>
      </trkpt>
      <trkpt lat="50.19422" lon="1.57404">
        <ele>2</ele>
        <time>2016-09-10T12:45:43Z</time>
      </trkpt>
      <trkpt lat="50.19419" lon="1.57413">
        <ele>2</ele>
        <time>2016-09-10T12:45:45Z</time>
      </trkpt>
      <trkpt lat="50.19416" lon="1.57423">
        <ele>2</ele>
        <time>2016-09-10T12:45:47Z</time>
      </trkpt>
      <trkpt lat="50.19413" lon="1.57432">
        <ele>2</ele>
        <time>2016-09-10T12:45:49Z</time>
      </trkpt>
      <trkpt lat="50.19409" lon="1.57442">
        <ele>2</ele>
        <time>2016-09-10T12:45:51Z</time>
      </trkpt>
      <trkpt lat="50.19406" lon="1.57452">
        <ele>2</ele>
        <time>2016-09-10T12:45:53Z</time>
      </trkpt>
      <trkpt lat="50.19404" lon="1.57462">
        <ele>2</ele>
        <time>2016-09-10T12:45:55Z</time>
      </trkpt>
      <trkpt lat="50.19401" lon="1.57473">
        <ele>2</ele>
        <time>2016-09-10T12:45:57Z</time>
      </trkpt>
      <trkpt lat="50.19398" lon="1.57482">
        <ele>2</ele>
        <time>2016-09-10T12:45:59Z</time>
      </trkpt>
      <trkpt lat="50.19395" lon="1.57492">
        <ele>2</ele>
        <time>2016-09-10T12:46:01Z</time>
      </trkpt>
      <trkpt lat="50.19392" lon="1.57502">
        <ele>2</ele>
        <time>2016-09-10T12:46:03Z</time>
      </trkpt>
      <trkpt lat="50.19389" lon="1.57511">
        <ele>3</ele>
        <time>2016-09-10T12:46:05Z</time>
      </trkpt>
      <trkpt lat="50.19385" lon="1.57521">
        <ele>3</ele>
        <time>2016-09-10T12:46:07Z</time>
      </trkpt>
      <trkpt lat="50.19382" lon="1.5753">
        <ele>3</ele>
        <time>2016-09-10T12:46:09Z</time>
      </trkpt>
      <trkpt lat="50.19379" lon="1.57539">
        <ele>3</ele>
        <time>2016-09-10T12:46:11Z</time>
      </trkpt>
      <trkpt lat="50.19376" lon="1.5755">
        <ele>3</ele>
        <time>2016-09-10T12:46:13Z</time>
      </trkpt>
      <trkpt lat="50.19373" lon="1.57559">
        <ele>3</ele>
        <time>2016-09-10T12:46:15Z</time>
      </trkpt>
      <trkpt lat="50.1937" lon="1.57569">
        <ele>3</ele>
        <time>2016-09-10T12:46:17Z</time>
      </trkpt>
      <trkpt lat="50.19366" lon="1.57579">
        <ele>3</ele>
        <time>2016-09-10T12:46:19Z</time>
      </trkpt>
      <trkpt lat="50.19363" lon="1.57588">
        <ele>3</ele>
        <time>2016-09-10T12:46:21Z</time>
      </trkpt>
      <trkpt lat="50.19359" lon="1.57597">
        <ele>3</ele>
        <time>2016-09-10T12:46:23Z</time>
      </trkpt>
      <trkpt lat="50.19356" lon="1.57607">
        <ele>3</ele>
        <time>2016-09-10T12:46:25Z</time>
      </trkpt>
      <trkpt lat="50.19353" lon="1.57617">
        <ele>3</ele>
        <time>2016-09-10T12:46:27Z</time>
      </trkpt>
      <trkpt lat="50.19349" lon="1.57627">
        <ele>3</ele>
        <time>2016-09-10T12:46:29Z</time>
      </trkpt>
      <trkpt lat="50.19346" lon="1.57636">
        <ele>3</ele>
        <time>2016-09-10T12:46:31Z</time>
      </trkpt>
      <trkpt lat="50.19343" lon="1.57646">
        <ele>3</ele>
        <time>2016-09-10T12:46:33Z</time>
      </trkpt>
      <trkpt lat="50.1934" lon="1.57656">
        <ele>2</ele>
        <time>2016-09-10T12:46:35Z</time>
      </trkpt>
      <trkpt lat="50.19337" lon="1.57665">
        <ele>2</ele>
        <time>2016-09-10T12:46:37Z</time>
      </trkpt>
      <trkpt lat="50.19334" lon="1.57674">
        <ele>2</ele>
        <time>2016-09-10T12:46:39Z</time>
      </trkpt>
      <trkpt lat="50.19331" lon="1.57683">
        <ele>2</ele>
        <time>2016-09-10T12:46:41Z</time>
      </trkpt>
      <trkpt lat="50.19328" lon="1.57693">
        <ele>2</ele>
        <time>2016-09-10T12:46:43Z</time>
      </trkpt>
      <trkpt lat="50.19325" lon="1.57702">
        <ele>2</ele>
        <time>2016-09-10T12:46:45Z</time>
      </trkpt>
      <trkpt lat="50.19321" lon="1.57711">
        <ele>2</ele>
        <time>2016-09-10T12:46:47Z</time>
      </trkpt>
      <trkpt lat="50.19318" lon="1.5772">
        <ele>2</ele>
        <time>2016-09-10T12:46:49Z</time>
      </trkpt>
      <trkpt lat="50.19314" lon="1.5773">
        <ele>2</ele>
        <time>2016-09-10T12:46:51Z</time>
      </trkpt>
      <trkpt lat="50.19311" lon="1.5774">
        <ele>3</ele>
        <time>2016-09-10T12:46:53Z</time>
      </trkpt>
      <trkpt lat="50.19307" lon="1.57749">
        <ele>2</ele>
        <time>2016-09-10T12:46:55Z</time>
      </trkpt>
      <trkpt lat="50.19304" lon="1.57758">
        <ele>3</ele>
        <time>2016-09-10T12:46:57Z</time>
      </trkpt>
      <trkpt lat="50.19301" lon="1.57768">
        <ele>3</ele>
        <time>2016-09-10T12:46:59Z</time>
      </trkpt>
      <trkpt lat="50.19298" lon="1.57778">
        <ele>3</ele>
        <time>2016-09-10T12:47:01Z</time>
      </trkpt>
      <trkpt lat="50.19294" lon="1.57788">
        <ele>3</ele>
        <time>2016-09-10T12:47:03Z</time>
      </trkpt>
      <trkpt lat="50.19291" lon="1.57797">
        <ele>3</ele>
        <time>2016-09-10T12:47:05Z</time>
      </trkpt>
      <trkpt lat="50.19288" lon="1.57807">
        <ele>3</ele>
        <time>2016-09-10T12:47:07Z</time>
      </trkpt>
      <trkpt lat="50.19285" lon="1.57816">
        <ele>3</ele>
        <time>2016-09-10T12:47:09Z</time>
      </trkpt>
      <trkpt lat="50.19281" lon="1.57825">
        <ele>3</ele>
        <time>2016-09-10T12:47:11Z</time>
      </trkpt>
      <trkpt lat="50.19277" lon="1.57833">
        <ele>3</ele>
        <time>2016-09-10T12:47:13Z</time>
      </trkpt>
      <trkpt lat="50.19272" lon="1.57841">
        <ele>3</ele>
        <time>2016-09-10T12:47:15Z</time>
      </trkpt>
      <trkpt lat="50.19267" lon="1.57849">
        <ele>2</ele>
        <time>2016-09-10T12:47:17Z</time>
      </trkpt>
      <trkpt lat="50.19262" lon="1.57856">
        <ele>2</ele>
        <time>2016-09-10T12:47:19Z</time>
      </trkpt>
      <trkpt lat="50.19257" lon="1.57864">
        <ele>2</ele>
        <time>2016-09-10T12:47:21Z</time>
      </trkpt>
      <trkpt lat="50.19252" lon="1.57873">
        <ele>2</ele>
        <time>2016-09-10T12:47:23Z</time>
      </trkpt>
      <trkpt lat="50.19248" lon="1.57881">
        <ele>2</ele>
        <time>2016-09-10T12:47:25Z</time>
      </trkpt>
      <trkpt lat="50.19243" lon="1.57889">
        <ele>2</ele>
        <time>2016-09-10T12:47:27Z</time>
      </trkpt>
      <trkpt lat="50.19238" lon="1.57897">
        <ele>2</ele>
        <time>2016-09-10T12:47:29Z</time>
      </trkpt>
      <trkpt lat="50.19234" lon="1.57905">
        <ele>2</ele>
        <time>2016-09-10T12:47:31Z</time>
      </trkpt>
      <trkpt lat="50.1923" lon="1.57913">
        <ele>2</ele>
        <time>2016-09-10T12:47:33Z</time>
      </trkpt>
      <trkpt lat="50.19226" lon="1.57921">
        <ele>2</ele>
        <time>2016-09-10T12:47:35Z</time>
      </trkpt>
      <trkpt lat="50.19221" lon="1.57929">
        <ele>2</ele>
        <time>2016-09-10T12:47:37Z</time>
      </trkpt>
      <trkpt lat="50.19217" lon="1.57937">
        <ele>2</ele>
        <time>2016-09-10T12:47:39Z</time>
      </trkpt>
      <trkpt lat="50.19212" lon="1.57945">
        <ele>2</ele>
        <time>2016-09-10T12:47:41Z</time>
      </trkpt>
      <trkpt lat="50.19207" lon="1.57953">
        <ele>2</ele>
        <time>2016-09-10T12:47:43Z</time>
      </trkpt>
      <trkpt lat="50.19202" lon="1.5796">
        <ele>2</ele>
        <time>2016-09-10T12:47:45Z</time>
      </trkpt>
      <trkpt lat="50.19197" lon="1.57967">
        <ele>2</ele>
        <time>2016-09-10T12:47:47Z</time>
      </trkpt>
      <trkpt lat="50.19192" lon="1.57975">
        <ele>2</ele>
        <time>2016-09-10T12:47:49Z</time>
      </trkpt>
      <trkpt lat="50.19187" lon="1.57983">
        <ele>2</ele>
        <time>2016-09-10T12:47:51Z</time>
      </trkpt>
      <trkpt lat="50.19183" lon="1.5799">
        <ele>3</ele>
        <time>2016-09-10T12:47:53Z</time>
      </trkpt>
      <trkpt lat="50.19177" lon="1.57999">
        <ele>3</ele>
        <time>2016-09-10T12:47:55Z</time>
      </trkpt>
      <trkpt lat="50.19172" lon="1.58007">
        <ele>3</ele>
        <time>2016-09-10T12:47:57Z</time>
      </trkpt>
      <trkpt lat="50.19167" lon="1.58016">
        <ele>3</ele>
        <time>2016-09-10T12:47:59Z</time>
      </trkpt>
      <trkpt lat="50.19162" lon="1.58025">
        <ele>3</ele>
        <time>2016-09-10T12:48:01Z</time>
      </trkpt>
      <trkpt lat="50.19157" lon="1.58034">
        <ele>3</ele>
        <time>2016-09-10T12:48:03Z</time>
      </trkpt>
      <trkpt lat="50.19151" lon="1.58044">
        <ele>3</ele>
        <time>2016-09-10T12:48:05Z</time>
      </trkpt>
      <trkpt lat="50.19146" lon="1.58053">
        <ele>3</ele>
        <time>2016-09-10T12:48:07Z</time>
      </trkpt>
      <trkpt lat="50.1914" lon="1.58062">
        <ele>3</ele>
        <time>2016-09-10T12:48:09Z</time>
      </trkpt>
      <trkpt lat="50.19134" lon="1.5807">
        <ele>3</ele>
        <time>2016-09-10T12:48:11Z</time>
      </trkpt>
      <trkpt lat="50.19129" lon="1.5808">
        <ele>3</ele>
        <time>2016-09-10T12:48:13Z</time>
      </trkpt>
      <trkpt lat="50.19123" lon="1.58088">
        <ele>2</ele>
        <time>2016-09-10T12:48:15Z</time>
      </trkpt>
      <trkpt lat="50.19118" lon="1.58097">
        <ele>2</ele>
        <time>2016-09-10T12:48:17Z</time>
      </trkpt>
      <trkpt lat="50.19113" lon="1.58105">
        <ele>2</ele>
        <time>2016-09-10T12:48:19Z</time>
      </trkpt>
      <trkpt lat="50.19108" lon="1.58114">
        <ele>2</ele>
        <time>2016-09-10T12:48:21Z</time>
      </trkpt>
      <trkpt lat="50.19103" lon="1.58122">
        <ele>2</ele>
        <time>2016-09-10T12:48:23Z</time>
      </trkpt>
      <trkpt lat="50.19098" lon="1.58131">
        <ele>2</ele>
        <time>2016-09-10T12:48:25Z</time>
      </trkpt>
      <trkpt lat="50.19092" lon="1.58139">
        <ele>2</ele>
        <time>2016-09-10T12:48:27Z</time>
      </trkpt>
      <trkpt lat="50.19087" lon="1.58148">
        <ele>2</ele>
        <time>2016-09-10T12:48:29Z</time>
      </trkpt>
      <trkpt lat="50.19082" lon="1.58156">
        <ele>2</ele>
        <time>2016-09-10T12:48:31Z</time>
      </trkpt>
      <trkpt lat="50.19077" lon="1.58164">
        <ele>2</ele>
        <time>2016-09-10T12:48:33Z</time>
      </trkpt>
      <trkpt lat="50.19072" lon="1.58172">
        <ele>2</ele>
        <time>2016-09-10T12:48:35Z</time>
      </trkpt>
      <trkpt lat="50.19067" lon="1.58181">
        <ele>2</ele>
        <time>2016-09-10T12:48:37Z</time>
      </trkpt>
      <trkpt lat="50.19062" lon="1.5819">
        <ele>2</ele>
        <time>2016-09-10T12:48:39Z</time>
      </trkpt>
      <trkpt lat="50.19056" lon="1.58198">
        <ele>2</ele>
        <time>2016-09-10T12:48:41Z</time>
      </trkpt>
      <trkpt lat="50.19051" lon="1.58207">
        <ele>2</ele>
        <time>2016-09-10T12:48:43Z</time>
      </trkpt>
      <trkpt lat="50.19046" lon="1.58216">
        <ele>2</ele>
        <time>2016-09-10T12:48:45Z</time>
      </trkpt>
      <trkpt lat="50.19041" lon="1.58225">
        <ele>2</ele>
        <time>2016-09-10T12:48:47Z</time>
      </trkpt>
      <trkpt lat="50.19035" lon="1.58234">
        <ele>2</ele>
        <time>2016-09-10T12:48:49Z</time>
      </trkpt>
      <trkpt lat="50.1903" lon="1.58243">
        <ele>2</ele>
        <time>2016-09-10T12:48:51Z</time>
      </trkpt>
      <trkpt lat="50.19025" lon="1.58252">
        <ele>2</ele>
        <time>2016-09-10T12:48:53Z</time>
      </trkpt>
      <trkpt lat="50.1902" lon="1.5826">
        <ele>2</ele>
        <time>2016-09-10T12:48:55Z</time>
      </trkpt>
      <trkpt lat="50.19015" lon="1.58269">
        <ele>2</ele>
        <time>2016-09-10T12:48:57Z</time>
      </trkpt>
      <trkpt lat="50.19009" lon="1.58277">
        <ele>2</ele>
        <time>2016-09-10T12:48:59Z</time>
      </trkpt>
      <trkpt lat="50.19004" lon="1.58285">
        <ele>2</ele>
        <time>2016-09-10T12:49:01Z</time>
      </trkpt>
      <trkpt lat="50.18999" lon="1.58293">
        <ele>2</ele>
        <time>2016-09-10T12:49:03Z</time>
      </trkpt>
      <trkpt lat="50.18994" lon="1.583">
        <ele>2</ele>
        <time>2016-09-10T12:49:05Z</time>
      </trkpt>
      <trkpt lat="50.18988" lon="1.58308">
        <ele>2</ele>
        <time>2016-09-10T12:49:07Z</time>
      </trkpt>
      <trkpt lat="50.18983" lon="1.58317">
        <ele>2</ele>
        <time>2016-09-10T12:49:09Z</time>
      </trkpt>
      <trkpt lat="50.18978" lon="1.58325">
        <ele>2</ele>
        <time>2016-09-10T12:49:11Z</time>
      </trkpt>
      <trkpt lat="50.18973" lon="1.58334">
        <ele>2</ele>
        <time>2016-09-10T12:49:13Z</time>
      </trkpt>
      <trkpt lat="50.18968" lon="1.58343">
        <ele>2</ele>
        <time>2016-09-10T12:49:15Z</time>
      </trkpt>
      <trkpt lat="50.18964" lon="1.58351">
        <ele>2</ele>
        <time>2016-09-10T12:49:17Z</time>
      </trkpt>
      <trkpt lat="50.18959" lon="1.58359">
        <ele>2</ele>
        <time>2016-09-10T12:49:19Z</time>
      </trkpt>
      <trkpt lat="50.18954" lon="1.58367">
        <ele>2</ele>
        <time>2016-09-10T12:49:21Z</time>
      </trkpt>
      <trkpt lat="50.18949" lon="1.58375">
        <ele>2</ele>
        <time>2016-09-10T12:49:23Z</time>
      </trkpt>
      <trkpt lat="50.18944" lon="1.58383">
        <ele>2</ele>
        <time>2016-09-10T12:49:25Z</time>
      </trkpt>
      <trkpt lat="50.18939" lon="1.58391">
        <ele>2</ele>
        <time>2016-09-10T12:49:27Z</time>
      </trkpt>
      <trkpt lat="50.18935" lon="1.58399">
        <ele>2</ele>
        <time>2016-09-10T12:49:29Z</time>
      </trkpt>
      <trkpt lat="50.1893" lon="1.58406">
        <ele>2</ele>
        <time>2016-09-10T12:49:31Z</time>
      </trkpt>
      <trkpt lat="50.18925" lon="1.58413">
        <ele>2</ele>
        <time>2016-09-10T12:49:33Z</time>
      </trkpt>
      <trkpt lat="50.1892" lon="1.5842">
        <ele>2</ele>
        <time>2016-09-10T12:49:35Z</time>
      </trkpt>
      <trkpt lat="50.18855" lon="1.58549">
        <ele>2</ele>
        <time>2016-09-10T12:50:05Z</time>
      </trkpt>
      <trkpt lat="50.18843" lon="1.58562">
        <ele>2</ele>
        <time>2016-09-10T12:50:09Z</time>
      </trkpt>
      <trkpt lat="50.18837" lon="1.58571">
        <ele>2</ele>
        <time>2016-09-10T12:50:11Z</time>
      </trkpt>
      <trkpt lat="50.18831" lon="1.58579">
        <ele>2</ele>
        <time>2016-09-10T12:50:13Z</time>
      </trkpt>
      <trkpt lat="50.18826" lon="1.58588">
        <ele>2</ele>
        <time>2016-09-10T12:50:15Z</time>
      </trkpt>
      <trkpt lat="50.18819" lon="1.58596">
        <ele>2</ele>
        <time>2016-09-10T12:50:17Z</time>
      </trkpt>
      <trkpt lat="50.18813" lon="1.58604">
        <ele>3</ele>
        <time>2016-09-10T12:50:19Z</time>
      </trkpt>
      <trkpt lat="50.18808" lon="1.58611">
        <ele>3</ele>
        <time>2016-09-10T12:50:21Z</time>
      </trkpt>
      <trkpt lat="50.18804" lon="1.58618">
        <ele>3</ele>
        <time>2016-09-10T12:50:23Z</time>
      </trkpt>
      <trkpt lat="50.18799" lon="1.58625">
        <ele>3</ele>
        <time>2016-09-10T12:50:25Z</time>
      </trkpt>
      <trkpt lat="50.18794" lon="1.58632">
        <ele>3</ele>
        <time>2016-09-10T12:50:27Z</time>
      </trkpt>
      <trkpt lat="50.18789" lon="1.5864">
        <ele>3</ele>
        <time>2016-09-10T12:50:29Z</time>
      </trkpt>
      <trkpt lat="50.18784" lon="1.58648">
        <ele>3</ele>
        <time>2016-09-10T12:50:31Z</time>
      </trkpt>
      <trkpt lat="50.18779" lon="1.58656">
        <ele>3</ele>
        <time>2016-09-10T12:50:33Z</time>
      </trkpt>
      <trkpt lat="50.18774" lon="1.58664">
        <ele>3</ele>
        <time>2016-09-10T12:50:35Z</time>
      </trkpt>
      <trkpt lat="50.1877" lon="1.58672">
        <ele>3</ele>
        <time>2016-09-10T12:50:37Z</time>
      </trkpt>
      <trkpt lat="50.18765" lon="1.5868">
        <ele>3</ele>
        <time>2016-09-10T12:50:39Z</time>
      </trkpt>
      <trkpt lat="50.18759" lon="1.58687">
        <ele>3</ele>
        <time>2016-09-10T12:50:41Z</time>
      </trkpt>
      <trkpt lat="50.18754" lon="1.58695">
        <ele>3</ele>
        <time>2016-09-10T12:50:43Z</time>
      </trkpt>
      <trkpt lat="50.18748" lon="1.58703">
        <ele>3</ele>
        <time>2016-09-10T12:50:45Z</time>
      </trkpt>
      <trkpt lat="50.18743" lon="1.58712">
        <ele>3</ele>
        <time>2016-09-10T12:50:47Z</time>
      </trkpt>
      <trkpt lat="50.18739" lon="1.5872">
        <ele>3</ele>
        <time>2016-09-10T12:50:49Z</time>
      </trkpt>
      <trkpt lat="50.18733" lon="1.58728">
        <ele>3</ele>
        <time>2016-09-10T12:50:51Z</time>
      </trkpt>
      <trkpt lat="50.18728" lon="1.58736">
        <ele>3</ele>
        <time>2016-09-10T12:50:53Z</time>
      </trkpt>
      <trkpt lat="50.18723" lon="1.58744">
        <ele>3</ele>
        <time>2016-09-10T12:50:55Z</time>
      </trkpt>
      <trkpt lat="50.18718" lon="1.58752">
        <ele>3</ele>
        <time>2016-09-10T12:50:57Z</time>
      </trkpt>
      <trkpt lat="50.18713" lon="1.58761">
        <ele>3</ele>
        <time>2016-09-10T12:50:59Z</time>
      </trkpt>
      <trkpt lat="50.18708" lon="1.5877">
        <ele>2</ele>
        <time>2016-09-10T12:51:01Z</time>
      </trkpt>
      <trkpt lat="50.18703" lon="1.58779">
        <ele>2</ele>
        <time>2016-09-10T12:51:03Z</time>
      </trkpt>
      <trkpt lat="50.18698" lon="1.58787">
        <ele>2</ele>
        <time>2016-09-10T12:51:05Z</time>
      </trkpt>
      <trkpt lat="50.18693" lon="1.58795">
        <ele>3</ele>
        <time>2016-09-10T12:51:07Z</time>
      </trkpt>
      <trkpt lat="50.18687" lon="1.58804">
        <ele>3</ele>
        <time>2016-09-10T12:51:09Z</time>
      </trkpt>
      <trkpt lat="50.18682" lon="1.58813">
        <ele>3</ele>
        <time>2016-09-10T12:51:11Z</time>
      </trkpt>
      <trkpt lat="50.18677" lon="1.58821">
        <ele>3</ele>
        <time>2016-09-10T12:51:13Z</time>
      </trkpt>
      <trkpt lat="50.18672" lon="1.5883">
        <ele>3</ele>
        <time>2016-09-10T12:51:15Z</time>
      </trkpt>
      <trkpt lat="50.18667" lon="1.58839">
        <ele>3</ele>
        <time>2016-09-10T12:51:17Z</time>
      </trkpt>
      <trkpt lat="50.18662" lon="1.58847">
        <ele>3</ele>
        <time>2016-09-10T12:51:19Z</time>
      </trkpt>
      <trkpt lat="50.18657" lon="1.58855">
        <ele>3</ele>
        <time>2016-09-10T12:51:21Z</time>
      </trkpt>
      <trkpt lat="50.18651" lon="1.58863">
        <ele>3</ele>
        <time>2016-09-10T12:51:23Z</time>
      </trkpt>
      <trkpt lat="50.18646" lon="1.58871">
        <ele>3</ele>
        <time>2016-09-10T12:51:25Z</time>
      </trkpt>
      <trkpt lat="50.18641" lon="1.58879">
        <ele>3</ele>
        <time>2016-09-10T12:51:27Z</time>
      </trkpt>
      <trkpt lat="50.18637" lon="1.58887">
        <ele>3</ele>
        <time>2016-09-10T12:51:29Z</time>
      </trkpt>
      <trkpt lat="50.18633" lon="1.58894">
        <ele>3</ele>
        <time>2016-09-10T12:51:31Z</time>
      </trkpt>
      <trkpt lat="50.1863" lon="1.589">
        <ele>3</ele>
        <time>2016-09-10T12:51:35Z</time>
      </trkpt>
      <trkpt lat="50.18634" lon="1.58897">
        <ele>3</ele>
        <time>2016-09-10T12:52:01Z</time>
      </trkpt>
      <trkpt lat="50.18634" lon="1.58907">
        <ele>3</ele>
        <time>2016-09-10T12:54:33Z</time>
      </trkpt>
      <trkpt lat="50.18601" lon="1.59074">
        <ele>3</ele>
        <time>2016-09-10T12:55:05Z</time>
      </trkpt>
      <trkpt lat="50.18595" lon="1.59096">
        <ele>3</ele>
        <time>2016-09-10T12:55:09Z</time>
      </trkpt>
      <trkpt lat="50.18591" lon="1.59106">
        <ele>3</ele>
        <time>2016-09-10T12:55:11Z</time>
      </trkpt>
      <trkpt lat="50.18587" lon="1.59117">
        <ele>3</ele>
        <time>2016-09-10T12:55:13Z</time>
      </trkpt>
      <trkpt lat="50.18583" lon="1.59127">
        <ele>3</ele>
        <time>2016-09-10T12:55:15Z</time>
      </trkpt>
      <trkpt lat="50.18577" lon="1.59137">
        <ele>3</ele>
        <time>2016-09-10T12:55:17Z</time>
      </trkpt>
      <trkpt lat="50.18571" lon="1.59144">
        <ele>3</ele>
        <time>2016-09-10T12:55:19Z</time>
      </trkpt>
      <trkpt lat="50.18565" lon="1.59151">
        <ele>3</ele>
        <time>2016-09-10T12:55:21Z</time>
      </trkpt>
      <trkpt lat="50.18558" lon="1.59157">
        <ele>3</ele>
        <time>2016-09-10T12:55:23Z</time>
      </trkpt>
      <trkpt lat="50.18552" lon="1.59163">
        <ele>3</ele>
        <time>2016-09-10T12:55:25Z</time>
      </trkpt>
      <trkpt lat="50.18546" lon="1.59169">
        <ele>4</ele>
        <time>2016-09-10T12:55:27Z</time>
      </trkpt>
      <trkpt lat="50.1854" lon="1.59176">
        <ele>3</ele>
        <time>2016-09-10T12:55:29Z</time>
      </trkpt>
      <trkpt lat="50.18534" lon="1.59183">
        <ele>3</ele>
        <time>2016-09-10T12:55:31Z</time>
      </trkpt>
      <trkpt lat="50.18528" lon="1.5919">
        <ele>3</ele>
        <time>2016-09-10T12:55:33Z</time>
      </trkpt>
      <trkpt lat="50.18522" lon="1.59196">
        <ele>3</ele>
        <time>2016-09-10T12:55:35Z</time>
      </trkpt>
      <trkpt lat="50.18516" lon="1.59202">
        <ele>3</ele>
        <time>2016-09-10T12:55:37Z</time>
      </trkpt>
      <trkpt lat="50.18509" lon="1.59209">
        <ele>3</ele>
        <time>2016-09-10T12:55:39Z</time>
      </trkpt>
      <trkpt lat="50.18503" lon="1.59216">
        <ele>3</ele>
        <time>2016-09-10T12:55:41Z</time>
      </trkpt>
      <trkpt lat="50.18497" lon="1.59223">
        <ele>3</ele>
        <time>2016-09-10T12:55:43Z</time>
      </trkpt>
      <trkpt lat="50.18491" lon="1.5923">
        <ele>3</ele>
        <time>2016-09-10T12:55:45Z</time>
      </trkpt>
      <trkpt lat="50.18485" lon="1.59238">
        <ele>3</ele>
        <time>2016-09-10T12:55:47Z</time>
      </trkpt>
      <trkpt lat="50.18479" lon="1.59245">
        <ele>3</ele>
        <time>2016-09-10T12:55:49Z</time>
      </trkpt>
      <trkpt lat="50.18473" lon="1.59252">
        <ele>4</ele>
        <time>2016-09-10T12:55:51Z</time>
      </trkpt>
      <trkpt lat="50.18467" lon="1.59258">
        <ele>4</ele>
        <time>2016-09-10T12:55:53Z</time>
      </trkpt>
      <trkpt lat="50.18461" lon="1.59264">
        <ele>4</ele>
        <time>2016-09-10T12:55:55Z</time>
      </trkpt>
      <trkpt lat="50.18456" lon="1.59271">
        <ele>4</ele>
        <time>2016-09-10T12:55:57Z</time>
      </trkpt>
      <trkpt lat="50.1845" lon="1.59277">
        <ele>4</ele>
        <time>2016-09-10T12:55:59Z</time>
      </trkpt>
      <trkpt lat="50.18444" lon="1.59282">
        <ele>4</ele>
        <time>2016-09-10T12:56:01Z</time>
      </trkpt>
      <trkpt lat="50.18438" lon="1.59288">
        <ele>4</ele>
        <time>2016-09-10T12:56:03Z</time>
      </trkpt>
      <trkpt lat="50.18432" lon="1.59294">
        <ele>4</ele>
        <time>2016-09-10T12:56:05Z</time>
      </trkpt>
      <trkpt lat="50.18427" lon="1.59301">
        <ele>4</ele>
        <time>2016-09-10T12:56:07Z</time>
      </trkpt>
      <trkpt lat="50.18423" lon="1.59309">
        <ele>5</ele>
        <time>2016-09-10T12:56:09Z</time>
      </trkpt>
      <trkpt lat="50.18419" lon="1.59318">
        <ele>5</ele>
        <time>2016-09-10T12:56:11Z</time>
      </trkpt>
      <trkpt lat="50.18417" lon="1.59327">
        <ele>6</ele>
        <time>2016-09-10T12:56:13Z</time>
      </trkpt>
      <trkpt lat="50.18415" lon="1.59337">
        <ele>6</ele>
        <time>2016-09-10T12:56:15Z</time>
      </trkpt>
      <trkpt lat="50.18414" lon="1.59346">
        <ele>7</ele>
        <time>2016-09-10T12:56:17Z</time>
      </trkpt>
      <trkpt lat="50.18414" lon="1.59355">
        <ele>8</ele>
        <time>2016-09-10T12:56:19Z</time>
      </trkpt>
      <trkpt lat="50.18415" lon="1.59364">
        <ele>8</ele>
        <time>2016-09-10T12:56:21Z</time>
      </trkpt>
      <trkpt lat="50.18418" lon="1.59373">
        <ele>6</ele>
        <time>2016-09-10T12:56:23Z</time>
      </trkpt>
      <trkpt lat="50.18424" lon="1.59379">
        <ele>6</ele>
        <time>2016-09-10T12:56:25Z</time>
      </trkpt>
      <trkpt lat="50.1843" lon="1.59386">
        <ele>6</ele>
        <time>2016-09-10T12:56:27Z</time>
      </trkpt>
      <trkpt lat="50.18436" lon="1.59392">
        <ele>6</ele>
        <time>2016-09-10T12:56:29Z</time>
      </trkpt>
      <trkpt lat="50.18442" lon="1.59398">
        <ele>6</ele>
        <time>2016-09-10T12:56:31Z</time>
      </trkpt>
      <trkpt lat="50.18449" lon="1.59405">
        <ele>6</ele>
        <time>2016-09-10T12:56:33Z</time>
      </trkpt>
      <trkpt lat="50.18455" lon="1.5941">
        <ele>6</ele>
        <time>2016-09-10T12:56:35Z</time>
      </trkpt>
      <trkpt lat="50.18463" lon="1.59415">
        <ele>6</ele>
        <time>2016-09-10T12:56:37Z</time>
      </trkpt>
      <trkpt lat="50.18469" lon="1.5942">
        <ele>7</ele>
        <time>2016-09-10T12:56:39Z</time>
      </trkpt>
      <trkpt lat="50.18474" lon="1.59427">
        <ele>7</ele>
        <time>2016-09-10T12:56:41Z</time>
      </trkpt>
      <trkpt lat="50.18479" lon="1.59435">
        <ele>7</ele>
        <time>2016-09-10T12:56:43Z</time>
      </trkpt>
      <trkpt lat="50.18484" lon="1.59443">
        <ele>7</ele>
        <time>2016-09-10T12:56:45Z</time>
      </trkpt>
      <trkpt lat="50.18488" lon="1.59452">
        <ele>7</ele>
        <time>2016-09-10T12:56:47Z</time>
      </trkpt>
      <trkpt lat="50.18492" lon="1.59462">
        <ele>7</ele>
        <time>2016-09-10T12:56:49Z</time>
      </trkpt>
      <trkpt lat="50.18495" lon="1.59472">
        <ele>7</ele>
        <time>2016-09-10T12:56:51Z</time>
      </trkpt>
      <trkpt lat="50.18499" lon="1.59482">
        <ele>7</ele>
        <time>2016-09-10T12:56:53Z</time>
      </trkpt>
      <trkpt lat="50.18503" lon="1.59492">
        <ele>5</ele>
        <time>2016-09-10T12:56:55Z</time>
      </trkpt>
      <trkpt lat="50.18506" lon="1.59503">
        <ele>6</ele>
        <time>2016-09-10T12:56:57Z</time>
      </trkpt>
      <trkpt lat="50.1851" lon="1.59514">
        <ele>6</ele>
        <time>2016-09-10T12:56:59Z</time>
      </trkpt>
      <trkpt lat="50.18514" lon="1.59524">
        <ele>7</ele>
        <time>2016-09-10T12:57:01Z</time>
      </trkpt>
      <trkpt lat="50.18518" lon="1.59535">
        <ele>7</ele>
        <time>2016-09-10T12:57:03Z</time>
      </trkpt>
      <trkpt lat="50.18522" lon="1.59545">
        <ele>7</ele>
        <time>2016-09-10T12:57:05Z</time>
      </trkpt>
      <trkpt lat="50.18526" lon="1.59557">
        <ele>8</ele>
        <time>2016-09-10T12:57:07Z</time>
      </trkpt>
      <trkpt lat="50.1853" lon="1.59569">
        <ele>8</ele>
        <time>2016-09-10T12:57:09Z</time>
      </trkpt>
      <trkpt lat="50.18533" lon="1.5958">
        <ele>8</ele>
        <time>2016-09-10T12:57:11Z</time>
      </trkpt>
      <trkpt lat="50.18537" lon="1.59592">
        <ele>10</ele>
        <time>2016-09-10T12:57:13Z</time>
      </trkpt>
      <trkpt lat="50.1854" lon="1.59604">
        <ele>10</ele>
        <time>2016-09-10T12:57:15Z</time>
      </trkpt>
      <trkpt lat="50.18543" lon="1.59616">
        <ele>10</ele>
        <time>2016-09-10T12:57:17Z</time>
      </trkpt>
      <trkpt lat="50.18546" lon="1.59628">
        <ele>10</ele>
        <time>2016-09-10T12:57:19Z</time>
      </trkpt>
      <trkpt lat="50.18549" lon="1.59639">
        <ele>10</ele>
        <time>2016-09-10T12:57:21Z</time>
      </trkpt>
      <trkpt lat="50.18552" lon="1.59651">
        <ele>10</ele>
        <time>2016-09-10T12:57:23Z</time>
      </trkpt>
      <trkpt lat="50.18556" lon="1.59663">
        <ele>9</ele>
        <time>2016-09-10T12:57:25Z</time>
      </trkpt>
      <trkpt lat="50.1856" lon="1.59675">
        <ele>12</ele>
        <time>2016-09-10T12:57:27Z</time>
      </trkpt>
      <trkpt lat="50.18563" lon="1.59686">
        <ele>12</ele>
        <time>2016-09-10T12:57:29Z</time>
      </trkpt>
      <trkpt lat="50.18567" lon="1.59699">
        <ele>13</ele>
        <time>2016-09-10T12:57:31Z</time>
      </trkpt>
      <trkpt lat="50.18573" lon="1.59716">
        <ele>13</ele>
        <time>2016-09-10T12:57:33Z</time>
      </trkpt>
      <trkpt lat="50.18577" lon="1.5973">
        <ele>13</ele>
        <time>2016-09-10T12:57:35Z</time>
      </trkpt>
      <trkpt lat="50.18581" lon="1.59743">
        <ele>12</ele>
        <time>2016-09-10T12:57:37Z</time>
      </trkpt>
      <trkpt lat="50.18585" lon="1.59753">
        <ele>11</ele>
        <time>2016-09-10T12:57:39Z</time>
      </trkpt>
      <trkpt lat="50.18588" lon="1.59767">
        <ele>10</ele>
        <time>2016-09-10T12:57:41Z</time>
      </trkpt>
      <trkpt lat="50.18592" lon="1.59781">
        <ele>10</ele>
        <time>2016-09-10T12:57:43Z</time>
      </trkpt>
      <trkpt lat="50.18597" lon="1.59796">
        <ele>10</ele>
        <time>2016-09-10T12:57:45Z</time>
      </trkpt>
      <trkpt lat="50.186" lon="1.59808">
        <ele>11</ele>
        <time>2016-09-10T12:57:47Z</time>
      </trkpt>
      <trkpt lat="50.18606" lon="1.5982">
        <ele>11</ele>
        <time>2016-09-10T12:57:49Z</time>
      </trkpt>
      <trkpt lat="50.1861" lon="1.59834">
        <ele>13</ele>
        <time>2016-09-10T12:57:51Z</time>
      </trkpt>
      <trkpt lat="50.18614" lon="1.59846">
        <ele>13</ele>
        <time>2016-09-10T12:57:53Z</time>
      </trkpt>
      <trkpt lat="50.18619" lon="1.59857">
        <ele>12</ele>
        <time>2016-09-10T12:57:55Z</time>
      </trkpt>
      <trkpt lat="50.18624" lon="1.59867">
        <ele>12</ele>
        <time>2016-09-10T12:57:57Z</time>
      </trkpt>
      <trkpt lat="50.18628" lon="1.59884">
        <ele>12</ele>
        <time>2016-09-10T12:57:59Z</time>
      </trkpt>
      <trkpt lat="50.18636" lon="1.59895">
        <ele>11</ele>
        <time>2016-09-10T12:58:01Z</time>
      </trkpt>
      <trkpt lat="50.18641" lon="1.59911">
        <ele>10</ele>
        <time>2016-09-10T12:58:03Z</time>
      </trkpt>
      <trkpt lat="50.18645" lon="1.59923">
        <ele>12</ele>
        <time>2016-09-10T12:58:05Z</time>
      </trkpt>
      <trkpt lat="50.1865" lon="1.59933">
        <ele>12</ele>
        <time>2016-09-10T12:58:07Z</time>
      </trkpt>
      <trkpt lat="50.18656" lon="1.59945">
        <ele>13</ele>
        <time>2016-09-10T12:58:09Z</time>
      </trkpt>
      <trkpt lat="50.18662" lon="1.59957">
        <ele>13</ele>
        <time>2016-09-10T12:58:11Z</time>
      </trkpt>
      <trkpt lat="50.18667" lon="1.59968">
        <ele>13</ele>
        <time>2016-09-10T12:58:13Z</time>
      </trkpt>
      <trkpt lat="50.18669" lon="1.59981">
        <ele>7</ele>
        <time>2016-09-10T12:58:15Z</time>
      </trkpt>
      <trkpt lat="50.18673" lon="1.59991">
        <ele>8</ele>
        <time>2016-09-10T12:58:17Z</time>
      </trkpt>
      <trkpt lat="50.18678" lon="1.60004">
        <ele>9</ele>
        <time>2016-09-10T12:58:19Z</time>
      </trkpt>
      <trkpt lat="50.18683" lon="1.60015">
        <ele>8</ele>
        <time>2016-09-10T12:58:21Z</time>
      </trkpt>
      <trkpt lat="50.18689" lon="1.60028">
        <ele>8</ele>
        <time>2016-09-10T12:58:23Z</time>
      </trkpt>
      <trkpt lat="50.18694" lon="1.60039">
        <ele>8</ele>
        <time>2016-09-10T12:58:25Z</time>
      </trkpt>
      <trkpt lat="50.187" lon="1.60048">
        <ele>7</ele>
        <time>2016-09-10T12:58:27Z</time>
      </trkpt>
      <trkpt lat="50.18706" lon="1.60061">
        <ele>7</ele>
        <time>2016-09-10T12:58:29Z</time>
      </trkpt>
      <trkpt lat="50.18709" lon="1.60072">
        <ele>7</ele>
        <time>2016-09-10T12:58:31Z</time>
      </trkpt>
      <trkpt lat="50.18714" lon="1.60082">
        <ele>7</ele>
        <time>2016-09-10T12:58:33Z</time>
      </trkpt>
      <trkpt lat="50.18717" lon="1.60095">
        <ele>8</ele>
        <time>2016-09-10T12:58:35Z</time>
      </trkpt>
      <trkpt lat="50.18723" lon="1.60107">
        <ele>8</ele>
        <time>2016-09-10T12:58:37Z</time>
      </trkpt>
      <trkpt lat="50.18728" lon="1.60116">
        <ele>8</ele>
        <time>2016-09-10T12:58:39Z</time>
      </trkpt>
      <trkpt lat="50.1873" lon="1.6013">
        <ele>8</ele>
        <time>2016-09-10T12:58:41Z</time>
      </trkpt>
      <trkpt lat="50.18734" lon="1.60139">
        <ele>8</ele>
        <time>2016-09-10T12:58:43Z</time>
      </trkpt>
      <trkpt lat="50.18737" lon="1.60149">
        <ele>8</ele>
        <time>2016-09-10T12:58:45Z</time>
      </trkpt>
      <trkpt lat="50.18739" lon="1.60158">
        <ele>7</ele>
        <time>2016-09-10T12:58:47Z</time>
      </trkpt>
      <trkpt lat="50.18742" lon="1.60168">
        <ele>7</ele>
        <time>2016-09-10T12:58:49Z</time>
      </trkpt>
      <trkpt lat="50.18746" lon="1.6018">
        <ele>8</ele>
        <time>2016-09-10T12:58:51Z</time>
      </trkpt>
      <trkpt lat="50.1875" lon="1.60191">
        <ele>9</ele>
        <time>2016-09-10T12:58:53Z</time>
      </trkpt>
      <trkpt lat="50.18754" lon="1.60202">
        <ele>6</ele>
        <time>2016-09-10T12:58:55Z</time>
      </trkpt>
      <trkpt lat="50.18759" lon="1.60212">
        <ele>6</ele>
        <time>2016-09-10T12:58:57Z</time>
      </trkpt>
      <trkpt lat="50.18761" lon="1.60222">
        <ele>6</ele>
        <time>2016-09-10T12:58:59Z</time>
      </trkpt>
      <trkpt lat="50.18763" lon="1.60232">
        <ele>6</ele>
        <time>2016-09-10T12:59:01Z</time>
      </trkpt>
      <trkpt lat="50.18765" lon="1.60241">
        <ele>6</ele>
        <time>2016-09-10T12:59:03Z</time>
      </trkpt>
      <trkpt lat="50.18768" lon="1.6025">
        <ele>7</ele>
        <time>2016-09-10T12:59:05Z</time>
      </trkpt>
      <trkpt lat="50.1877" lon="1.60259">
        <ele>7</ele>
        <time>2016-09-10T12:59:07Z</time>
      </trkpt>
      <trkpt lat="50.18773" lon="1.60268">
        <ele>7</ele>
        <time>2016-09-10T12:59:09Z</time>
      </trkpt>
      <trkpt lat="50.18778" lon="1.60279">
        <ele>7</ele>
        <time>2016-09-10T12:59:11Z</time>
      </trkpt>
      <trkpt lat="50.18783" lon="1.60291">
        <ele>7</ele>
        <time>2016-09-10T12:59:13Z</time>
      </trkpt>
      <trkpt lat="50.18785" lon="1.60301">
        <ele>7</ele>
        <time>2016-09-10T12:59:15Z</time>
      </trkpt>
      <trkpt lat="50.1879" lon="1.60313">
        <ele>7</ele>
        <time>2016-09-10T12:59:17Z</time>
      </trkpt>
      <trkpt lat="50.18793" lon="1.60324">
        <ele>6</ele>
        <time>2016-09-10T12:59:19Z</time>
      </trkpt>
      <trkpt lat="50.18798" lon="1.60336">
        <ele>7</ele>
        <time>2016-09-10T12:59:21Z</time>
      </trkpt>
      <trkpt lat="50.18802" lon="1.60347">
        <ele>7</ele>
        <time>2016-09-10T12:59:23Z</time>
      </trkpt>
      <trkpt lat="50.18809" lon="1.60357">
        <ele>7</ele>
        <time>2016-09-10T12:59:25Z</time>
      </trkpt>
      <trkpt lat="50.18813" lon="1.60367">
        <ele>7</ele>
        <time>2016-09-10T12:59:27Z</time>
      </trkpt>
      <trkpt lat="50.18818" lon="1.60377">
        <ele>6</ele>
        <time>2016-09-10T12:59:29Z</time>
      </trkpt>
      <trkpt lat="50.18823" lon="1.60387">
        <ele>6</ele>
        <time>2016-09-10T12:59:31Z</time>
      </trkpt>
      <trkpt lat="50.18827" lon="1.60399">
        <ele>6</ele>
        <time>2016-09-10T12:59:33Z</time>
      </trkpt>
      <trkpt lat="50.18831" lon="1.60408">
        <ele>6</ele>
        <time>2016-09-10T12:59:35Z</time>
      </trkpt>
      <trkpt lat="50.18833" lon="1.60419">
        <ele>5</ele>
        <time>2016-09-10T12:59:37Z</time>
      </trkpt>
      <trkpt lat="50.18883" lon="1.60539">
        <ele>5</ele>
        <time>2016-09-10T13:00:07Z</time>
      </trkpt>
      <trkpt lat="50.18879" lon="1.60542">
        <ele>5</ele>
        <time>2016-09-10T13:00:41Z</time>
      </trkpt>
      <trkpt lat="50.18879" lon="1.60553">
        <ele>5</ele>
        <time>2016-09-10T13:00:45Z</time>
      </trkpt>
      <trkpt lat="50.18883" lon="1.60567">
        <ele>5</ele>
        <time>2016-09-10T13:00:49Z</time>
      </trkpt>
      <trkpt lat="50.18885" lon="1.60575">
        <ele>5</ele>
        <time>2016-09-10T13:00:51Z</time>
      </trkpt>
      <trkpt lat="50.18887" lon="1.60582">
        <ele>5</ele>
        <time>2016-09-10T13:00:53Z</time>
      </trkpt>
      <trkpt lat="50.18889" lon="1.6059">
        <ele>6</ele>
        <time>2016-09-10T13:00:55Z</time>
      </trkpt>
      <trkpt lat="50.18893" lon="1.60604">
        <ele>6</ele>
        <time>2016-09-10T13:00:59Z</time>
      </trkpt>
      <trkpt lat="50.18894" lon="1.60611">
        <ele>6</ele>
        <time>2016-09-10T13:01:01Z</time>
      </trkpt>
      <trkpt lat="50.18895" lon="1.6062">
        <ele>6</ele>
        <time>2016-09-10T13:01:03Z</time>
      </trkpt>
      <trkpt lat="50.18897" lon="1.60626">
        <ele>6</ele>
        <time>2016-09-10T13:01:05Z</time>
      </trkpt>
      <trkpt lat="50.189" lon="1.60633">
        <ele>6</ele>
        <time>2016-09-10T13:01:07Z</time>
      </trkpt>
      <trkpt lat="50.18902" lon="1.60639">
        <ele>6</ele>
        <time>2016-09-10T13:01:09Z</time>
      </trkpt>
      <trkpt lat="50.18904" lon="1.60645">
        <ele>6</ele>
        <time>2016-09-10T13:01:11Z</time>
      </trkpt>
      <trkpt lat="50.18907" lon="1.60652">
        <ele>6</ele>
        <time>2016-09-10T13:01:13Z</time>
      </trkpt>
      <trkpt lat="50.18909" lon="1.60659">
        <ele>6</ele>
        <time>2016-09-10T13:01:15Z</time>
      </trkpt>
      <trkpt lat="50.18912" lon="1.60666">
        <ele>6</ele>
        <time>2016-09-10T13:01:17Z</time>
      </trkpt>
      <trkpt lat="50.18915" lon="1.60673">
        <ele>6</ele>
        <time>2016-09-10T13:01:19Z</time>
      </trkpt>
      <trkpt lat="50.18917" lon="1.6068">
        <ele>6</ele>
        <time>2016-09-10T13:01:21Z</time>
      </trkpt>
      <trkpt lat="50.1892" lon="1.60687">
        <ele>6</ele>
        <time>2016-09-10T13:01:23Z</time>
      </trkpt>
      <trkpt lat="50.18922" lon="1.60694">
        <ele>6</ele>
        <time>2016-09-10T13:01:25Z</time>
      </trkpt>
      <trkpt lat="50.18925" lon="1.60701">
        <ele>6</ele>
        <time>2016-09-10T13:01:27Z</time>
      </trkpt>
      <trkpt lat="50.18928" lon="1.60708">
        <ele>6</ele>
        <time>2016-09-10T13:01:29Z</time>
      </trkpt>
      <trkpt lat="50.18931" lon="1.60715">
        <ele>6</ele>
        <time>2016-09-10T13:01:31Z</time>
      </trkpt>
      <trkpt lat="50.18933" lon="1.60723">
        <ele>6</ele>
        <time>2016-09-10T13:01:33Z</time>
      </trkpt>
      <trkpt lat="50.18936" lon="1.6073">
        <ele>6</ele>
        <time>2016-09-10T13:01:35Z</time>
      </trkpt>
      <trkpt lat="50.18938" lon="1.60737">
        <ele>6</ele>
        <time>2016-09-10T13:01:37Z</time>
      </trkpt>
      <trkpt lat="50.18941" lon="1.60745">
        <ele>6</ele>
        <time>2016-09-10T13:01:39Z</time>
      </trkpt>
      <trkpt lat="50.18943" lon="1.60752">
        <ele>7</ele>
        <time>2016-09-10T13:01:41Z</time>
      </trkpt>
      <trkpt lat="50.18946" lon="1.60759">
        <ele>7</ele>
        <time>2016-09-10T13:01:43Z</time>
      </trkpt>
      <trkpt lat="50.18949" lon="1.60765">
        <ele>6</ele>
        <time>2016-09-10T13:01:45Z</time>
      </trkpt>
      <trkpt lat="50.18951" lon="1.60772">
        <ele>6</ele>
        <time>2016-09-10T13:01:47Z</time>
      </trkpt>
      <trkpt lat="50.18953" lon="1.60779">
        <ele>6</ele>
        <time>2016-09-10T13:01:49Z</time>
      </trkpt>
      <trkpt lat="50.18955" lon="1.60787">
        <ele>6</ele>
        <time>2016-09-10T13:01:51Z</time>
      </trkpt>
      <trkpt lat="50.18957" lon="1.60794">
        <ele>6</ele>
        <time>2016-09-10T13:01:53Z</time>
      </trkpt>
      <trkpt lat="50.18959" lon="1.60801">
        <ele>6</ele>
        <time>2016-09-10T13:01:55Z</time>
      </trkpt>
      <trkpt lat="50.18961" lon="1.60809">
        <ele>6</ele>
        <time>2016-09-10T13:01:57Z</time>
      </trkpt>
      <trkpt lat="50.18963" lon="1.60816">
        <ele>6</ele>
        <time>2016-09-10T13:01:59Z</time>
      </trkpt>
      <trkpt lat="50.18965" lon="1.60823">
        <ele>6</ele>
        <time>2016-09-10T13:02:01Z</time>
      </trkpt>
      <trkpt lat="50.18966" lon="1.60831">
        <ele>6</ele>
        <time>2016-09-10T13:02:03Z</time>
      </trkpt>
      <trkpt lat="50.18966" lon="1.60839">
        <ele>7</ele>
        <time>2016-09-10T13:02:05Z</time>
      </trkpt>
      <trkpt lat="50.18967" lon="1.60848">
        <ele>7</ele>
        <time>2016-09-10T13:02:07Z</time>
      </trkpt>
      <trkpt lat="50.18968" lon="1.60856">
        <ele>7</ele>
        <time>2016-09-10T13:02:09Z</time>
      </trkpt>
      <trkpt lat="50.18968" lon="1.60864">
        <ele>7</ele>
        <time>2016-09-10T13:02:11Z</time>
      </trkpt>
      <trkpt lat="50.18969" lon="1.60873">
        <ele>8</ele>
        <time>2016-09-10T13:02:13Z</time>
      </trkpt>
      <trkpt lat="50.1897" lon="1.60882">
        <ele>8</ele>
        <time>2016-09-10T13:02:15Z</time>
      </trkpt>
      <trkpt lat="50.18971" lon="1.60891">
        <ele>8</ele>
        <time>2016-09-10T13:02:17Z</time>
      </trkpt>
      <trkpt lat="50.18971" lon="1.609">
        <ele>8</ele>
        <time>2016-09-10T13:02:19Z</time>
      </trkpt>
      <trkpt lat="50.18971" lon="1.60909">
        <ele>8</ele>
        <time>2016-09-10T13:02:21Z</time>
      </trkpt>
      <trkpt lat="50.18972" lon="1.60917">
        <ele>9</ele>
        <time>2016-09-10T13:02:23Z</time>
      </trkpt>
      <trkpt lat="50.18972" lon="1.60926">
        <ele>9</ele>
        <time>2016-09-10T13:02:25Z</time>
      </trkpt>
      <trkpt lat="50.18973" lon="1.60934">
        <ele>9</ele>
        <time>2016-09-10T13:02:27Z</time>
      </trkpt>
      <trkpt lat="50.18974" lon="1.60943">
        <ele>9</ele>
        <time>2016-09-10T13:02:29Z</time>
      </trkpt>
      <trkpt lat="50.18974" lon="1.60951">
        <ele>10</ele>
        <time>2016-09-10T13:02:31Z</time>
      </trkpt>
      <trkpt lat="50.18975" lon="1.60959">
        <ele>10</ele>
        <time>2016-09-10T13:02:33Z</time>
      </trkpt>
      <trkpt lat="50.18976" lon="1.60967">
        <ele>10</ele>
        <time>2016-09-10T13:02:35Z</time>
      </trkpt>
      <trkpt lat="50.18977" lon="1.60975">
        <ele>10</ele>
        <time>2016-09-10T13:02:37Z</time>
      </trkpt>
      <trkpt lat="50.1898" lon="1.60982">
        <ele>10</ele>
        <time>2016-09-10T13:02:39Z</time>
      </trkpt>
      <trkpt lat="50.18983" lon="1.60989">
        <ele>10</ele>
        <time>2016-09-10T13:02:41Z</time>
      </trkpt>
      <trkpt lat="50.18986" lon="1.60996">
        <ele>10</ele>
        <time>2016-09-10T13:02:43Z</time>
      </trkpt>
      <trkpt lat="50.18989" lon="1.61003">
        <ele>10</ele>
        <time>2016-09-10T13:02:45Z</time>
      </trkpt>
      <trkpt lat="50.18992" lon="1.61009">
        <ele>10</ele>
        <time>2016-09-10T13:02:47Z</time>
      </trkpt>
      <trkpt lat="50.18995" lon="1.61016">
        <ele>10</ele>
        <time>2016-09-10T13:02:49Z</time>
      </trkpt>
      <trkpt lat="50.18998" lon="1.61023">
        <ele>11</ele>
        <time>2016-09-10T13:02:51Z</time>
      </trkpt>
      <trkpt lat="50.19001" lon="1.6103">
        <ele>7</ele>
        <time>2016-09-10T13:02:53Z</time>
      </trkpt>
      <trkpt lat="50.19004" lon="1.61037">
        <ele>7</ele>
        <time>2016-09-10T13:02:55Z</time>
      </trkpt>
      <trkpt lat="50.19007" lon="1.61045">
        <ele>7</ele>
        <time>2016-09-10T13:02:57Z</time>
      </trkpt>
      <trkpt lat="50.1901" lon="1.61052">
        <ele>7</ele>
        <time>2016-09-10T13:02:59Z</time>
      </trkpt>
      <trkpt lat="50.19013" lon="1.61059">
        <ele>7</ele>
        <time>2016-09-10T13:03:01Z</time>
      </trkpt>
      <trkpt lat="50.19019" lon="1.61061">
        <ele>7</ele>
        <time>2016-09-10T13:03:15Z</time>
      </trkpt>
      <trkpt lat="50.19023" lon="1.61058">
        <ele>7</ele>
        <time>2016-09-10T13:03:17Z</time>
      </trkpt>
      <trkpt lat="50.19029" lon="1.61055">
        <ele>7</ele>
        <time>2016-09-10T13:03:19Z</time>
      </trkpt>
      <trkpt lat="50.19033" lon="1.61053">
        <ele>6</ele>
        <time>2016-09-10T13:03:21Z</time>
      </trkpt>
      <trkpt lat="50.19038" lon="1.61052">
        <ele>6</ele>
        <time>2016-09-10T13:03:23Z</time>
      </trkpt>
      <trkpt lat="50.19045" lon="1.61054">
        <ele>6</ele>
        <time>2016-09-10T13:03:27Z</time>
      </trkpt>
      <trkpt lat="50.19053" lon="1.6106">
        <ele>6</ele>
        <time>2016-09-10T13:03:31Z</time>
      </trkpt>
      <trkpt lat="50.19059" lon="1.61067">
        <ele>5</ele>
        <time>2016-09-10T13:03:35Z</time>
      </trkpt>
      <trkpt lat="50.19065" lon="1.61075">
        <ele>5</ele>
        <time>2016-09-10T13:03:39Z</time>
      </trkpt>
      <trkpt lat="50.19071" lon="1.61084">
        <ele>5</ele>
        <time>2016-09-10T13:03:43Z</time>
      </trkpt>
      <trkpt lat="50.19074" lon="1.61092">
        <ele>5</ele>
        <time>2016-09-10T13:04:05Z</time>
      </trkpt>
      <trkpt lat="50.19078" lon="1.61103">
        <ele>5</ele>
        <time>2016-09-10T13:04:09Z</time>
      </trkpt>
      <trkpt lat="50.19082" lon="1.61111">
        <ele>6</ele>
        <time>2016-09-10T13:04:11Z</time>
      </trkpt>
      <trkpt lat="50.19085" lon="1.6112">
        <ele>3</ele>
        <time>2016-09-10T13:04:13Z</time>
      </trkpt>
      <trkpt lat="50.19088" lon="1.61131">
        <ele>4</ele>
        <time>2016-09-10T13:04:15Z</time>
      </trkpt>
      <trkpt lat="50.19092" lon="1.61141">
        <ele>4</ele>
        <time>2016-09-10T13:04:17Z</time>
      </trkpt>
      <trkpt lat="50.19096" lon="1.61152">
        <ele>4</ele>
        <time>2016-09-10T13:04:19Z</time>
      </trkpt>
      <trkpt lat="50.191" lon="1.61163">
        <ele>4</ele>
        <time>2016-09-10T13:04:21Z</time>
      </trkpt>
      <trkpt lat="50.19104" lon="1.61174">
        <ele>4</ele>
        <time>2016-09-10T13:04:23Z</time>
      </trkpt>
      <trkpt lat="50.1911" lon="1.61192">
        <ele>4</ele>
        <time>2016-09-10T13:04:25Z</time>
      </trkpt>
      <trkpt lat="50.19115" lon="1.61204">
        <ele>4</ele>
        <time>2016-09-10T13:04:27Z</time>
      </trkpt>
      <trkpt lat="50.1912" lon="1.61217">
        <ele>4</ele>
        <time>2016-09-10T13:04:29Z</time>
      </trkpt>
      <trkpt lat="50.19123" lon="1.61232">
        <ele>4</ele>
        <time>2016-09-10T13:04:31Z</time>
      </trkpt>
      <trkpt lat="50.19125" lon="1.61241">
        <ele>4</ele>
        <time>2016-09-10T13:04:33Z</time>
      </trkpt>
      <trkpt lat="50.19129" lon="1.61251">
        <ele>4</ele>
        <time>2016-09-10T13:04:35Z</time>
      </trkpt>
      <trkpt lat="50.19134" lon="1.6126">
        <ele>4</ele>
        <time>2016-09-10T13:04:37Z</time>
      </trkpt>
      <trkpt lat="50.19197" lon="1.61375">
        <ele>3</ele>
        <time>2016-09-10T13:05:07Z</time>
      </trkpt>
      <trkpt lat="50.19193" lon="1.61385">
        <ele>3</ele>
        <time>2016-09-10T13:05:11Z</time>
      </trkpt>
      <trkpt lat="50.19194" lon="1.61398">
        <ele>3</ele>
        <time>2016-09-10T13:05:15Z</time>
      </trkpt>
      <trkpt lat="50.19193" lon="1.61406">
        <ele>3</ele>
        <time>2016-09-10T13:05:17Z</time>
      </trkpt>
      <trkpt lat="50.19189" lon="1.6141">
        <ele>3</ele>
        <time>2016-09-10T13:05:21Z</time>
      </trkpt>
      <trkpt lat="50.19184" lon="1.6142">
        <ele>3</ele>
        <time>2016-09-10T13:05:25Z</time>
      </trkpt>
      <trkpt lat="50.19184" lon="1.61432">
        <ele>3</ele>
        <time>2016-09-10T13:05:29Z</time>
      </trkpt>
      <trkpt lat="50.19183" lon="1.61445">
        <ele>3</ele>
        <time>2016-09-10T13:05:33Z</time>
      </trkpt>
      <trkpt lat="50.19183" lon="1.61459">
        <ele>3</ele>
        <time>2016-09-10T13:05:37Z</time>
      </trkpt>
      <trkpt lat="50.19184" lon="1.61466">
        <ele>3</ele>
        <time>2016-09-10T13:05:39Z</time>
      </trkpt>
      <trkpt lat="50.19184" lon="1.61473">
        <ele>3</ele>
        <time>2016-09-10T13:05:41Z</time>
      </trkpt>
      <trkpt lat="50.19183" lon="1.61486">
        <ele>3</ele>
        <time>2016-09-10T13:05:45Z</time>
      </trkpt>
      <trkpt lat="50.19181" lon="1.61495">
        <ele>3</ele>
        <time>2016-09-10T13:05:49Z</time>
      </trkpt>
      <trkpt lat="50.19177" lon="1.61503">
        <ele>3</ele>
        <time>2016-09-10T13:05:53Z</time>
      </trkpt>
      <trkpt lat="50.19174" lon="1.61513">
        <ele>3</ele>
        <time>2016-09-10T13:05:57Z</time>
      </trkpt>
      <trkpt lat="50.19174" lon="1.61528">
        <ele>3</ele>
        <time>2016-09-10T13:06:01Z</time>
      </trkpt>
      <trkpt lat="50.19175" lon="1.61539">
        <ele>3</ele>
        <time>2016-09-10T13:06:03Z</time>
      </trkpt>
      <trkpt lat="50.19174" lon="1.61549">
        <ele>3</ele>
        <time>2016-09-10T13:06:05Z</time>
      </trkpt>
      <trkpt lat="50.19174" lon="1.61559">
        <ele>3</ele>
        <time>2016-09-10T13:06:07Z</time>
      </trkpt>
      <trkpt lat="50.19173" lon="1.61568">
        <ele>3</ele>
        <time>2016-09-10T13:06:09Z</time>
      </trkpt>
      <trkpt lat="50.19172" lon="1.61578">
        <ele>3</ele>
        <time>2016-09-10T13:06:11Z</time>
      </trkpt>
      <trkpt lat="50.19171" lon="1.61588">
        <ele>3</ele>
        <time>2016-09-10T13:06:13Z</time>
      </trkpt>
      <trkpt lat="50.1917" lon="1.61598">
        <ele>3</ele>
        <time>2016-09-10T13:06:15Z</time>
      </trkpt>
      <trkpt lat="50.19168" lon="1.61607">
        <ele>3</ele>
        <time>2016-09-10T13:06:17Z</time>
      </trkpt>
      <trkpt lat="50.19167" lon="1.61617">
        <ele>3</ele>
        <time>2016-09-10T13:06:19Z</time>
      </trkpt>
      <trkpt lat="50.19166" lon="1.61626">
        <ele>3</ele>
        <time>2016-09-10T13:06:21Z</time>
      </trkpt>
      <trkpt lat="50.19166" lon="1.61635">
        <ele>3</ele>
        <time>2016-09-10T13:06:23Z</time>
      </trkpt>
      <trkpt lat="50.19165" lon="1.61644">
        <ele>3</ele>
        <time>2016-09-10T13:06:25Z</time>
      </trkpt>
      <trkpt lat="50.19165" lon="1.61653">
        <ele>2</ele>
        <time>2016-09-10T13:06:27Z</time>
      </trkpt>
      <trkpt lat="50.19163" lon="1.61662">
        <ele>2</ele>
        <time>2016-09-10T13:06:29Z</time>
      </trkpt>
      <trkpt lat="50.19164" lon="1.61671">
        <ele>2</ele>
        <time>2016-09-10T13:06:31Z</time>
      </trkpt>
      <trkpt lat="50.19166" lon="1.6168">
        <ele>2</ele>
        <time>2016-09-10T13:06:33Z</time>
      </trkpt>
      <trkpt lat="50.19169" lon="1.61689">
        <ele>2</ele>
        <time>2016-09-10T13:06:35Z</time>
      </trkpt>
      <trkpt lat="50.19172" lon="1.61698">
        <ele>2</ele>
        <time>2016-09-10T13:06:37Z</time>
      </trkpt>
      <trkpt lat="50.19174" lon="1.61706">
        <ele>2</ele>
        <time>2016-09-10T13:06:39Z</time>
      </trkpt>
      <trkpt lat="50.19176" lon="1.61714">
        <ele>2</ele>
        <time>2016-09-10T13:06:41Z</time>
      </trkpt>
      <trkpt lat="50.19176" lon="1.61723">
        <ele>2</ele>
        <time>2016-09-10T13:06:43Z</time>
      </trkpt>
      <trkpt lat="50.19174" lon="1.61733">
        <ele>2</ele>
        <time>2016-09-10T13:06:45Z</time>
      </trkpt>
      <trkpt lat="50.19173" lon="1.61742">
        <ele>2</ele>
        <time>2016-09-10T13:06:47Z</time>
      </trkpt>
      <trkpt lat="50.19171" lon="1.61751">
        <ele>2</ele>
        <time>2016-09-10T13:06:49Z</time>
      </trkpt>
      <trkpt lat="50.19169" lon="1.61761">
        <ele>2</ele>
        <time>2016-09-10T13:06:51Z</time>
      </trkpt>
      <trkpt lat="50.19167" lon="1.61769">
        <ele>2</ele>
        <time>2016-09-10T13:06:53Z</time>
      </trkpt>
      <trkpt lat="50.19164" lon="1.61777">
        <ele>2</ele>
        <time>2016-09-10T13:06:55Z</time>
      </trkpt>
      <trkpt lat="50.19162" lon="1.61784">
        <ele>2</ele>
        <time>2016-09-10T13:06:57Z</time>
      </trkpt>
      <trkpt lat="50.19164" lon="1.61793">
        <ele>2</ele>
        <time>2016-09-10T13:07:03Z</time>
      </trkpt>
      <trkpt lat="50.19172" lon="1.61791">
        <ele>2</ele>
        <time>2016-09-10T13:07:07Z</time>
      </trkpt>
      <trkpt lat="50.19179" lon="1.61793">
        <ele>1</ele>
        <time>2016-09-10T13:07:11Z</time>
      </trkpt>
      <trkpt lat="50.19184" lon="1.61793">
        <ele>1</ele>
        <time>2016-09-10T13:08:03Z</time>
      </trkpt>
      <trkpt lat="50.19181" lon="1.61802">
        <ele>1</ele>
        <time>2016-09-10T13:08:09Z</time>
      </trkpt>
      <trkpt lat="50.19177" lon="1.61805">
        <ele>1</ele>
        <time>2016-09-10T13:08:13Z</time>
      </trkpt>
      <trkpt lat="50.19172" lon="1.61808">
        <ele>1</ele>
        <time>2016-09-10T13:08:25Z</time>
      </trkpt>
      <trkpt lat="50.19167" lon="1.61811">
        <ele>1</ele>
        <time>2016-09-10T13:08:31Z</time>
      </trkpt>
      <trkpt lat="50.19161" lon="1.61814">
        <ele>2</ele>
        <time>2016-09-10T13:08:37Z</time>
      </trkpt>
      <trkpt lat="50.19157" lon="1.61816">
        <ele>2</ele>
        <time>2016-09-10T13:08:41Z</time>
      </trkpt>
      <trkpt lat="50.19152" lon="1.61818">
        <ele>2</ele>
        <time>2016-09-10T13:08:45Z</time>
      </trkpt>
      <trkpt lat="50.19146" lon="1.61821">
        <ele>2</ele>
        <time>2016-09-10T13:08:51Z</time>
      </trkpt>
      <trkpt lat="50.19142" lon="1.61826">
        <ele>2</ele>
        <time>2016-09-10T13:08:57Z</time>
      </trkpt>
      <trkpt lat="50.1914" lon="1.61833">
        <ele>2</ele>
        <time>2016-09-10T13:09:01Z</time>
      </trkpt>
      <trkpt lat="50.19136" lon="1.61845">
        <ele>2</ele>
        <time>2016-09-10T13:09:05Z</time>
      </trkpt>
      <trkpt lat="50.19134" lon="1.61852">
        <ele>2</ele>
        <time>2016-09-10T13:09:07Z</time>
      </trkpt>
      <trkpt lat="50.19133" lon="1.61861">
        <ele>2</ele>
        <time>2016-09-10T13:09:09Z</time>
      </trkpt>
      <trkpt lat="50.19132" lon="1.6187">
        <ele>2</ele>
        <time>2016-09-10T13:09:11Z</time>
      </trkpt>
      <trkpt lat="50.1913" lon="1.6188">
        <ele>2</ele>
        <time>2016-09-10T13:09:13Z</time>
      </trkpt>
      <trkpt lat="50.19129" lon="1.6189">
        <ele>2</ele>
        <time>2016-09-10T13:09:15Z</time>
      </trkpt>
      <trkpt lat="50.19128" lon="1.61901">
        <ele>2</ele>
        <time>2016-09-10T13:09:17Z</time>
      </trkpt>
      <trkpt lat="50.19126" lon="1.61911">
        <ele>2</ele>
        <time>2016-09-10T13:09:19Z</time>
      </trkpt>
      <trkpt lat="50.19126" lon="1.6192">
        <ele>2</ele>
        <time>2016-09-10T13:09:21Z</time>
      </trkpt>
      <trkpt lat="50.19125" lon="1.61929">
        <ele>2</ele>
        <time>2016-09-10T13:09:23Z</time>
      </trkpt>
      <trkpt lat="50.19125" lon="1.61939">
        <ele>2</ele>
        <time>2016-09-10T13:09:25Z</time>
      </trkpt>
      <trkpt lat="50.19125" lon="1.61948">
        <ele>2</ele>
        <time>2016-09-10T13:09:27Z</time>
      </trkpt>
      <trkpt lat="50.19125" lon="1.61957">
        <ele>2</ele>
        <time>2016-09-10T13:09:29Z</time>
      </trkpt>
      <trkpt lat="50.19125" lon="1.61967">
        <ele>2</ele>
        <time>2016-09-10T13:09:31Z</time>
      </trkpt>
      <trkpt lat="50.19124" lon="1.61977">
        <ele>2</ele>
        <time>2016-09-10T13:09:33Z</time>
      </trkpt>
      <trkpt lat="50.19124" lon="1.61986">
        <ele>2</ele>
        <time>2016-09-10T13:09:35Z</time>
      </trkpt>
      <trkpt lat="50.19123" lon="1.61993">
        <ele>2</ele>
        <time>2016-09-10T13:09:37Z</time>
      </trkpt>
      <trkpt lat="50.19122" lon="1.62001">
        <ele>2</ele>
        <time>2016-09-10T13:09:39Z</time>
      </trkpt>
      <trkpt lat="50.1912" lon="1.62059">
        <ele>2</ele>
        <time>2016-09-10T13:10:09Z</time>
      </trkpt>
      <trkpt lat="50.19115" lon="1.62077">
        <ele>2</ele>
        <time>2016-09-10T13:10:13Z</time>
      </trkpt>
      <trkpt lat="50.19114" lon="1.62087">
        <ele>2</ele>
        <time>2016-09-10T13:10:15Z</time>
      </trkpt>
      <trkpt lat="50.19112" lon="1.62097">
        <ele>2</ele>
        <time>2016-09-10T13:10:17Z</time>
      </trkpt>
      <trkpt lat="50.19111" lon="1.62107">
        <ele>2</ele>
        <time>2016-09-10T13:10:19Z</time>
      </trkpt>
      <trkpt lat="50.1911" lon="1.62116">
        <ele>2</ele>
        <time>2016-09-10T13:10:21Z</time>
      </trkpt>
      <trkpt lat="50.19108" lon="1.62126">
        <ele>1</ele>
        <time>2016-09-10T13:10:23Z</time>
      </trkpt>
      <trkpt lat="50.19106" lon="1.62136">
        <ele>1</ele>
        <time>2016-09-10T13:10:25Z</time>
      </trkpt>
      <trkpt lat="50.19105" lon="1.62146">
        <ele>1</ele>
        <time>2016-09-10T13:10:27Z</time>
      </trkpt>
      <trkpt lat="50.19103" lon="1.62155">
        <ele>1</ele>
        <time>2016-09-10T13:10:29Z</time>
      </trkpt>
      <trkpt lat="50.191" lon="1.62165">
        <ele>1</ele>
        <time>2016-09-10T13:10:31Z</time>
      </trkpt>
      <trkpt lat="50.19098" lon="1.62174">
        <ele>1</ele>
        <time>2016-09-10T13:10:33Z</time>
      </trkpt>
      <trkpt lat="50.19096" lon="1.62183">
        <ele>1</ele>
        <time>2016-09-10T13:10:35Z</time>
      </trkpt>
      <trkpt lat="50.19094" lon="1.62192">
        <ele>1</ele>
        <time>2016-09-10T13:10:37Z</time>
      </trkpt>
      <trkpt lat="50.19093" lon="1.62202">
        <ele>1</ele>
        <time>2016-09-10T13:10:39Z</time>
      </trkpt>
      <trkpt lat="50.19091" lon="1.62211">
        <ele>1</ele>
        <time>2016-09-10T13:10:41Z</time>
      </trkpt>
      <trkpt lat="50.1909" lon="1.62221">
        <ele>1</ele>
        <time>2016-09-10T13:10:43Z</time>
      </trkpt>
      <trkpt lat="50.19088" lon="1.62231">
        <ele>1</ele>
        <time>2016-09-10T13:10:45Z</time>
      </trkpt>
      <trkpt lat="50.19088" lon="1.62241">
        <ele>1</ele>
        <time>2016-09-10T13:10:47Z</time>
      </trkpt>
      <trkpt lat="50.19088" lon="1.6225">
        <ele>1</ele>
        <time>2016-09-10T13:10:49Z</time>
      </trkpt>
      <trkpt lat="50.19087" lon="1.62261">
        <ele>1</ele>
        <time>2016-09-10T13:10:51Z</time>
      </trkpt>
      <trkpt lat="50.19085" lon="1.6227">
        <ele>1</ele>
        <time>2016-09-10T13:10:53Z</time>
      </trkpt>
      <trkpt lat="50.19083" lon="1.62279">
        <ele>2</ele>
        <time>2016-09-10T13:10:55Z</time>
      </trkpt>
      <trkpt lat="50.19081" lon="1.62288">
        <ele>2</ele>
        <time>2016-09-10T13:10:57Z</time>
      </trkpt>
      <trkpt lat="50.19078" lon="1.62297">
        <ele>2</ele>
        <time>2016-09-10T13:10:59Z</time>
      </trkpt>
      <trkpt lat="50.19074" lon="1.62306">
        <ele>2</ele>
        <time>2016-09-10T13:11:01Z</time>
      </trkpt>
      <trkpt lat="50.19073" lon="1.62316">
        <ele>2</ele>
        <time>2016-09-10T13:11:03Z</time>
      </trkpt>
      <trkpt lat="50.19072" lon="1.62327">
        <ele>1</ele>
        <time>2016-09-10T13:11:05Z</time>
      </trkpt>
      <trkpt lat="50.19072" lon="1.62338">
        <ele>2</ele>
        <time>2016-09-10T13:11:07Z</time>
      </trkpt>
      <trkpt lat="50.19071" lon="1.62349">
        <ele>2</ele>
        <time>2016-09-10T13:11:09Z</time>
      </trkpt>
      <trkpt lat="50.19069" lon="1.6236">
        <ele>2</ele>
        <time>2016-09-10T13:11:11Z</time>
      </trkpt>
      <trkpt lat="50.19067" lon="1.6237">
        <ele>2</ele>
        <time>2016-09-10T13:11:13Z</time>
      </trkpt>
      <trkpt lat="50.19066" lon="1.6238">
        <ele>2</ele>
        <time>2016-09-10T13:11:15Z</time>
      </trkpt>
      <trkpt lat="50.19064" lon="1.6239">
        <ele>2</ele>
        <time>2016-09-10T13:11:17Z</time>
      </trkpt>
      <trkpt lat="50.19063" lon="1.624">
        <ele>2</ele>
        <time>2016-09-10T13:11:19Z</time>
      </trkpt>
      <trkpt lat="50.19061" lon="1.62409">
        <ele>2</ele>
        <time>2016-09-10T13:11:21Z</time>
      </trkpt>
      <trkpt lat="50.19059" lon="1.62419">
        <ele>3</ele>
        <time>2016-09-10T13:11:23Z</time>
      </trkpt>
      <trkpt lat="50.19057" lon="1.62428">
        <ele>3</ele>
        <time>2016-09-10T13:11:25Z</time>
      </trkpt>
      <trkpt lat="50.19055" lon="1.62437">
        <ele>3</ele>
        <time>2016-09-10T13:11:27Z</time>
      </trkpt>
      <trkpt lat="50.19052" lon="1.62446">
        <ele>3</ele>
        <time>2016-09-10T13:11:29Z</time>
      </trkpt>
      <trkpt lat="50.19051" lon="1.62455">
        <ele>3</ele>
        <time>2016-09-10T13:11:31Z</time>
      </trkpt>
      <trkpt lat="50.19049" lon="1.62465">
        <ele>3</ele>
        <time>2016-09-10T13:11:33Z</time>
      </trkpt>
      <trkpt lat="50.19046" lon="1.62474">
        <ele>4</ele>
        <time>2016-09-10T13:11:35Z</time>
      </trkpt>
      <trkpt lat="50.19042" lon="1.62482">
        <ele>4</ele>
        <time>2016-09-10T13:11:37Z</time>
      </trkpt>
      <trkpt lat="50.1904" lon="1.6249">
        <ele>4</ele>
        <time>2016-09-10T13:11:39Z</time>
      </trkpt>
      <trkpt lat="50.19038" lon="1.62499">
        <ele>4</ele>
        <time>2016-09-10T13:11:41Z</time>
      </trkpt>
      <trkpt lat="50.19037" lon="1.62508">
        <ele>4</ele>
        <time>2016-09-10T13:11:43Z</time>
      </trkpt>
      <trkpt lat="50.19036" lon="1.62517">
        <ele>4</ele>
        <time>2016-09-10T13:11:45Z</time>
      </trkpt>
      <trkpt lat="50.19036" lon="1.62527">
        <ele>4</ele>
        <time>2016-09-10T13:11:47Z</time>
      </trkpt>
      <trkpt lat="50.19037" lon="1.62536">
        <ele>4</ele>
        <time>2016-09-10T13:11:49Z</time>
      </trkpt>
      <trkpt lat="50.19038" lon="1.62546">
        <ele>4</ele>
        <time>2016-09-10T13:11:51Z</time>
      </trkpt>
      <trkpt lat="50.19038" lon="1.62554">
        <ele>4</ele>
        <time>2016-09-10T13:11:53Z</time>
      </trkpt>
      <trkpt lat="50.19039" lon="1.62563">
        <ele>4</ele>
        <time>2016-09-10T13:11:55Z</time>
      </trkpt>
      <trkpt lat="50.1904" lon="1.62572">
        <ele>4</ele>
        <time>2016-09-10T13:11:57Z</time>
      </trkpt>
      <trkpt lat="50.19039" lon="1.6258">
        <ele>4</ele>
        <time>2016-09-10T13:11:59Z</time>
      </trkpt>
      <trkpt lat="50.19038" lon="1.62588">
        <ele>4</ele>
        <time>2016-09-10T13:12:01Z</time>
      </trkpt>
      <trkpt lat="50.19036" lon="1.62596">
        <ele>4</ele>
        <time>2016-09-10T13:12:03Z</time>
      </trkpt>
      <trkpt lat="50.19035" lon="1.62604">
        <ele>4</ele>
        <time>2016-09-10T13:12:05Z</time>
      </trkpt>
      <trkpt lat="50.19033" lon="1.62612">
        <ele>4</ele>
        <time>2016-09-10T13:12:07Z</time>
      </trkpt>
      <trkpt lat="50.19031" lon="1.62619">
        <ele>4</ele>
        <time>2016-09-10T13:12:09Z</time>
      </trkpt>
      <trkpt lat="50.1903" lon="1.62626">
        <ele>5</ele>
        <time>2016-09-10T13:12:11Z</time>
      </trkpt>
      <trkpt lat="50.19029" lon="1.62633">
        <ele>5</ele>
        <time>2016-09-10T13:12:13Z</time>
      </trkpt>
      <trkpt lat="50.19028" lon="1.6264">
        <ele>5</ele>
        <time>2016-09-10T13:12:15Z</time>
      </trkpt>
      <trkpt lat="50.19028" lon="1.62654">
        <ele>5</ele>
        <time>2016-09-10T13:12:19Z</time>
      </trkpt>
      <trkpt lat="50.19025" lon="1.6266">
        <ele>5</ele>
        <time>2016-09-10T13:12:21Z</time>
      </trkpt>
      <trkpt lat="50.19021" lon="1.62663">
        <ele>5</ele>
        <time>2016-09-10T13:12:23Z</time>
      </trkpt>
      <trkpt lat="50.19016" lon="1.62661">
        <ele>5</ele>
        <time>2016-09-10T13:12:25Z</time>
      </trkpt>
      <trkpt lat="50.1901" lon="1.62657">
        <ele>5</ele>
        <time>2016-09-10T13:12:27Z</time>
      </trkpt>
      <trkpt lat="50.19005" lon="1.62653">
        <ele>5</ele>
        <time>2016-09-10T13:12:29Z</time>
      </trkpt>
      <trkpt lat="50.18999" lon="1.62649">
        <ele>9</ele>
        <time>2016-09-10T13:12:31Z</time>
      </trkpt>
      <trkpt lat="50.18994" lon="1.62645">
        <ele>9</ele>
        <time>2016-09-10T13:12:33Z</time>
      </trkpt>
      <trkpt lat="50.18988" lon="1.6264">
        <ele>10</ele>
        <time>2016-09-10T13:12:35Z</time>
      </trkpt>
      <trkpt lat="50.18983" lon="1.62635">
        <ele>10</ele>
        <time>2016-09-10T13:12:37Z</time>
      </trkpt>
      <trkpt lat="50.18977" lon="1.62632">
        <ele>11</ele>
        <time>2016-09-10T13:12:39Z</time>
      </trkpt>
      <trkpt lat="50.18971" lon="1.6263">
        <ele>11</ele>
        <time>2016-09-10T13:12:41Z</time>
      </trkpt>
      <trkpt lat="50.18964" lon="1.6263">
        <ele>12</ele>
        <time>2016-09-10T13:12:43Z</time>
      </trkpt>
      <trkpt lat="50.18958" lon="1.62631">
        <ele>12</ele>
        <time>2016-09-10T13:12:45Z</time>
      </trkpt>
      <trkpt lat="50.18951" lon="1.62631">
        <ele>13</ele>
        <time>2016-09-10T13:12:47Z</time>
      </trkpt>
      <trkpt lat="50.18945" lon="1.6263">
        <ele>13</ele>
        <time>2016-09-10T13:12:49Z</time>
      </trkpt>
      <trkpt lat="50.18939" lon="1.6263">
        <ele>14</ele>
        <time>2016-09-10T13:12:51Z</time>
      </trkpt>
      <trkpt lat="50.18935" lon="1.62636">
        <ele>14</ele>
        <time>2016-09-10T13:12:53Z</time>
      </trkpt>
      <trkpt lat="50.18936" lon="1.62645">
        <ele>14</ele>
        <time>2016-09-10T13:12:55Z</time>
      </trkpt>
      <trkpt lat="50.1894" lon="1.6265">
        <ele>14</ele>
        <time>2016-09-10T13:12:57Z</time>
      </trkpt>
      <trkpt lat="50.18945" lon="1.62656">
        <ele>14</ele>
        <time>2016-09-10T13:13:01Z</time>
      </trkpt>
      <trkpt lat="50.18948" lon="1.6265">
        <ele>13</ele>
        <time>2016-09-10T13:13:07Z</time>
      </trkpt>
      <trkpt lat="50.18945" lon="1.62655">
        <ele>14</ele>
        <time>2016-09-10T13:15:49Z</time>
      </trkpt>
      <trkpt lat="50.18941" lon="1.62662">
        <ele>14</ele>
        <time>2016-09-10T13:16:21Z</time>
      </trkpt>
      <trkpt lat="50.18937" lon="1.62668">
        <ele>14</ele>
        <time>2016-09-10T13:16:27Z</time>
      </trkpt>
      <trkpt lat="50.18932" lon="1.62668">
        <ele>15</ele>
        <time>2016-09-10T13:16:33Z</time>
      </trkpt>
      <trkpt lat="50.18926" lon="1.62668">
        <ele>16</ele>
        <time>2016-09-10T13:16:53Z</time>
      </trkpt>
      <trkpt lat="50.18922" lon="1.62672">
        <ele>16</ele>
        <time>2016-09-10T13:16:57Z</time>
      </trkpt>
      <trkpt lat="50.18918" lon="1.62676">
        <ele>16</ele>
        <time>2016-09-10T13:17:01Z</time>
      </trkpt>
      <trkpt lat="50.18913" lon="1.62678">
        <ele>20</ele>
        <time>2016-09-10T13:17:05Z</time>
      </trkpt>
      <trkpt lat="50.18908" lon="1.62679">
        <ele>21</ele>
        <time>2016-09-10T13:17:11Z</time>
      </trkpt>
      <trkpt lat="50.18908" lon="1.62688">
        <ele>21</ele>
        <time>2016-09-10T13:17:23Z</time>
      </trkpt>
      <trkpt lat="50.18903" lon="1.62692">
        <ele>22</ele>
        <time>2016-09-10T13:17:45Z</time>
      </trkpt>
      <trkpt lat="50.189" lon="1.62685">
        <ele>22</ele>
        <time>2016-09-10T13:18:25Z</time>
      </trkpt>
      <trkpt lat="50.18899" lon="1.62678">
        <ele>22</ele>
        <time>2016-09-10T13:18:31Z</time>
      </trkpt>
      <trkpt lat="50.189" lon="1.6267">
        <ele>21</ele>
        <time>2016-09-10T13:18:39Z</time>
      </trkpt>
      <trkpt lat="50.189" lon="1.62662">
        <ele>22</ele>
        <time>2016-09-10T13:18:47Z</time>
      </trkpt>
      <trkpt lat="50.18894" lon="1.62666">
        <ele>23</ele>
        <time>2016-09-10T13:18:55Z</time>
      </trkpt>
      <trkpt lat="50.1889" lon="1.62671">
        <ele>23</ele>
        <time>2016-09-10T13:19:01Z</time>
      </trkpt>
      <trkpt lat="50.18888" lon="1.62678">
        <ele>23</ele>
        <time>2016-09-10T13:19:05Z</time>
      </trkpt>
      <trkpt lat="50.18886" lon="1.62688">
        <ele>23</ele>
        <time>2016-09-10T13:19:11Z</time>
      </trkpt>
      <trkpt lat="50.18884" lon="1.62695">
        <ele>24</ele>
        <time>2016-09-10T13:19:17Z</time>
      </trkpt>
      <trkpt lat="50.18882" lon="1.62711">
        <ele>24</ele>
        <time>2016-09-10T13:19:33Z</time>
      </trkpt>
      <trkpt lat="50.1888" lon="1.62719">
        <ele>24</ele>
        <time>2016-09-10T13:19:41Z</time>
      </trkpt>
      <trkpt lat="50.18874" lon="1.62716">
        <ele>24</ele>
        <time>2016-09-10T13:20:11Z</time>
      </trkpt>
      <trkpt lat="50.1887" lon="1.62718">
        <ele>25</ele>
        <time>2016-09-10T13:20:15Z</time>
      </trkpt>
      <trkpt lat="50.18871" lon="1.62711">
        <ele>25</ele>
        <time>2016-09-10T13:20:33Z</time>
      </trkpt>
      <trkpt lat="50.18871" lon="1.62701">
        <ele>25</ele>
        <time>2016-09-10T13:20:45Z</time>
      </trkpt>
      <trkpt lat="50.18871" lon="1.62692">
        <ele>25</ele>
        <time>2016-09-10T13:20:49Z</time>
      </trkpt>
      <trkpt lat="50.18872" lon="1.62682">
        <ele>25</ele>
        <time>2016-09-10T13:20:53Z</time>
      </trkpt>
      <trkpt lat="50.18872" lon="1.62673">
        <ele>25</ele>
        <time>2016-09-10T13:20:57Z</time>
      </trkpt>
      <trkpt lat="50.18873" lon="1.62664">
        <ele>25</ele>
        <time>2016-09-10T13:21:01Z</time>
      </trkpt>
      <trkpt lat="50.18877" lon="1.62658">
        <ele>25</ele>
        <time>2016-09-10T13:21:05Z</time>
      </trkpt>
      <trkpt lat="50.18882" lon="1.62652">
        <ele>24</ele>
        <time>2016-09-10T13:21:09Z</time>
      </trkpt>
      <trkpt lat="50.18885" lon="1.62644">
        <ele>24</ele>
        <time>2016-09-10T13:21:13Z</time>
      </trkpt>
      <trkpt lat="50.18883" lon="1.62634">
        <ele>25</ele>
        <time>2016-09-10T13:21:17Z</time>
      </trkpt>
      <trkpt lat="50.18886" lon="1.62628">
        <ele>24</ele>
        <time>2016-09-10T13:25:31Z</time>
      </trkpt>
      <trkpt lat="50.18881" lon="1.62624">
        <ele>25</ele>
        <time>2016-09-10T13:26:51Z</time>
      </trkpt>
      <trkpt lat="50.18879" lon="1.62618">
        <ele>25</ele>
        <time>2016-09-10T13:26:57Z</time>
      </trkpt>
      <trkpt lat="50.18875" lon="1.62629">
        <ele>25</ele>
        <time>2016-09-10T13:28:17Z</time>
      </trkpt>
      <trkpt lat="50.18876" lon="1.62639">
        <ele>25</ele>
        <time>2016-09-10T13:28:19Z</time>
      </trkpt>
      <trkpt lat="50.18876" lon="1.6265">
        <ele>25</ele>
        <time>2016-09-10T13:28:21Z</time>
      </trkpt>
      <trkpt lat="50.18876" lon="1.62661">
        <ele>25</ele>
        <time>2016-09-10T13:28:23Z</time>
      </trkpt>
      <trkpt lat="50.18876" lon="1.62671">
        <ele>24</ele>
        <time>2016-09-10T13:28:25Z</time>
      </trkpt>
      <trkpt lat="50.18876" lon="1.62683">
        <ele>24</ele>
        <time>2016-09-10T13:28:27Z</time>
      </trkpt>
      <trkpt lat="50.18876" lon="1.62695">
        <ele>24</ele>
        <time>2016-09-10T13:28:29Z</time>
      </trkpt>
      <trkpt lat="50.18875" lon="1.62707">
        <ele>24</ele>
        <time>2016-09-10T13:28:31Z</time>
      </trkpt>
      <trkpt lat="50.18875" lon="1.62716">
        <ele>24</ele>
        <time>2016-09-10T13:28:33Z</time>
      </trkpt>
      <trkpt lat="50.18873" lon="1.62723">
        <ele>24</ele>
        <time>2016-09-10T13:28:35Z</time>
      </trkpt>
      <trkpt lat="50.18865" lon="1.62716">
        <ele>25</ele>
        <time>2016-09-10T13:28:39Z</time>
      </trkpt>
      <trkpt lat="50.18857" lon="1.62715">
        <ele>26</ele>
        <time>2016-09-10T13:28:43Z</time>
      </trkpt>
      <trkpt lat="50.1885" lon="1.62714">
        <ele>26</ele>
        <time>2016-09-10T13:28:47Z</time>
      </trkpt>
      <trkpt lat="50.18843" lon="1.62717">
        <ele>26</ele>
        <time>2016-09-10T13:28:51Z</time>
      </trkpt>
      <trkpt lat="50.18836" lon="1.6272">
        <ele>27</ele>
        <time>2016-09-10T13:28:55Z</time>
      </trkpt>
      <trkpt lat="50.18829" lon="1.62722">
        <ele>30</ele>
        <time>2016-09-10T13:28:59Z</time>
      </trkpt>
      <trkpt lat="50.18824" lon="1.62723">
        <ele>30</ele>
        <time>2016-09-10T13:29:31Z</time>
      </trkpt>
      <trkpt lat="50.18819" lon="1.62726">
        <ele>30</ele>
        <time>2016-09-10T13:29:35Z</time>
      </trkpt>
      <trkpt lat="50.18813" lon="1.6273">
        <ele>30</ele>
        <time>2016-09-10T13:29:39Z</time>
      </trkpt>
      <trkpt lat="50.18807" lon="1.62735">
        <ele>30</ele>
        <time>2016-09-10T13:29:41Z</time>
      </trkpt>
      <trkpt lat="50.18801" lon="1.62738">
        <ele>30</ele>
        <time>2016-09-10T13:29:43Z</time>
      </trkpt>
      <trkpt lat="50.18796" lon="1.62743">
        <ele>29</ele>
        <time>2016-09-10T13:29:45Z</time>
      </trkpt>
      <trkpt lat="50.18789" lon="1.62748">
        <ele>29</ele>
        <time>2016-09-10T13:29:47Z</time>
      </trkpt>
      <trkpt lat="50.18783" lon="1.62753">
        <ele>27</ele>
        <time>2016-09-10T13:29:49Z</time>
      </trkpt>
      <trkpt lat="50.18776" lon="1.62759">
        <ele>27</ele>
        <time>2016-09-10T13:29:51Z</time>
      </trkpt>
      <trkpt lat="50.1877" lon="1.62766">
        <ele>27</ele>
        <time>2016-09-10T13:29:53Z</time>
      </trkpt>
      <trkpt lat="50.18763" lon="1.62774">
        <ele>27</ele>
        <time>2016-09-10T13:29:55Z</time>
      </trkpt>
      <trkpt lat="50.18757" lon="1.62782">
        <ele>26</ele>
        <time>2016-09-10T13:29:57Z</time>
      </trkpt>
      <trkpt lat="50.1875" lon="1.62788">
        <ele>26</ele>
        <time>2016-09-10T13:29:59Z</time>
      </trkpt>
      <trkpt lat="50.18744" lon="1.62789">
        <ele>22</ele>
        <time>2016-09-10T13:30:01Z</time>
      </trkpt>
      <trkpt lat="50.18741" lon="1.62783">
        <ele>22</ele>
        <time>2016-09-10T13:30:03Z</time>
      </trkpt>
      <trkpt lat="50.18739" lon="1.62776">
        <ele>22</ele>
        <time>2016-09-10T13:30:05Z</time>
      </trkpt>
      <trkpt lat="50.18737" lon="1.62764">
        <ele>23</ele>
        <time>2016-09-10T13:30:09Z</time>
      </trkpt>
      <trkpt lat="50.18732" lon="1.62751">
        <ele>23</ele>
        <time>2016-09-10T13:30:13Z</time>
      </trkpt>
      <trkpt lat="50.18729" lon="1.62746">
        <ele>24</ele>
        <time>2016-09-10T13:30:15Z</time>
      </trkpt>
      <trkpt lat="50.18724" lon="1.62735">
        <ele>23</ele>
        <time>2016-09-10T13:30:19Z</time>
      </trkpt>
      <trkpt lat="50.18719" lon="1.62724">
        <ele>23</ele>
        <time>2016-09-10T13:30:23Z</time>
      </trkpt>
      <trkpt lat="50.18714" lon="1.62713">
        <ele>23</ele>
        <time>2016-09-10T13:30:27Z</time>
      </trkpt>
      <trkpt lat="50.18711" lon="1.62708">
        <ele>22</ele>
        <time>2016-09-10T13:30:29Z</time>
      </trkpt>
      <trkpt lat="50.18708" lon="1.62702">
        <ele>22</ele>
        <time>2016-09-10T13:30:31Z</time>
      </trkpt>
      <trkpt lat="50.18706" lon="1.62695">
        <ele>22</ele>
        <time>2016-09-10T13:30:33Z</time>
      </trkpt>
      <trkpt lat="50.18704" lon="1.62688">
        <ele>22</ele>
        <time>2016-09-10T13:30:35Z</time>
      </trkpt>
      <trkpt lat="50.18702" lon="1.6268">
        <ele>22</ele>
        <time>2016-09-10T13:30:37Z</time>
      </trkpt>
      <trkpt lat="50.18702" lon="1.62671">
        <ele>22</ele>
        <time>2016-09-10T13:30:39Z</time>
      </trkpt>
      <trkpt lat="50.18703" lon="1.62662">
        <ele>23</ele>
        <time>2016-09-10T13:30:41Z</time>
      </trkpt>
      <trkpt lat="50.18703" lon="1.62654">
        <ele>23</ele>
        <time>2016-09-10T13:30:43Z</time>
      </trkpt>
      <trkpt lat="50.18702" lon="1.62647">
        <ele>23</ele>
        <time>2016-09-10T13:30:45Z</time>
      </trkpt>
      <trkpt lat="50.18698" lon="1.62643">
        <ele>23</ele>
        <time>2016-09-10T13:30:47Z</time>
      </trkpt>
      <trkpt lat="50.18693" lon="1.62642">
        <ele>23</ele>
        <time>2016-09-10T13:30:49Z</time>
      </trkpt>
      <trkpt lat="50.18688" lon="1.6264">
        <ele>22</ele>
        <time>2016-09-10T13:30:51Z</time>
      </trkpt>
      <trkpt lat="50.1868" lon="1.62635">
        <ele>22</ele>
        <time>2016-09-10T13:30:55Z</time>
      </trkpt>
      <trkpt lat="50.18679" lon="1.62644">
        <ele>22</ele>
        <time>2016-09-10T13:31:07Z</time>
      </trkpt>
      <trkpt lat="50.18677" lon="1.62653">
        <ele>21</ele>
        <time>2016-09-10T13:31:11Z</time>
      </trkpt>
      <trkpt lat="50.18675" lon="1.62665">
        <ele>19</ele>
        <time>2016-09-10T13:31:15Z</time>
      </trkpt>
      <trkpt lat="50.18673" lon="1.62678">
        <ele>19</ele>
        <time>2016-09-10T13:31:19Z</time>
      </trkpt>
      <trkpt lat="50.18671" lon="1.62691">
        <ele>20</ele>
        <time>2016-09-10T13:31:23Z</time>
      </trkpt>
      <trkpt lat="50.18667" lon="1.62704">
        <ele>20</ele>
        <time>2016-09-10T13:31:27Z</time>
      </trkpt>
      <trkpt lat="50.18665" lon="1.62712">
        <ele>16</ele>
        <time>2016-09-10T13:31:29Z</time>
      </trkpt>
      <trkpt lat="50.18662" lon="1.62721">
        <ele>15</ele>
        <time>2016-09-10T13:31:31Z</time>
      </trkpt>
      <trkpt lat="50.1866" lon="1.62732">
        <ele>15</ele>
        <time>2016-09-10T13:31:33Z</time>
      </trkpt>
      <trkpt lat="50.18657" lon="1.62742">
        <ele>15</ele>
        <time>2016-09-10T13:31:35Z</time>
      </trkpt>
      <trkpt lat="50.18656" lon="1.62749">
        <ele>15</ele>
        <time>2016-09-10T13:31:37Z</time>
      </trkpt>
      <trkpt lat="50.18655" lon="1.62759">
        <ele>15</ele>
        <time>2016-09-10T13:32:51Z</time>
      </trkpt>
      <trkpt lat="50.18652" lon="1.62768">
        <ele>15</ele>
        <time>2016-09-10T13:32:53Z</time>
      </trkpt>
      <trkpt lat="50.18649" lon="1.62775">
        <ele>14</ele>
        <time>2016-09-10T13:32:55Z</time>
      </trkpt>
      <trkpt lat="50.18647" lon="1.62782">
        <ele>14</ele>
        <time>2016-09-10T13:32:57Z</time>
      </trkpt>
      <trkpt lat="50.18645" lon="1.6279">
        <ele>14</ele>
        <time>2016-09-10T13:32:59Z</time>
      </trkpt>
      <trkpt lat="50.18643" lon="1.62797">
        <ele>14</ele>
        <time>2016-09-10T13:33:01Z</time>
      </trkpt>
      <trkpt lat="50.18642" lon="1.62805">
        <ele>14</ele>
        <time>2016-09-10T13:33:03Z</time>
      </trkpt>
      <trkpt lat="50.18644" lon="1.62813">
        <ele>14</ele>
        <time>2016-09-10T13:33:05Z</time>
      </trkpt>
      <trkpt lat="50.18648" lon="1.6282">
        <ele>14</ele>
        <time>2016-09-10T13:33:07Z</time>
      </trkpt>
      <trkpt lat="50.18652" lon="1.62828">
        <ele>14</ele>
        <time>2016-09-10T13:33:09Z</time>
      </trkpt>
      <trkpt lat="50.18657" lon="1.62835">
        <ele>13</ele>
        <time>2016-09-10T13:33:11Z</time>
      </trkpt>
      <trkpt lat="50.18661" lon="1.62843">
        <ele>13</ele>
        <time>2016-09-10T13:33:13Z</time>
      </trkpt>
      <trkpt lat="50.18665" lon="1.6285">
        <ele>13</ele>
        <time>2016-09-10T13:33:15Z</time>
      </trkpt>
      <trkpt lat="50.1867" lon="1.62856">
        <ele>15</ele>
        <time>2016-09-10T13:33:17Z</time>
      </trkpt>
      <trkpt lat="50.18675" lon="1.6286">
        <ele>15</ele>
        <time>2016-09-10T13:33:19Z</time>
      </trkpt>
      <trkpt lat="50.18679" lon="1.62864">
        <ele>15</ele>
        <time>2016-09-10T13:33:21Z</time>
      </trkpt>
      <trkpt lat="50.18683" lon="1.62867">
        <ele>15</ele>
        <time>2016-09-10T13:33:23Z</time>
      </trkpt>
      <trkpt lat="50.18687" lon="1.62873">
        <ele>15</ele>
        <time>2016-09-10T13:33:27Z</time>
      </trkpt>
      <trkpt lat="50.18691" lon="1.6288">
        <ele>15</ele>
        <time>2016-09-10T13:33:33Z</time>
      </trkpt>
      <trkpt lat="50.18686" lon="1.62882">
        <ele>15</ele>
        <time>2016-09-10T13:33:59Z</time>
      </trkpt>
      <trkpt lat="50.18692" lon="1.62886">
        <ele>15</ele>
        <time>2016-09-10T13:34:27Z</time>
      </trkpt>
      <trkpt lat="50.18698" lon="1.6288">
        <ele>16</ele>
        <time>2016-09-10T13:34:31Z</time>
      </trkpt>
      <trkpt lat="50.18699" lon="1.62888">
        <ele>16</ele>
        <time>2016-09-10T13:35:13Z</time>
      </trkpt>
      <trkpt lat="50.18701" lon="1.62894">
        <ele>16</ele>
        <time>2016-09-10T13:36:19Z</time>
      </trkpt>
      <trkpt lat="50.18701" lon="1.62903">
        <ele>16</ele>
        <time>2016-09-10T13:36:39Z</time>
      </trkpt>
      <trkpt lat="50.18706" lon="1.62911">
        <ele>16</ele>
        <time>2016-09-10T13:36:43Z</time>
      </trkpt>
      <trkpt lat="50.1871" lon="1.62918">
        <ele>14</ele>
        <time>2016-09-10T13:36:47Z</time>
      </trkpt>
      <trkpt lat="50.18714" lon="1.62926">
        <ele>14</ele>
        <time>2016-09-10T13:36:51Z</time>
      </trkpt>
      <trkpt lat="50.18717" lon="1.62936">
        <ele>14</ele>
        <time>2016-09-10T13:36:55Z</time>
      </trkpt>
      <trkpt lat="50.18722" lon="1.62945">
        <ele>14</ele>
        <time>2016-09-10T13:36:59Z</time>
      </trkpt>
      <trkpt lat="50.18727" lon="1.62956">
        <ele>14</ele>
        <time>2016-09-10T13:37:03Z</time>
      </trkpt>
      <trkpt lat="50.18731" lon="1.62965">
        <ele>14</ele>
        <time>2016-09-10T13:37:07Z</time>
      </trkpt>
      <trkpt lat="50.18738" lon="1.62973">
        <ele>14</ele>
        <time>2016-09-10T13:37:11Z</time>
      </trkpt>
      <trkpt lat="50.18746" lon="1.62978">
        <ele>14</ele>
        <time>2016-09-10T13:37:15Z</time>
      </trkpt>
      <trkpt lat="50.18751" lon="1.6298">
        <ele>17</ele>
        <time>2016-09-10T13:37:17Z</time>
      </trkpt>
      <trkpt lat="50.18755" lon="1.62983">
        <ele>17</ele>
        <time>2016-09-10T13:37:19Z</time>
      </trkpt>
      <trkpt lat="50.1876" lon="1.62986">
        <ele>17</ele>
        <time>2016-09-10T13:37:21Z</time>
      </trkpt>
      <trkpt lat="50.18764" lon="1.62988">
        <ele>17</ele>
        <time>2016-09-10T13:37:23Z</time>
      </trkpt>
      <trkpt lat="50.18769" lon="1.62991">
        <ele>17</ele>
        <time>2016-09-10T13:37:25Z</time>
      </trkpt>
      <trkpt lat="50.18773" lon="1.62994">
        <ele>17</ele>
        <time>2016-09-10T13:37:27Z</time>
      </trkpt>
      <trkpt lat="50.18778" lon="1.62997">
        <ele>18</ele>
        <time>2016-09-10T13:37:29Z</time>
      </trkpt>
      <trkpt lat="50.18783" lon="1.63">
        <ele>18</ele>
        <time>2016-09-10T13:37:31Z</time>
      </trkpt>
      <trkpt lat="50.18787" lon="1.63002">
        <ele>16</ele>
        <time>2016-09-10T13:37:33Z</time>
      </trkpt>
      <trkpt lat="50.18791" lon="1.63005">
        <ele>16</ele>
        <time>2016-09-10T13:37:35Z</time>
      </trkpt>
      <trkpt lat="50.18798" lon="1.63013">
        <ele>16</ele>
        <time>2016-09-10T13:37:39Z</time>
      </trkpt>
      <trkpt lat="50.18802" lon="1.63017">
        <ele>16</ele>
        <time>2016-09-10T13:37:41Z</time>
      </trkpt>
      <trkpt lat="50.18809" lon="1.63025">
        <ele>16</ele>
        <time>2016-09-10T13:37:45Z</time>
      </trkpt>
      <trkpt lat="50.18815" lon="1.63033">
        <ele>16</ele>
        <time>2016-09-10T13:37:49Z</time>
      </trkpt>
      <trkpt lat="50.18822" lon="1.63039">
        <ele>16</ele>
        <time>2016-09-10T13:37:53Z</time>
      </trkpt>
      <trkpt lat="50.18827" lon="1.63045">
        <ele>15</ele>
        <time>2016-09-10T13:37:57Z</time>
      </trkpt>
      <trkpt lat="50.18832" lon="1.63048">
        <ele>15</ele>
        <time>2016-09-10T13:38:01Z</time>
      </trkpt>
      <trkpt lat="50.18837" lon="1.63049">
        <ele>13</ele>
        <time>2016-09-10T13:38:05Z</time>
      </trkpt>
      <trkpt lat="50.18842" lon="1.63053">
        <ele>13</ele>
        <time>2016-09-10T13:38:09Z</time>
      </trkpt>
      <trkpt lat="50.18846" lon="1.6305">
        <ele>13</ele>
        <time>2016-09-10T13:38:13Z</time>
      </trkpt>
      <trkpt lat="50.18846" lon="1.63039">
        <ele>13</ele>
        <time>2016-09-10T13:38:17Z</time>
      </trkpt>
      <trkpt lat="50.18848" lon="1.6303">
        <ele>14</ele>
        <time>2016-09-10T13:38:21Z</time>
      </trkpt>
      <trkpt lat="50.18848" lon="1.63022">
        <ele>14</ele>
        <time>2016-09-10T13:38:25Z</time>
      </trkpt>
      <trkpt lat="50.18849" lon="1.63013">
        <ele>15</ele>
        <time>2016-09-10T13:38:29Z</time>
      </trkpt>
      <trkpt lat="50.18851" lon="1.63006">
        <ele>15</ele>
        <time>2016-09-10T13:38:33Z</time>
      </trkpt>
      <trkpt lat="50.18857" lon="1.6301">
        <ele>14</ele>
        <time>2016-09-10T13:38:37Z</time>
      </trkpt>
      <trkpt lat="50.18862" lon="1.63017">
        <ele>14</ele>
        <time>2016-09-10T13:38:41Z</time>
      </trkpt>
      <trkpt lat="50.18865" lon="1.63026">
        <ele>13</ele>
        <time>2016-09-10T13:38:45Z</time>
      </trkpt>
      <trkpt lat="50.18865" lon="1.63035">
        <ele>13</ele>
        <time>2016-09-10T13:38:49Z</time>
      </trkpt>
      <trkpt lat="50.1886" lon="1.6303">
        <ele>13</ele>
        <time>2016-09-10T13:39:03Z</time>
      </trkpt>
      <trkpt lat="50.18863" lon="1.63022">
        <ele>13</ele>
        <time>2016-09-10T13:39:43Z</time>
      </trkpt>
      <trkpt lat="50.18858" lon="1.63018">
        <ele>14</ele>
        <time>2016-09-10T13:39:53Z</time>
      </trkpt>
      <trkpt lat="50.18854" lon="1.63026">
        <ele>14</ele>
        <time>2016-09-10T13:41:07Z</time>
      </trkpt>
      <trkpt lat="50.18854" lon="1.63033">
        <ele>13</ele>
        <time>2016-09-10T13:41:11Z</time>
      </trkpt>
      <trkpt lat="50.18854" lon="1.63041">
        <ele>13</ele>
        <time>2016-09-10T13:41:19Z</time>
      </trkpt>
      <trkpt lat="50.18856" lon="1.63032">
        <ele>13</ele>
        <time>2016-09-10T13:42:53Z</time>
      </trkpt>
      <trkpt lat="50.18859" lon="1.63027">
        <ele>13</ele>
        <time>2016-09-10T13:42:59Z</time>
      </trkpt>
      <trkpt lat="50.18864" lon="1.63027">
        <ele>13</ele>
        <time>2016-09-10T13:44:19Z</time>
      </trkpt>
      <trkpt lat="50.18867" lon="1.63033">
        <ele>13</ele>
        <time>2016-09-10T13:49:41Z</time>
      </trkpt>
      <trkpt lat="50.18868" lon="1.6304">
        <ele>12</ele>
        <time>2016-09-10T13:50:19Z</time>
      </trkpt>
      <trkpt lat="50.18867" lon="1.63049">
        <ele>12</ele>
        <time>2016-09-10T13:50:23Z</time>
      </trkpt>
      <trkpt lat="50.18865" lon="1.63059">
        <ele>12</ele>
        <time>2016-09-10T13:50:27Z</time>
      </trkpt>
      <trkpt lat="50.18862" lon="1.63067">
        <ele>12</ele>
        <time>2016-09-10T13:50:31Z</time>
      </trkpt>
      <trkpt lat="50.18859" lon="1.63078">
        <ele>12</ele>
        <time>2016-09-10T13:50:35Z</time>
      </trkpt>
      <trkpt lat="50.18857" lon="1.63087">
        <ele>10</ele>
        <time>2016-09-10T13:50:39Z</time>
      </trkpt>
      <trkpt lat="50.18855" lon="1.63096">
        <ele>10</ele>
        <time>2016-09-10T13:50:43Z</time>
      </trkpt>
      <trkpt lat="50.18853" lon="1.63105">
        <ele>10</ele>
        <time>2016-09-10T13:50:47Z</time>
      </trkpt>
      <trkpt lat="50.18853" lon="1.63113">
        <ele>9</ele>
        <time>2016-09-10T13:50:51Z</time>
      </trkpt>
      <trkpt lat="50.18855" lon="1.63105">
        <ele>10</ele>
        <time>2016-09-10T13:52:21Z</time>
      </trkpt>
      <trkpt lat="50.18856" lon="1.63095">
        <ele>10</ele>
        <time>2016-09-10T13:52:25Z</time>
      </trkpt>
      <trkpt lat="50.1886" lon="1.63084">
        <ele>10</ele>
        <time>2016-09-10T13:52:29Z</time>
      </trkpt>
      <trkpt lat="50.18863" lon="1.63072">
        <ele>12</ele>
        <time>2016-09-10T13:52:33Z</time>
      </trkpt>
      <trkpt lat="50.18865" lon="1.63059">
        <ele>12</ele>
        <time>2016-09-10T13:52:37Z</time>
      </trkpt>
      <trkpt lat="50.18867" lon="1.63047">
        <ele>12</ele>
        <time>2016-09-10T13:52:41Z</time>
      </trkpt>
      <trkpt lat="50.18867" lon="1.63035">
        <ele>13</ele>
        <time>2016-09-10T13:52:45Z</time>
      </trkpt>
      <trkpt lat="50.18863" lon="1.63024">
        <ele>13</ele>
        <time>2016-09-10T13:52:49Z</time>
      </trkpt>
      <trkpt lat="50.18859" lon="1.63015">
        <ele>14</ele>
        <time>2016-09-10T13:52:53Z</time>
      </trkpt>
      <trkpt lat="50.18854" lon="1.63009">
        <ele>15</ele>
        <time>2016-09-10T13:52:57Z</time>
      </trkpt>
      <trkpt lat="50.18848" lon="1.63009">
        <ele>15</ele>
        <time>2016-09-10T13:53:01Z</time>
      </trkpt>
      <trkpt lat="50.18844" lon="1.63021">
        <ele>15</ele>
        <time>2016-09-10T13:53:05Z</time>
      </trkpt>
      <trkpt lat="50.18842" lon="1.63033">
        <ele>14</ele>
        <time>2016-09-10T13:53:09Z</time>
      </trkpt>
      <trkpt lat="50.18839" lon="1.63044">
        <ele>13</ele>
        <time>2016-09-10T13:53:13Z</time>
      </trkpt>
      <trkpt lat="50.18837" lon="1.63055">
        <ele>13</ele>
        <time>2016-09-10T13:53:17Z</time>
      </trkpt>
      <trkpt lat="50.18835" lon="1.63068">
        <ele>13</ele>
        <time>2016-09-10T13:53:21Z</time>
      </trkpt>
      <trkpt lat="50.18833" lon="1.63079">
        <ele>14</ele>
        <time>2016-09-10T13:53:25Z</time>
      </trkpt>
      <trkpt lat="50.18831" lon="1.63088">
        <ele>13</ele>
        <time>2016-09-10T13:53:29Z</time>
      </trkpt>
      <trkpt lat="50.18834" lon="1.63101">
        <ele>11</ele>
        <time>2016-09-10T13:53:35Z</time>
      </trkpt>
      <trkpt lat="50.1883" lon="1.63111">
        <ele>12</ele>
        <time>2016-09-10T13:53:39Z</time>
      </trkpt>
      <trkpt lat="50.18826" lon="1.63121">
        <ele>11</ele>
        <time>2016-09-10T13:53:43Z</time>
      </trkpt>
      <trkpt lat="50.18829" lon="1.63129">
        <ele>11</ele>
        <time>2016-09-10T13:53:47Z</time>
      </trkpt>
      <trkpt lat="50.18833" lon="1.63137">
        <ele>11</ele>
        <time>2016-09-10T13:53:51Z</time>
      </trkpt>
      <trkpt lat="50.18832" lon="1.6315">
        <ele>10</ele>
        <time>2016-09-10T13:53:55Z</time>
      </trkpt>
      <trkpt lat="50.18826" lon="1.63159">
        <ele>10</ele>
        <time>2016-09-10T13:53:59Z</time>
      </trkpt>
      <trkpt lat="50.18822" lon="1.63164">
        <ele>10</ele>
        <time>2016-09-10T13:54:01Z</time>
      </trkpt>
      <trkpt lat="50.18818" lon="1.63175">
        <ele>8</ele>
        <time>2016-09-10T13:54:05Z</time>
      </trkpt>
      <trkpt lat="50.18819" lon="1.63184">
        <ele>8</ele>
        <time>2016-09-10T13:54:09Z</time>
      </trkpt>
      <trkpt lat="50.18825" lon="1.6319">
        <ele>8</ele>
        <time>2016-09-10T13:54:13Z</time>
      </trkpt>
      <trkpt lat="50.18833" lon="1.63192">
        <ele>8</ele>
        <time>2016-09-10T13:54:17Z</time>
      </trkpt>
      <trkpt lat="50.18841" lon="1.63197">
        <ele>6</ele>
        <time>2016-09-10T13:54:21Z</time>
      </trkpt>
      <trkpt lat="50.18846" lon="1.63199">
        <ele>6</ele>
        <time>2016-09-10T13:54:23Z</time>
      </trkpt>
      <trkpt lat="50.18852" lon="1.63203">
        <ele>6</ele>
        <time>2016-09-10T13:54:25Z</time>
      </trkpt>
      <trkpt lat="50.18858" lon="1.63206">
        <ele>6</ele>
        <time>2016-09-10T13:54:27Z</time>
      </trkpt>
      <trkpt lat="50.18864" lon="1.63209">
        <ele>6</ele>
        <time>2016-09-10T13:54:29Z</time>
      </trkpt>
      <trkpt lat="50.18869" lon="1.63212">
        <ele>5</ele>
        <time>2016-09-10T13:54:31Z</time>
      </trkpt>
      <trkpt lat="50.18873" lon="1.63219">
        <ele>5</ele>
        <time>2016-09-10T13:54:35Z</time>
      </trkpt>
      <trkpt lat="50.1887" lon="1.63226">
        <ele>5</ele>
        <time>2016-09-10T13:54:51Z</time>
      </trkpt>
      <trkpt lat="50.18867" lon="1.63235">
        <ele>5</ele>
        <time>2016-09-10T13:54:55Z</time>
      </trkpt>
      <trkpt lat="50.18866" lon="1.63242">
        <ele>5</ele>
        <time>2016-09-10T13:54:57Z</time>
      </trkpt>
      <trkpt lat="50.18863" lon="1.63249">
        <ele>5</ele>
        <time>2016-09-10T13:54:59Z</time>
      </trkpt>
      <trkpt lat="50.18861" lon="1.63257">
        <ele>5</ele>
        <time>2016-09-10T13:55:01Z</time>
      </trkpt>
      <trkpt lat="50.18859" lon="1.63265">
        <ele>5</ele>
        <time>2016-09-10T13:55:03Z</time>
      </trkpt>
      <trkpt lat="50.18857" lon="1.63273">
        <ele>5</ele>
        <time>2016-09-10T13:55:05Z</time>
      </trkpt>
      <trkpt lat="50.18855" lon="1.63279">
        <ele>5</ele>
        <time>2016-09-10T13:55:07Z</time>
      </trkpt>
      <trkpt lat="50.18849" lon="1.63284">
        <ele>5</ele>
        <time>2016-09-10T13:55:11Z</time>
      </trkpt>
      <trkpt lat="50.18846" lon="1.6329">
        <ele>5</ele>
        <time>2016-09-10T13:55:39Z</time>
      </trkpt>
      <trkpt lat="50.18845" lon="1.63301">
        <ele>5</ele>
        <time>2016-09-10T13:55:43Z</time>
      </trkpt>
      <trkpt lat="50.18842" lon="1.63312">
        <ele>4</ele>
        <time>2016-09-10T13:55:47Z</time>
      </trkpt>
      <trkpt lat="50.18838" lon="1.63326">
        <ele>4</ele>
        <time>2016-09-10T13:55:51Z</time>
      </trkpt>
      <trkpt lat="50.18836" lon="1.63334">
        <ele>4</ele>
        <time>2016-09-10T13:55:53Z</time>
      </trkpt>
      <trkpt lat="50.18833" lon="1.63341">
        <ele>4</ele>
        <time>2016-09-10T13:55:55Z</time>
      </trkpt>
      <trkpt lat="50.1883" lon="1.63348">
        <ele>4</ele>
        <time>2016-09-10T13:55:57Z</time>
      </trkpt>
      <trkpt lat="50.18828" lon="1.63355">
        <ele>4</ele>
        <time>2016-09-10T13:55:59Z</time>
      </trkpt>
      <trkpt lat="50.18827" lon="1.63363">
        <ele>4</ele>
        <time>2016-09-10T13:56:01Z</time>
      </trkpt>
      <trkpt lat="50.18826" lon="1.6337">
        <ele>4</ele>
        <time>2016-09-10T13:56:03Z</time>
      </trkpt>
      <trkpt lat="50.18825" lon="1.63377">
        <ele>4</ele>
        <time>2016-09-10T13:56:05Z</time>
      </trkpt>
      <trkpt lat="50.18824" lon="1.63391">
        <ele>4</ele>
        <time>2016-09-10T13:56:09Z</time>
      </trkpt>
      <trkpt lat="50.18822" lon="1.63398">
        <ele>4</ele>
        <time>2016-09-10T13:56:11Z</time>
      </trkpt>
      <trkpt lat="50.1882" lon="1.63404">
        <ele>3</ele>
        <time>2016-09-10T13:56:13Z</time>
      </trkpt>
      <trkpt lat="50.18818" lon="1.6341">
        <ele>3</ele>
        <time>2016-09-10T13:56:15Z</time>
      </trkpt>
      <trkpt lat="50.18813" lon="1.63422">
        <ele>3</ele>
        <time>2016-09-10T13:56:19Z</time>
      </trkpt>
      <trkpt lat="50.18809" lon="1.63433">
        <ele>3</ele>
        <time>2016-09-10T13:56:23Z</time>
      </trkpt>
      <trkpt lat="50.18806" lon="1.63445">
        <ele>4</ele>
        <time>2016-09-10T13:56:27Z</time>
      </trkpt>
      <trkpt lat="50.18803" lon="1.63455">
        <ele>4</ele>
        <time>2016-09-10T13:56:31Z</time>
      </trkpt>
      <trkpt lat="50.188" lon="1.63465">
        <ele>4</ele>
        <time>2016-09-10T13:56:35Z</time>
      </trkpt>
      <trkpt lat="50.18794" lon="1.63473">
        <ele>4</ele>
        <time>2016-09-10T13:56:39Z</time>
      </trkpt>
      <trkpt lat="50.1879" lon="1.63477">
        <ele>4</ele>
        <time>2016-09-10T13:56:41Z</time>
      </trkpt>
      <trkpt lat="50.18787" lon="1.63483">
        <ele>4</ele>
        <time>2016-09-10T13:56:43Z</time>
      </trkpt>
      <trkpt lat="50.18784" lon="1.63489">
        <ele>4</ele>
        <time>2016-09-10T13:56:45Z</time>
      </trkpt>
      <trkpt lat="50.18781" lon="1.63496">
        <ele>4</ele>
        <time>2016-09-10T13:56:47Z</time>
      </trkpt>
      <trkpt lat="50.18779" lon="1.63503">
        <ele>4</ele>
        <time>2016-09-10T13:56:49Z</time>
      </trkpt>
      <trkpt lat="50.18777" lon="1.6351">
        <ele>4</ele>
        <time>2016-09-10T13:56:51Z</time>
      </trkpt>
      <trkpt lat="50.18776" lon="1.63519">
        <ele>4</ele>
        <time>2016-09-10T13:56:53Z</time>
      </trkpt>
      <trkpt lat="50.18775" lon="1.63528">
        <ele>4</ele>
        <time>2016-09-10T13:56:55Z</time>
      </trkpt>
      <trkpt lat="50.18774" lon="1.63536">
        <ele>4</ele>
        <time>2016-09-10T13:56:57Z</time>
      </trkpt>
      <trkpt lat="50.18771" lon="1.63544">
        <ele>3</ele>
        <time>2016-09-10T13:56:59Z</time>
      </trkpt>
      <trkpt lat="50.18767" lon="1.63551">
        <ele>3</ele>
        <time>2016-09-10T13:57:01Z</time>
      </trkpt>
      <trkpt lat="50.18764" lon="1.63559">
        <ele>3</ele>
        <time>2016-09-10T13:57:03Z</time>
      </trkpt>
      <trkpt lat="50.18762" lon="1.63567">
        <ele>3</ele>
        <time>2016-09-10T13:57:05Z</time>
      </trkpt>
      <trkpt lat="50.18759" lon="1.63575">
        <ele>3</ele>
        <time>2016-09-10T13:57:07Z</time>
      </trkpt>
      <trkpt lat="50.18754" lon="1.63581">
        <ele>3</ele>
        <time>2016-09-10T13:57:09Z</time>
      </trkpt>
      <trkpt lat="50.18749" lon="1.63584">
        <ele>3</ele>
        <time>2016-09-10T13:57:11Z</time>
      </trkpt>
      <trkpt lat="50.18744" lon="1.63581">
        <ele>5</ele>
        <time>2016-09-10T13:57:13Z</time>
      </trkpt>
      <trkpt lat="50.18739" lon="1.63577">
        <ele>6</ele>
        <time>2016-09-10T13:57:15Z</time>
      </trkpt>
      <trkpt lat="50.18734" lon="1.63572">
        <ele>6</ele>
        <time>2016-09-10T13:57:17Z</time>
      </trkpt>
      <trkpt lat="50.1873" lon="1.63568">
        <ele>7</ele>
        <time>2016-09-10T13:57:19Z</time>
      </trkpt>
      <trkpt lat="50.18725" lon="1.63563">
        <ele>8</ele>
        <time>2016-09-10T13:57:21Z</time>
      </trkpt>
      <trkpt lat="50.1872" lon="1.63559">
        <ele>8</ele>
        <time>2016-09-10T13:57:23Z</time>
      </trkpt>
      <trkpt lat="50.18715" lon="1.63557">
        <ele>9</ele>
        <time>2016-09-10T13:57:25Z</time>
      </trkpt>
      <trkpt lat="50.1871" lon="1.63558">
        <ele>9</ele>
        <time>2016-09-10T13:57:27Z</time>
      </trkpt>
      <trkpt lat="50.18703" lon="1.63565">
        <ele>10</ele>
        <time>2016-09-10T13:57:31Z</time>
      </trkpt>
      <trkpt lat="50.187" lon="1.63571">
        <ele>10</ele>
        <time>2016-09-10T13:57:33Z</time>
      </trkpt>
      <trkpt lat="50.18697" lon="1.63578">
        <ele>10</ele>
        <time>2016-09-10T13:57:35Z</time>
      </trkpt>
      <trkpt lat="50.18695" lon="1.63585">
        <ele>8</ele>
        <time>2016-09-10T13:57:37Z</time>
      </trkpt>
      <trkpt lat="50.18693" lon="1.63593">
        <ele>8</ele>
        <time>2016-09-10T13:57:39Z</time>
      </trkpt>
      <trkpt lat="50.1869" lon="1.63601">
        <ele>8</ele>
        <time>2016-09-10T13:57:41Z</time>
      </trkpt>
      <trkpt lat="50.18688" lon="1.63609">
        <ele>8</ele>
        <time>2016-09-10T13:57:43Z</time>
      </trkpt>
      <trkpt lat="50.18685" lon="1.63618">
        <ele>8</ele>
        <time>2016-09-10T13:57:45Z</time>
      </trkpt>
      <trkpt lat="50.18684" lon="1.63627">
        <ele>7</ele>
        <time>2016-09-10T13:57:47Z</time>
      </trkpt>
      <trkpt lat="50.18682" lon="1.63636">
        <ele>7</ele>
        <time>2016-09-10T13:57:49Z</time>
      </trkpt>
      <trkpt lat="50.18681" lon="1.63646">
        <ele>7</ele>
        <time>2016-09-10T13:57:51Z</time>
      </trkpt>
      <trkpt lat="50.1868" lon="1.63655">
        <ele>7</ele>
        <time>2016-09-10T13:57:53Z</time>
      </trkpt>
      <trkpt lat="50.18677" lon="1.63665">
        <ele>7</ele>
        <time>2016-09-10T13:57:55Z</time>
      </trkpt>
      <trkpt lat="50.18676" lon="1.63675">
        <ele>7</ele>
        <time>2016-09-10T13:57:57Z</time>
      </trkpt>
      <trkpt lat="50.18674" lon="1.63685">
        <ele>6</ele>
        <time>2016-09-10T13:57:59Z</time>
      </trkpt>
      <trkpt lat="50.18672" lon="1.63695">
        <ele>6</ele>
        <time>2016-09-10T13:58:01Z</time>
      </trkpt>
      <trkpt lat="50.1867" lon="1.63706">
        <ele>5</ele>
        <time>2016-09-10T13:58:03Z</time>
      </trkpt>
      <trkpt lat="50.18668" lon="1.63716">
        <ele>5</ele>
        <time>2016-09-10T13:58:05Z</time>
      </trkpt>
      <trkpt lat="50.18667" lon="1.63727">
        <ele>6</ele>
        <time>2016-09-10T13:58:07Z</time>
      </trkpt>
      <trkpt lat="50.18666" lon="1.63737">
        <ele>10</ele>
        <time>2016-09-10T13:58:09Z</time>
      </trkpt>
      <trkpt lat="50.18665" lon="1.63748">
        <ele>8</ele>
        <time>2016-09-10T13:58:11Z</time>
      </trkpt>
      <trkpt lat="50.18664" lon="1.63759">
        <ele>9</ele>
        <time>2016-09-10T13:58:13Z</time>
      </trkpt>
      <trkpt lat="50.18662" lon="1.63769">
        <ele>10</ele>
        <time>2016-09-10T13:58:15Z</time>
      </trkpt>
      <trkpt lat="50.18661" lon="1.63779">
        <ele>11</ele>
        <time>2016-09-10T13:58:17Z</time>
      </trkpt>
      <trkpt lat="50.18659" lon="1.63789">
        <ele>11</ele>
        <time>2016-09-10T13:58:19Z</time>
      </trkpt>
      <trkpt lat="50.18659" lon="1.63799">
        <ele>11</ele>
        <time>2016-09-10T13:58:21Z</time>
      </trkpt>
      <trkpt lat="50.1866" lon="1.63809">
        <ele>11</ele>
        <time>2016-09-10T13:58:23Z</time>
      </trkpt>
      <trkpt lat="50.18664" lon="1.63816">
        <ele>10</ele>
        <time>2016-09-10T13:58:25Z</time>
      </trkpt>
      <trkpt lat="50.18669" lon="1.6382">
        <ele>6</ele>
        <time>2016-09-10T13:58:27Z</time>
      </trkpt>
      <trkpt lat="50.18675" lon="1.63818">
        <ele>6</ele>
        <time>2016-09-10T13:58:29Z</time>
      </trkpt>
      <trkpt lat="50.18681" lon="1.63817">
        <ele>5</ele>
        <time>2016-09-10T13:58:31Z</time>
      </trkpt>
      <trkpt lat="50.18685" lon="1.63818">
        <ele>5</ele>
        <time>2016-09-10T13:58:33Z</time>
      </trkpt>
      <trkpt lat="50.18691" lon="1.6382">
        <ele>5</ele>
        <time>2016-09-10T13:58:43Z</time>
      </trkpt>
      <trkpt lat="50.18694" lon="1.6383">
        <ele>5</ele>
        <time>2016-09-10T13:58:47Z</time>
      </trkpt>
      <trkpt lat="50.18691" lon="1.63846">
        <ele>6</ele>
        <time>2016-09-10T13:58:51Z</time>
      </trkpt>
      <trkpt lat="50.18688" lon="1.63854">
        <ele>6</ele>
        <time>2016-09-10T13:58:53Z</time>
      </trkpt>
      <trkpt lat="50.18686" lon="1.63862">
        <ele>6</ele>
        <time>2016-09-10T13:58:55Z</time>
      </trkpt>
      <trkpt lat="50.18683" lon="1.6387">
        <ele>6</ele>
        <time>2016-09-10T13:58:57Z</time>
      </trkpt>
      <trkpt lat="50.18679" lon="1.63878">
        <ele>5</ele>
        <time>2016-09-10T13:58:59Z</time>
      </trkpt>
      <trkpt lat="50.18677" lon="1.63886">
        <ele>5</ele>
        <time>2016-09-10T13:59:01Z</time>
      </trkpt>
      <trkpt lat="50.18675" lon="1.63893">
        <ele>5</ele>
        <time>2016-09-10T13:59:03Z</time>
      </trkpt>
      <trkpt lat="50.18673" lon="1.63901">
        <ele>5</ele>
        <time>2016-09-10T13:59:05Z</time>
      </trkpt>
      <trkpt lat="50.18671" lon="1.63909">
        <ele>5</ele>
        <time>2016-09-10T13:59:07Z</time>
      </trkpt>
      <trkpt lat="50.18669" lon="1.63917">
        <ele>5</ele>
        <time>2016-09-10T13:59:09Z</time>
      </trkpt>
      <trkpt lat="50.18668" lon="1.63924">
        <ele>5</ele>
        <time>2016-09-10T13:59:11Z</time>
      </trkpt>
      <trkpt lat="50.18666" lon="1.63931">
        <ele>7</ele>
        <time>2016-09-10T13:59:13Z</time>
      </trkpt>
      <trkpt lat="50.18664" lon="1.63938">
        <ele>8</ele>
        <time>2016-09-10T13:59:15Z</time>
      </trkpt>
      <trkpt lat="50.18662" lon="1.63945">
        <ele>8</ele>
        <time>2016-09-10T13:59:17Z</time>
      </trkpt>
      <trkpt lat="50.18658" lon="1.63956">
        <ele>9</ele>
        <time>2016-09-10T13:59:21Z</time>
      </trkpt>
      <trkpt lat="50.18657" lon="1.63964">
        <ele>9</ele>
        <time>2016-09-10T13:59:27Z</time>
      </trkpt>
      <trkpt lat="50.18655" lon="1.63972">
        <ele>8</ele>
        <time>2016-09-10T13:59:31Z</time>
      </trkpt>
      <trkpt lat="50.18651" lon="1.63986">
        <ele>8</ele>
        <time>2016-09-10T13:59:35Z</time>
      </trkpt>
      <trkpt lat="50.18649" lon="1.63993">
        <ele>8</ele>
        <time>2016-09-10T13:59:37Z</time>
      </trkpt>
      <trkpt lat="50.18646" lon="1.64002">
        <ele>7</ele>
        <time>2016-09-10T13:59:39Z</time>
      </trkpt>
      <trkpt lat="50.18644" lon="1.6401">
        <ele>7</ele>
        <time>2016-09-10T13:59:41Z</time>
      </trkpt>
      <trkpt lat="50.18641" lon="1.64018">
        <ele>7</ele>
        <time>2016-09-10T13:59:43Z</time>
      </trkpt>
      <trkpt lat="50.18639" lon="1.64026">
        <ele>8</ele>
        <time>2016-09-10T13:59:45Z</time>
      </trkpt>
      <trkpt lat="50.18637" lon="1.64034">
        <ele>8</ele>
        <time>2016-09-10T13:59:47Z</time>
      </trkpt>
      <trkpt lat="50.18635" lon="1.64043">
        <ele>8</ele>
        <time>2016-09-10T13:59:49Z</time>
      </trkpt>
      <trkpt lat="50.18632" lon="1.64051">
        <ele>8</ele>
        <time>2016-09-10T13:59:51Z</time>
      </trkpt>
      <trkpt lat="50.1863" lon="1.64059">
        <ele>8</ele>
        <time>2016-09-10T13:59:53Z</time>
      </trkpt>
      <trkpt lat="50.18628" lon="1.64068">
        <ele>8</ele>
        <time>2016-09-10T13:59:55Z</time>
      </trkpt>
      <trkpt lat="50.18625" lon="1.64076">
        <ele>8</ele>
        <time>2016-09-10T13:59:57Z</time>
      </trkpt>
      <trkpt lat="50.18623" lon="1.64084">
        <ele>8</ele>
        <time>2016-09-10T13:59:59Z</time>
      </trkpt>
      <trkpt lat="50.18622" lon="1.64091">
        <ele>8</ele>
        <time>2016-09-10T14:00:01Z</time>
      </trkpt>
      <trkpt lat="50.18619" lon="1.641">
        <ele>8</ele>
        <time>2016-09-10T14:00:07Z</time>
      </trkpt>
      <trkpt lat="50.18617" lon="1.64107">
        <ele>8</ele>
        <time>2016-09-10T14:00:11Z</time>
      </trkpt>
      <trkpt lat="50.18613" lon="1.64115">
        <ele>8</ele>
        <time>2016-09-10T14:00:15Z</time>
      </trkpt>
      <trkpt lat="50.18612" lon="1.64124">
        <ele>8</ele>
        <time>2016-09-10T14:00:19Z</time>
      </trkpt>
      <trkpt lat="50.1861" lon="1.64134">
        <ele>8</ele>
        <time>2016-09-10T14:00:23Z</time>
      </trkpt>
      <trkpt lat="50.18605" lon="1.64147">
        <ele>8</ele>
        <time>2016-09-10T14:00:27Z</time>
      </trkpt>
      <trkpt lat="50.18602" lon="1.64156">
        <ele>9</ele>
        <time>2016-09-10T14:00:29Z</time>
      </trkpt>
      <trkpt lat="50.18601" lon="1.64165">
        <ele>9</ele>
        <time>2016-09-10T14:00:31Z</time>
      </trkpt>
      <trkpt lat="50.18599" lon="1.64174">
        <ele>9</ele>
        <time>2016-09-10T14:00:33Z</time>
      </trkpt>
      <trkpt lat="50.18598" lon="1.64183">
        <ele>9</ele>
        <time>2016-09-10T14:00:35Z</time>
      </trkpt>
      <trkpt lat="50.18596" lon="1.64192">
        <ele>8</ele>
        <time>2016-09-10T14:00:37Z</time>
      </trkpt>
      <trkpt lat="50.18594" lon="1.642">
        <ele>8</ele>
        <time>2016-09-10T14:00:39Z</time>
      </trkpt>
      <trkpt lat="50.18591" lon="1.64208">
        <ele>8</ele>
        <time>2016-09-10T14:00:41Z</time>
      </trkpt>
      <trkpt lat="50.18589" lon="1.64216">
        <ele>8</ele>
        <time>2016-09-10T14:00:43Z</time>
      </trkpt>
      <trkpt lat="50.18586" lon="1.64224">
        <ele>8</ele>
        <time>2016-09-10T14:00:45Z</time>
      </trkpt>
      <trkpt lat="50.18583" lon="1.64232">
        <ele>9</ele>
        <time>2016-09-10T14:00:47Z</time>
      </trkpt>
      <trkpt lat="50.18581" lon="1.6424">
        <ele>9</ele>
        <time>2016-09-10T14:00:49Z</time>
      </trkpt>
      <trkpt lat="50.18579" lon="1.64248">
        <ele>8</ele>
        <time>2016-09-10T14:00:51Z</time>
      </trkpt>
      <trkpt lat="50.18577" lon="1.64257">
        <ele>8</ele>
        <time>2016-09-10T14:00:53Z</time>
      </trkpt>
      <trkpt lat="50.18576" lon="1.64265">
        <ele>8</ele>
        <time>2016-09-10T14:00:55Z</time>
      </trkpt>
      <trkpt lat="50.18574" lon="1.64272">
        <ele>8</ele>
        <time>2016-09-10T14:00:57Z</time>
      </trkpt>
      <trkpt lat="50.18572" lon="1.6428">
        <ele>8</ele>
        <time>2016-09-10T14:00:59Z</time>
      </trkpt>
      <trkpt lat="50.1857" lon="1.64288">
        <ele>8</ele>
        <time>2016-09-10T14:01:01Z</time>
      </trkpt>
      <trkpt lat="50.18568" lon="1.64296">
        <ele>8</ele>
        <time>2016-09-10T14:01:03Z</time>
      </trkpt>
      <trkpt lat="50.18566" lon="1.64303">
        <ele>8</ele>
        <time>2016-09-10T14:01:05Z</time>
      </trkpt>
      <trkpt lat="50.18563" lon="1.64311">
        <ele>8</ele>
        <time>2016-09-10T14:01:07Z</time>
      </trkpt>
      <trkpt lat="50.1856" lon="1.64317">
        <ele>8</ele>
        <time>2016-09-10T14:01:09Z</time>
      </trkpt>
      <trkpt lat="50.18556" lon="1.64324">
        <ele>8</ele>
        <time>2016-09-10T14:01:11Z</time>
      </trkpt>
      <trkpt lat="50.18552" lon="1.64329">
        <ele>8</ele>
        <time>2016-09-10T14:01:13Z</time>
      </trkpt>
      <trkpt lat="50.18548" lon="1.64334">
        <ele>7</ele>
        <time>2016-09-10T14:01:15Z</time>
      </trkpt>
      <trkpt lat="50.18544" lon="1.64339">
        <ele>7</ele>
        <time>2016-09-10T14:01:17Z</time>
      </trkpt>
      <trkpt lat="50.18541" lon="1.64344">
        <ele>7</ele>
        <time>2016-09-10T14:01:19Z</time>
      </trkpt>
      <trkpt lat="50.18538" lon="1.6435">
        <ele>7</ele>
        <time>2016-09-10T14:01:21Z</time>
      </trkpt>
      <trkpt lat="50.18534" lon="1.64355">
        <ele>8</ele>
        <time>2016-09-10T14:01:23Z</time>
      </trkpt>
      <trkpt lat="50.18531" lon="1.64362">
        <ele>8</ele>
        <time>2016-09-10T14:01:25Z</time>
      </trkpt>
      <trkpt lat="50.18528" lon="1.64367">
        <ele>8</ele>
        <time>2016-09-10T14:01:27Z</time>
      </trkpt>
      <trkpt lat="50.18524" lon="1.64372">
        <ele>8</ele>
        <time>2016-09-10T14:01:29Z</time>
      </trkpt>
      <trkpt lat="50.18518" lon="1.64374">
        <ele>8</ele>
        <time>2016-09-10T14:01:31Z</time>
      </trkpt>
      <trkpt lat="50.18513" lon="1.64376">
        <ele>8</ele>
        <time>2016-09-10T14:01:33Z</time>
      </trkpt>
      <trkpt lat="50.18505" lon="1.64382">
        <ele>8</ele>
        <time>2016-09-10T14:01:43Z</time>
      </trkpt>
      <trkpt lat="50.18498" lon="1.64386">
        <ele>9</ele>
        <time>2016-09-10T14:01:45Z</time>
      </trkpt>
      <trkpt lat="50.18492" lon="1.64389">
        <ele>9</ele>
        <time>2016-09-10T14:01:47Z</time>
      </trkpt>
      <trkpt lat="50.18486" lon="1.64392">
        <ele>9</ele>
        <time>2016-09-10T14:01:49Z</time>
      </trkpt>
      <trkpt lat="50.1848" lon="1.64393">
        <ele>9</ele>
        <time>2016-09-10T14:01:51Z</time>
      </trkpt>
      <trkpt lat="50.18475" lon="1.64395">
        <ele>9</ele>
        <time>2016-09-10T14:01:53Z</time>
      </trkpt>
      <trkpt lat="50.18469" lon="1.64396">
        <ele>9</ele>
        <time>2016-09-10T14:01:55Z</time>
      </trkpt>
      <trkpt lat="50.18463" lon="1.64397">
        <ele>9</ele>
        <time>2016-09-10T14:01:57Z</time>
      </trkpt>
      <trkpt lat="50.18458" lon="1.64398">
        <ele>9</ele>
        <time>2016-09-10T14:01:59Z</time>
      </trkpt>
      <trkpt lat="50.18453" lon="1.64398">
        <ele>9</ele>
        <time>2016-09-10T14:02:01Z</time>
      </trkpt>
      <trkpt lat="50.18448" lon="1.64398">
        <ele>9</ele>
        <time>2016-09-10T14:02:03Z</time>
      </trkpt>
      <trkpt lat="50.18444" lon="1.64397">
        <ele>9</ele>
        <time>2016-09-10T14:02:05Z</time>
      </trkpt>
      <trkpt lat="50.18435" lon="1.64395">
        <ele>9</ele>
        <time>2016-09-10T14:02:09Z</time>
      </trkpt>
      <trkpt lat="50.18429" lon="1.64392">
        <ele>9</ele>
        <time>2016-09-10T14:02:29Z</time>
      </trkpt>
      <trkpt lat="50.18422" lon="1.6439">
        <ele>9</ele>
        <time>2016-09-10T14:02:33Z</time>
      </trkpt>
      <trkpt lat="50.18413" lon="1.64386">
        <ele>8</ele>
        <time>2016-09-10T14:02:37Z</time>
      </trkpt>
      <trkpt lat="50.18409" lon="1.64385">
        <ele>8</ele>
        <time>2016-09-10T14:02:39Z</time>
      </trkpt>
      <trkpt lat="50.18404" lon="1.64384">
        <ele>8</ele>
        <time>2016-09-10T14:02:41Z</time>
      </trkpt>
      <trkpt lat="50.184" lon="1.64382">
        <ele>8</ele>
        <time>2016-09-10T14:02:43Z</time>
      </trkpt>
      <trkpt lat="50.18392" lon="1.6438">
        <ele>8</ele>
        <time>2016-09-10T14:02:47Z</time>
      </trkpt>
      <trkpt lat="50.18387" lon="1.64376">
        <ele>8</ele>
        <time>2016-09-10T14:02:51Z</time>
      </trkpt>
      <trkpt lat="50.18381" lon="1.64372">
        <ele>8</ele>
        <time>2016-09-10T14:02:57Z</time>
      </trkpt>
      <trkpt lat="50.18383" lon="1.64362">
        <ele>8</ele>
        <time>2016-09-10T14:03:01Z</time>
      </trkpt>
      <trkpt lat="50.1838" lon="1.64355">
        <ele>8</ele>
        <time>2016-09-10T14:03:05Z</time>
      </trkpt>
      <trkpt lat="50.18371" lon="1.64353">
        <ele>8</ele>
        <time>2016-09-10T14:03:09Z</time>
      </trkpt>
      <trkpt lat="50.18363" lon="1.64354">
        <ele>8</ele>
        <time>2016-09-10T14:03:11Z</time>
      </trkpt>
      <trkpt lat="50.18354" lon="1.64355">
        <ele>8</ele>
        <time>2016-09-10T14:03:13Z</time>
      </trkpt>
      <trkpt lat="50.18346" lon="1.64358">
        <ele>8</ele>
        <time>2016-09-10T14:03:15Z</time>
      </trkpt>
      <trkpt lat="50.18337" lon="1.64359">
        <ele>8</ele>
        <time>2016-09-10T14:03:17Z</time>
      </trkpt>
      <trkpt lat="50.18329" lon="1.64361">
        <ele>7</ele>
        <time>2016-09-10T14:03:19Z</time>
      </trkpt>
      <trkpt lat="50.18321" lon="1.64364">
        <ele>7</ele>
        <time>2016-09-10T14:03:21Z</time>
      </trkpt>
      <trkpt lat="50.18314" lon="1.64366">
        <ele>7</ele>
        <time>2016-09-10T14:03:23Z</time>
      </trkpt>
      <trkpt lat="50.18307" lon="1.6437">
        <ele>7</ele>
        <time>2016-09-10T14:03:25Z</time>
      </trkpt>
      <trkpt lat="50.18301" lon="1.64372">
        <ele>7</ele>
        <time>2016-09-10T14:03:27Z</time>
      </trkpt>
      <trkpt lat="50.18295" lon="1.64372">
        <ele>7</ele>
        <time>2016-09-10T14:03:29Z</time>
      </trkpt>
      <trkpt lat="50.18292" lon="1.64366">
        <ele>7</ele>
        <time>2016-09-10T14:03:31Z</time>
      </trkpt>
      <trkpt lat="50.18287" lon="1.64364">
        <ele>7</ele>
        <time>2016-09-10T14:03:33Z</time>
      </trkpt>
      <trkpt lat="50.18283" lon="1.64366">
        <ele>7</ele>
        <time>2016-09-10T14:03:35Z</time>
      </trkpt>
      <trkpt lat="50.18278" lon="1.6437">
        <ele>7</ele>
        <time>2016-09-10T14:03:37Z</time>
      </trkpt>
      <trkpt lat="50.18273" lon="1.64377">
        <ele>7</ele>
        <time>2016-09-10T14:03:39Z</time>
      </trkpt>
      <trkpt lat="50.18268" lon="1.64383">
        <ele>7</ele>
        <time>2016-09-10T14:03:41Z</time>
      </trkpt>
      <trkpt lat="50.18263" lon="1.64387">
        <ele>7</ele>
        <time>2016-09-10T14:03:43Z</time>
      </trkpt>
      <trkpt lat="50.18258" lon="1.64391">
        <ele>7</ele>
        <time>2016-09-10T14:03:45Z</time>
      </trkpt>
      <trkpt lat="50.18253" lon="1.64396">
        <ele>7</ele>
        <time>2016-09-10T14:03:47Z</time>
      </trkpt>
      <trkpt lat="50.18248" lon="1.644">
        <ele>8</ele>
        <time>2016-09-10T14:03:49Z</time>
      </trkpt>
      <trkpt lat="50.18243" lon="1.64403">
        <ele>8</ele>
        <time>2016-09-10T14:03:51Z</time>
      </trkpt>
      <trkpt lat="50.18237" lon="1.64405">
        <ele>8</ele>
        <time>2016-09-10T14:03:53Z</time>
      </trkpt>
      <trkpt lat="50.18232" lon="1.64407">
        <ele>8</ele>
        <time>2016-09-10T14:03:55Z</time>
      </trkpt>
      <trkpt lat="50.18226" lon="1.64408">
        <ele>8</ele>
        <time>2016-09-10T14:03:57Z</time>
      </trkpt>
      <trkpt lat="50.18221" lon="1.64408">
        <ele>8</ele>
        <time>2016-09-10T14:03:59Z</time>
      </trkpt>
      <trkpt lat="50.18216" lon="1.64406">
        <ele>8</ele>
        <time>2016-09-10T14:04:01Z</time>
      </trkpt>
      <trkpt lat="50.18211" lon="1.64405">
        <ele>8</ele>
        <time>2016-09-10T14:04:03Z</time>
      </trkpt>
      <trkpt lat="50.18206" lon="1.64405">
        <ele>8</ele>
        <time>2016-09-10T14:04:05Z</time>
      </trkpt>
      <trkpt lat="50.18201" lon="1.64407">
        <ele>8</ele>
        <time>2016-09-10T14:04:07Z</time>
      </trkpt>
      <trkpt lat="50.18197" lon="1.64408">
        <ele>8</ele>
        <time>2016-09-10T14:04:09Z</time>
      </trkpt>
      <trkpt lat="50.18191" lon="1.6441">
        <ele>8</ele>
        <time>2016-09-10T14:04:11Z</time>
      </trkpt>
      <trkpt lat="50.18186" lon="1.64411">
        <ele>8</ele>
        <time>2016-09-10T14:04:13Z</time>
      </trkpt>
      <trkpt lat="50.18181" lon="1.64413">
        <ele>8</ele>
        <time>2016-09-10T14:04:15Z</time>
      </trkpt>
      <trkpt lat="50.18177" lon="1.64414">
        <ele>8</ele>
        <time>2016-09-10T14:04:17Z</time>
      </trkpt>
      <trkpt lat="50.18169" lon="1.64417">
        <ele>7</ele>
        <time>2016-09-10T14:04:21Z</time>
      </trkpt>
      <trkpt lat="50.18173" lon="1.64416">
        <ele>7</ele>
        <time>2016-09-10T14:07:29Z</time>
      </trkpt>
      <trkpt lat="50.18168" lon="1.64422">
        <ele>7</ele>
        <time>2016-09-10T14:07:55Z</time>
      </trkpt>
      <trkpt lat="50.18163" lon="1.64426">
        <ele>6</ele>
        <time>2016-09-10T14:08:01Z</time>
      </trkpt>
      <trkpt lat="50.18158" lon="1.64421">
        <ele>6</ele>
        <time>2016-09-10T14:08:23Z</time>
      </trkpt>
      <trkpt lat="50.18154" lon="1.64417">
        <ele>8</ele>
        <time>2016-09-10T14:08:27Z</time>
      </trkpt>
      <trkpt lat="50.18149" lon="1.64416">
        <ele>8</ele>
        <time>2016-09-10T14:08:29Z</time>
      </trkpt>
      <trkpt lat="50.18144" lon="1.64417">
        <ele>8</ele>
        <time>2016-09-10T14:08:31Z</time>
      </trkpt>
      <trkpt lat="50.18138" lon="1.64416">
        <ele>8</ele>
        <time>2016-09-10T14:08:33Z</time>
      </trkpt>
      <trkpt lat="50.18133" lon="1.64416">
        <ele>8</ele>
        <time>2016-09-10T14:08:35Z</time>
      </trkpt>
      <trkpt lat="50.18127" lon="1.64416">
        <ele>8</ele>
        <time>2016-09-10T14:08:37Z</time>
      </trkpt>
      <trkpt lat="50.18121" lon="1.64416">
        <ele>8</ele>
        <time>2016-09-10T14:08:39Z</time>
      </trkpt>
      <trkpt lat="50.18115" lon="1.64417">
        <ele>5</ele>
        <time>2016-09-10T14:08:41Z</time>
      </trkpt>
      <trkpt lat="50.18109" lon="1.64418">
        <ele>5</ele>
        <time>2016-09-10T14:08:43Z</time>
      </trkpt>
      <trkpt lat="50.18103" lon="1.6442">
        <ele>5</ele>
        <time>2016-09-10T14:08:45Z</time>
      </trkpt>
      <trkpt lat="50.18097" lon="1.64422">
        <ele>5</ele>
        <time>2016-09-10T14:08:47Z</time>
      </trkpt>
      <trkpt lat="50.18091" lon="1.64423">
        <ele>5</ele>
        <time>2016-09-10T14:08:49Z</time>
      </trkpt>
      <trkpt lat="50.18085" lon="1.64423">
        <ele>5</ele>
        <time>2016-09-10T14:08:51Z</time>
      </trkpt>
      <trkpt lat="50.18078" lon="1.64424">
        <ele>5</ele>
        <time>2016-09-10T14:08:53Z</time>
      </trkpt>
      <trkpt lat="50.18071" lon="1.64425">
        <ele>5</ele>
        <time>2016-09-10T14:08:55Z</time>
      </trkpt>
      <trkpt lat="50.18065" lon="1.64426">
        <ele>4</ele>
        <time>2016-09-10T14:08:57Z</time>
      </trkpt>
      <trkpt lat="50.18059" lon="1.64429">
        <ele>4</ele>
        <time>2016-09-10T14:08:59Z</time>
      </trkpt>
      <trkpt lat="50.18053" lon="1.64432">
        <ele>4</ele>
        <time>2016-09-10T14:09:01Z</time>
      </trkpt>
      <trkpt lat="50.18047" lon="1.64434">
        <ele>4</ele>
        <time>2016-09-10T14:09:03Z</time>
      </trkpt>
      <trkpt lat="50.18043" lon="1.64435">
        <ele>4</ele>
        <time>2016-09-10T14:09:05Z</time>
      </trkpt>
      <trkpt lat="50.18036" lon="1.64439">
        <ele>3</ele>
        <time>2016-09-10T14:09:09Z</time>
      </trkpt>
      <trkpt lat="50.18031" lon="1.6444">
        <ele>3</ele>
        <time>2016-09-10T14:09:13Z</time>
      </trkpt>
      <trkpt lat="50.18025" lon="1.64442">
        <ele>3</ele>
        <time>2016-09-10T14:09:17Z</time>
      </trkpt>
      <trkpt lat="50.18017" lon="1.64442">
        <ele>3</ele>
        <time>2016-09-10T14:09:21Z</time>
      </trkpt>
      <trkpt lat="50.18012" lon="1.64444">
        <ele>3</ele>
        <time>2016-09-10T14:09:23Z</time>
      </trkpt>
      <trkpt lat="50.18008" lon="1.64447">
        <ele>3</ele>
        <time>2016-09-10T14:09:25Z</time>
      </trkpt>
      <trkpt lat="50.18003" lon="1.6445">
        <ele>3</ele>
        <time>2016-09-10T14:09:27Z</time>
      </trkpt>
      <trkpt lat="50.17999" lon="1.64452">
        <ele>3</ele>
        <time>2016-09-10T14:09:29Z</time>
      </trkpt>
      <trkpt lat="50.17994" lon="1.64453">
        <ele>3</ele>
        <time>2016-09-10T14:09:31Z</time>
      </trkpt>
      <trkpt lat="50.17989" lon="1.64455">
        <ele>3</ele>
        <time>2016-09-10T14:09:33Z</time>
      </trkpt>
      <trkpt lat="50.17984" lon="1.64457">
        <ele>3</ele>
        <time>2016-09-10T14:09:35Z</time>
      </trkpt>
      <trkpt lat="50.17979" lon="1.64458">
        <ele>3</ele>
        <time>2016-09-10T14:09:37Z</time>
      </trkpt>
      <trkpt lat="50.17973" lon="1.6446">
        <ele>3</ele>
        <time>2016-09-10T14:09:39Z</time>
      </trkpt>
      <trkpt lat="50.17968" lon="1.64463">
        <ele>3</ele>
        <time>2016-09-10T14:09:41Z</time>
      </trkpt>
      <trkpt lat="50.17963" lon="1.64466">
        <ele>3</ele>
        <time>2016-09-10T14:09:43Z</time>
      </trkpt>
      <trkpt lat="50.17959" lon="1.6447">
        <ele>3</ele>
        <time>2016-09-10T14:09:45Z</time>
      </trkpt>
      <trkpt lat="50.17954" lon="1.64473">
        <ele>3</ele>
        <time>2016-09-10T14:09:47Z</time>
      </trkpt>
      <trkpt lat="50.17949" lon="1.64471">
        <ele>3</ele>
        <time>2016-09-10T14:09:49Z</time>
      </trkpt>
      <trkpt lat="50.17946" lon="1.64465">
        <ele>3</ele>
        <time>2016-09-10T14:09:51Z</time>
      </trkpt>
      <trkpt lat="50.17947" lon="1.64457">
        <ele>3</ele>
        <time>2016-09-10T14:09:53Z</time>
      </trkpt>
      <trkpt lat="50.17949" lon="1.64451">
        <ele>3</ele>
        <time>2016-09-10T14:09:55Z</time>
      </trkpt>
      <trkpt lat="50.17954" lon="1.64446">
        <ele>3</ele>
        <time>2016-09-10T14:09:57Z</time>
      </trkpt>
      <trkpt lat="50.17958" lon="1.6444">
        <ele>4</ele>
        <time>2016-09-10T14:09:59Z</time>
      </trkpt>
      <trkpt lat="50.17961" lon="1.64433">
        <ele>4</ele>
        <time>2016-09-10T14:10:01Z</time>
      </trkpt>
      <trkpt lat="50.17964" lon="1.64425">
        <ele>4</ele>
        <time>2016-09-10T14:10:03Z</time>
      </trkpt>
      <trkpt lat="50.17967" lon="1.64417">
        <ele>4</ele>
        <time>2016-09-10T14:10:05Z</time>
      </trkpt>
      <trkpt lat="50.17969" lon="1.64409">
        <ele>5</ele>
        <time>2016-09-10T14:10:07Z</time>
      </trkpt>
      <trkpt lat="50.17971" lon="1.64401">
        <ele>5</ele>
        <time>2016-09-10T14:10:09Z</time>
      </trkpt>
      <trkpt lat="50.17973" lon="1.64392">
        <ele>5</ele>
        <time>2016-09-10T14:10:11Z</time>
      </trkpt>
      <trkpt lat="50.17972" lon="1.64383">
        <ele>5</ele>
        <time>2016-09-10T14:10:13Z</time>
      </trkpt>
      <trkpt lat="50.17968" lon="1.64376">
        <ele>5</ele>
        <time>2016-09-10T14:10:15Z</time>
      </trkpt>
      <trkpt lat="50.17962" lon="1.64372">
        <ele>6</ele>
        <time>2016-09-10T14:10:17Z</time>
      </trkpt>
      <trkpt lat="50.17957" lon="1.6437">
        <ele>6</ele>
        <time>2016-09-10T14:10:19Z</time>
      </trkpt>
      <trkpt lat="50.17951" lon="1.64369">
        <ele>6</ele>
        <time>2016-09-10T14:10:21Z</time>
      </trkpt>
      <trkpt lat="50.17945" lon="1.64368">
        <ele>6</ele>
        <time>2016-09-10T14:10:23Z</time>
      </trkpt>
      <trkpt lat="50.17939" lon="1.64366">
        <ele>6</ele>
        <time>2016-09-10T14:10:25Z</time>
      </trkpt>
      <trkpt lat="50.17934" lon="1.64365">
        <ele>6</ele>
        <time>2016-09-10T14:10:27Z</time>
      </trkpt>
      <trkpt lat="50.17928" lon="1.64363">
        <ele>6</ele>
        <time>2016-09-10T14:10:29Z</time>
      </trkpt>
      <trkpt lat="50.17922" lon="1.64362">
        <ele>6</ele>
        <time>2016-09-10T14:10:31Z</time>
      </trkpt>
      <trkpt lat="50.17916" lon="1.64361">
        <ele>6</ele>
        <time>2016-09-10T14:10:33Z</time>
      </trkpt>
      <trkpt lat="50.17908" lon="1.6436">
        <ele>6</ele>
        <time>2016-09-10T14:10:35Z</time>
      </trkpt>
      <trkpt lat="50.179" lon="1.64359">
        <ele>6</ele>
        <time>2016-09-10T14:10:37Z</time>
      </trkpt>
      <trkpt lat="50.17892" lon="1.64358">
        <ele>6</ele>
        <time>2016-09-10T14:10:39Z</time>
      </trkpt>
      <trkpt lat="50.17886" lon="1.64356">
        <ele>6</ele>
        <time>2016-09-10T14:10:41Z</time>
      </trkpt>
      <trkpt lat="50.17879" lon="1.64355">
        <ele>6</ele>
        <time>2016-09-10T14:10:43Z</time>
      </trkpt>
      <trkpt lat="50.17873" lon="1.64353">
        <ele>6</ele>
        <time>2016-09-10T14:10:45Z</time>
      </trkpt>
      <trkpt lat="50.17868" lon="1.64351">
        <ele>6</ele>
        <time>2016-09-10T14:10:47Z</time>
      </trkpt>
      <trkpt lat="50.17862" lon="1.64348">
        <ele>6</ele>
        <time>2016-09-10T14:10:49Z</time>
      </trkpt>
      <trkpt lat="50.17856" lon="1.64346">
        <ele>6</ele>
        <time>2016-09-10T14:10:51Z</time>
      </trkpt>
      <trkpt lat="50.17851" lon="1.64344">
        <ele>6</ele>
        <time>2016-09-10T14:10:53Z</time>
      </trkpt>
      <trkpt lat="50.17845" lon="1.64342">
        <ele>7</ele>
        <time>2016-09-10T14:10:55Z</time>
      </trkpt>
      <trkpt lat="50.1784" lon="1.6434">
        <ele>7</ele>
        <time>2016-09-10T14:10:57Z</time>
      </trkpt>
      <trkpt lat="50.17834" lon="1.64339">
        <ele>7</ele>
        <time>2016-09-10T14:10:59Z</time>
      </trkpt>
      <trkpt lat="50.17829" lon="1.64336">
        <ele>7</ele>
        <time>2016-09-10T14:11:01Z</time>
      </trkpt>
      <trkpt lat="50.17823" lon="1.64334">
        <ele>8</ele>
        <time>2016-09-10T14:11:03Z</time>
      </trkpt>
      <trkpt lat="50.17818" lon="1.6433">
        <ele>9</ele>
        <time>2016-09-10T14:11:05Z</time>
      </trkpt>
      <trkpt lat="50.17812" lon="1.64328">
        <ele>9</ele>
        <time>2016-09-10T14:11:07Z</time>
      </trkpt>
      <trkpt lat="50.17807" lon="1.64326">
        <ele>9</ele>
        <time>2016-09-10T14:11:09Z</time>
      </trkpt>
      <trkpt lat="50.17801" lon="1.64324">
        <ele>9</ele>
        <time>2016-09-10T14:11:11Z</time>
      </trkpt>
      <trkpt lat="50.17796" lon="1.64323">
        <ele>10</ele>
        <time>2016-09-10T14:11:13Z</time>
      </trkpt>
      <trkpt lat="50.1779" lon="1.64321">
        <ele>10</ele>
        <time>2016-09-10T14:11:15Z</time>
      </trkpt>
      <trkpt lat="50.17784" lon="1.64318">
        <ele>10</ele>
        <time>2016-09-10T14:11:17Z</time>
      </trkpt>
      <trkpt lat="50.17779" lon="1.64315">
        <ele>10</ele>
        <time>2016-09-10T14:11:19Z</time>
      </trkpt>
      <trkpt lat="50.17773" lon="1.6431">
        <ele>10</ele>
        <time>2016-09-10T14:11:21Z</time>
      </trkpt>
      <trkpt lat="50.17767" lon="1.64307">
        <ele>11</ele>
        <time>2016-09-10T14:11:23Z</time>
      </trkpt>
      <trkpt lat="50.17761" lon="1.64304">
        <ele>11</ele>
        <time>2016-09-10T14:11:25Z</time>
      </trkpt>
      <trkpt lat="50.17755" lon="1.643">
        <ele>11</ele>
        <time>2016-09-10T14:11:27Z</time>
      </trkpt>
      <trkpt lat="50.1775" lon="1.64296">
        <ele>11</ele>
        <time>2016-09-10T14:11:29Z</time>
      </trkpt>
      <trkpt lat="50.17745" lon="1.64291">
        <ele>13</ele>
        <time>2016-09-10T14:11:31Z</time>
      </trkpt>
      <trkpt lat="50.1774" lon="1.64285">
        <ele>13</ele>
        <time>2016-09-10T14:11:33Z</time>
      </trkpt>
      <trkpt lat="50.17735" lon="1.6428">
        <ele>13</ele>
        <time>2016-09-10T14:11:35Z</time>
      </trkpt>
      <trkpt lat="50.1773" lon="1.64274">
        <ele>13</ele>
        <time>2016-09-10T14:11:37Z</time>
      </trkpt>
      <trkpt lat="50.17727" lon="1.64266">
        <ele>13</ele>
        <time>2016-09-10T14:11:39Z</time>
      </trkpt>
      <trkpt lat="50.17724" lon="1.64259">
        <ele>14</ele>
        <time>2016-09-10T14:11:41Z</time>
      </trkpt>
      <trkpt lat="50.17721" lon="1.64251">
        <ele>14</ele>
        <time>2016-09-10T14:11:43Z</time>
      </trkpt>
      <trkpt lat="50.17718" lon="1.64245">
        <ele>14</ele>
        <time>2016-09-10T14:11:45Z</time>
      </trkpt>
      <trkpt lat="50.17715" lon="1.64239">
        <ele>14</ele>
        <time>2016-09-10T14:11:47Z</time>
      </trkpt>
      <trkpt lat="50.17712" lon="1.64233">
        <ele>14</ele>
        <time>2016-09-10T14:11:49Z</time>
      </trkpt>
      <trkpt lat="50.1771" lon="1.64227">
        <ele>14</ele>
        <time>2016-09-10T14:11:51Z</time>
      </trkpt>
      <trkpt lat="50.17707" lon="1.64221">
        <ele>14</ele>
        <time>2016-09-10T14:11:53Z</time>
      </trkpt>
      <trkpt lat="50.17704" lon="1.64215">
        <ele>14</ele>
        <time>2016-09-10T14:11:55Z</time>
      </trkpt>
      <trkpt lat="50.17697" lon="1.64206">
        <ele>14</ele>
        <time>2016-09-10T14:11:59Z</time>
      </trkpt>
      <trkpt lat="50.17694" lon="1.64201">
        <ele>14</ele>
        <time>2016-09-10T14:12:01Z</time>
      </trkpt>
      <trkpt lat="50.17689" lon="1.6419">
        <ele>14</ele>
        <time>2016-09-10T14:12:05Z</time>
      </trkpt>
      <trkpt lat="50.17686" lon="1.64184">
        <ele>14</ele>
        <time>2016-09-10T14:12:07Z</time>
      </trkpt>
      <trkpt lat="50.17683" lon="1.64179">
        <ele>14</ele>
        <time>2016-09-10T14:12:09Z</time>
      </trkpt>
      <trkpt lat="50.17679" lon="1.64173">
        <ele>14</ele>
        <time>2016-09-10T14:12:11Z</time>
      </trkpt>
      <trkpt lat="50.17676" lon="1.64169">
        <ele>14</ele>
        <time>2016-09-10T14:12:13Z</time>
      </trkpt>
      <trkpt lat="50.17673" lon="1.64163">
        <ele>14</ele>
        <time>2016-09-10T14:12:15Z</time>
      </trkpt>
      <trkpt lat="50.1767" lon="1.64157">
        <ele>15</ele>
        <time>2016-09-10T14:12:17Z</time>
      </trkpt>
      <trkpt lat="50.17668" lon="1.64151">
        <ele>15</ele>
        <time>2016-09-10T14:12:19Z</time>
      </trkpt>
      <trkpt lat="50.17665" lon="1.64145">
        <ele>16</ele>
        <time>2016-09-10T14:12:21Z</time>
      </trkpt>
      <trkpt lat="50.17662" lon="1.64139">
        <ele>17</ele>
        <time>2016-09-10T14:12:23Z</time>
      </trkpt>
      <trkpt lat="50.17657" lon="1.64127">
        <ele>17</ele>
        <time>2016-09-10T14:12:27Z</time>
      </trkpt>
      <trkpt lat="50.17654" lon="1.64121">
        <ele>18</ele>
        <time>2016-09-10T14:12:29Z</time>
      </trkpt>
      <trkpt lat="50.17651" lon="1.64116">
        <ele>18</ele>
        <time>2016-09-10T14:12:31Z</time>
      </trkpt>
      <trkpt lat="50.17648" lon="1.6411">
        <ele>18</ele>
        <time>2016-09-10T14:12:33Z</time>
      </trkpt>
      <trkpt lat="50.17644" lon="1.64104">
        <ele>18</ele>
        <time>2016-09-10T14:12:35Z</time>
      </trkpt>
      <trkpt lat="50.17641" lon="1.64098">
        <ele>18</ele>
        <time>2016-09-10T14:12:37Z</time>
      </trkpt>
      <trkpt lat="50.17638" lon="1.64092">
        <ele>18</ele>
        <time>2016-09-10T14:12:39Z</time>
      </trkpt>
      <trkpt lat="50.17636" lon="1.64086">
        <ele>18</ele>
        <time>2016-09-10T14:12:41Z</time>
      </trkpt>
      <trkpt lat="50.17633" lon="1.6408">
        <ele>20</ele>
        <time>2016-09-10T14:12:43Z</time>
      </trkpt>
      <trkpt lat="50.1763" lon="1.64075">
        <ele>20</ele>
        <time>2016-09-10T14:12:45Z</time>
      </trkpt>
      <trkpt lat="50.17626" lon="1.64069">
        <ele>20</ele>
        <time>2016-09-10T14:12:47Z</time>
      </trkpt>
      <trkpt lat="50.1762" lon="1.6406">
        <ele>20</ele>
        <time>2016-09-10T14:12:51Z</time>
      </trkpt>
      <trkpt lat="50.17616" lon="1.64054">
        <ele>20</ele>
        <time>2016-09-10T14:12:53Z</time>
      </trkpt>
      <trkpt lat="50.17613" lon="1.64048">
        <ele>20</ele>
        <time>2016-09-10T14:12:55Z</time>
      </trkpt>
      <trkpt lat="50.17609" lon="1.64043">
        <ele>20</ele>
        <time>2016-09-10T14:12:57Z</time>
      </trkpt>
      <trkpt lat="50.17606" lon="1.64037">
        <ele>20</ele>
        <time>2016-09-10T14:12:59Z</time>
      </trkpt>
      <trkpt lat="50.17603" lon="1.64032">
        <ele>20</ele>
        <time>2016-09-10T14:13:01Z</time>
      </trkpt>
      <trkpt lat="50.17599" lon="1.64027">
        <ele>21</ele>
        <time>2016-09-10T14:13:03Z</time>
      </trkpt>
      <trkpt lat="50.17596" lon="1.64022">
        <ele>21</ele>
        <time>2016-09-10T14:13:05Z</time>
      </trkpt>
      <trkpt lat="50.17592" lon="1.64016">
        <ele>21</ele>
        <time>2016-09-10T14:13:07Z</time>
      </trkpt>
      <trkpt lat="50.17589" lon="1.64009">
        <ele>21</ele>
        <time>2016-09-10T14:13:09Z</time>
      </trkpt>
      <trkpt lat="50.17585" lon="1.64003">
        <ele>21</ele>
        <time>2016-09-10T14:13:11Z</time>
      </trkpt>
      <trkpt lat="50.17582" lon="1.63996">
        <ele>22</ele>
        <time>2016-09-10T14:13:13Z</time>
      </trkpt>
      <trkpt lat="50.17577" lon="1.63989">
        <ele>22</ele>
        <time>2016-09-10T14:13:15Z</time>
      </trkpt>
      <trkpt lat="50.17573" lon="1.63983">
        <ele>23</ele>
        <time>2016-09-10T14:13:17Z</time>
      </trkpt>
      <trkpt lat="50.1757" lon="1.63977">
        <ele>23</ele>
        <time>2016-09-10T14:13:19Z</time>
      </trkpt>
      <trkpt lat="50.17566" lon="1.6397">
        <ele>23</ele>
        <time>2016-09-10T14:13:21Z</time>
      </trkpt>
      <trkpt lat="50.17563" lon="1.63964">
        <ele>24</ele>
        <time>2016-09-10T14:13:23Z</time>
      </trkpt>
      <trkpt lat="50.17559" lon="1.63958">
        <ele>24</ele>
        <time>2016-09-10T14:13:25Z</time>
      </trkpt>
      <trkpt lat="50.17555" lon="1.63951">
        <ele>24</ele>
        <time>2016-09-10T14:13:27Z</time>
      </trkpt>
      <trkpt lat="50.17551" lon="1.63945">
        <ele>24</ele>
        <time>2016-09-10T14:13:29Z</time>
      </trkpt>
      <trkpt lat="50.17546" lon="1.63938">
        <ele>24</ele>
        <time>2016-09-10T14:13:31Z</time>
      </trkpt>
      <trkpt lat="50.17543" lon="1.63931">
        <ele>24</ele>
        <time>2016-09-10T14:13:33Z</time>
      </trkpt>
      <trkpt lat="50.17538" lon="1.63925">
        <ele>24</ele>
        <time>2016-09-10T14:13:35Z</time>
      </trkpt>
      <trkpt lat="50.17534" lon="1.6392">
        <ele>25</ele>
        <time>2016-09-10T14:13:37Z</time>
      </trkpt>
      <trkpt lat="50.1753" lon="1.63915">
        <ele>26</ele>
        <time>2016-09-10T14:13:39Z</time>
      </trkpt>
      <trkpt lat="50.17525" lon="1.6391">
        <ele>26</ele>
        <time>2016-09-10T14:13:41Z</time>
      </trkpt>
      <trkpt lat="50.1752" lon="1.63905">
        <ele>26</ele>
        <time>2016-09-10T14:13:43Z</time>
      </trkpt>
      <trkpt lat="50.17515" lon="1.63901">
        <ele>26</ele>
        <time>2016-09-10T14:13:45Z</time>
      </trkpt>
      <trkpt lat="50.17511" lon="1.63895">
        <ele>26</ele>
        <time>2016-09-10T14:13:47Z</time>
      </trkpt>
      <trkpt lat="50.17508" lon="1.63889">
        <ele>26</ele>
        <time>2016-09-10T14:13:49Z</time>
      </trkpt>
      <trkpt lat="50.17505" lon="1.63883">
        <ele>26</ele>
        <time>2016-09-10T14:13:51Z</time>
      </trkpt>
      <trkpt lat="50.175" lon="1.63878">
        <ele>26</ele>
        <time>2016-09-10T14:13:53Z</time>
      </trkpt>
      <trkpt lat="50.17496" lon="1.63873">
        <ele>25</ele>
        <time>2016-09-10T14:13:55Z</time>
      </trkpt>
      <trkpt lat="50.17492" lon="1.63868">
        <ele>25</ele>
        <time>2016-09-10T14:13:57Z</time>
      </trkpt>
      <trkpt lat="50.17489" lon="1.63863">
        <ele>25</ele>
        <time>2016-09-10T14:13:59Z</time>
      </trkpt>
      <trkpt lat="50.17485" lon="1.63858">
        <ele>25</ele>
        <time>2016-09-10T14:14:01Z</time>
      </trkpt>
      <trkpt lat="50.1748" lon="1.63853">
        <ele>25</ele>
        <time>2016-09-10T14:14:03Z</time>
      </trkpt>
      <trkpt lat="50.17476" lon="1.63848">
        <ele>25</ele>
        <time>2016-09-10T14:14:05Z</time>
      </trkpt>
      <trkpt lat="50.17473" lon="1.63843">
        <ele>25</ele>
        <time>2016-09-10T14:14:07Z</time>
      </trkpt>
      <trkpt lat="50.17467" lon="1.63833">
        <ele>26</ele>
        <time>2016-09-10T14:14:11Z</time>
      </trkpt>
      <trkpt lat="50.17461" lon="1.63824">
        <ele>26</ele>
        <time>2016-09-10T14:14:15Z</time>
      </trkpt>
      <trkpt lat="50.17454" lon="1.63815">
        <ele>26</ele>
        <time>2016-09-10T14:14:19Z</time>
      </trkpt>
      <trkpt lat="50.17448" lon="1.63809">
        <ele>26</ele>
        <time>2016-09-10T14:14:23Z</time>
      </trkpt>
      <trkpt lat="50.17443" lon="1.63813">
        <ele>26</ele>
        <time>2016-09-10T14:14:29Z</time>
      </trkpt>
      <trkpt lat="50.17439" lon="1.63824">
        <ele>26</ele>
        <time>2016-09-10T14:14:33Z</time>
      </trkpt>
      <trkpt lat="50.17432" lon="1.63832">
        <ele>26</ele>
        <time>2016-09-10T14:14:37Z</time>
      </trkpt>
      <trkpt lat="50.17427" lon="1.63833">
        <ele>25</ele>
        <time>2016-09-10T14:14:39Z</time>
      </trkpt>
      <trkpt lat="50.17422" lon="1.63832">
        <ele>25</ele>
        <time>2016-09-10T14:14:41Z</time>
      </trkpt>
      <trkpt lat="50.17418" lon="1.63829">
        <ele>25</ele>
        <time>2016-09-10T14:14:43Z</time>
      </trkpt>
      <trkpt lat="50.17413" lon="1.63824">
        <ele>25</ele>
        <time>2016-09-10T14:14:45Z</time>
      </trkpt>
      <trkpt lat="50.17408" lon="1.6382">
        <ele>25</ele>
        <time>2016-09-10T14:14:47Z</time>
      </trkpt>
      <trkpt lat="50.17404" lon="1.63815">
        <ele>26</ele>
        <time>2016-09-10T14:14:49Z</time>
      </trkpt>
      <trkpt lat="50.17399" lon="1.63812">
        <ele>26</ele>
        <time>2016-09-10T14:14:51Z</time>
      </trkpt>
      <trkpt lat="50.17395" lon="1.63809">
        <ele>26</ele>
        <time>2016-09-10T14:15:27Z</time>
      </trkpt>
      <trkpt lat="50.17391" lon="1.63808">
        <ele>26</ele>
        <time>2016-09-10T14:15:55Z</time>
      </trkpt>
    </trkseg>
  </trk>
</gpx>